<?xml version="1.0" encoding="UTF-8" standalone="no" ?>
<gpx xmlns="http://www.topografix.com/GPX/1/1" xmlns:xsi="http://www.w3.org/2001/XMLSchema-instance" xsi:schemaLocation="http://www.topografix.com/GPX/1/1 http://www.topografix.com/GPX/1/1/gpx.xsd" version="1.1" creator="VisuGPX - https://www.visugpx.com">
  <metadata>
    <name>TDLF 245</name>
  </metadata>
  <trk>
    <name><![CDATA[12982753-TDLF_repli_2021]]></name>
    <trkseg>
      <trkpt lat="45.4619" lon="4.38906">
        <ele>488</ele>
        <time>2021-06-10T16:23:09Z</time>
      </trkpt>
      <trkpt lat="45.46209" lon="4.38934">
        <ele>488</ele>
        <time>2021-06-10T16:23:14Z</time>
      </trkpt>
      <trkpt lat="45.46222" lon="4.38944">
        <ele>487</ele>
        <time>2021-06-10T16:23:16Z</time>
      </trkpt>
      <trkpt lat="45.46257" lon="4.38951">
        <ele>487</ele>
        <time>2021-06-10T16:23:23Z</time>
      </trkpt>
      <trkpt lat="45.46485" lon="4.3896">
        <ele>485</ele>
        <time>2021-06-10T16:24:03Z</time>
      </trkpt>
      <trkpt lat="45.46503" lon="4.38958">
        <ele>485</ele>
        <time>2021-06-10T16:24:07Z</time>
      </trkpt>
      <trkpt lat="45.46564" lon="4.38932">
        <ele>484</ele>
        <time>2021-06-10T16:24:18Z</time>
      </trkpt>
      <trkpt lat="45.46573" lon="4.38926">
        <ele>483</ele>
        <time>2021-06-10T16:24:20Z</time>
      </trkpt>
      <trkpt lat="45.46623" lon="4.38875">
        <ele>482</ele>
        <time>2021-06-10T16:24:31Z</time>
      </trkpt>
      <trkpt lat="45.46646" lon="4.38865">
        <ele>482</ele>
        <time>2021-06-10T16:24:35Z</time>
      </trkpt>
      <trkpt lat="45.46651" lon="4.38845">
        <ele>482</ele>
        <time>2021-06-10T16:24:38Z</time>
      </trkpt>
      <trkpt lat="45.46961" lon="4.38809">
        <ele>475</ele>
        <time>2021-06-10T16:25:33Z</time>
      </trkpt>
      <trkpt lat="45.47208" lon="4.38772">
        <ele>473</ele>
        <time>2021-06-10T16:26:17Z</time>
      </trkpt>
      <trkpt lat="45.47331" lon="4.38766">
        <ele>471</ele>
        <time>2021-06-10T16:26:39Z</time>
      </trkpt>
      <trkpt lat="45.4741" lon="4.38802">
        <ele>471</ele>
        <time>2021-06-10T16:26:54Z</time>
      </trkpt>
      <trkpt lat="45.47524" lon="4.38838">
        <ele>474</ele>
        <time>2021-06-10T16:27:14Z</time>
      </trkpt>
      <trkpt lat="45.47664" lon="4.3881">
        <ele>473</ele>
        <time>2021-06-10T16:27:40Z</time>
      </trkpt>
      <trkpt lat="45.47793" lon="4.38772">
        <ele>477</ele>
        <time>2021-06-10T16:28:03Z</time>
      </trkpt>
      <trkpt lat="45.47964" lon="4.387">
        <ele>474</ele>
        <time>2021-06-10T16:28:35Z</time>
      </trkpt>
      <trkpt lat="45.4802" lon="4.38693">
        <ele>471</ele>
        <time>2021-06-10T16:28:45Z</time>
      </trkpt>
      <trkpt lat="45.4813" lon="4.38721">
        <ele>464</ele>
        <time>2021-06-10T16:29:05Z</time>
      </trkpt>
      <trkpt lat="45.48151" lon="4.38708">
        <ele>462</ele>
        <time>2021-06-10T16:29:09Z</time>
      </trkpt>
      <trkpt lat="45.48223" lon="4.38893">
        <ele>467</ele>
        <time>2021-06-10T16:29:35Z</time>
      </trkpt>
      <trkpt lat="45.48298" lon="4.38729">
        <ele>468</ele>
        <time>2021-06-10T16:30:00Z</time>
      </trkpt>
      <trkpt lat="45.48395" lon="4.38575">
        <ele>465</ele>
        <time>2021-06-10T16:30:25Z</time>
      </trkpt>
      <trkpt lat="45.48479" lon="4.38362">
        <ele>463</ele>
        <time>2021-06-10T16:30:56Z</time>
      </trkpt>
      <trkpt lat="45.48572" lon="4.38077">
        <ele>457</ele>
        <time>2021-06-10T16:31:35Z</time>
      </trkpt>
      <trkpt lat="45.48589" lon="4.3799">
        <ele>459</ele>
        <time>2021-06-10T16:31:46Z</time>
      </trkpt>
      <trkpt lat="45.48568" lon="4.37873">
        <ele>457</ele>
        <time>2021-06-10T16:32:01Z</time>
      </trkpt>
      <trkpt lat="45.48578" lon="4.37652">
        <ele>453</ele>
        <time>2021-06-10T16:32:29Z</time>
      </trkpt>
      <trkpt lat="45.48587" lon="4.37323">
        <ele>453</ele>
        <time>2021-06-10T16:33:10Z</time>
      </trkpt>
      <trkpt lat="45.48499" lon="4.36984">
        <ele>456</ele>
        <time>2021-06-10T16:33:55Z</time>
      </trkpt>
      <trkpt lat="45.48477" lon="4.36697">
        <ele>458</ele>
        <time>2021-06-10T16:34:31Z</time>
      </trkpt>
      <trkpt lat="45.48422" lon="4.36285">
        <ele>451</ele>
        <time>2021-06-10T16:35:24Z</time>
      </trkpt>
      <trkpt lat="45.48384" lon="4.36074">
        <ele>456</ele>
        <time>2021-06-10T16:35:51Z</time>
      </trkpt>
      <trkpt lat="45.48286" lon="4.35769">
        <ele>449</ele>
        <time>2021-06-10T16:36:33Z</time>
      </trkpt>
      <trkpt lat="45.48253" lon="4.35514">
        <ele>449</ele>
        <time>2021-06-10T16:37:05Z</time>
      </trkpt>
      <trkpt lat="45.48212" lon="4.35386">
        <ele>448</ele>
        <time>2021-06-10T16:37:23Z</time>
      </trkpt>
      <trkpt lat="45.48189" lon="4.35253">
        <ele>446</ele>
        <time>2021-06-10T16:37:40Z</time>
      </trkpt>
      <trkpt lat="45.48188" lon="4.35129">
        <ele>442</ele>
        <time>2021-06-10T16:37:55Z</time>
      </trkpt>
      <trkpt lat="45.48217" lon="4.34984">
        <ele>442</ele>
        <time>2021-06-10T16:38:14Z</time>
      </trkpt>
      <trkpt lat="45.48252" lon="4.34912">
        <ele>444</ele>
        <time>2021-06-10T16:38:25Z</time>
      </trkpt>
      <trkpt lat="45.48318" lon="4.34786">
        <ele>445</ele>
        <time>2021-06-10T16:38:44Z</time>
      </trkpt>
      <trkpt lat="45.48361" lon="4.34687">
        <ele>445</ele>
        <time>2021-06-10T16:38:59Z</time>
      </trkpt>
      <trkpt lat="45.48404" lon="4.34537">
        <ele>447</ele>
        <time>2021-06-10T16:39:19Z</time>
      </trkpt>
      <trkpt lat="45.48459" lon="4.34329">
        <ele>448</ele>
        <time>2021-06-10T16:39:47Z</time>
      </trkpt>
      <trkpt lat="45.48466" lon="4.34276">
        <ele>449</ele>
        <time>2021-06-10T16:39:54Z</time>
      </trkpt>
      <trkpt lat="45.4847" lon="4.34206">
        <ele>452</ele>
        <time>2021-06-10T16:40:02Z</time>
      </trkpt>
      <trkpt lat="45.48453" lon="4.33981">
        <ele>449</ele>
        <time>2021-06-10T16:40:31Z</time>
      </trkpt>
      <trkpt lat="45.48455" lon="4.33912">
        <ele>453</ele>
        <time>2021-06-10T16:40:39Z</time>
      </trkpt>
      <trkpt lat="45.48462" lon="4.33867">
        <ele>453</ele>
        <time>2021-06-10T16:40:45Z</time>
      </trkpt>
      <trkpt lat="45.48488" lon="4.33761">
        <ele>453</ele>
        <time>2021-06-10T16:40:59Z</time>
      </trkpt>
      <trkpt lat="45.48528" lon="4.33625">
        <ele>449</ele>
        <time>2021-06-10T16:41:17Z</time>
      </trkpt>
      <trkpt lat="45.48545" lon="4.33584">
        <ele>450</ele>
        <time>2021-06-10T16:41:23Z</time>
      </trkpt>
      <trkpt lat="45.48579" lon="4.33515">
        <ele>447</ele>
        <time>2021-06-10T16:41:34Z</time>
      </trkpt>
      <trkpt lat="45.48685" lon="4.33341">
        <ele>442</ele>
        <time>2021-06-10T16:42:03Z</time>
      </trkpt>
      <trkpt lat="45.48795" lon="4.33118">
        <ele>436</ele>
        <time>2021-06-10T16:42:37Z</time>
      </trkpt>
      <trkpt lat="45.49006" lon="4.32648">
        <ele>430</ele>
        <time>2021-06-10T16:43:46Z</time>
      </trkpt>
      <trkpt lat="45.49064" lon="4.3254">
        <ele>430</ele>
        <time>2021-06-10T16:44:03Z</time>
      </trkpt>
      <trkpt lat="45.49106" lon="4.32472">
        <ele>425</ele>
        <time>2021-06-10T16:44:15Z</time>
      </trkpt>
      <trkpt lat="45.49172" lon="4.32385">
        <ele>424</ele>
        <time>2021-06-10T16:44:31Z</time>
      </trkpt>
      <trkpt lat="45.4926" lon="4.32293">
        <ele>421</ele>
        <time>2021-06-10T16:44:50Z</time>
      </trkpt>
      <trkpt lat="45.49394" lon="4.32163">
        <ele>415</ele>
        <time>2021-06-10T16:45:19Z</time>
      </trkpt>
      <trkpt lat="45.49706" lon="4.31871">
        <ele>410</ele>
        <time>2021-06-10T16:46:25Z</time>
      </trkpt>
      <trkpt lat="45.49825" lon="4.31747">
        <ele>407</ele>
        <time>2021-06-10T16:46:51Z</time>
      </trkpt>
      <trkpt lat="45.49867" lon="4.31697">
        <ele>407</ele>
        <time>2021-06-10T16:47:01Z</time>
      </trkpt>
      <trkpt lat="45.49952" lon="4.31564">
        <ele>408</ele>
        <time>2021-06-10T16:47:24Z</time>
      </trkpt>
      <trkpt lat="45.50213" lon="4.31113">
        <ele>407</ele>
        <time>2021-06-10T16:48:36Z</time>
      </trkpt>
      <trkpt lat="45.50431" lon="4.30802">
        <ele>410</ele>
        <time>2021-06-10T16:49:31Z</time>
      </trkpt>
      <trkpt lat="45.50443" lon="4.3079">
        <ele>410</ele>
        <time>2021-06-10T16:49:34Z</time>
      </trkpt>
      <trkpt lat="45.50501" lon="4.3071">
        <ele>414</ele>
        <time>2021-06-10T16:49:48Z</time>
      </trkpt>
      <trkpt lat="45.50508" lon="4.30704">
        <ele>414</ele>
        <time>2021-06-10T16:49:50Z</time>
      </trkpt>
      <trkpt lat="45.50522" lon="4.30699">
        <ele>416</ele>
        <time>2021-06-10T16:49:52Z</time>
      </trkpt>
      <trkpt lat="45.50528" lon="4.30688">
        <ele>416</ele>
        <time>2021-06-10T16:49:54Z</time>
      </trkpt>
      <trkpt lat="45.50528" lon="4.30677">
        <ele>416</ele>
        <time>2021-06-10T16:49:55Z</time>
      </trkpt>
      <trkpt lat="45.50525" lon="4.30667">
        <ele>416</ele>
        <time>2021-06-10T16:49:57Z</time>
      </trkpt>
      <trkpt lat="45.50513" lon="4.30661">
        <ele>414</ele>
        <time>2021-06-10T16:49:59Z</time>
      </trkpt>
      <trkpt lat="45.50505" lon="4.30644">
        <ele>413</ele>
        <time>2021-06-10T16:50:02Z</time>
      </trkpt>
      <trkpt lat="45.50504" lon="4.30627">
        <ele>413</ele>
        <time>2021-06-10T16:50:04Z</time>
      </trkpt>
      <trkpt lat="45.50509" lon="4.30613">
        <ele>413</ele>
        <time>2021-06-10T16:50:06Z</time>
      </trkpt>
      <trkpt lat="45.50516" lon="4.30605">
        <ele>414</ele>
        <time>2021-06-10T16:50:07Z</time>
      </trkpt>
      <trkpt lat="45.50543" lon="4.30593">
        <ele>417</ele>
        <time>2021-06-10T16:50:12Z</time>
      </trkpt>
      <trkpt lat="45.50548" lon="4.30588">
        <ele>418</ele>
        <time>2021-06-10T16:50:13Z</time>
      </trkpt>
      <trkpt lat="45.50554" lon="4.30576">
        <ele>418</ele>
        <time>2021-06-10T16:50:15Z</time>
      </trkpt>
      <trkpt lat="45.50562" lon="4.30549">
        <ele>419</ele>
        <time>2021-06-10T16:50:19Z</time>
      </trkpt>
      <trkpt lat="45.50618" lon="4.3024">
        <ele>413</ele>
        <time>2021-06-10T16:50:59Z</time>
      </trkpt>
      <trkpt lat="45.50637" lon="4.30069">
        <ele>413</ele>
        <time>2021-06-10T16:51:20Z</time>
      </trkpt>
      <trkpt lat="45.5064" lon="4.30006">
        <ele>411</ele>
        <time>2021-06-10T16:51:28Z</time>
      </trkpt>
      <trkpt lat="45.5064" lon="4.29911">
        <ele>411</ele>
        <time>2021-06-10T16:51:40Z</time>
      </trkpt>
      <trkpt lat="45.50642" lon="4.29866">
        <ele>410</ele>
        <time>2021-06-10T16:51:46Z</time>
      </trkpt>
      <trkpt lat="45.50645" lon="4.29847">
        <ele>410</ele>
        <time>2021-06-10T16:51:48Z</time>
      </trkpt>
      <trkpt lat="45.50658" lon="4.29803">
        <ele>410</ele>
        <time>2021-06-10T16:51:54Z</time>
      </trkpt>
      <trkpt lat="45.50688" lon="4.29669">
        <ele>403</ele>
        <time>2021-06-10T16:52:12Z</time>
      </trkpt>
      <trkpt lat="45.50742" lon="4.29564">
        <ele>401</ele>
        <time>2021-06-10T16:52:28Z</time>
      </trkpt>
      <trkpt lat="45.50751" lon="4.29539">
        <ele>400</ele>
        <time>2021-06-10T16:52:31Z</time>
      </trkpt>
      <trkpt lat="45.50751" lon="4.29516">
        <ele>399</ele>
        <time>2021-06-10T16:52:34Z</time>
      </trkpt>
      <trkpt lat="45.50745" lon="4.29498">
        <ele>398</ele>
        <time>2021-06-10T16:52:37Z</time>
      </trkpt>
      <trkpt lat="45.5069" lon="4.29379">
        <ele>393</ele>
        <time>2021-06-10T16:52:54Z</time>
      </trkpt>
      <trkpt lat="45.50661" lon="4.29306">
        <ele>395</ele>
        <time>2021-06-10T16:53:05Z</time>
      </trkpt>
      <trkpt lat="45.50655" lon="4.29267">
        <ele>400</ele>
        <time>2021-06-10T16:53:10Z</time>
      </trkpt>
      <trkpt lat="45.50657" lon="4.29225">
        <ele>405</ele>
        <time>2021-06-10T16:53:15Z</time>
      </trkpt>
      <trkpt lat="45.50666" lon="4.29192">
        <ele>409</ele>
        <time>2021-06-10T16:53:20Z</time>
      </trkpt>
      <trkpt lat="45.50681" lon="4.29158">
        <ele>410</ele>
        <time>2021-06-10T16:53:25Z</time>
      </trkpt>
      <trkpt lat="45.50702" lon="4.2913">
        <ele>408</ele>
        <time>2021-06-10T16:53:30Z</time>
      </trkpt>
      <trkpt lat="45.50728" lon="4.29105">
        <ele>404</ele>
        <time>2021-06-10T16:53:35Z</time>
      </trkpt>
      <trkpt lat="45.50781" lon="4.29067">
        <ele>399</ele>
        <time>2021-06-10T16:53:46Z</time>
      </trkpt>
      <trkpt lat="45.508" lon="4.2905">
        <ele>398</ele>
        <time>2021-06-10T16:53:50Z</time>
      </trkpt>
      <trkpt lat="45.50816" lon="4.29029">
        <ele>397</ele>
        <time>2021-06-10T16:53:54Z</time>
      </trkpt>
      <trkpt lat="45.50831" lon="4.28999">
        <ele>396</ele>
        <time>2021-06-10T16:53:58Z</time>
      </trkpt>
      <trkpt lat="45.50841" lon="4.28964">
        <ele>396</ele>
        <time>2021-06-10T16:54:03Z</time>
      </trkpt>
      <trkpt lat="45.50844" lon="4.2893">
        <ele>396</ele>
        <time>2021-06-10T16:54:07Z</time>
      </trkpt>
      <trkpt lat="45.50842" lon="4.28897">
        <ele>396</ele>
        <time>2021-06-10T16:54:11Z</time>
      </trkpt>
      <trkpt lat="45.50834" lon="4.28856">
        <ele>396</ele>
        <time>2021-06-10T16:54:17Z</time>
      </trkpt>
      <trkpt lat="45.50809" lon="4.28766">
        <ele>398</ele>
        <time>2021-06-10T16:54:29Z</time>
      </trkpt>
      <trkpt lat="45.50805" lon="4.28741">
        <ele>399</ele>
        <time>2021-06-10T16:54:32Z</time>
      </trkpt>
      <trkpt lat="45.50804" lon="4.28715">
        <ele>399</ele>
        <time>2021-06-10T16:54:35Z</time>
      </trkpt>
      <trkpt lat="45.50814" lon="4.28588">
        <ele>397</ele>
        <time>2021-06-10T16:54:51Z</time>
      </trkpt>
      <trkpt lat="45.50837" lon="4.28452">
        <ele>397</ele>
        <time>2021-06-10T16:55:09Z</time>
      </trkpt>
      <trkpt lat="45.50843" lon="4.28403">
        <ele>396</ele>
        <time>2021-06-10T16:55:15Z</time>
      </trkpt>
      <trkpt lat="45.50849" lon="4.28243">
        <ele>396</ele>
        <time>2021-06-10T16:55:35Z</time>
      </trkpt>
      <trkpt lat="45.50845" lon="4.28194">
        <ele>395</ele>
        <time>2021-06-10T16:55:41Z</time>
      </trkpt>
      <trkpt lat="45.50807" lon="4.28071">
        <ele>397</ele>
        <time>2021-06-10T16:55:58Z</time>
      </trkpt>
      <trkpt lat="45.50801" lon="4.2803">
        <ele>400</ele>
        <time>2021-06-10T16:56:03Z</time>
      </trkpt>
      <trkpt lat="45.50799" lon="4.27988">
        <ele>402</ele>
        <time>2021-06-10T16:56:08Z</time>
      </trkpt>
      <trkpt lat="45.50802" lon="4.27947">
        <ele>405</ele>
        <time>2021-06-10T16:56:13Z</time>
      </trkpt>
      <trkpt lat="45.50809" lon="4.27908">
        <ele>407</ele>
        <time>2021-06-10T16:56:18Z</time>
      </trkpt>
      <trkpt lat="45.50826" lon="4.27857">
        <ele>411</ele>
        <time>2021-06-10T16:56:25Z</time>
      </trkpt>
      <trkpt lat="45.50852" lon="4.2781">
        <ele>413</ele>
        <time>2021-06-10T16:56:33Z</time>
      </trkpt>
      <trkpt lat="45.50902" lon="4.27742">
        <ele>403</ele>
        <time>2021-06-10T16:56:45Z</time>
      </trkpt>
      <trkpt lat="45.50924" lon="4.27706">
        <ele>401</ele>
        <time>2021-06-10T16:56:51Z</time>
      </trkpt>
      <trkpt lat="45.50943" lon="4.27655">
        <ele>404</ele>
        <time>2021-06-10T16:56:58Z</time>
      </trkpt>
      <trkpt lat="45.5095" lon="4.27625">
        <ele>405</ele>
        <time>2021-06-10T16:57:02Z</time>
      </trkpt>
      <trkpt lat="45.50955" lon="4.27588">
        <ele>406</ele>
        <time>2021-06-10T16:57:07Z</time>
      </trkpt>
      <trkpt lat="45.50964" lon="4.27412">
        <ele>406</ele>
        <time>2021-06-10T16:57:29Z</time>
      </trkpt>
      <trkpt lat="45.50969" lon="4.27385">
        <ele>405</ele>
        <time>2021-06-10T16:57:32Z</time>
      </trkpt>
      <trkpt lat="45.50981" lon="4.27344">
        <ele>404</ele>
        <time>2021-06-10T16:57:38Z</time>
      </trkpt>
      <trkpt lat="45.50999" lon="4.27309">
        <ele>406</ele>
        <time>2021-06-10T16:57:43Z</time>
      </trkpt>
      <trkpt lat="45.51019" lon="4.27283">
        <ele>408</ele>
        <time>2021-06-10T16:57:48Z</time>
      </trkpt>
      <trkpt lat="45.51038" lon="4.27265">
        <ele>409</ele>
        <time>2021-06-10T16:57:52Z</time>
      </trkpt>
      <trkpt lat="45.51092" lon="4.27231">
        <ele>408</ele>
        <time>2021-06-10T16:58:03Z</time>
      </trkpt>
      <trkpt lat="45.51118" lon="4.27201">
        <ele>410</ele>
        <time>2021-06-10T16:58:09Z</time>
      </trkpt>
      <trkpt lat="45.51161" lon="4.27113">
        <ele>414</ele>
        <time>2021-06-10T16:58:22Z</time>
      </trkpt>
      <trkpt lat="45.51222" lon="4.27035">
        <ele>415</ele>
        <time>2021-06-10T16:58:37Z</time>
      </trkpt>
      <trkpt lat="45.51295" lon="4.26927">
        <ele>415</ele>
        <time>2021-06-10T16:58:55Z</time>
      </trkpt>
      <trkpt lat="45.51302" lon="4.269">
        <ele>416</ele>
        <time>2021-06-10T16:58:59Z</time>
      </trkpt>
      <trkpt lat="45.51299" lon="4.2687">
        <ele>417</ele>
        <time>2021-06-10T16:59:03Z</time>
      </trkpt>
      <trkpt lat="45.51294" lon="4.26859">
        <ele>418</ele>
        <time>2021-06-10T16:59:04Z</time>
      </trkpt>
      <trkpt lat="45.51261" lon="4.2681">
        <ele>419</ele>
        <time>2021-06-10T16:59:13Z</time>
      </trkpt>
      <trkpt lat="45.5125" lon="4.268">
        <ele>419</ele>
        <time>2021-06-10T16:59:15Z</time>
      </trkpt>
      <trkpt lat="45.51152" lon="4.26739">
        <ele>418</ele>
        <time>2021-06-10T16:59:34Z</time>
      </trkpt>
      <trkpt lat="45.51044" lon="4.26668">
        <ele>413</ele>
        <time>2021-06-10T16:59:55Z</time>
      </trkpt>
      <trkpt lat="45.50997" lon="4.26643">
        <ele>413</ele>
        <time>2021-06-10T17:00:04Z</time>
      </trkpt>
      <trkpt lat="45.50904" lon="4.26606">
        <ele>411</ele>
        <time>2021-06-10T17:00:21Z</time>
      </trkpt>
      <trkpt lat="45.50856" lon="4.2658">
        <ele>410</ele>
        <time>2021-06-10T17:00:31Z</time>
      </trkpt>
      <trkpt lat="45.50728" lon="4.26454">
        <ele>403</ele>
        <time>2021-06-10T17:00:58Z</time>
      </trkpt>
      <trkpt lat="45.50716" lon="4.26434">
        <ele>402</ele>
        <time>2021-06-10T17:01:01Z</time>
      </trkpt>
      <trkpt lat="45.50702" lon="4.26403">
        <ele>401</ele>
        <time>2021-06-10T17:01:06Z</time>
      </trkpt>
      <trkpt lat="45.50709" lon="4.26397">
        <ele>401</ele>
        <time>2021-06-10T17:01:08Z</time>
      </trkpt>
      <trkpt lat="45.50712" lon="4.26375">
        <ele>400</ele>
        <time>2021-06-10T17:01:10Z</time>
      </trkpt>
      <trkpt lat="45.50709" lon="4.26365">
        <ele>400</ele>
        <time>2021-06-10T17:01:12Z</time>
      </trkpt>
      <trkpt lat="45.50703" lon="4.26358">
        <ele>400</ele>
        <time>2021-06-10T17:01:13Z</time>
      </trkpt>
      <trkpt lat="45.50696" lon="4.26356">
        <ele>399</ele>
        <time>2021-06-10T17:01:14Z</time>
      </trkpt>
      <trkpt lat="45.50687" lon="4.26359">
        <ele>399</ele>
        <time>2021-06-10T17:01:16Z</time>
      </trkpt>
      <trkpt lat="45.50681" lon="4.26368">
        <ele>399</ele>
        <time>2021-06-10T17:01:18Z</time>
      </trkpt>
      <trkpt lat="45.50679" lon="4.2638">
        <ele>400</ele>
        <time>2021-06-10T17:01:19Z</time>
      </trkpt>
      <trkpt lat="45.50656" lon="4.26377">
        <ele>399</ele>
        <time>2021-06-10T17:01:23Z</time>
      </trkpt>
      <trkpt lat="45.50635" lon="4.26369">
        <ele>399</ele>
        <time>2021-06-10T17:01:27Z</time>
      </trkpt>
      <trkpt lat="45.50621" lon="4.26357">
        <ele>399</ele>
        <time>2021-06-10T17:01:30Z</time>
      </trkpt>
      <trkpt lat="45.50587" lon="4.26308">
        <ele>397</ele>
        <time>2021-06-10T17:01:39Z</time>
      </trkpt>
      <trkpt lat="45.5056" lon="4.26245">
        <ele>395</ele>
        <time>2021-06-10T17:01:48Z</time>
      </trkpt>
      <trkpt lat="45.50534" lon="4.26212">
        <ele>394</ele>
        <time>2021-06-10T17:01:54Z</time>
      </trkpt>
      <trkpt lat="45.50467" lon="4.26174">
        <ele>392</ele>
        <time>2021-06-10T17:02:07Z</time>
      </trkpt>
      <trkpt lat="45.50452" lon="4.26163">
        <ele>391</ele>
        <time>2021-06-10T17:02:10Z</time>
      </trkpt>
      <trkpt lat="45.50433" lon="4.26142">
        <ele>390</ele>
        <time>2021-06-10T17:02:14Z</time>
      </trkpt>
      <trkpt lat="45.50335" lon="4.2601">
        <ele>374</ele>
        <time>2021-06-10T17:02:38Z</time>
      </trkpt>
      <trkpt lat="45.50329" lon="4.26006">
        <ele>373</ele>
        <time>2021-06-10T17:02:39Z</time>
      </trkpt>
      <trkpt lat="45.50328" lon="4.26">
        <ele>373</ele>
        <time>2021-06-10T17:02:40Z</time>
      </trkpt>
      <trkpt lat="45.50324" lon="4.26">
        <ele>373</ele>
        <time>2021-06-10T17:02:41Z</time>
      </trkpt>
      <trkpt lat="45.50303" lon="4.25965">
        <ele>370</ele>
        <time>2021-06-10T17:02:46Z</time>
      </trkpt>
      <trkpt lat="45.50178" lon="4.25795">
        <ele>370</ele>
        <time>2021-06-10T17:03:17Z</time>
      </trkpt>
      <trkpt lat="45.50166" lon="4.25757">
        <ele>371</ele>
        <time>2021-06-10T17:03:22Z</time>
      </trkpt>
      <trkpt lat="45.5019" lon="4.25538">
        <ele>371</ele>
        <time>2021-06-10T17:03:50Z</time>
      </trkpt>
      <trkpt lat="45.50207" lon="4.25419">
        <ele>371</ele>
        <time>2021-06-10T17:04:05Z</time>
      </trkpt>
      <trkpt lat="45.50197" lon="4.25384">
        <ele>370</ele>
        <time>2021-06-10T17:04:10Z</time>
      </trkpt>
      <trkpt lat="45.50183" lon="4.25358">
        <ele>370</ele>
        <time>2021-06-10T17:04:14Z</time>
      </trkpt>
      <trkpt lat="45.50087" lon="4.24933">
        <ele>373</ele>
        <time>2021-06-10T17:05:10Z</time>
      </trkpt>
      <trkpt lat="45.5008" lon="4.24925">
        <ele>373</ele>
        <time>2021-06-10T17:05:11Z</time>
      </trkpt>
      <trkpt lat="45.50073" lon="4.24924">
        <ele>373</ele>
        <time>2021-06-10T17:05:12Z</time>
      </trkpt>
      <trkpt lat="45.50068" lon="4.24917">
        <ele>373</ele>
        <time>2021-06-10T17:05:14Z</time>
      </trkpt>
      <trkpt lat="45.50067" lon="4.24907">
        <ele>373</ele>
        <time>2021-06-10T17:05:15Z</time>
      </trkpt>
      <trkpt lat="45.50071" lon="4.24899">
        <ele>373</ele>
        <time>2021-06-10T17:05:16Z</time>
      </trkpt>
      <trkpt lat="45.50066" lon="4.24837">
        <ele>372</ele>
        <time>2021-06-10T17:05:24Z</time>
      </trkpt>
      <trkpt lat="45.50019" lon="4.24613">
        <ele>374</ele>
        <time>2021-06-10T17:05:53Z</time>
      </trkpt>
      <trkpt lat="45.49994" lon="4.24516">
        <ele>378</ele>
        <time>2021-06-10T17:06:06Z</time>
      </trkpt>
      <trkpt lat="45.49964" lon="4.24447">
        <ele>385</ele>
        <time>2021-06-10T17:06:16Z</time>
      </trkpt>
      <trkpt lat="45.49944" lon="4.24412">
        <ele>389</ele>
        <time>2021-06-10T17:06:22Z</time>
      </trkpt>
      <trkpt lat="45.49924" lon="4.2439">
        <ele>390</ele>
        <time>2021-06-10T17:06:26Z</time>
      </trkpt>
      <trkpt lat="45.49906" lon="4.24361">
        <ele>391</ele>
        <time>2021-06-10T17:06:31Z</time>
      </trkpt>
      <trkpt lat="45.49897" lon="4.24338">
        <ele>391</ele>
        <time>2021-06-10T17:06:34Z</time>
      </trkpt>
      <trkpt lat="45.49881" lon="4.24228">
        <ele>392</ele>
        <time>2021-06-10T17:06:48Z</time>
      </trkpt>
      <trkpt lat="45.49881" lon="4.2418">
        <ele>392</ele>
        <time>2021-06-10T17:06:54Z</time>
      </trkpt>
      <trkpt lat="45.49894" lon="4.24093">
        <ele>392</ele>
        <time>2021-06-10T17:07:05Z</time>
      </trkpt>
      <trkpt lat="45.49906" lon="4.24077">
        <ele>391</ele>
        <time>2021-06-10T17:07:08Z</time>
      </trkpt>
      <trkpt lat="45.49938" lon="4.2405">
        <ele>391</ele>
        <time>2021-06-10T17:07:15Z</time>
      </trkpt>
      <trkpt lat="45.49992" lon="4.24023">
        <ele>390</ele>
        <time>2021-06-10T17:07:25Z</time>
      </trkpt>
      <trkpt lat="45.49992" lon="4.24008">
        <ele>390</ele>
        <time>2021-06-10T17:07:27Z</time>
      </trkpt>
      <trkpt lat="45.49959" lon="4.2381">
        <ele>390</ele>
        <time>2021-06-10T17:07:52Z</time>
      </trkpt>
      <trkpt lat="45.4995" lon="4.23768">
        <ele>390</ele>
        <time>2021-06-10T17:07:58Z</time>
      </trkpt>
      <trkpt lat="45.49909" lon="4.23666">
        <ele>390</ele>
        <time>2021-06-10T17:08:13Z</time>
      </trkpt>
      <trkpt lat="45.49897" lon="4.23627">
        <ele>390</ele>
        <time>2021-06-10T17:08:18Z</time>
      </trkpt>
      <trkpt lat="45.49884" lon="4.23572">
        <ele>390</ele>
        <time>2021-06-10T17:08:25Z</time>
      </trkpt>
      <trkpt lat="45.49846" lon="4.23295">
        <ele>389</ele>
        <time>2021-06-10T17:09:00Z</time>
      </trkpt>
      <trkpt lat="45.49834" lon="4.23131">
        <ele>389</ele>
        <time>2021-06-10T17:09:21Z</time>
      </trkpt>
      <trkpt lat="45.49844" lon="4.22997">
        <ele>387</ele>
        <time>2021-06-10T17:09:38Z</time>
      </trkpt>
      <trkpt lat="45.49834" lon="4.22753">
        <ele>386</ele>
        <time>2021-06-10T17:10:08Z</time>
      </trkpt>
      <trkpt lat="45.49821" lon="4.22623">
        <ele>386</ele>
        <time>2021-06-10T17:10:25Z</time>
      </trkpt>
      <trkpt lat="45.49824" lon="4.2247">
        <ele>385</ele>
        <time>2021-06-10T17:10:44Z</time>
      </trkpt>
      <trkpt lat="45.49864" lon="4.22156">
        <ele>385</ele>
        <time>2021-06-10T17:11:23Z</time>
      </trkpt>
      <trkpt lat="45.49885" lon="4.21966">
        <ele>385</ele>
        <time>2021-06-10T17:11:47Z</time>
      </trkpt>
      <trkpt lat="45.49921" lon="4.21578">
        <ele>384</ele>
        <time>2021-06-10T17:12:36Z</time>
      </trkpt>
      <trkpt lat="45.49971" lon="4.21197">
        <ele>385</ele>
        <time>2021-06-10T17:13:25Z</time>
      </trkpt>
      <trkpt lat="45.5001" lon="4.20923">
        <ele>382</ele>
        <time>2021-06-10T17:13:59Z</time>
      </trkpt>
      <trkpt lat="45.50017" lon="4.20844">
        <ele>381</ele>
        <time>2021-06-10T17:14:09Z</time>
      </trkpt>
      <trkpt lat="45.50015" lon="4.20794">
        <ele>382</ele>
        <time>2021-06-10T17:14:16Z</time>
      </trkpt>
      <trkpt lat="45.50003" lon="4.20717">
        <ele>384</ele>
        <time>2021-06-10T17:14:26Z</time>
      </trkpt>
      <trkpt lat="45.5" lon="4.2067">
        <ele>385</ele>
        <time>2021-06-10T17:14:31Z</time>
      </trkpt>
      <trkpt lat="45.49991" lon="4.20304">
        <ele>386</ele>
        <time>2021-06-10T17:15:17Z</time>
      </trkpt>
      <trkpt lat="45.5" lon="4.20127">
        <ele>387</ele>
        <time>2021-06-10T17:15:39Z</time>
      </trkpt>
      <trkpt lat="45.50021" lon="4.19884">
        <ele>392</ele>
        <time>2021-06-10T17:16:10Z</time>
      </trkpt>
      <trkpt lat="45.50037" lon="4.19777">
        <ele>395</ele>
        <time>2021-06-10T17:16:23Z</time>
      </trkpt>
      <trkpt lat="45.50047" lon="4.19753">
        <ele>395</ele>
        <time>2021-06-10T17:16:27Z</time>
      </trkpt>
      <trkpt lat="45.50094" lon="4.19714">
        <ele>397</ele>
        <time>2021-06-10T17:16:37Z</time>
      </trkpt>
      <trkpt lat="45.50217" lon="4.19594">
        <ele>399</ele>
        <time>2021-06-10T17:17:03Z</time>
      </trkpt>
      <trkpt lat="45.50235" lon="4.19569">
        <ele>400</ele>
        <time>2021-06-10T17:17:08Z</time>
      </trkpt>
      <trkpt lat="45.50243" lon="4.19552">
        <ele>400</ele>
        <time>2021-06-10T17:17:10Z</time>
      </trkpt>
      <trkpt lat="45.50252" lon="4.19516">
        <ele>401</ele>
        <time>2021-06-10T17:17:15Z</time>
      </trkpt>
      <trkpt lat="45.50253" lon="4.19498">
        <ele>402</ele>
        <time>2021-06-10T17:17:17Z</time>
      </trkpt>
      <trkpt lat="45.50245" lon="4.19452">
        <ele>404</ele>
        <time>2021-06-10T17:17:23Z</time>
      </trkpt>
      <trkpt lat="45.50236" lon="4.19431">
        <ele>405</ele>
        <time>2021-06-10T17:17:26Z</time>
      </trkpt>
      <trkpt lat="45.49799" lon="4.1858">
        <ele>412</ele>
        <time>2021-06-10T17:19:38Z</time>
      </trkpt>
      <trkpt lat="45.49706" lon="4.18502">
        <ele>414</ele>
        <time>2021-06-10T17:19:57Z</time>
      </trkpt>
      <trkpt lat="45.49625" lon="4.1833">
        <ele>412</ele>
        <time>2021-06-10T17:20:23Z</time>
      </trkpt>
      <trkpt lat="45.49575" lon="4.18187">
        <ele>409</ele>
        <time>2021-06-10T17:20:43Z</time>
      </trkpt>
      <trkpt lat="45.49549" lon="4.18138">
        <ele>407</ele>
        <time>2021-06-10T17:20:50Z</time>
      </trkpt>
      <trkpt lat="45.49511" lon="4.18089">
        <ele>405</ele>
        <time>2021-06-10T17:20:59Z</time>
      </trkpt>
      <trkpt lat="45.49502" lon="4.18051">
        <ele>404</ele>
        <time>2021-06-10T17:21:04Z</time>
      </trkpt>
      <trkpt lat="45.49499" lon="4.17993">
        <ele>402</ele>
        <time>2021-06-10T17:21:12Z</time>
      </trkpt>
      <trkpt lat="45.49504" lon="4.17958">
        <ele>402</ele>
        <time>2021-06-10T17:21:16Z</time>
      </trkpt>
      <trkpt lat="45.49578" lon="4.17739">
        <ele>398</ele>
        <time>2021-06-10T17:21:46Z</time>
      </trkpt>
      <trkpt lat="45.49584" lon="4.17632">
        <ele>398</ele>
        <time>2021-06-10T17:22:00Z</time>
      </trkpt>
      <trkpt lat="45.49581" lon="4.1749">
        <ele>397</ele>
        <time>2021-06-10T17:22:18Z</time>
      </trkpt>
      <trkpt lat="45.49551" lon="4.17301">
        <ele>397</ele>
        <time>2021-06-10T17:22:42Z</time>
      </trkpt>
      <trkpt lat="45.49546" lon="4.17279">
        <ele>397</ele>
        <time>2021-06-10T17:22:45Z</time>
      </trkpt>
      <trkpt lat="45.49541" lon="4.17276">
        <ele>398</ele>
        <time>2021-06-10T17:22:46Z</time>
      </trkpt>
      <trkpt lat="45.49539" lon="4.17262">
        <ele>398</ele>
        <time>2021-06-10T17:22:47Z</time>
      </trkpt>
      <trkpt lat="45.49552" lon="4.17172">
        <ele>398</ele>
        <time>2021-06-10T17:22:59Z</time>
      </trkpt>
      <trkpt lat="45.49588" lon="4.17061">
        <ele>398</ele>
        <time>2021-06-10T17:23:14Z</time>
      </trkpt>
      <trkpt lat="45.49659" lon="4.16937">
        <ele>399</ele>
        <time>2021-06-10T17:23:34Z</time>
      </trkpt>
      <trkpt lat="45.49678" lon="4.16882">
        <ele>399</ele>
        <time>2021-06-10T17:23:42Z</time>
      </trkpt>
      <trkpt lat="45.49696" lon="4.16822">
        <ele>400</ele>
        <time>2021-06-10T17:23:50Z</time>
      </trkpt>
      <trkpt lat="45.49702" lon="4.16787">
        <ele>400</ele>
        <time>2021-06-10T17:23:54Z</time>
      </trkpt>
      <trkpt lat="45.49704" lon="4.16758">
        <ele>400</ele>
        <time>2021-06-10T17:23:58Z</time>
      </trkpt>
      <trkpt lat="45.49779" lon="4.1652">
        <ele>398</ele>
        <time>2021-06-10T17:24:30Z</time>
      </trkpt>
      <trkpt lat="45.49796" lon="4.16441">
        <ele>398</ele>
        <time>2021-06-10T17:24:41Z</time>
      </trkpt>
      <trkpt lat="45.49802" lon="4.16402">
        <ele>398</ele>
        <time>2021-06-10T17:24:46Z</time>
      </trkpt>
      <trkpt lat="45.4981" lon="4.16379">
        <ele>398</ele>
        <time>2021-06-10T17:24:49Z</time>
      </trkpt>
      <trkpt lat="45.49822" lon="4.16363">
        <ele>397</ele>
        <time>2021-06-10T17:24:52Z</time>
      </trkpt>
      <trkpt lat="45.49891" lon="4.16326">
        <ele>396</ele>
        <time>2021-06-10T17:25:05Z</time>
      </trkpt>
      <trkpt lat="45.49943" lon="4.16286">
        <ele>395</ele>
        <time>2021-06-10T17:25:16Z</time>
      </trkpt>
      <trkpt lat="45.49956" lon="4.1628">
        <ele>395</ele>
        <time>2021-06-10T17:25:18Z</time>
      </trkpt>
      <trkpt lat="45.50011" lon="4.16265">
        <ele>395</ele>
        <time>2021-06-10T17:25:28Z</time>
      </trkpt>
      <trkpt lat="45.50033" lon="4.16265">
        <ele>395</ele>
        <time>2021-06-10T17:25:32Z</time>
      </trkpt>
      <trkpt lat="45.50038" lon="4.16274">
        <ele>395</ele>
        <time>2021-06-10T17:25:33Z</time>
      </trkpt>
      <trkpt lat="45.50051" lon="4.16278">
        <ele>395</ele>
        <time>2021-06-10T17:25:36Z</time>
      </trkpt>
      <trkpt lat="45.50059" lon="4.16273">
        <ele>395</ele>
        <time>2021-06-10T17:25:37Z</time>
      </trkpt>
      <trkpt lat="45.50064" lon="4.16264">
        <ele>395</ele>
        <time>2021-06-10T17:25:39Z</time>
      </trkpt>
      <trkpt lat="45.50064" lon="4.16255">
        <ele>395</ele>
        <time>2021-06-10T17:25:40Z</time>
      </trkpt>
      <trkpt lat="45.50078" lon="4.1624">
        <ele>395</ele>
        <time>2021-06-10T17:25:43Z</time>
      </trkpt>
      <trkpt lat="45.50102" lon="4.16234">
        <ele>395</ele>
        <time>2021-06-10T17:25:47Z</time>
      </trkpt>
      <trkpt lat="45.50112" lon="4.16225">
        <ele>395</ele>
        <time>2021-06-10T17:25:49Z</time>
      </trkpt>
      <trkpt lat="45.50114" lon="4.162">
        <ele>396</ele>
        <time>2021-06-10T17:25:52Z</time>
      </trkpt>
      <trkpt lat="45.50031" lon="4.15096">
        <ele>417</ele>
        <time>2021-06-10T17:28:11Z</time>
      </trkpt>
      <trkpt lat="45.50004" lon="4.1477">
        <ele>422</ele>
        <time>2021-06-10T17:28:52Z</time>
      </trkpt>
      <trkpt lat="45.50001" lon="4.14715">
        <ele>424</ele>
        <time>2021-06-10T17:28:59Z</time>
      </trkpt>
      <trkpt lat="45.50011" lon="4.14666">
        <ele>426</ele>
        <time>2021-06-10T17:29:05Z</time>
      </trkpt>
      <trkpt lat="45.50135" lon="4.14315">
        <ele>442</ele>
        <time>2021-06-10T17:29:54Z</time>
      </trkpt>
      <trkpt lat="45.50155" lon="4.14266">
        <ele>445</ele>
        <time>2021-06-10T17:30:01Z</time>
      </trkpt>
      <trkpt lat="45.50178" lon="4.14221">
        <ele>447</ele>
        <time>2021-06-10T17:30:08Z</time>
      </trkpt>
      <trkpt lat="45.50205" lon="4.14153">
        <ele>452</ele>
        <time>2021-06-10T17:30:18Z</time>
      </trkpt>
      <trkpt lat="45.50221" lon="4.14123">
        <ele>453</ele>
        <time>2021-06-10T17:30:23Z</time>
      </trkpt>
      <trkpt lat="45.50234" lon="4.14104">
        <ele>453</ele>
        <time>2021-06-10T17:30:26Z</time>
      </trkpt>
      <trkpt lat="45.50248" lon="4.14089">
        <ele>452</ele>
        <time>2021-06-10T17:30:29Z</time>
      </trkpt>
      <trkpt lat="45.5026" lon="4.14083">
        <ele>452</ele>
        <time>2021-06-10T17:30:31Z</time>
      </trkpt>
      <trkpt lat="45.50311" lon="4.14085">
        <ele>453</ele>
        <time>2021-06-10T17:30:40Z</time>
      </trkpt>
      <trkpt lat="45.50325" lon="4.14082">
        <ele>454</ele>
        <time>2021-06-10T17:30:43Z</time>
      </trkpt>
      <trkpt lat="45.50344" lon="4.14066">
        <ele>455</ele>
        <time>2021-06-10T17:30:47Z</time>
      </trkpt>
      <trkpt lat="45.50381" lon="4.1402">
        <ele>459</ele>
        <time>2021-06-10T17:30:55Z</time>
      </trkpt>
      <trkpt lat="45.50574" lon="4.13754">
        <ele>473</ele>
        <time>2021-06-10T17:31:43Z</time>
      </trkpt>
      <trkpt lat="45.50597" lon="4.13712">
        <ele>474</ele>
        <time>2021-06-10T17:31:50Z</time>
      </trkpt>
      <trkpt lat="45.50707" lon="4.1344">
        <ele>484</ele>
        <time>2021-06-10T17:32:29Z</time>
      </trkpt>
      <trkpt lat="45.50715" lon="4.13368">
        <ele>485</ele>
        <time>2021-06-10T17:32:38Z</time>
      </trkpt>
      <trkpt lat="45.50713" lon="4.13309">
        <ele>485</ele>
        <time>2021-06-10T17:32:45Z</time>
      </trkpt>
      <trkpt lat="45.50705" lon="4.13279">
        <ele>486</ele>
        <time>2021-06-10T17:32:49Z</time>
      </trkpt>
      <trkpt lat="45.50684" lon="4.13236">
        <ele>488</ele>
        <time>2021-06-10T17:32:56Z</time>
      </trkpt>
      <trkpt lat="45.50665" lon="4.13205">
        <ele>487</ele>
        <time>2021-06-10T17:33:01Z</time>
      </trkpt>
      <trkpt lat="45.50642" lon="4.13179">
        <ele>488</ele>
        <time>2021-06-10T17:33:06Z</time>
      </trkpt>
      <trkpt lat="45.50608" lon="4.13154">
        <ele>492</ele>
        <time>2021-06-10T17:33:13Z</time>
      </trkpt>
      <trkpt lat="45.505" lon="4.13112">
        <ele>501</ele>
        <time>2021-06-10T17:33:33Z</time>
      </trkpt>
      <trkpt lat="45.50492" lon="4.13107">
        <ele>501</ele>
        <time>2021-06-10T17:33:35Z</time>
      </trkpt>
      <trkpt lat="45.50482" lon="4.13095">
        <ele>502</ele>
        <time>2021-06-10T17:33:37Z</time>
      </trkpt>
      <trkpt lat="45.50478" lon="4.13069">
        <ele>502</ele>
        <time>2021-06-10T17:33:40Z</time>
      </trkpt>
      <trkpt lat="45.50484" lon="4.13044">
        <ele>502</ele>
        <time>2021-06-10T17:33:44Z</time>
      </trkpt>
      <trkpt lat="45.50494" lon="4.13018">
        <ele>502</ele>
        <time>2021-06-10T17:33:47Z</time>
      </trkpt>
      <trkpt lat="45.50493" lon="4.1296">
        <ele>504</ele>
        <time>2021-06-10T17:33:55Z</time>
      </trkpt>
      <trkpt lat="45.50475" lon="4.12717">
        <ele>513</ele>
        <time>2021-06-10T17:34:25Z</time>
      </trkpt>
      <trkpt lat="45.50424" lon="4.12345">
        <ele>522</ele>
        <time>2021-06-10T17:35:12Z</time>
      </trkpt>
      <trkpt lat="45.50425" lon="4.12306">
        <ele>524</ele>
        <time>2021-06-10T17:35:17Z</time>
      </trkpt>
      <trkpt lat="45.5043" lon="4.12288">
        <ele>524</ele>
        <time>2021-06-10T17:35:20Z</time>
      </trkpt>
      <trkpt lat="45.50475" lon="4.12208">
        <ele>527</ele>
        <time>2021-06-10T17:35:32Z</time>
      </trkpt>
      <trkpt lat="45.50483" lon="4.12182">
        <ele>528</ele>
        <time>2021-06-10T17:35:36Z</time>
      </trkpt>
      <trkpt lat="45.50487" lon="4.12155">
        <ele>529</ele>
        <time>2021-06-10T17:35:39Z</time>
      </trkpt>
      <trkpt lat="45.50481" lon="4.12082">
        <ele>533</ele>
        <time>2021-06-10T17:35:48Z</time>
      </trkpt>
      <trkpt lat="45.50482" lon="4.12038">
        <ele>536</ele>
        <time>2021-06-10T17:35:54Z</time>
      </trkpt>
      <trkpt lat="45.50516" lon="4.11792">
        <ele>544</ele>
        <time>2021-06-10T17:36:25Z</time>
      </trkpt>
      <trkpt lat="45.50547" lon="4.11676">
        <ele>547</ele>
        <time>2021-06-10T17:36:41Z</time>
      </trkpt>
      <trkpt lat="45.50579" lon="4.11597">
        <ele>549</ele>
        <time>2021-06-10T17:36:52Z</time>
      </trkpt>
      <trkpt lat="45.50615" lon="4.11535">
        <ele>549</ele>
        <time>2021-06-10T17:37:02Z</time>
      </trkpt>
      <trkpt lat="45.50649" lon="4.1149">
        <ele>550</ele>
        <time>2021-06-10T17:37:10Z</time>
      </trkpt>
      <trkpt lat="45.50685" lon="4.11451">
        <ele>552</ele>
        <time>2021-06-10T17:37:18Z</time>
      </trkpt>
      <trkpt lat="45.50721" lon="4.11407">
        <ele>555</ele>
        <time>2021-06-10T17:37:27Z</time>
      </trkpt>
      <trkpt lat="45.5075" lon="4.11386">
        <ele>557</ele>
        <time>2021-06-10T17:37:33Z</time>
      </trkpt>
      <trkpt lat="45.50769" lon="4.11385">
        <ele>557</ele>
        <time>2021-06-10T17:37:36Z</time>
      </trkpt>
      <trkpt lat="45.50815" lon="4.11397">
        <ele>557</ele>
        <time>2021-06-10T17:37:44Z</time>
      </trkpt>
      <trkpt lat="45.5086" lon="4.11402">
        <ele>558</ele>
        <time>2021-06-10T17:37:52Z</time>
      </trkpt>
      <trkpt lat="45.50911" lon="4.1137">
        <ele>561</ele>
        <time>2021-06-10T17:38:02Z</time>
      </trkpt>
      <trkpt lat="45.50959" lon="4.11321">
        <ele>561</ele>
        <time>2021-06-10T17:38:13Z</time>
      </trkpt>
      <trkpt lat="45.50995" lon="4.11241">
        <ele>564</ele>
        <time>2021-06-10T17:38:25Z</time>
      </trkpt>
      <trkpt lat="45.51016" lon="4.11184">
        <ele>566</ele>
        <time>2021-06-10T17:38:33Z</time>
      </trkpt>
      <trkpt lat="45.51043" lon="4.11129">
        <ele>568</ele>
        <time>2021-06-10T17:38:41Z</time>
      </trkpt>
      <trkpt lat="45.51103" lon="4.11061">
        <ele>569</ele>
        <time>2021-06-10T17:38:55Z</time>
      </trkpt>
      <trkpt lat="45.51122" lon="4.1103">
        <ele>570</ele>
        <time>2021-06-10T17:39:00Z</time>
      </trkpt>
      <trkpt lat="45.51148" lon="4.10971">
        <ele>572</ele>
        <time>2021-06-10T17:39:09Z</time>
      </trkpt>
      <trkpt lat="45.51163" lon="4.10913">
        <ele>573</ele>
        <time>2021-06-10T17:39:16Z</time>
      </trkpt>
      <trkpt lat="45.51173" lon="4.10744">
        <ele>575</ele>
        <time>2021-06-10T17:39:37Z</time>
      </trkpt>
      <trkpt lat="45.51206" lon="4.10641">
        <ele>580</ele>
        <time>2021-06-10T17:39:52Z</time>
      </trkpt>
      <trkpt lat="45.51219" lon="4.10578">
        <ele>582</ele>
        <time>2021-06-10T17:40:00Z</time>
      </trkpt>
      <trkpt lat="45.51351" lon="4.10198">
        <ele>596</ele>
        <time>2021-06-10T17:40:53Z</time>
      </trkpt>
      <trkpt lat="45.51372" lon="4.10158">
        <ele>598</ele>
        <time>2021-06-10T17:40:59Z</time>
      </trkpt>
      <trkpt lat="45.51396" lon="4.10125">
        <ele>600</ele>
        <time>2021-06-10T17:41:05Z</time>
      </trkpt>
      <trkpt lat="45.51462" lon="4.10074">
        <ele>601</ele>
        <time>2021-06-10T17:41:18Z</time>
      </trkpt>
      <trkpt lat="45.51473" lon="4.10058">
        <ele>601</ele>
        <time>2021-06-10T17:41:21Z</time>
      </trkpt>
      <trkpt lat="45.51481" lon="4.1003">
        <ele>603</ele>
        <time>2021-06-10T17:41:25Z</time>
      </trkpt>
      <trkpt lat="45.51501" lon="4.09918">
        <ele>606</ele>
        <time>2021-06-10T17:41:39Z</time>
      </trkpt>
      <trkpt lat="45.51503" lon="4.09895">
        <ele>606</ele>
        <time>2021-06-10T17:41:42Z</time>
      </trkpt>
      <trkpt lat="45.51499" lon="4.09874">
        <ele>607</ele>
        <time>2021-06-10T17:41:45Z</time>
      </trkpt>
      <trkpt lat="45.51493" lon="4.09854">
        <ele>607</ele>
        <time>2021-06-10T17:41:47Z</time>
      </trkpt>
      <trkpt lat="45.5148" lon="4.09838">
        <ele>608</ele>
        <time>2021-06-10T17:41:50Z</time>
      </trkpt>
      <trkpt lat="45.51444" lon="4.09813">
        <ele>611</ele>
        <time>2021-06-10T17:41:58Z</time>
      </trkpt>
      <trkpt lat="45.5142" lon="4.09792">
        <ele>613</ele>
        <time>2021-06-10T17:42:03Z</time>
      </trkpt>
      <trkpt lat="45.51406" lon="4.0977">
        <ele>614</ele>
        <time>2021-06-10T17:42:06Z</time>
      </trkpt>
      <trkpt lat="45.51401" lon="4.09743">
        <ele>614</ele>
        <time>2021-06-10T17:42:10Z</time>
      </trkpt>
      <trkpt lat="45.514" lon="4.09713">
        <ele>615</ele>
        <time>2021-06-10T17:42:14Z</time>
      </trkpt>
      <trkpt lat="45.51407" lon="4.09689">
        <ele>615</ele>
        <time>2021-06-10T17:42:17Z</time>
      </trkpt>
      <trkpt lat="45.5144" lon="4.09644">
        <ele>615</ele>
        <time>2021-06-10T17:42:25Z</time>
      </trkpt>
      <trkpt lat="45.51463" lon="4.09599">
        <ele>616</ele>
        <time>2021-06-10T17:42:32Z</time>
      </trkpt>
      <trkpt lat="45.51469" lon="4.09577">
        <ele>617</ele>
        <time>2021-06-10T17:42:35Z</time>
      </trkpt>
      <trkpt lat="45.51471" lon="4.09525">
        <ele>618</ele>
        <time>2021-06-10T17:42:41Z</time>
      </trkpt>
      <trkpt lat="45.51466" lon="4.09497">
        <ele>619</ele>
        <time>2021-06-10T17:42:45Z</time>
      </trkpt>
      <trkpt lat="45.51409" lon="4.09379">
        <ele>621</ele>
        <time>2021-06-10T17:43:03Z</time>
      </trkpt>
      <trkpt lat="45.5139" lon="4.09331">
        <ele>622</ele>
        <time>2021-06-10T17:43:10Z</time>
      </trkpt>
      <trkpt lat="45.51387" lon="4.09302">
        <ele>621</ele>
        <time>2021-06-10T17:43:13Z</time>
      </trkpt>
      <trkpt lat="45.51429" lon="4.09092">
        <ele>625</ele>
        <time>2021-06-10T17:43:40Z</time>
      </trkpt>
      <trkpt lat="45.5145" lon="4.09052">
        <ele>625</ele>
        <time>2021-06-10T17:43:47Z</time>
      </trkpt>
      <trkpt lat="45.51491" lon="4.08992">
        <ele>627</ele>
        <time>2021-06-10T17:43:57Z</time>
      </trkpt>
      <trkpt lat="45.51508" lon="4.08948">
        <ele>629</ele>
        <time>2021-06-10T17:44:03Z</time>
      </trkpt>
      <trkpt lat="45.51519" lon="4.08892">
        <ele>630</ele>
        <time>2021-06-10T17:44:11Z</time>
      </trkpt>
      <trkpt lat="45.51539" lon="4.08757">
        <ele>633</ele>
        <time>2021-06-10T17:44:28Z</time>
      </trkpt>
      <trkpt lat="45.51577" lon="4.08609">
        <ele>638</ele>
        <time>2021-06-10T17:44:48Z</time>
      </trkpt>
      <trkpt lat="45.51594" lon="4.08552">
        <ele>638</ele>
        <time>2021-06-10T17:44:55Z</time>
      </trkpt>
      <trkpt lat="45.51668" lon="4.08367">
        <ele>635</ele>
        <time>2021-06-10T17:45:22Z</time>
      </trkpt>
      <trkpt lat="45.51709" lon="4.08297">
        <ele>637</ele>
        <time>2021-06-10T17:45:33Z</time>
      </trkpt>
      <trkpt lat="45.51763" lon="4.08232">
        <ele>639</ele>
        <time>2021-06-10T17:45:46Z</time>
      </trkpt>
      <trkpt lat="45.51823" lon="4.0818">
        <ele>640</ele>
        <time>2021-06-10T17:45:58Z</time>
      </trkpt>
      <trkpt lat="45.52004" lon="4.08047">
        <ele>637</ele>
        <time>2021-06-10T17:46:34Z</time>
      </trkpt>
      <trkpt lat="45.52061" lon="4.07997">
        <ele>639</ele>
        <time>2021-06-10T17:46:46Z</time>
      </trkpt>
      <trkpt lat="45.52211" lon="4.07787">
        <ele>639</ele>
        <time>2021-06-10T17:47:24Z</time>
      </trkpt>
      <trkpt lat="45.52235" lon="4.07759">
        <ele>640</ele>
        <time>2021-06-10T17:47:29Z</time>
      </trkpt>
      <trkpt lat="45.52293" lon="4.07712">
        <ele>640</ele>
        <time>2021-06-10T17:47:41Z</time>
      </trkpt>
      <trkpt lat="45.52332" lon="4.07677">
        <ele>639</ele>
        <time>2021-06-10T17:47:49Z</time>
      </trkpt>
      <trkpt lat="45.52358" lon="4.07632">
        <ele>638</ele>
        <time>2021-06-10T17:47:57Z</time>
      </trkpt>
      <trkpt lat="45.52372" lon="4.07595">
        <ele>638</ele>
        <time>2021-06-10T17:48:02Z</time>
      </trkpt>
      <trkpt lat="45.52384" lon="4.07541">
        <ele>639</ele>
        <time>2021-06-10T17:48:09Z</time>
      </trkpt>
      <trkpt lat="45.52408" lon="4.07402">
        <ele>639</ele>
        <time>2021-06-10T17:48:27Z</time>
      </trkpt>
      <trkpt lat="45.52437" lon="4.07278">
        <ele>638</ele>
        <time>2021-06-10T17:48:43Z</time>
      </trkpt>
      <trkpt lat="45.5244" lon="4.07243">
        <ele>637</ele>
        <time>2021-06-10T17:48:47Z</time>
      </trkpt>
      <trkpt lat="45.52441" lon="4.07172">
        <ele>637</ele>
        <time>2021-06-10T17:48:56Z</time>
      </trkpt>
      <trkpt lat="45.52439" lon="4.07068">
        <ele>638</ele>
        <time>2021-06-10T17:49:09Z</time>
      </trkpt>
      <trkpt lat="45.52445" lon="4.07028">
        <ele>638</ele>
        <time>2021-06-10T17:49:14Z</time>
      </trkpt>
      <trkpt lat="45.52475" lon="4.06951">
        <ele>639</ele>
        <time>2021-06-10T17:49:25Z</time>
      </trkpt>
      <trkpt lat="45.52491" lon="4.06856">
        <ele>642</ele>
        <time>2021-06-10T17:49:38Z</time>
      </trkpt>
      <trkpt lat="45.52502" lon="4.0682">
        <ele>642</ele>
        <time>2021-06-10T17:49:42Z</time>
      </trkpt>
      <trkpt lat="45.52519" lon="4.06778">
        <ele>642</ele>
        <time>2021-06-10T17:49:48Z</time>
      </trkpt>
      <trkpt lat="45.52533" lon="4.06753">
        <ele>642</ele>
        <time>2021-06-10T17:49:52Z</time>
      </trkpt>
      <trkpt lat="45.52547" lon="4.06736">
        <ele>642</ele>
        <time>2021-06-10T17:49:56Z</time>
      </trkpt>
      <trkpt lat="45.52544" lon="4.06723">
        <ele>642</ele>
        <time>2021-06-10T17:49:57Z</time>
      </trkpt>
      <trkpt lat="45.52513" lon="4.06668">
        <ele>643</ele>
        <time>2021-06-10T17:50:06Z</time>
      </trkpt>
      <trkpt lat="45.52519" lon="4.06645">
        <ele>643</ele>
        <time>2021-06-10T17:50:09Z</time>
      </trkpt>
      <trkpt lat="45.52517" lon="4.06481">
        <ele>644</ele>
        <time>2021-06-10T17:50:30Z</time>
      </trkpt>
      <trkpt lat="45.52539" lon="4.06355">
        <ele>644</ele>
        <time>2021-06-10T17:50:46Z</time>
      </trkpt>
      <trkpt lat="45.52556" lon="4.06125">
        <ele>652</ele>
        <time>2021-06-10T17:51:15Z</time>
      </trkpt>
      <trkpt lat="45.52592" lon="4.05949">
        <ele>658</ele>
        <time>2021-06-10T17:51:38Z</time>
      </trkpt>
      <trkpt lat="45.52584" lon="4.05715">
        <ele>665</ele>
        <time>2021-06-10T17:52:07Z</time>
      </trkpt>
      <trkpt lat="45.52577" lon="4.05626">
        <ele>668</ele>
        <time>2021-06-10T17:52:18Z</time>
      </trkpt>
      <trkpt lat="45.5257" lon="4.05588">
        <ele>669</ele>
        <time>2021-06-10T17:52:23Z</time>
      </trkpt>
      <trkpt lat="45.52558" lon="4.05545">
        <ele>671</ele>
        <time>2021-06-10T17:52:29Z</time>
      </trkpt>
      <trkpt lat="45.52541" lon="4.05509">
        <ele>674</ele>
        <time>2021-06-10T17:52:34Z</time>
      </trkpt>
      <trkpt lat="45.52515" lon="4.05467">
        <ele>676</ele>
        <time>2021-06-10T17:52:41Z</time>
      </trkpt>
      <trkpt lat="45.52314" lon="4.05258">
        <ele>687</ele>
        <time>2021-06-10T17:53:25Z</time>
      </trkpt>
      <trkpt lat="45.52248" lon="4.05185">
        <ele>692</ele>
        <time>2021-06-10T17:53:40Z</time>
      </trkpt>
      <trkpt lat="45.51908" lon="4.04622">
        <ele>726</ele>
        <time>2021-06-10T17:55:13Z</time>
      </trkpt>
      <trkpt lat="45.5189" lon="4.0458">
        <ele>728</ele>
        <time>2021-06-10T17:55:19Z</time>
      </trkpt>
      <trkpt lat="45.51886" lon="4.04559">
        <ele>728</ele>
        <time>2021-06-10T17:55:22Z</time>
      </trkpt>
      <trkpt lat="45.51885" lon="4.04536">
        <ele>728</ele>
        <time>2021-06-10T17:55:25Z</time>
      </trkpt>
      <trkpt lat="45.51898" lon="4.04462">
        <ele>729</ele>
        <time>2021-06-10T17:55:34Z</time>
      </trkpt>
      <trkpt lat="45.51971" lon="4.0422">
        <ele>734</ele>
        <time>2021-06-10T17:56:07Z</time>
      </trkpt>
      <trkpt lat="45.5199" lon="4.04186">
        <ele>737</ele>
        <time>2021-06-10T17:56:12Z</time>
      </trkpt>
      <trkpt lat="45.52107" lon="4.04029">
        <ele>744</ele>
        <time>2021-06-10T17:56:41Z</time>
      </trkpt>
      <trkpt lat="45.52126" lon="4.03957">
        <ele>747</ele>
        <time>2021-06-10T17:56:50Z</time>
      </trkpt>
      <trkpt lat="45.52172" lon="4.03647">
        <ele>754</ele>
        <time>2021-06-10T17:57:30Z</time>
      </trkpt>
      <trkpt lat="45.52173" lon="4.03561">
        <ele>758</ele>
        <time>2021-06-10T17:57:41Z</time>
      </trkpt>
      <trkpt lat="45.52173" lon="4.03544">
        <ele>759</ele>
        <time>2021-06-10T17:57:43Z</time>
      </trkpt>
      <trkpt lat="45.52158" lon="4.03479">
        <ele>762</ele>
        <time>2021-06-10T17:57:51Z</time>
      </trkpt>
      <trkpt lat="45.52132" lon="4.0342">
        <ele>762</ele>
        <time>2021-06-10T17:58:00Z</time>
      </trkpt>
      <trkpt lat="45.52123" lon="4.03354">
        <ele>764</ele>
        <time>2021-06-10T17:58:08Z</time>
      </trkpt>
      <trkpt lat="45.52128" lon="4.03283">
        <ele>766</ele>
        <time>2021-06-10T17:58:17Z</time>
      </trkpt>
      <trkpt lat="45.52145" lon="4.03194">
        <ele>767</ele>
        <time>2021-06-10T17:58:29Z</time>
      </trkpt>
      <trkpt lat="45.52171" lon="4.03133">
        <ele>767</ele>
        <time>2021-06-10T17:58:38Z</time>
      </trkpt>
      <trkpt lat="45.52225" lon="4.03037">
        <ele>770</ele>
        <time>2021-06-10T17:58:53Z</time>
      </trkpt>
      <trkpt lat="45.52248" lon="4.02984">
        <ele>773</ele>
        <time>2021-06-10T17:59:01Z</time>
      </trkpt>
      <trkpt lat="45.52302" lon="4.02783">
        <ele>778</ele>
        <time>2021-06-10T17:59:28Z</time>
      </trkpt>
      <trkpt lat="45.52336" lon="4.02733">
        <ele>779</ele>
        <time>2021-06-10T17:59:36Z</time>
      </trkpt>
      <trkpt lat="45.52416" lon="4.02636">
        <ele>779</ele>
        <time>2021-06-10T17:59:55Z</time>
      </trkpt>
      <trkpt lat="45.52471" lon="4.02555">
        <ele>779</ele>
        <time>2021-06-10T18:00:09Z</time>
      </trkpt>
      <trkpt lat="45.52505" lon="4.02523">
        <ele>780</ele>
        <time>2021-06-10T18:00:16Z</time>
      </trkpt>
      <trkpt lat="45.52555" lon="4.02503">
        <ele>784</ele>
        <time>2021-06-10T18:00:26Z</time>
      </trkpt>
      <trkpt lat="45.52594" lon="4.02471">
        <ele>785</ele>
        <time>2021-06-10T18:00:34Z</time>
      </trkpt>
      <trkpt lat="45.52729" lon="4.0233">
        <ele>788</ele>
        <time>2021-06-10T18:01:03Z</time>
      </trkpt>
      <trkpt lat="45.52766" lon="4.02287">
        <ele>789</ele>
        <time>2021-06-10T18:01:12Z</time>
      </trkpt>
      <trkpt lat="45.52794" lon="4.02223">
        <ele>793</ele>
        <time>2021-06-10T18:01:21Z</time>
      </trkpt>
      <trkpt lat="45.52803" lon="4.02193">
        <ele>796</ele>
        <time>2021-06-10T18:01:25Z</time>
      </trkpt>
      <trkpt lat="45.52812" lon="4.02154">
        <ele>800</ele>
        <time>2021-06-10T18:01:30Z</time>
      </trkpt>
      <trkpt lat="45.52821" lon="4.02078">
        <ele>808</ele>
        <time>2021-06-10T18:01:40Z</time>
      </trkpt>
      <trkpt lat="45.5282" lon="4.02027">
        <ele>811</ele>
        <time>2021-06-10T18:01:46Z</time>
      </trkpt>
      <trkpt lat="45.52813" lon="4.01974">
        <ele>813</ele>
        <time>2021-06-10T18:01:53Z</time>
      </trkpt>
      <trkpt lat="45.52777" lon="4.0187">
        <ele>814</ele>
        <time>2021-06-10T18:02:08Z</time>
      </trkpt>
      <trkpt lat="45.52657" lon="4.01636">
        <ele>831</ele>
        <time>2021-06-10T18:02:44Z</time>
      </trkpt>
      <trkpt lat="45.52636" lon="4.01591">
        <ele>832</ele>
        <time>2021-06-10T18:02:50Z</time>
      </trkpt>
      <trkpt lat="45.52629" lon="4.01549">
        <ele>831</ele>
        <time>2021-06-10T18:02:56Z</time>
      </trkpt>
      <trkpt lat="45.52634" lon="4.01482">
        <ele>831</ele>
        <time>2021-06-10T18:03:04Z</time>
      </trkpt>
      <trkpt lat="45.52681" lon="4.01355">
        <ele>835</ele>
        <time>2021-06-10T18:03:22Z</time>
      </trkpt>
      <trkpt lat="45.52685" lon="4.01289">
        <ele>837</ele>
        <time>2021-06-10T18:03:30Z</time>
      </trkpt>
      <trkpt lat="45.52674" lon="4.01217">
        <ele>838</ele>
        <time>2021-06-10T18:03:40Z</time>
      </trkpt>
      <trkpt lat="45.52682" lon="4.01157">
        <ele>841</ele>
        <time>2021-06-10T18:03:47Z</time>
      </trkpt>
      <trkpt lat="45.52707" lon="4.01058">
        <ele>847</ele>
        <time>2021-06-10T18:04:00Z</time>
      </trkpt>
      <trkpt lat="45.52709" lon="4.01027">
        <ele>849</ele>
        <time>2021-06-10T18:04:04Z</time>
      </trkpt>
      <trkpt lat="45.52703" lon="4.00926">
        <ele>852</ele>
        <time>2021-06-10T18:04:17Z</time>
      </trkpt>
      <trkpt lat="45.52708" lon="4.00896">
        <ele>855</ele>
        <time>2021-06-10T18:04:21Z</time>
      </trkpt>
      <trkpt lat="45.52719" lon="4.00859">
        <ele>858</ele>
        <time>2021-06-10T18:04:26Z</time>
      </trkpt>
      <trkpt lat="45.52754" lon="4.00771">
        <ele>865</ele>
        <time>2021-06-10T18:04:38Z</time>
      </trkpt>
      <trkpt lat="45.52758" lon="4.00646">
        <ele>868</ele>
        <time>2021-06-10T18:04:54Z</time>
      </trkpt>
      <trkpt lat="45.52775" lon="4.00594">
        <ele>870</ele>
        <time>2021-06-10T18:05:01Z</time>
      </trkpt>
      <trkpt lat="45.52829" lon="4.00502">
        <ele>874</ele>
        <time>2021-06-10T18:05:16Z</time>
      </trkpt>
      <trkpt lat="45.52846" lon="4.00466">
        <ele>875</ele>
        <time>2021-06-10T18:05:21Z</time>
      </trkpt>
      <trkpt lat="45.52863" lon="4.00421">
        <ele>875</ele>
        <time>2021-06-10T18:05:28Z</time>
      </trkpt>
      <trkpt lat="45.52876" lon="4.00354">
        <ele>876</ele>
        <time>2021-06-10T18:05:36Z</time>
      </trkpt>
      <trkpt lat="45.52892" lon="4.00239">
        <ele>881</ele>
        <time>2021-06-10T18:05:51Z</time>
      </trkpt>
      <trkpt lat="45.5298" lon="3.9995">
        <ele>899</ele>
        <time>2021-06-10T18:06:30Z</time>
      </trkpt>
      <trkpt lat="45.52998" lon="3.99963">
        <ele>899</ele>
        <time>2021-06-10T18:06:34Z</time>
      </trkpt>
      <trkpt lat="45.53091" lon="4.00008">
        <ele>907</ele>
        <time>2021-06-10T18:06:51Z</time>
      </trkpt>
      <trkpt lat="45.53126" lon="4.00029">
        <ele>911</ele>
        <time>2021-06-10T18:06:58Z</time>
      </trkpt>
      <trkpt lat="45.53142" lon="4.00045">
        <ele>912</ele>
        <time>2021-06-10T18:07:02Z</time>
      </trkpt>
      <trkpt lat="45.53157" lon="4.00065">
        <ele>911</ele>
        <time>2021-06-10T18:07:05Z</time>
      </trkpt>
      <trkpt lat="45.53167" lon="4.00086">
        <ele>909</ele>
        <time>2021-06-10T18:07:08Z</time>
      </trkpt>
      <trkpt lat="45.53179" lon="4.00131">
        <ele>910</ele>
        <time>2021-06-10T18:07:14Z</time>
      </trkpt>
      <trkpt lat="45.53179" lon="4.00155">
        <ele>910</ele>
        <time>2021-06-10T18:07:17Z</time>
      </trkpt>
      <trkpt lat="45.53166" lon="4.00201">
        <ele>912</ele>
        <time>2021-06-10T18:07:24Z</time>
      </trkpt>
      <trkpt lat="45.53133" lon="4.0027">
        <ele>913</ele>
        <time>2021-06-10T18:07:34Z</time>
      </trkpt>
      <trkpt lat="45.53119" lon="4.00308">
        <ele>912</ele>
        <time>2021-06-10T18:07:39Z</time>
      </trkpt>
      <trkpt lat="45.53118" lon="4.00331">
        <ele>912</ele>
        <time>2021-06-10T18:07:42Z</time>
      </trkpt>
      <trkpt lat="45.53126" lon="4.00354">
        <ele>913</ele>
        <time>2021-06-10T18:07:46Z</time>
      </trkpt>
      <trkpt lat="45.53134" lon="4.00367">
        <ele>913</ele>
        <time>2021-06-10T18:07:48Z</time>
      </trkpt>
      <trkpt lat="45.53151" lon="4.00378">
        <ele>914</ele>
        <time>2021-06-10T18:07:51Z</time>
      </trkpt>
      <trkpt lat="45.5345" lon="4.00453">
        <ele>917</ele>
        <time>2021-06-10T18:08:45Z</time>
      </trkpt>
      <trkpt lat="45.53517" lon="4.00454">
        <ele>913</ele>
        <time>2021-06-10T18:08:57Z</time>
      </trkpt>
      <trkpt lat="45.5353" lon="4.00452">
        <ele>912</ele>
        <time>2021-06-10T18:08:59Z</time>
      </trkpt>
      <trkpt lat="45.5361" lon="4.00422">
        <ele>910</ele>
        <time>2021-06-10T18:09:14Z</time>
      </trkpt>
      <trkpt lat="45.5367" lon="4.00412">
        <ele>907</ele>
        <time>2021-06-10T18:09:25Z</time>
      </trkpt>
      <trkpt lat="45.53703" lon="4.0041">
        <ele>905</ele>
        <time>2021-06-10T18:09:31Z</time>
      </trkpt>
      <trkpt lat="45.53713" lon="4.00407">
        <ele>904</ele>
        <time>2021-06-10T18:09:32Z</time>
      </trkpt>
      <trkpt lat="45.53721" lon="4.00401">
        <ele>904</ele>
        <time>2021-06-10T18:09:34Z</time>
      </trkpt>
      <trkpt lat="45.53729" lon="4.00389">
        <ele>904</ele>
        <time>2021-06-10T18:09:36Z</time>
      </trkpt>
      <trkpt lat="45.53769" lon="4.00319">
        <ele>905</ele>
        <time>2021-06-10T18:09:47Z</time>
      </trkpt>
      <trkpt lat="45.53775" lon="4.00304">
        <ele>904</ele>
        <time>2021-06-10T18:09:49Z</time>
      </trkpt>
      <trkpt lat="45.53792" lon="4.00213">
        <ele>905</ele>
        <time>2021-06-10T18:10:01Z</time>
      </trkpt>
      <trkpt lat="45.53802" lon="4.00195">
        <ele>903</ele>
        <time>2021-06-10T18:10:04Z</time>
      </trkpt>
      <trkpt lat="45.53832" lon="4.00152">
        <ele>900</ele>
        <time>2021-06-10T18:10:12Z</time>
      </trkpt>
      <trkpt lat="45.53845" lon="4.00136">
        <ele>900</ele>
        <time>2021-06-10T18:10:15Z</time>
      </trkpt>
      <trkpt lat="45.53875" lon="4.00122">
        <ele>899</ele>
        <time>2021-06-10T18:10:20Z</time>
      </trkpt>
      <trkpt lat="45.53886" lon="4.0011">
        <ele>900</ele>
        <time>2021-06-10T18:10:23Z</time>
      </trkpt>
      <trkpt lat="45.53916" lon="4.00068">
        <ele>902</ele>
        <time>2021-06-10T18:10:30Z</time>
      </trkpt>
      <trkpt lat="45.53928" lon="4.00056">
        <ele>903</ele>
        <time>2021-06-10T18:10:33Z</time>
      </trkpt>
      <trkpt lat="45.53946" lon="4.00046">
        <ele>903</ele>
        <time>2021-06-10T18:10:36Z</time>
      </trkpt>
      <trkpt lat="45.53971" lon="4.00042">
        <ele>903</ele>
        <time>2021-06-10T18:10:41Z</time>
      </trkpt>
      <trkpt lat="45.5398" lon="4.00042">
        <ele>903</ele>
        <time>2021-06-10T18:10:42Z</time>
      </trkpt>
      <trkpt lat="45.53993" lon="4.00047">
        <ele>902</ele>
        <time>2021-06-10T18:10:45Z</time>
      </trkpt>
      <trkpt lat="45.54005" lon="4.00046">
        <ele>901</ele>
        <time>2021-06-10T18:10:47Z</time>
      </trkpt>
      <trkpt lat="45.54025" lon="4.0002">
        <ele>898</ele>
        <time>2021-06-10T18:10:52Z</time>
      </trkpt>
      <trkpt lat="45.54078" lon="3.99931">
        <ele>892</ele>
        <time>2021-06-10T18:11:06Z</time>
      </trkpt>
      <trkpt lat="45.54089" lon="3.99905">
        <ele>892</ele>
        <time>2021-06-10T18:11:10Z</time>
      </trkpt>
      <trkpt lat="45.54099" lon="3.99859">
        <ele>893</ele>
        <time>2021-06-10T18:11:16Z</time>
      </trkpt>
      <trkpt lat="45.54109" lon="3.99829">
        <ele>894</ele>
        <time>2021-06-10T18:11:20Z</time>
      </trkpt>
      <trkpt lat="45.54243" lon="3.99617">
        <ele>896</ele>
        <time>2021-06-10T18:11:56Z</time>
      </trkpt>
      <trkpt lat="45.54252" lon="3.99608">
        <ele>896</ele>
        <time>2021-06-10T18:11:58Z</time>
      </trkpt>
      <trkpt lat="45.5426" lon="3.99605">
        <ele>895</ele>
        <time>2021-06-10T18:11:59Z</time>
      </trkpt>
      <trkpt lat="45.54294" lon="3.99611">
        <ele>889</ele>
        <time>2021-06-10T18:12:05Z</time>
      </trkpt>
      <trkpt lat="45.54309" lon="3.99609">
        <ele>888</ele>
        <time>2021-06-10T18:12:08Z</time>
      </trkpt>
      <trkpt lat="45.54325" lon="3.99602">
        <ele>886</ele>
        <time>2021-06-10T18:12:11Z</time>
      </trkpt>
      <trkpt lat="45.54342" lon="3.99589">
        <ele>885</ele>
        <time>2021-06-10T18:12:14Z</time>
      </trkpt>
      <trkpt lat="45.54359" lon="3.99572">
        <ele>885</ele>
        <time>2021-06-10T18:12:18Z</time>
      </trkpt>
      <trkpt lat="45.54392" lon="3.99522">
        <ele>885</ele>
        <time>2021-06-10T18:12:27Z</time>
      </trkpt>
      <trkpt lat="45.54417" lon="3.9947">
        <ele>884</ele>
        <time>2021-06-10T18:12:35Z</time>
      </trkpt>
      <trkpt lat="45.54434" lon="3.99442">
        <ele>885</ele>
        <time>2021-06-10T18:12:39Z</time>
      </trkpt>
      <trkpt lat="45.54458" lon="3.99428">
        <ele>884</ele>
        <time>2021-06-10T18:12:44Z</time>
      </trkpt>
      <trkpt lat="45.54501" lon="3.99418">
        <ele>879</ele>
        <time>2021-06-10T18:12:52Z</time>
      </trkpt>
      <trkpt lat="45.54525" lon="3.99408">
        <ele>878</ele>
        <time>2021-06-10T18:12:56Z</time>
      </trkpt>
      <trkpt lat="45.54628" lon="3.99348">
        <ele>873</ele>
        <time>2021-06-10T18:13:16Z</time>
      </trkpt>
      <trkpt lat="45.54639" lon="3.99338">
        <ele>873</ele>
        <time>2021-06-10T18:13:18Z</time>
      </trkpt>
      <trkpt lat="45.54648" lon="3.99324">
        <ele>873</ele>
        <time>2021-06-10T18:13:20Z</time>
      </trkpt>
      <trkpt lat="45.54664" lon="3.99284">
        <ele>876</ele>
        <time>2021-06-10T18:13:26Z</time>
      </trkpt>
      <trkpt lat="45.54675" lon="3.99269">
        <ele>876</ele>
        <time>2021-06-10T18:13:29Z</time>
      </trkpt>
      <trkpt lat="45.54724" lon="3.99256">
        <ele>868</ele>
        <time>2021-06-10T18:13:38Z</time>
      </trkpt>
      <trkpt lat="45.54749" lon="3.99242">
        <ele>867</ele>
        <time>2021-06-10T18:13:43Z</time>
      </trkpt>
      <trkpt lat="45.54798" lon="3.99209">
        <ele>868</ele>
        <time>2021-06-10T18:13:52Z</time>
      </trkpt>
      <trkpt lat="45.54859" lon="3.99162">
        <ele>871</ele>
        <time>2021-06-10T18:14:05Z</time>
      </trkpt>
      <trkpt lat="45.54875" lon="3.99157">
        <ele>869</ele>
        <time>2021-06-10T18:14:07Z</time>
      </trkpt>
      <trkpt lat="45.54898" lon="3.99162">
        <ele>863</ele>
        <time>2021-06-10T18:14:12Z</time>
      </trkpt>
      <trkpt lat="45.54913" lon="3.99177">
        <ele>857</ele>
        <time>2021-06-10T18:14:15Z</time>
      </trkpt>
      <trkpt lat="45.54921" lon="3.99193">
        <ele>855</ele>
        <time>2021-06-10T18:14:17Z</time>
      </trkpt>
      <trkpt lat="45.54925" lon="3.99212">
        <ele>853</ele>
        <time>2021-06-10T18:14:20Z</time>
      </trkpt>
      <trkpt lat="45.54925" lon="3.99232">
        <ele>850</ele>
        <time>2021-06-10T18:14:22Z</time>
      </trkpt>
      <trkpt lat="45.54907" lon="3.99289">
        <ele>844</ele>
        <time>2021-06-10T18:14:30Z</time>
      </trkpt>
      <trkpt lat="45.54901" lon="3.9932">
        <ele>841</ele>
        <time>2021-06-10T18:14:34Z</time>
      </trkpt>
      <trkpt lat="45.54897" lon="3.9935">
        <ele>838</ele>
        <time>2021-06-10T18:14:38Z</time>
      </trkpt>
      <trkpt lat="45.54902" lon="3.9937">
        <ele>836</ele>
        <time>2021-06-10T18:14:40Z</time>
      </trkpt>
      <trkpt lat="45.5497" lon="3.99456">
        <ele>830</ele>
        <time>2021-06-10T18:14:57Z</time>
      </trkpt>
      <trkpt lat="45.55001" lon="3.99486">
        <ele>829</ele>
        <time>2021-06-10T18:15:03Z</time>
      </trkpt>
      <trkpt lat="45.55019" lon="3.99495">
        <ele>827</ele>
        <time>2021-06-10T18:15:07Z</time>
      </trkpt>
      <trkpt lat="45.55042" lon="3.99501">
        <ele>826</ele>
        <time>2021-06-10T18:15:11Z</time>
      </trkpt>
      <trkpt lat="45.55071" lon="3.99504">
        <ele>826</ele>
        <time>2021-06-10T18:15:16Z</time>
      </trkpt>
      <trkpt lat="45.55081" lon="3.99503">
        <ele>826</ele>
        <time>2021-06-10T18:15:18Z</time>
      </trkpt>
      <trkpt lat="45.55091" lon="3.99498">
        <ele>825</ele>
        <time>2021-06-10T18:15:20Z</time>
      </trkpt>
      <trkpt lat="45.55098" lon="3.9949">
        <ele>825</ele>
        <time>2021-06-10T18:15:21Z</time>
      </trkpt>
      <trkpt lat="45.55148" lon="3.99419">
        <ele>824</ele>
        <time>2021-06-10T18:15:34Z</time>
      </trkpt>
      <trkpt lat="45.55175" lon="3.99397">
        <ele>823</ele>
        <time>2021-06-10T18:15:39Z</time>
      </trkpt>
      <trkpt lat="45.55237" lon="3.99358">
        <ele>818</ele>
        <time>2021-06-10T18:15:51Z</time>
      </trkpt>
      <trkpt lat="45.55269" lon="3.9933">
        <ele>816</ele>
        <time>2021-06-10T18:15:58Z</time>
      </trkpt>
      <trkpt lat="45.55281" lon="3.99313">
        <ele>815</ele>
        <time>2021-06-10T18:16:01Z</time>
      </trkpt>
      <trkpt lat="45.55298" lon="3.9927">
        <ele>816</ele>
        <time>2021-06-10T18:16:07Z</time>
      </trkpt>
      <trkpt lat="45.55306" lon="3.99258">
        <ele>816</ele>
        <time>2021-06-10T18:16:09Z</time>
      </trkpt>
      <trkpt lat="45.55316" lon="3.99249">
        <ele>815</ele>
        <time>2021-06-10T18:16:11Z</time>
      </trkpt>
      <trkpt lat="45.55358" lon="3.99234">
        <ele>810</ele>
        <time>2021-06-10T18:16:19Z</time>
      </trkpt>
      <trkpt lat="45.55372" lon="3.99224">
        <ele>809</ele>
        <time>2021-06-10T18:16:22Z</time>
      </trkpt>
      <trkpt lat="45.55383" lon="3.9921">
        <ele>809</ele>
        <time>2021-06-10T18:16:25Z</time>
      </trkpt>
      <trkpt lat="45.55397" lon="3.99181">
        <ele>808</ele>
        <time>2021-06-10T18:16:29Z</time>
      </trkpt>
      <trkpt lat="45.55417" lon="3.991">
        <ele>807</ele>
        <time>2021-06-10T18:16:40Z</time>
      </trkpt>
      <trkpt lat="45.55427" lon="3.99076">
        <ele>807</ele>
        <time>2021-06-10T18:16:43Z</time>
      </trkpt>
      <trkpt lat="45.55438" lon="3.9906">
        <ele>807</ele>
        <time>2021-06-10T18:16:46Z</time>
      </trkpt>
      <trkpt lat="45.55453" lon="3.99048">
        <ele>807</ele>
        <time>2021-06-10T18:16:49Z</time>
      </trkpt>
      <trkpt lat="45.55467" lon="3.99042">
        <ele>807</ele>
        <time>2021-06-10T18:16:52Z</time>
      </trkpt>
      <trkpt lat="45.55488" lon="3.99046">
        <ele>805</ele>
        <time>2021-06-10T18:16:55Z</time>
      </trkpt>
      <trkpt lat="45.555" lon="3.99061">
        <ele>804</ele>
        <time>2021-06-10T18:16:58Z</time>
      </trkpt>
      <trkpt lat="45.55504" lon="3.99078">
        <ele>804</ele>
        <time>2021-06-10T18:17:00Z</time>
      </trkpt>
      <trkpt lat="45.55468" lon="3.99289">
        <ele>805</ele>
        <time>2021-06-10T18:17:27Z</time>
      </trkpt>
      <trkpt lat="45.55459" lon="3.99404">
        <ele>802</ele>
        <time>2021-06-10T18:17:42Z</time>
      </trkpt>
      <trkpt lat="45.55447" lon="3.99453">
        <ele>801</ele>
        <time>2021-06-10T18:17:48Z</time>
      </trkpt>
      <trkpt lat="45.5544" lon="3.99494">
        <ele>801</ele>
        <time>2021-06-10T18:17:54Z</time>
      </trkpt>
      <trkpt lat="45.5544" lon="3.99541">
        <ele>805</ele>
        <time>2021-06-10T18:17:59Z</time>
      </trkpt>
      <trkpt lat="45.55454" lon="3.99764">
        <ele>817</ele>
        <time>2021-06-10T18:18:27Z</time>
      </trkpt>
      <trkpt lat="45.55449" lon="3.99805">
        <ele>818</ele>
        <time>2021-06-10T18:18:33Z</time>
      </trkpt>
      <trkpt lat="45.55436" lon="3.99852">
        <ele>818</ele>
        <time>2021-06-10T18:18:39Z</time>
      </trkpt>
      <trkpt lat="45.55432" lon="3.99887">
        <ele>818</ele>
        <time>2021-06-10T18:18:43Z</time>
      </trkpt>
      <trkpt lat="45.55431" lon="3.99925">
        <ele>819</ele>
        <time>2021-06-10T18:18:48Z</time>
      </trkpt>
      <trkpt lat="45.55438" lon="3.99998">
        <ele>819</ele>
        <time>2021-06-10T18:18:57Z</time>
      </trkpt>
      <trkpt lat="45.5545" lon="4.00048">
        <ele>820</ele>
        <time>2021-06-10T18:19:04Z</time>
      </trkpt>
      <trkpt lat="45.55456" lon="4.00062">
        <ele>821</ele>
        <time>2021-06-10T18:19:06Z</time>
      </trkpt>
      <trkpt lat="45.55472" lon="4.00077">
        <ele>823</ele>
        <time>2021-06-10T18:19:09Z</time>
      </trkpt>
      <trkpt lat="45.55512" lon="4.00093">
        <ele>826</ele>
        <time>2021-06-10T18:19:17Z</time>
      </trkpt>
      <trkpt lat="45.55535" lon="4.00097">
        <ele>826</ele>
        <time>2021-06-10T18:19:21Z</time>
      </trkpt>
      <trkpt lat="45.55633" lon="4.00095">
        <ele>830</ele>
        <time>2021-06-10T18:19:38Z</time>
      </trkpt>
      <trkpt lat="45.55662" lon="4.00101">
        <ele>831</ele>
        <time>2021-06-10T18:19:43Z</time>
      </trkpt>
      <trkpt lat="45.55689" lon="4.00112">
        <ele>832</ele>
        <time>2021-06-10T18:19:48Z</time>
      </trkpt>
      <trkpt lat="45.55729" lon="4.00139">
        <ele>831</ele>
        <time>2021-06-10T18:19:56Z</time>
      </trkpt>
      <trkpt lat="45.55752" lon="4.00141">
        <ele>832</ele>
        <time>2021-06-10T18:20:00Z</time>
      </trkpt>
      <trkpt lat="45.55771" lon="4.00133">
        <ele>832</ele>
        <time>2021-06-10T18:20:04Z</time>
      </trkpt>
      <trkpt lat="45.55909" lon="3.99953">
        <ele>834</ele>
        <time>2021-06-10T18:20:37Z</time>
      </trkpt>
      <trkpt lat="45.55939" lon="3.99921">
        <ele>834</ele>
        <time>2021-06-10T18:20:44Z</time>
      </trkpt>
      <trkpt lat="45.56091" lon="3.99792">
        <ele>833</ele>
        <time>2021-06-10T18:21:15Z</time>
      </trkpt>
      <trkpt lat="45.5612" lon="3.99772">
        <ele>834</ele>
        <time>2021-06-10T18:21:21Z</time>
      </trkpt>
      <trkpt lat="45.56148" lon="3.99757">
        <ele>835</ele>
        <time>2021-06-10T18:21:26Z</time>
      </trkpt>
      <trkpt lat="45.56163" lon="3.99755">
        <ele>835</ele>
        <time>2021-06-10T18:21:29Z</time>
      </trkpt>
      <trkpt lat="45.56208" lon="3.99763">
        <ele>837</ele>
        <time>2021-06-10T18:21:37Z</time>
      </trkpt>
      <trkpt lat="45.56257" lon="3.9978">
        <ele>840</ele>
        <time>2021-06-10T18:21:46Z</time>
      </trkpt>
      <trkpt lat="45.56275" lon="3.99793">
        <ele>841</ele>
        <time>2021-06-10T18:21:50Z</time>
      </trkpt>
      <trkpt lat="45.56286" lon="3.99807">
        <ele>841</ele>
        <time>2021-06-10T18:21:52Z</time>
      </trkpt>
      <trkpt lat="45.56294" lon="3.99825">
        <ele>841</ele>
        <time>2021-06-10T18:21:55Z</time>
      </trkpt>
      <trkpt lat="45.56309" lon="3.99898">
        <ele>838</ele>
        <time>2021-06-10T18:22:04Z</time>
      </trkpt>
      <trkpt lat="45.56315" lon="3.99914">
        <ele>837</ele>
        <time>2021-06-10T18:22:07Z</time>
      </trkpt>
      <trkpt lat="45.56332" lon="3.99938">
        <ele>836</ele>
        <time>2021-06-10T18:22:11Z</time>
      </trkpt>
      <trkpt lat="45.56382" lon="3.99983">
        <ele>837</ele>
        <time>2021-06-10T18:22:21Z</time>
      </trkpt>
      <trkpt lat="45.5642" lon="4.00032">
        <ele>838</ele>
        <time>2021-06-10T18:22:31Z</time>
      </trkpt>
      <trkpt lat="45.56465" lon="4.00128">
        <ele>833</ele>
        <time>2021-06-10T18:22:45Z</time>
      </trkpt>
      <trkpt lat="45.56485" lon="4.00153">
        <ele>834</ele>
        <time>2021-06-10T18:22:50Z</time>
      </trkpt>
      <trkpt lat="45.56519" lon="4.00179">
        <ele>834</ele>
        <time>2021-06-10T18:22:56Z</time>
      </trkpt>
      <trkpt lat="45.56543" lon="4.00189">
        <ele>835</ele>
        <time>2021-06-10T18:23:01Z</time>
      </trkpt>
      <trkpt lat="45.56609" lon="4.00231">
        <ele>835</ele>
        <time>2021-06-10T18:23:14Z</time>
      </trkpt>
      <trkpt lat="45.56631" lon="4.0024">
        <ele>835</ele>
        <time>2021-06-10T18:23:18Z</time>
      </trkpt>
      <trkpt lat="45.56653" lon="4.00244">
        <ele>835</ele>
        <time>2021-06-10T18:23:22Z</time>
      </trkpt>
      <trkpt lat="45.56679" lon="4.00241">
        <ele>835</ele>
        <time>2021-06-10T18:23:26Z</time>
      </trkpt>
      <trkpt lat="45.56703" lon="4.00235">
        <ele>834</ele>
        <time>2021-06-10T18:23:31Z</time>
      </trkpt>
      <trkpt lat="45.56729" lon="4.00224">
        <ele>834</ele>
        <time>2021-06-10T18:23:36Z</time>
      </trkpt>
      <trkpt lat="45.568" lon="4.00178">
        <ele>831</ele>
        <time>2021-06-10T18:23:49Z</time>
      </trkpt>
      <trkpt lat="45.56884" lon="4.00097">
        <ele>829</ele>
        <time>2021-06-10T18:24:08Z</time>
      </trkpt>
      <trkpt lat="45.56902" lon="4.00071">
        <ele>829</ele>
        <time>2021-06-10T18:24:12Z</time>
      </trkpt>
      <trkpt lat="45.56912" lon="4.00042">
        <ele>830</ele>
        <time>2021-06-10T18:24:16Z</time>
      </trkpt>
      <trkpt lat="45.5693" lon="3.99944">
        <ele>830</ele>
        <time>2021-06-10T18:24:29Z</time>
      </trkpt>
      <trkpt lat="45.56944" lon="3.99896">
        <ele>829</ele>
        <time>2021-06-10T18:24:35Z</time>
      </trkpt>
      <trkpt lat="45.56961" lon="3.99855">
        <ele>829</ele>
        <time>2021-06-10T18:24:41Z</time>
      </trkpt>
      <trkpt lat="45.5698" lon="3.9982">
        <ele>828</ele>
        <time>2021-06-10T18:24:47Z</time>
      </trkpt>
      <trkpt lat="45.56989" lon="3.99809">
        <ele>827</ele>
        <time>2021-06-10T18:24:49Z</time>
      </trkpt>
      <trkpt lat="45.57005" lon="3.99799">
        <ele>826</ele>
        <time>2021-06-10T18:24:52Z</time>
      </trkpt>
      <trkpt lat="45.57044" lon="3.9976">
        <ele>824</ele>
        <time>2021-06-10T18:25:00Z</time>
      </trkpt>
      <trkpt lat="45.57053" lon="3.99735">
        <ele>824</ele>
        <time>2021-06-10T18:25:04Z</time>
      </trkpt>
      <trkpt lat="45.57054" lon="3.99707">
        <ele>825</ele>
        <time>2021-06-10T18:25:07Z</time>
      </trkpt>
      <trkpt lat="45.57087" lon="3.99641">
        <ele>823</ele>
        <time>2021-06-10T18:25:17Z</time>
      </trkpt>
      <trkpt lat="45.57107" lon="3.99628">
        <ele>822</ele>
        <time>2021-06-10T18:25:21Z</time>
      </trkpt>
      <trkpt lat="45.57129" lon="3.996">
        <ele>820</ele>
        <time>2021-06-10T18:25:27Z</time>
      </trkpt>
      <trkpt lat="45.57153" lon="3.99577">
        <ele>818</ele>
        <time>2021-06-10T18:25:32Z</time>
      </trkpt>
      <trkpt lat="45.5716" lon="3.99555">
        <ele>818</ele>
        <time>2021-06-10T18:25:35Z</time>
      </trkpt>
      <trkpt lat="45.5718" lon="3.99455">
        <ele>818</ele>
        <time>2021-06-10T18:25:48Z</time>
      </trkpt>
      <trkpt lat="45.57183" lon="3.99446">
        <ele>817</ele>
        <time>2021-06-10T18:25:49Z</time>
      </trkpt>
      <trkpt lat="45.57197" lon="3.99433">
        <ele>816</ele>
        <time>2021-06-10T18:25:52Z</time>
      </trkpt>
      <trkpt lat="45.57208" lon="3.99433">
        <ele>814</ele>
        <time>2021-06-10T18:25:54Z</time>
      </trkpt>
      <trkpt lat="45.57217" lon="3.9944">
        <ele>813</ele>
        <time>2021-06-10T18:25:56Z</time>
      </trkpt>
      <trkpt lat="45.57222" lon="3.99449">
        <ele>812</ele>
        <time>2021-06-10T18:25:57Z</time>
      </trkpt>
      <trkpt lat="45.57227" lon="3.9947">
        <ele>811</ele>
        <time>2021-06-10T18:26:00Z</time>
      </trkpt>
      <trkpt lat="45.57223" lon="3.99526">
        <ele>810</ele>
        <time>2021-06-10T18:26:07Z</time>
      </trkpt>
      <trkpt lat="45.57226" lon="3.9955">
        <ele>809</ele>
        <time>2021-06-10T18:26:10Z</time>
      </trkpt>
      <trkpt lat="45.57238" lon="3.99567">
        <ele>806</ele>
        <time>2021-06-10T18:26:13Z</time>
      </trkpt>
      <trkpt lat="45.57245" lon="3.99571">
        <ele>805</ele>
        <time>2021-06-10T18:26:14Z</time>
      </trkpt>
      <trkpt lat="45.5729" lon="3.99568">
        <ele>803</ele>
        <time>2021-06-10T18:26:22Z</time>
      </trkpt>
      <trkpt lat="45.57302" lon="3.99574">
        <ele>802</ele>
        <time>2021-06-10T18:26:25Z</time>
      </trkpt>
      <trkpt lat="45.57331" lon="3.99595">
        <ele>800</ele>
        <time>2021-06-10T18:26:30Z</time>
      </trkpt>
      <trkpt lat="45.57344" lon="3.99599">
        <ele>799</ele>
        <time>2021-06-10T18:26:33Z</time>
      </trkpt>
      <trkpt lat="45.57388" lon="3.99605">
        <ele>798</ele>
        <time>2021-06-10T18:26:41Z</time>
      </trkpt>
      <trkpt lat="45.57406" lon="3.99611">
        <ele>798</ele>
        <time>2021-06-10T18:26:44Z</time>
      </trkpt>
      <trkpt lat="45.57423" lon="3.9962">
        <ele>798</ele>
        <time>2021-06-10T18:26:47Z</time>
      </trkpt>
      <trkpt lat="45.57444" lon="3.99624">
        <ele>801</ele>
        <time>2021-06-10T18:26:51Z</time>
      </trkpt>
      <trkpt lat="45.57512" lon="3.99598">
        <ele>805</ele>
        <time>2021-06-10T18:27:03Z</time>
      </trkpt>
      <trkpt lat="45.57665" lon="3.99636">
        <ele>822</ele>
        <time>2021-06-10T18:27:31Z</time>
      </trkpt>
      <trkpt lat="45.57687" lon="3.99561">
        <ele>825</ele>
        <time>2021-06-10T18:27:41Z</time>
      </trkpt>
      <trkpt lat="45.57707" lon="3.99481">
        <ele>829</ele>
        <time>2021-06-10T18:27:52Z</time>
      </trkpt>
      <trkpt lat="45.57718" lon="3.99397">
        <ele>830</ele>
        <time>2021-06-10T18:28:02Z</time>
      </trkpt>
      <trkpt lat="45.57727" lon="3.99374">
        <ele>831</ele>
        <time>2021-06-10T18:28:06Z</time>
      </trkpt>
      <trkpt lat="45.57791" lon="3.99269">
        <ele>839</ele>
        <time>2021-06-10T18:28:23Z</time>
      </trkpt>
      <trkpt lat="45.57823" lon="3.99233">
        <ele>841</ele>
        <time>2021-06-10T18:28:30Z</time>
      </trkpt>
      <trkpt lat="45.57838" lon="3.99209">
        <ele>843</ele>
        <time>2021-06-10T18:28:34Z</time>
      </trkpt>
      <trkpt lat="45.57852" lon="3.9917">
        <ele>844</ele>
        <time>2021-06-10T18:28:40Z</time>
      </trkpt>
      <trkpt lat="45.57851" lon="3.99144">
        <ele>845</ele>
        <time>2021-06-10T18:28:43Z</time>
      </trkpt>
      <trkpt lat="45.57839" lon="3.99083">
        <ele>848</ele>
        <time>2021-06-10T18:28:51Z</time>
      </trkpt>
      <trkpt lat="45.57858" lon="3.9908">
        <ele>850</ele>
        <time>2021-06-10T18:28:54Z</time>
      </trkpt>
      <trkpt lat="45.57873" lon="3.99082">
        <ele>851</ele>
        <time>2021-06-10T18:28:57Z</time>
      </trkpt>
      <trkpt lat="45.57885" lon="3.9909">
        <ele>852</ele>
        <time>2021-06-10T18:28:59Z</time>
      </trkpt>
      <trkpt lat="45.57894" lon="3.99107">
        <ele>852</ele>
        <time>2021-06-10T18:29:02Z</time>
      </trkpt>
      <trkpt lat="45.579" lon="3.99132">
        <ele>851</ele>
        <time>2021-06-10T18:29:05Z</time>
      </trkpt>
      <trkpt lat="45.57909" lon="3.99152">
        <ele>852</ele>
        <time>2021-06-10T18:29:08Z</time>
      </trkpt>
      <trkpt lat="45.57921" lon="3.99165">
        <ele>853</ele>
        <time>2021-06-10T18:29:11Z</time>
      </trkpt>
      <trkpt lat="45.57937" lon="3.99168">
        <ele>854</ele>
        <time>2021-06-10T18:29:14Z</time>
      </trkpt>
      <trkpt lat="45.57949" lon="3.99161">
        <ele>856</ele>
        <time>2021-06-10T18:29:16Z</time>
      </trkpt>
      <trkpt lat="45.57959" lon="3.99147">
        <ele>857</ele>
        <time>2021-06-10T18:29:19Z</time>
      </trkpt>
      <trkpt lat="45.57964" lon="3.99127">
        <ele>857</ele>
        <time>2021-06-10T18:29:21Z</time>
      </trkpt>
      <trkpt lat="45.57968" lon="3.99014">
        <ele>859</ele>
        <time>2021-06-10T18:29:35Z</time>
      </trkpt>
      <trkpt lat="45.57972" lon="3.98999">
        <ele>859</ele>
        <time>2021-06-10T18:29:37Z</time>
      </trkpt>
      <trkpt lat="45.57977" lon="3.98986">
        <ele>861</ele>
        <time>2021-06-10T18:29:39Z</time>
      </trkpt>
      <trkpt lat="45.58126" lon="3.98721">
        <ele>862</ele>
        <time>2021-06-10T18:30:21Z</time>
      </trkpt>
      <trkpt lat="45.58215" lon="3.98456">
        <ele>857</ele>
        <time>2021-06-10T18:30:58Z</time>
      </trkpt>
      <trkpt lat="45.58205" lon="3.98374">
        <ele>863</ele>
        <time>2021-06-10T18:31:08Z</time>
      </trkpt>
      <trkpt lat="45.5822" lon="3.98316">
        <ele>863</ele>
        <time>2021-06-10T18:31:16Z</time>
      </trkpt>
      <trkpt lat="45.58243" lon="3.98304">
        <ele>859</ele>
        <time>2021-06-10T18:31:20Z</time>
      </trkpt>
      <trkpt lat="45.5831" lon="3.98359">
        <ele>854</ele>
        <time>2021-06-10T18:31:34Z</time>
      </trkpt>
      <trkpt lat="45.58338" lon="3.98361">
        <ele>853</ele>
        <time>2021-06-10T18:31:39Z</time>
      </trkpt>
      <trkpt lat="45.58401" lon="3.98344">
        <ele>855</ele>
        <time>2021-06-10T18:31:51Z</time>
      </trkpt>
      <trkpt lat="45.58727" lon="3.98236">
        <ele>864</ele>
        <time>2021-06-10T18:32:50Z</time>
      </trkpt>
      <trkpt lat="45.58743" lon="3.98234">
        <ele>864</ele>
        <time>2021-06-10T18:32:53Z</time>
      </trkpt>
      <trkpt lat="45.58822" lon="3.98258">
        <ele>866</ele>
        <time>2021-06-10T18:33:07Z</time>
      </trkpt>
      <trkpt lat="45.58838" lon="3.98253">
        <ele>867</ele>
        <time>2021-06-10T18:33:10Z</time>
      </trkpt>
      <trkpt lat="45.58855" lon="3.98244">
        <ele>868</ele>
        <time>2021-06-10T18:33:14Z</time>
      </trkpt>
      <trkpt lat="45.58889" lon="3.98213">
        <ele>870</ele>
        <time>2021-06-10T18:33:21Z</time>
      </trkpt>
      <trkpt lat="45.58971" lon="3.98109">
        <ele>869</ele>
        <time>2021-06-10T18:33:40Z</time>
      </trkpt>
      <trkpt lat="45.58993" lon="3.98013">
        <ele>874</ele>
        <time>2021-06-10T18:33:53Z</time>
      </trkpt>
      <trkpt lat="45.59001" lon="3.97987">
        <ele>877</ele>
        <time>2021-06-10T18:33:56Z</time>
      </trkpt>
      <trkpt lat="45.59014" lon="3.97964">
        <ele>880</ele>
        <time>2021-06-10T18:34:00Z</time>
      </trkpt>
      <trkpt lat="45.59034" lon="3.97955">
        <ele>882</ele>
        <time>2021-06-10T18:34:04Z</time>
      </trkpt>
      <trkpt lat="45.59074" lon="3.9797">
        <ele>879</ele>
        <time>2021-06-10T18:34:11Z</time>
      </trkpt>
      <trkpt lat="45.59094" lon="3.97974">
        <ele>878</ele>
        <time>2021-06-10T18:34:15Z</time>
      </trkpt>
      <trkpt lat="45.59114" lon="3.97964">
        <ele>880</ele>
        <time>2021-06-10T18:34:18Z</time>
      </trkpt>
      <trkpt lat="45.59146" lon="3.97943">
        <ele>883</ele>
        <time>2021-06-10T18:34:25Z</time>
      </trkpt>
      <trkpt lat="45.59183" lon="3.97945">
        <ele>882</ele>
        <time>2021-06-10T18:34:31Z</time>
      </trkpt>
      <trkpt lat="45.59201" lon="3.97933">
        <ele>883</ele>
        <time>2021-06-10T18:34:35Z</time>
      </trkpt>
      <trkpt lat="45.59265" lon="3.97911">
        <ele>884</ele>
        <time>2021-06-10T18:34:47Z</time>
      </trkpt>
      <trkpt lat="45.59305" lon="3.97862">
        <ele>884</ele>
        <time>2021-06-10T18:34:56Z</time>
      </trkpt>
      <trkpt lat="45.59342" lon="3.97746">
        <ele>890</ele>
        <time>2021-06-10T18:35:12Z</time>
      </trkpt>
      <trkpt lat="45.59353" lon="3.97698">
        <ele>891</ele>
        <time>2021-06-10T18:35:18Z</time>
      </trkpt>
      <trkpt lat="45.5937" lon="3.97643">
        <ele>891</ele>
        <time>2021-06-10T18:35:26Z</time>
      </trkpt>
      <trkpt lat="45.59421" lon="3.97542">
        <ele>890</ele>
        <time>2021-06-10T18:35:41Z</time>
      </trkpt>
      <trkpt lat="45.59429" lon="3.97489">
        <ele>892</ele>
        <time>2021-06-10T18:35:48Z</time>
      </trkpt>
      <trkpt lat="45.59439" lon="3.97458">
        <ele>892</ele>
        <time>2021-06-10T18:35:52Z</time>
      </trkpt>
      <trkpt lat="45.59487" lon="3.97387">
        <ele>886</ele>
        <time>2021-06-10T18:36:04Z</time>
      </trkpt>
      <trkpt lat="45.59537" lon="3.9729">
        <ele>879</ele>
        <time>2021-06-10T18:36:19Z</time>
      </trkpt>
      <trkpt lat="45.59539" lon="3.97264">
        <ele>879</ele>
        <time>2021-06-10T18:36:23Z</time>
      </trkpt>
      <trkpt lat="45.5953" lon="3.97232">
        <ele>883</ele>
        <time>2021-06-10T18:36:27Z</time>
      </trkpt>
      <trkpt lat="45.59531" lon="3.97215">
        <ele>884</ele>
        <time>2021-06-10T18:36:29Z</time>
      </trkpt>
      <trkpt lat="45.59535" lon="3.972">
        <ele>885</ele>
        <time>2021-06-10T18:36:31Z</time>
      </trkpt>
      <trkpt lat="45.59544" lon="3.97187">
        <ele>884</ele>
        <time>2021-06-10T18:36:33Z</time>
      </trkpt>
      <trkpt lat="45.59598" lon="3.97126">
        <ele>883</ele>
        <time>2021-06-10T18:36:46Z</time>
      </trkpt>
      <trkpt lat="45.59674" lon="3.97059">
        <ele>880</ele>
        <time>2021-06-10T18:37:01Z</time>
      </trkpt>
      <trkpt lat="45.59698" lon="3.97031">
        <ele>879</ele>
        <time>2021-06-10T18:37:07Z</time>
      </trkpt>
      <trkpt lat="45.59716" lon="3.9699">
        <ele>879</ele>
        <time>2021-06-10T18:37:13Z</time>
      </trkpt>
      <trkpt lat="45.59724" lon="3.96952">
        <ele>880</ele>
        <time>2021-06-10T18:37:18Z</time>
      </trkpt>
      <trkpt lat="45.59719" lon="3.96817">
        <ele>886</ele>
        <time>2021-06-10T18:37:35Z</time>
      </trkpt>
      <trkpt lat="45.59725" lon="3.96777">
        <ele>888</ele>
        <time>2021-06-10T18:37:40Z</time>
      </trkpt>
      <trkpt lat="45.59761" lon="3.96688">
        <ele>885</ele>
        <time>2021-06-10T18:37:53Z</time>
      </trkpt>
      <trkpt lat="45.59767" lon="3.9666">
        <ele>886</ele>
        <time>2021-06-10T18:37:56Z</time>
      </trkpt>
      <trkpt lat="45.59767" lon="3.9651">
        <ele>895</ele>
        <time>2021-06-10T18:38:15Z</time>
      </trkpt>
      <trkpt lat="45.59762" lon="3.96446">
        <ele>902</ele>
        <time>2021-06-10T18:38:23Z</time>
      </trkpt>
      <trkpt lat="45.59764" lon="3.96409">
        <ele>906</ele>
        <time>2021-06-10T18:38:28Z</time>
      </trkpt>
      <trkpt lat="45.59769" lon="3.9639">
        <ele>908</ele>
        <time>2021-06-10T18:38:30Z</time>
      </trkpt>
      <trkpt lat="45.59778" lon="3.96381">
        <ele>908</ele>
        <time>2021-06-10T18:38:32Z</time>
      </trkpt>
      <trkpt lat="45.59788" lon="3.96379">
        <ele>908</ele>
        <time>2021-06-10T18:38:34Z</time>
      </trkpt>
      <trkpt lat="45.59826" lon="3.96419">
        <ele>902</ele>
        <time>2021-06-10T18:38:42Z</time>
      </trkpt>
      <trkpt lat="45.59847" lon="3.96457">
        <ele>899</ele>
        <time>2021-06-10T18:38:48Z</time>
      </trkpt>
      <trkpt lat="45.59894" lon="3.96513">
        <ele>902</ele>
        <time>2021-06-10T18:38:59Z</time>
      </trkpt>
      <trkpt lat="45.59957" lon="3.96542">
        <ele>910</ele>
        <time>2021-06-10T18:39:11Z</time>
      </trkpt>
      <trkpt lat="45.59975" lon="3.96558">
        <ele>912</ele>
        <time>2021-06-10T18:39:15Z</time>
      </trkpt>
      <trkpt lat="45.59987" lon="3.96585">
        <ele>911</ele>
        <time>2021-06-10T18:39:19Z</time>
      </trkpt>
      <trkpt lat="45.59998" lon="3.96636">
        <ele>912</ele>
        <time>2021-06-10T18:39:25Z</time>
      </trkpt>
      <trkpt lat="45.60012" lon="3.9666">
        <ele>912</ele>
        <time>2021-06-10T18:39:29Z</time>
      </trkpt>
      <trkpt lat="45.60043" lon="3.96675">
        <ele>912</ele>
        <time>2021-06-10T18:39:35Z</time>
      </trkpt>
      <trkpt lat="45.60066" lon="3.96673">
        <ele>914</ele>
        <time>2021-06-10T18:39:39Z</time>
      </trkpt>
      <trkpt lat="45.6008" lon="3.96659">
        <ele>915</ele>
        <time>2021-06-10T18:39:42Z</time>
      </trkpt>
      <trkpt lat="45.60092" lon="3.96556">
        <ele>922</ele>
        <time>2021-06-10T18:39:55Z</time>
      </trkpt>
      <trkpt lat="45.60099" lon="3.96523">
        <ele>925</ele>
        <time>2021-06-10T18:40:00Z</time>
      </trkpt>
      <trkpt lat="45.60116" lon="3.96492">
        <ele>927</ele>
        <time>2021-06-10T18:40:04Z</time>
      </trkpt>
      <trkpt lat="45.60141" lon="3.96467">
        <ele>927</ele>
        <time>2021-06-10T18:40:10Z</time>
      </trkpt>
      <trkpt lat="45.60199" lon="3.96451">
        <ele>925</ele>
        <time>2021-06-10T18:40:20Z</time>
      </trkpt>
      <trkpt lat="45.60154" lon="3.96376">
        <ele>930</ele>
        <time>2021-06-10T18:40:33Z</time>
      </trkpt>
      <trkpt lat="45.60081" lon="3.96288">
        <ele>934</ele>
        <time>2021-06-10T18:40:50Z</time>
      </trkpt>
      <trkpt lat="45.60074" lon="3.96275">
        <ele>935</ele>
        <time>2021-06-10T18:40:52Z</time>
      </trkpt>
      <trkpt lat="45.60043" lon="3.96166">
        <ele>938</ele>
        <time>2021-06-10T18:41:06Z</time>
      </trkpt>
      <trkpt lat="45.6003" lon="3.96005">
        <ele>939</ele>
        <time>2021-06-10T18:41:27Z</time>
      </trkpt>
      <trkpt lat="45.6002" lon="3.95948">
        <ele>941</ele>
        <time>2021-06-10T18:41:34Z</time>
      </trkpt>
      <trkpt lat="45.59994" lon="3.95839">
        <ele>948</ele>
        <time>2021-06-10T18:41:48Z</time>
      </trkpt>
      <trkpt lat="45.59984" lon="3.95784">
        <ele>949</ele>
        <time>2021-06-10T18:41:55Z</time>
      </trkpt>
      <trkpt lat="45.59977" lon="3.95716">
        <ele>953</ele>
        <time>2021-06-10T18:42:04Z</time>
      </trkpt>
      <trkpt lat="45.59998" lon="3.95667">
        <ele>958</ele>
        <time>2021-06-10T18:42:11Z</time>
      </trkpt>
      <trkpt lat="45.60022" lon="3.95622">
        <ele>961</ele>
        <time>2021-06-10T18:42:18Z</time>
      </trkpt>
      <trkpt lat="45.60048" lon="3.95585">
        <ele>964</ele>
        <time>2021-06-10T18:42:25Z</time>
      </trkpt>
      <trkpt lat="45.6009" lon="3.95584">
        <ele>961</ele>
        <time>2021-06-10T18:42:32Z</time>
      </trkpt>
      <trkpt lat="45.60127" lon="3.95573">
        <ele>961</ele>
        <time>2021-06-10T18:42:39Z</time>
      </trkpt>
      <trkpt lat="45.60167" lon="3.95552">
        <ele>962</ele>
        <time>2021-06-10T18:42:46Z</time>
      </trkpt>
      <trkpt lat="45.60211" lon="3.95542">
        <ele>963</ele>
        <time>2021-06-10T18:42:54Z</time>
      </trkpt>
      <trkpt lat="45.60222" lon="3.95532">
        <ele>964</ele>
        <time>2021-06-10T18:42:57Z</time>
      </trkpt>
      <trkpt lat="45.60226" lon="3.95508">
        <ele>967</ele>
        <time>2021-06-10T18:43:00Z</time>
      </trkpt>
      <trkpt lat="45.60219" lon="3.95483">
        <ele>968</ele>
        <time>2021-06-10T18:43:03Z</time>
      </trkpt>
      <trkpt lat="45.60197" lon="3.95469">
        <ele>969</ele>
        <time>2021-06-10T18:43:07Z</time>
      </trkpt>
      <trkpt lat="45.60193" lon="3.95385">
        <ele>969</ele>
        <time>2021-06-10T18:43:18Z</time>
      </trkpt>
      <trkpt lat="45.60116" lon="3.95189">
        <ele>975</ele>
        <time>2021-06-10T18:43:46Z</time>
      </trkpt>
      <trkpt lat="45.60106" lon="3.95144">
        <ele>976</ele>
        <time>2021-06-10T18:43:52Z</time>
      </trkpt>
      <trkpt lat="45.60106" lon="3.95101">
        <ele>975</ele>
        <time>2021-06-10T18:43:57Z</time>
      </trkpt>
      <trkpt lat="45.60111" lon="3.95047">
        <ele>973</ele>
        <time>2021-06-10T18:44:04Z</time>
      </trkpt>
      <trkpt lat="45.60127" lon="3.94944">
        <ele>973</ele>
        <time>2021-06-10T18:44:17Z</time>
      </trkpt>
      <trkpt lat="45.6015" lon="3.94863">
        <ele>971</ele>
        <time>2021-06-10T18:44:28Z</time>
      </trkpt>
      <trkpt lat="45.60152" lon="3.94845">
        <ele>972</ele>
        <time>2021-06-10T18:44:30Z</time>
      </trkpt>
      <trkpt lat="45.60145" lon="3.9471">
        <ele>974</ele>
        <time>2021-06-10T18:44:47Z</time>
      </trkpt>
      <trkpt lat="45.60152" lon="3.94677">
        <ele>973</ele>
        <time>2021-06-10T18:44:51Z</time>
      </trkpt>
      <trkpt lat="45.60162" lon="3.94661">
        <ele>970</ele>
        <time>2021-06-10T18:44:54Z</time>
      </trkpt>
      <trkpt lat="45.60187" lon="3.94636">
        <ele>970</ele>
        <time>2021-06-10T18:44:59Z</time>
      </trkpt>
      <trkpt lat="45.60248" lon="3.94617">
        <ele>970</ele>
        <time>2021-06-10T18:45:10Z</time>
      </trkpt>
      <trkpt lat="45.6027" lon="3.94624">
        <ele>974</ele>
        <time>2021-06-10T18:45:14Z</time>
      </trkpt>
      <trkpt lat="45.60296" lon="3.9466">
        <ele>977</ele>
        <time>2021-06-10T18:45:21Z</time>
      </trkpt>
      <trkpt lat="45.60334" lon="3.94796">
        <ele>975</ele>
        <time>2021-06-10T18:45:39Z</time>
      </trkpt>
      <trkpt lat="45.60356" lon="3.94892">
        <ele>974</ele>
        <time>2021-06-10T18:45:52Z</time>
      </trkpt>
      <trkpt lat="45.60372" lon="3.95005">
        <ele>967</ele>
        <time>2021-06-10T18:46:06Z</time>
      </trkpt>
      <trkpt lat="45.60382" lon="3.95034">
        <ele>965</ele>
        <time>2021-06-10T18:46:10Z</time>
      </trkpt>
      <trkpt lat="45.60398" lon="3.95047">
        <ele>965</ele>
        <time>2021-06-10T18:46:13Z</time>
      </trkpt>
      <trkpt lat="45.60443" lon="3.95063">
        <ele>972</ele>
        <time>2021-06-10T18:46:22Z</time>
      </trkpt>
      <trkpt lat="45.60499" lon="3.95127">
        <ele>970</ele>
        <time>2021-06-10T18:46:34Z</time>
      </trkpt>
      <trkpt lat="45.60544" lon="3.95168">
        <ele>966</ele>
        <time>2021-06-10T18:46:44Z</time>
      </trkpt>
      <trkpt lat="45.60646" lon="3.952">
        <ele>967</ele>
        <time>2021-06-10T18:47:02Z</time>
      </trkpt>
      <trkpt lat="45.60714" lon="3.95201">
        <ele>965</ele>
        <time>2021-06-10T18:47:14Z</time>
      </trkpt>
      <trkpt lat="45.60846" lon="3.9519">
        <ele>962</ele>
        <time>2021-06-10T18:47:38Z</time>
      </trkpt>
      <trkpt lat="45.6088" lon="3.95198">
        <ele>960</ele>
        <time>2021-06-10T18:47:44Z</time>
      </trkpt>
      <trkpt lat="45.60964" lon="3.95245">
        <ele>956</ele>
        <time>2021-06-10T18:48:00Z</time>
      </trkpt>
      <trkpt lat="45.60985" lon="3.95237">
        <ele>956</ele>
        <time>2021-06-10T18:48:04Z</time>
      </trkpt>
      <trkpt lat="45.61002" lon="3.95219">
        <ele>955</ele>
        <time>2021-06-10T18:48:08Z</time>
      </trkpt>
      <trkpt lat="45.61086" lon="3.95099">
        <ele>950</ele>
        <time>2021-06-10T18:48:29Z</time>
      </trkpt>
      <trkpt lat="45.61151" lon="3.94969">
        <ele>948</ele>
        <time>2021-06-10T18:48:49Z</time>
      </trkpt>
      <trkpt lat="45.61183" lon="3.94875">
        <ele>946</ele>
        <time>2021-06-10T18:49:02Z</time>
      </trkpt>
      <trkpt lat="45.61228" lon="3.94716">
        <ele>940</ele>
        <time>2021-06-10T18:49:23Z</time>
      </trkpt>
      <trkpt lat="45.61251" lon="3.94557">
        <ele>939</ele>
        <time>2021-06-10T18:49:43Z</time>
      </trkpt>
      <trkpt lat="45.61379" lon="3.94592">
        <ele>933</ele>
        <time>2021-06-10T18:50:07Z</time>
      </trkpt>
      <trkpt lat="45.61452" lon="3.94568">
        <ele>933</ele>
        <time>2021-06-10T18:50:20Z</time>
      </trkpt>
      <trkpt lat="45.61515" lon="3.94658">
        <ele>935</ele>
        <time>2021-06-10T18:50:36Z</time>
      </trkpt>
      <trkpt lat="45.61534" lon="3.94668">
        <ele>935</ele>
        <time>2021-06-10T18:50:39Z</time>
      </trkpt>
      <trkpt lat="45.61596" lon="3.94646">
        <ele>938</ele>
        <time>2021-06-10T18:50:51Z</time>
      </trkpt>
      <trkpt lat="45.61678" lon="3.94604">
        <ele>943</ele>
        <time>2021-06-10T18:51:06Z</time>
      </trkpt>
      <trkpt lat="45.61801" lon="3.94536">
        <ele>950</ele>
        <time>2021-06-10T18:51:30Z</time>
      </trkpt>
      <trkpt lat="45.61817" lon="3.94499">
        <ele>954</ele>
        <time>2021-06-10T18:51:35Z</time>
      </trkpt>
      <trkpt lat="45.61829" lon="3.94213">
        <ele>967</ele>
        <time>2021-06-10T18:52:11Z</time>
      </trkpt>
      <trkpt lat="45.61862" lon="3.94138">
        <ele>975</ele>
        <time>2021-06-10T18:52:22Z</time>
      </trkpt>
      <trkpt lat="45.61889" lon="3.94098">
        <ele>980</ele>
        <time>2021-06-10T18:52:29Z</time>
      </trkpt>
      <trkpt lat="45.61885" lon="3.94045">
        <ele>982</ele>
        <time>2021-06-10T18:52:35Z</time>
      </trkpt>
      <trkpt lat="45.61764" lon="3.93966">
        <ele>988</ele>
        <time>2021-06-10T18:52:59Z</time>
      </trkpt>
      <trkpt lat="45.6169" lon="3.93907">
        <ele>991</ele>
        <time>2021-06-10T18:53:14Z</time>
      </trkpt>
      <trkpt lat="45.61634" lon="3.93905">
        <ele>991</ele>
        <time>2021-06-10T18:53:24Z</time>
      </trkpt>
      <trkpt lat="45.6161" lon="3.93885">
        <ele>994</ele>
        <time>2021-06-10T18:53:29Z</time>
      </trkpt>
      <trkpt lat="45.6161" lon="3.93864">
        <ele>997</ele>
        <time>2021-06-10T18:53:32Z</time>
      </trkpt>
      <trkpt lat="45.61678" lon="3.93875">
        <ele>996</ele>
        <time>2021-06-10T18:53:44Z</time>
      </trkpt>
      <trkpt lat="45.61766" lon="3.93866">
        <ele>1001</ele>
        <time>2021-06-10T18:53:59Z</time>
      </trkpt>
      <trkpt lat="45.61892" lon="3.93921">
        <ele>1000</ele>
        <time>2021-06-10T18:54:23Z</time>
      </trkpt>
      <trkpt lat="45.62015" lon="3.93892">
        <ele>1016</ele>
        <time>2021-06-10T18:54:45Z</time>
      </trkpt>
      <trkpt lat="45.62029" lon="3.9391">
        <ele>1015</ele>
        <time>2021-06-10T18:54:48Z</time>
      </trkpt>
      <trkpt lat="45.62074" lon="3.94136">
        <ele>1014</ele>
        <time>2021-06-10T18:55:18Z</time>
      </trkpt>
      <trkpt lat="45.62125" lon="3.94248">
        <ele>1015</ele>
        <time>2021-06-10T18:55:34Z</time>
      </trkpt>
      <trkpt lat="45.6216" lon="3.94266">
        <ele>1018</ele>
        <time>2021-06-10T18:55:41Z</time>
      </trkpt>
      <trkpt lat="45.62204" lon="3.94266">
        <ele>1020</ele>
        <time>2021-06-10T18:55:49Z</time>
      </trkpt>
      <trkpt lat="45.62236" lon="3.9419">
        <ele>1025</ele>
        <time>2021-06-10T18:56:00Z</time>
      </trkpt>
      <trkpt lat="45.62246" lon="3.94126">
        <ele>1028</ele>
        <time>2021-06-10T18:56:08Z</time>
      </trkpt>
      <trkpt lat="45.62272" lon="3.94062">
        <ele>1030</ele>
        <time>2021-06-10T18:56:17Z</time>
      </trkpt>
      <trkpt lat="45.6242" lon="3.9394">
        <ele>1032</ele>
        <time>2021-06-10T18:56:48Z</time>
      </trkpt>
      <trkpt lat="45.62451" lon="3.93891">
        <ele>1033</ele>
        <time>2021-06-10T18:56:56Z</time>
      </trkpt>
      <trkpt lat="45.6251" lon="3.93813">
        <ele>1031</ele>
        <time>2021-06-10T18:57:10Z</time>
      </trkpt>
      <trkpt lat="45.6271" lon="3.9361">
        <ele>1022</ele>
        <time>2021-06-10T18:57:54Z</time>
      </trkpt>
      <trkpt lat="45.62767" lon="3.93572">
        <ele>1015</ele>
        <time>2021-06-10T18:58:05Z</time>
      </trkpt>
      <trkpt lat="45.62884" lon="3.93505">
        <ele>1009</ele>
        <time>2021-06-10T18:58:27Z</time>
      </trkpt>
      <trkpt lat="45.62979" lon="3.93337">
        <ele>1023</ele>
        <time>2021-06-10T18:58:54Z</time>
      </trkpt>
      <trkpt lat="45.63145" lon="3.93179">
        <ele>1026</ele>
        <time>2021-06-10T18:59:30Z</time>
      </trkpt>
      <trkpt lat="45.63301" lon="3.92876">
        <ele>1026</ele>
        <time>2021-06-10T19:00:17Z</time>
      </trkpt>
      <trkpt lat="45.63397" lon="3.92785">
        <ele>1018</ele>
        <time>2021-06-10T19:00:37Z</time>
      </trkpt>
      <trkpt lat="45.63445" lon="3.92669">
        <ele>1029</ele>
        <time>2021-06-10T19:00:54Z</time>
      </trkpt>
      <trkpt lat="45.63663" lon="3.92374">
        <ele>1025</ele>
        <time>2021-06-10T19:01:47Z</time>
      </trkpt>
      <trkpt lat="45.63714" lon="3.92296">
        <ele>1021</ele>
        <time>2021-06-10T19:02:00Z</time>
      </trkpt>
      <trkpt lat="45.63723" lon="3.92226">
        <ele>1021</ele>
        <time>2021-06-10T19:02:09Z</time>
      </trkpt>
      <trkpt lat="45.63685" lon="3.92112">
        <ele>1022</ele>
        <time>2021-06-10T19:02:25Z</time>
      </trkpt>
      <trkpt lat="45.63611" lon="3.92021">
        <ele>1023</ele>
        <time>2021-06-10T19:02:42Z</time>
      </trkpt>
      <trkpt lat="45.63557" lon="3.91982">
        <ele>1023</ele>
        <time>2021-06-10T19:02:53Z</time>
      </trkpt>
      <trkpt lat="45.63529" lon="3.91916">
        <ele>1021</ele>
        <time>2021-06-10T19:03:03Z</time>
      </trkpt>
      <trkpt lat="45.63567" lon="3.9186">
        <ele>1032</ele>
        <time>2021-06-10T19:03:12Z</time>
      </trkpt>
      <trkpt lat="45.63645" lon="3.91895">
        <ele>1031</ele>
        <time>2021-06-10T19:03:27Z</time>
      </trkpt>
      <trkpt lat="45.63723" lon="3.91951">
        <ele>1027</ele>
        <time>2021-06-10T19:03:43Z</time>
      </trkpt>
      <trkpt lat="45.63783" lon="3.91951">
        <ele>1029</ele>
        <time>2021-06-10T19:03:53Z</time>
      </trkpt>
      <trkpt lat="45.63825" lon="3.91909">
        <ele>1034</ele>
        <time>2021-06-10T19:04:02Z</time>
      </trkpt>
      <trkpt lat="45.63885" lon="3.91774">
        <ele>1046</ele>
        <time>2021-06-10T19:04:22Z</time>
      </trkpt>
      <trkpt lat="45.6392" lon="3.91725">
        <ele>1047</ele>
        <time>2021-06-10T19:04:31Z</time>
      </trkpt>
      <trkpt lat="45.63967" lon="3.91721">
        <ele>1048</ele>
        <time>2021-06-10T19:04:39Z</time>
      </trkpt>
      <trkpt lat="45.64245" lon="3.91776">
        <ele>1055</ele>
        <time>2021-06-10T19:05:29Z</time>
      </trkpt>
      <trkpt lat="45.64254" lon="3.91786">
        <ele>1056</ele>
        <time>2021-06-10T19:05:31Z</time>
      </trkpt>
      <trkpt lat="45.64258" lon="3.91773">
        <ele>1056</ele>
        <time>2021-06-10T19:05:33Z</time>
      </trkpt>
      <trkpt lat="45.6432" lon="3.91794">
        <ele>1057</ele>
        <time>2021-06-10T19:05:44Z</time>
      </trkpt>
      <trkpt lat="45.64488" lon="3.9176">
        <ele>1065</ele>
        <time>2021-06-10T19:06:15Z</time>
      </trkpt>
      <trkpt lat="45.64531" lon="3.91725">
        <ele>1064</ele>
        <time>2021-06-10T19:06:23Z</time>
      </trkpt>
      <trkpt lat="45.64656" lon="3.91693">
        <ele>1068</ele>
        <time>2021-06-10T19:06:46Z</time>
      </trkpt>
      <trkpt lat="45.64752" lon="3.91628">
        <ele>1073</ele>
        <time>2021-06-10T19:07:05Z</time>
      </trkpt>
      <trkpt lat="45.64838" lon="3.91549">
        <ele>1075</ele>
        <time>2021-06-10T19:07:23Z</time>
      </trkpt>
      <trkpt lat="45.64901" lon="3.91525">
        <ele>1075</ele>
        <time>2021-06-10T19:07:35Z</time>
      </trkpt>
      <trkpt lat="45.65057" lon="3.91602">
        <ele>1075</ele>
        <time>2021-06-10T19:08:04Z</time>
      </trkpt>
      <trkpt lat="45.6518" lon="3.91681">
        <ele>1078</ele>
        <time>2021-06-10T19:08:28Z</time>
      </trkpt>
      <trkpt lat="45.65259" lon="3.9177">
        <ele>1080</ele>
        <time>2021-06-10T19:08:46Z</time>
      </trkpt>
      <trkpt lat="45.65274" lon="3.91826">
        <ele>1079</ele>
        <time>2021-06-10T19:08:53Z</time>
      </trkpt>
      <trkpt lat="45.65269" lon="3.91958">
        <ele>1084</ele>
        <time>2021-06-10T19:09:10Z</time>
      </trkpt>
      <trkpt lat="45.6531" lon="3.92175">
        <ele>1088</ele>
        <time>2021-06-10T19:09:38Z</time>
      </trkpt>
      <trkpt lat="45.65367" lon="3.92352">
        <ele>1086</ele>
        <time>2021-06-10T19:10:02Z</time>
      </trkpt>
      <trkpt lat="45.65369" lon="3.92427">
        <ele>1086</ele>
        <time>2021-06-10T19:10:11Z</time>
      </trkpt>
      <trkpt lat="45.65336" lon="3.92625">
        <ele>1085</ele>
        <time>2021-06-10T19:10:37Z</time>
      </trkpt>
      <trkpt lat="45.65334" lon="3.92701">
        <ele>1084</ele>
        <time>2021-06-10T19:10:46Z</time>
      </trkpt>
      <trkpt lat="45.65354" lon="3.92803">
        <ele>1081</ele>
        <time>2021-06-10T19:10:59Z</time>
      </trkpt>
      <trkpt lat="45.65368" lon="3.9286">
        <ele>1080</ele>
        <time>2021-06-10T19:11:07Z</time>
      </trkpt>
      <trkpt lat="45.65371" lon="3.9292">
        <ele>1082</ele>
        <time>2021-06-10T19:11:14Z</time>
      </trkpt>
      <trkpt lat="45.65384" lon="3.92979">
        <ele>1079</ele>
        <time>2021-06-10T19:11:22Z</time>
      </trkpt>
      <trkpt lat="45.65385" lon="3.93004">
        <ele>1078</ele>
        <time>2021-06-10T19:11:25Z</time>
      </trkpt>
      <trkpt lat="45.6538" lon="3.93107">
        <ele>1077</ele>
        <time>2021-06-10T19:11:38Z</time>
      </trkpt>
      <trkpt lat="45.65354" lon="3.93191">
        <ele>1077</ele>
        <time>2021-06-10T19:11:49Z</time>
      </trkpt>
      <trkpt lat="45.65323" lon="3.93275">
        <ele>1077</ele>
        <time>2021-06-10T19:12:01Z</time>
      </trkpt>
      <trkpt lat="45.65318" lon="3.93326">
        <ele>1075</ele>
        <time>2021-06-10T19:12:08Z</time>
      </trkpt>
      <trkpt lat="45.65312" lon="3.93361">
        <ele>1076</ele>
        <time>2021-06-10T19:12:12Z</time>
      </trkpt>
      <trkpt lat="45.65313" lon="3.93419">
        <ele>1076</ele>
        <time>2021-06-10T19:12:19Z</time>
      </trkpt>
      <trkpt lat="45.65322" lon="3.93487">
        <ele>1073</ele>
        <time>2021-06-10T19:12:28Z</time>
      </trkpt>
      <trkpt lat="45.65332" lon="3.93533">
        <ele>1069</ele>
        <time>2021-06-10T19:12:34Z</time>
      </trkpt>
      <trkpt lat="45.65357" lon="3.93592">
        <ele>1065</ele>
        <time>2021-06-10T19:12:42Z</time>
      </trkpt>
      <trkpt lat="45.65369" lon="3.93612">
        <ele>1064</ele>
        <time>2021-06-10T19:12:46Z</time>
      </trkpt>
      <trkpt lat="45.65417" lon="3.9365">
        <ele>1062</ele>
        <time>2021-06-10T19:12:56Z</time>
      </trkpt>
      <trkpt lat="45.65432" lon="3.93672">
        <ele>1062</ele>
        <time>2021-06-10T19:12:59Z</time>
      </trkpt>
      <trkpt lat="45.65438" lon="3.93694">
        <ele>1062</ele>
        <time>2021-06-10T19:13:02Z</time>
      </trkpt>
      <trkpt lat="45.65439" lon="3.93723">
        <ele>1061</ele>
        <time>2021-06-10T19:13:06Z</time>
      </trkpt>
      <trkpt lat="45.65415" lon="3.93964">
        <ele>1059</ele>
        <time>2021-06-10T19:13:36Z</time>
      </trkpt>
      <trkpt lat="45.65429" lon="3.94071">
        <ele>1055</ele>
        <time>2021-06-10T19:13:50Z</time>
      </trkpt>
      <trkpt lat="45.65492" lon="3.94239">
        <ele>1052</ele>
        <time>2021-06-10T19:14:13Z</time>
      </trkpt>
      <trkpt lat="45.65536" lon="3.94455">
        <ele>1044</ele>
        <time>2021-06-10T19:14:41Z</time>
      </trkpt>
      <trkpt lat="45.65544" lon="3.94616">
        <ele>1035</ele>
        <time>2021-06-10T19:15:01Z</time>
      </trkpt>
      <trkpt lat="45.65555" lon="3.94718">
        <ele>1029</ele>
        <time>2021-06-10T19:15:14Z</time>
      </trkpt>
      <trkpt lat="45.65581" lon="3.94764">
        <ele>1028</ele>
        <time>2021-06-10T19:15:22Z</time>
      </trkpt>
      <trkpt lat="45.65623" lon="3.94776">
        <ele>1021</ele>
        <time>2021-06-10T19:15:29Z</time>
      </trkpt>
      <trkpt lat="45.65667" lon="3.9476">
        <ele>1019</ele>
        <time>2021-06-10T19:15:37Z</time>
      </trkpt>
      <trkpt lat="45.65818" lon="3.94551">
        <ele>1015</ele>
        <time>2021-06-10T19:16:15Z</time>
      </trkpt>
      <trkpt lat="45.65876" lon="3.94467">
        <ele>1021</ele>
        <time>2021-06-10T19:16:29Z</time>
      </trkpt>
      <trkpt lat="45.6597" lon="3.94405">
        <ele>1028</ele>
        <time>2021-06-10T19:16:48Z</time>
      </trkpt>
      <trkpt lat="45.65995" lon="3.94412">
        <ele>1028</ele>
        <time>2021-06-10T19:16:52Z</time>
      </trkpt>
      <trkpt lat="45.66036" lon="3.94417">
        <ele>1030</ele>
        <time>2021-06-10T19:17:00Z</time>
      </trkpt>
      <trkpt lat="45.66047" lon="3.94445">
        <ele>1025</ele>
        <time>2021-06-10T19:17:04Z</time>
      </trkpt>
      <trkpt lat="45.66101" lon="3.94509">
        <ele>1021</ele>
        <time>2021-06-10T19:17:16Z</time>
      </trkpt>
      <trkpt lat="45.66141" lon="3.94567">
        <ele>1014</ele>
        <time>2021-06-10T19:17:26Z</time>
      </trkpt>
      <trkpt lat="45.66217" lon="3.94618">
        <ele>1006</ele>
        <time>2021-06-10T19:17:41Z</time>
      </trkpt>
      <trkpt lat="45.66237" lon="3.94627">
        <ele>1005</ele>
        <time>2021-06-10T19:17:45Z</time>
      </trkpt>
      <trkpt lat="45.66256" lon="3.94625">
        <ele>1006</ele>
        <time>2021-06-10T19:17:48Z</time>
      </trkpt>
      <trkpt lat="45.66365" lon="3.94602">
        <ele>1002</ele>
        <time>2021-06-10T19:18:08Z</time>
      </trkpt>
      <trkpt lat="45.6639" lon="3.94602">
        <ele>1000</ele>
        <time>2021-06-10T19:18:12Z</time>
      </trkpt>
      <trkpt lat="45.66476" lon="3.94632">
        <ele>993</ele>
        <time>2021-06-10T19:18:28Z</time>
      </trkpt>
      <trkpt lat="45.66498" lon="3.94645">
        <ele>992</ele>
        <time>2021-06-10T19:18:32Z</time>
      </trkpt>
      <trkpt lat="45.6652" lon="3.94671">
        <ele>991</ele>
        <time>2021-06-10T19:18:37Z</time>
      </trkpt>
      <trkpt lat="45.66528" lon="3.9469">
        <ele>989</ele>
        <time>2021-06-10T19:18:40Z</time>
      </trkpt>
      <trkpt lat="45.66535" lon="3.94714">
        <ele>988</ele>
        <time>2021-06-10T19:18:43Z</time>
      </trkpt>
      <trkpt lat="45.66549" lon="3.94807">
        <ele>982</ele>
        <time>2021-06-10T19:18:55Z</time>
      </trkpt>
      <trkpt lat="45.66579" lon="3.94946">
        <ele>973</ele>
        <time>2021-06-10T19:19:13Z</time>
      </trkpt>
      <trkpt lat="45.66609" lon="3.95003">
        <ele>969</ele>
        <time>2021-06-10T19:19:22Z</time>
      </trkpt>
      <trkpt lat="45.66635" lon="3.95043">
        <ele>966</ele>
        <time>2021-06-10T19:19:29Z</time>
      </trkpt>
      <trkpt lat="45.6667" lon="3.95116">
        <ele>962</ele>
        <time>2021-06-10T19:19:40Z</time>
      </trkpt>
      <trkpt lat="45.66683" lon="3.95148">
        <ele>962</ele>
        <time>2021-06-10T19:19:45Z</time>
      </trkpt>
      <trkpt lat="45.66703" lon="3.9521">
        <ele>959</ele>
        <time>2021-06-10T19:19:53Z</time>
      </trkpt>
      <trkpt lat="45.66719" lon="3.95273">
        <ele>955</ele>
        <time>2021-06-10T19:20:01Z</time>
      </trkpt>
      <trkpt lat="45.66732" lon="3.95306">
        <ele>953</ele>
        <time>2021-06-10T19:20:06Z</time>
      </trkpt>
      <trkpt lat="45.66825" lon="3.95441">
        <ele>944</ele>
        <time>2021-06-10T19:20:30Z</time>
      </trkpt>
      <trkpt lat="45.66845" lon="3.95498">
        <ele>942</ele>
        <time>2021-06-10T19:20:38Z</time>
      </trkpt>
      <trkpt lat="45.66885" lon="3.95657">
        <ele>934</ele>
        <time>2021-06-10T19:20:59Z</time>
      </trkpt>
      <trkpt lat="45.66897" lon="3.95685">
        <ele>933</ele>
        <time>2021-06-10T19:21:03Z</time>
      </trkpt>
      <trkpt lat="45.66937" lon="3.95734">
        <ele>933</ele>
        <time>2021-06-10T19:21:12Z</time>
      </trkpt>
      <trkpt lat="45.66953" lon="3.95778">
        <ele>931</ele>
        <time>2021-06-10T19:21:18Z</time>
      </trkpt>
      <trkpt lat="45.66963" lon="3.95825">
        <ele>927</ele>
        <time>2021-06-10T19:21:24Z</time>
      </trkpt>
      <trkpt lat="45.66981" lon="3.95874">
        <ele>923</ele>
        <time>2021-06-10T19:21:31Z</time>
      </trkpt>
      <trkpt lat="45.67025" lon="3.9592">
        <ele>919</ele>
        <time>2021-06-10T19:21:41Z</time>
      </trkpt>
      <trkpt lat="45.67073" lon="3.95961">
        <ele>917</ele>
        <time>2021-06-10T19:21:51Z</time>
      </trkpt>
      <trkpt lat="45.67097" lon="3.95974">
        <ele>915</ele>
        <time>2021-06-10T19:21:56Z</time>
      </trkpt>
      <trkpt lat="45.6712" lon="3.9598">
        <ele>914</ele>
        <time>2021-06-10T19:22:00Z</time>
      </trkpt>
      <trkpt lat="45.67146" lon="3.95978">
        <ele>913</ele>
        <time>2021-06-10T19:22:04Z</time>
      </trkpt>
      <trkpt lat="45.6717" lon="3.95971">
        <ele>913</ele>
        <time>2021-06-10T19:22:09Z</time>
      </trkpt>
      <trkpt lat="45.67193" lon="3.95973">
        <ele>914</ele>
        <time>2021-06-10T19:22:13Z</time>
      </trkpt>
      <trkpt lat="45.67207" lon="3.95984">
        <ele>913</ele>
        <time>2021-06-10T19:22:16Z</time>
      </trkpt>
      <trkpt lat="45.67235" lon="3.96051">
        <ele>904</ele>
        <time>2021-06-10T19:22:25Z</time>
      </trkpt>
      <trkpt lat="45.67253" lon="3.96072">
        <ele>902</ele>
        <time>2021-06-10T19:22:29Z</time>
      </trkpt>
      <trkpt lat="45.67277" lon="3.96087">
        <ele>901</ele>
        <time>2021-06-10T19:22:34Z</time>
      </trkpt>
      <trkpt lat="45.67385" lon="3.96132">
        <ele>894</ele>
        <time>2021-06-10T19:22:54Z</time>
      </trkpt>
      <trkpt lat="45.6747" lon="3.96118">
        <ele>892</ele>
        <time>2021-06-10T19:23:09Z</time>
      </trkpt>
      <trkpt lat="45.67632" lon="3.96145">
        <ele>875</ele>
        <time>2021-06-10T19:23:38Z</time>
      </trkpt>
      <trkpt lat="45.67765" lon="3.9605">
        <ele>868</ele>
        <time>2021-06-10T19:24:05Z</time>
      </trkpt>
      <trkpt lat="45.67898" lon="3.96016">
        <ele>859</ele>
        <time>2021-06-10T19:24:29Z</time>
      </trkpt>
      <trkpt lat="45.6793" lon="3.95992">
        <ele>858</ele>
        <time>2021-06-10T19:24:35Z</time>
      </trkpt>
      <trkpt lat="45.67953" lon="3.95993">
        <ele>857</ele>
        <time>2021-06-10T19:24:39Z</time>
      </trkpt>
      <trkpt lat="45.68014" lon="3.96034">
        <ele>850</ele>
        <time>2021-06-10T19:24:51Z</time>
      </trkpt>
      <trkpt lat="45.68059" lon="3.96084">
        <ele>845</ele>
        <time>2021-06-10T19:25:01Z</time>
      </trkpt>
      <trkpt lat="45.68101" lon="3.96108">
        <ele>842</ele>
        <time>2021-06-10T19:25:10Z</time>
      </trkpt>
      <trkpt lat="45.68166" lon="3.96127">
        <ele>838</ele>
        <time>2021-06-10T19:25:21Z</time>
      </trkpt>
      <trkpt lat="45.68271" lon="3.96178">
        <ele>831</ele>
        <time>2021-06-10T19:25:41Z</time>
      </trkpt>
      <trkpt lat="45.68401" lon="3.96201">
        <ele>823</ele>
        <time>2021-06-10T19:26:04Z</time>
      </trkpt>
      <trkpt lat="45.68414" lon="3.96215">
        <ele>822</ele>
        <time>2021-06-10T19:26:07Z</time>
      </trkpt>
      <trkpt lat="45.6842" lon="3.96249">
        <ele>819</ele>
        <time>2021-06-10T19:26:12Z</time>
      </trkpt>
      <trkpt lat="45.68422" lon="3.96338">
        <ele>813</ele>
        <time>2021-06-10T19:26:23Z</time>
      </trkpt>
      <trkpt lat="45.68498" lon="3.96411">
        <ele>811</ele>
        <time>2021-06-10T19:26:39Z</time>
      </trkpt>
      <trkpt lat="45.68509" lon="3.96437">
        <ele>810</ele>
        <time>2021-06-10T19:26:43Z</time>
      </trkpt>
      <trkpt lat="45.68516" lon="3.96488">
        <ele>807</ele>
        <time>2021-06-10T19:26:49Z</time>
      </trkpt>
      <trkpt lat="45.68526" lon="3.96533">
        <ele>804</ele>
        <time>2021-06-10T19:26:55Z</time>
      </trkpt>
      <trkpt lat="45.68541" lon="3.96564">
        <ele>802</ele>
        <time>2021-06-10T19:27:00Z</time>
      </trkpt>
      <trkpt lat="45.68564" lon="3.96595">
        <ele>800</ele>
        <time>2021-06-10T19:27:05Z</time>
      </trkpt>
      <trkpt lat="45.68614" lon="3.96652">
        <ele>797</ele>
        <time>2021-06-10T19:27:17Z</time>
      </trkpt>
      <trkpt lat="45.68627" lon="3.96671">
        <ele>796</ele>
        <time>2021-06-10T19:27:20Z</time>
      </trkpt>
      <trkpt lat="45.68646" lon="3.96716">
        <ele>794</ele>
        <time>2021-06-10T19:27:27Z</time>
      </trkpt>
      <trkpt lat="45.68665" lon="3.96749">
        <ele>793</ele>
        <time>2021-06-10T19:27:32Z</time>
      </trkpt>
      <trkpt lat="45.6869" lon="3.96775">
        <ele>790</ele>
        <time>2021-06-10T19:27:37Z</time>
      </trkpt>
      <trkpt lat="45.68748" lon="3.96817">
        <ele>783</ele>
        <time>2021-06-10T19:27:49Z</time>
      </trkpt>
      <trkpt lat="45.68763" lon="3.96824">
        <ele>782</ele>
        <time>2021-06-10T19:27:52Z</time>
      </trkpt>
      <trkpt lat="45.68794" lon="3.96822">
        <ele>781</ele>
        <time>2021-06-10T19:27:57Z</time>
      </trkpt>
      <trkpt lat="45.68882" lon="3.96808">
        <ele>779</ele>
        <time>2021-06-10T19:28:13Z</time>
      </trkpt>
      <trkpt lat="45.68926" lon="3.96776">
        <ele>780</ele>
        <time>2021-06-10T19:28:22Z</time>
      </trkpt>
      <trkpt lat="45.6894" lon="3.96779">
        <ele>778</ele>
        <time>2021-06-10T19:28:24Z</time>
      </trkpt>
      <trkpt lat="45.6895" lon="3.96787">
        <ele>775</ele>
        <time>2021-06-10T19:28:26Z</time>
      </trkpt>
      <trkpt lat="45.68955" lon="3.96807">
        <ele>773</ele>
        <time>2021-06-10T19:28:29Z</time>
      </trkpt>
      <trkpt lat="45.68952" lon="3.96829">
        <ele>771</ele>
        <time>2021-06-10T19:28:32Z</time>
      </trkpt>
      <trkpt lat="45.68944" lon="3.96844">
        <ele>770</ele>
        <time>2021-06-10T19:28:34Z</time>
      </trkpt>
      <trkpt lat="45.68895" lon="3.96872">
        <ele>771</ele>
        <time>2021-06-10T19:28:44Z</time>
      </trkpt>
      <trkpt lat="45.68872" lon="3.96895">
        <ele>769</ele>
        <time>2021-06-10T19:28:49Z</time>
      </trkpt>
      <trkpt lat="45.68831" lon="3.9695">
        <ele>765</ele>
        <time>2021-06-10T19:28:59Z</time>
      </trkpt>
      <trkpt lat="45.68813" lon="3.96968">
        <ele>763</ele>
        <time>2021-06-10T19:29:02Z</time>
      </trkpt>
      <trkpt lat="45.68789" lon="3.96983">
        <ele>761</ele>
        <time>2021-06-10T19:29:07Z</time>
      </trkpt>
      <trkpt lat="45.68753" lon="3.96997">
        <ele>759</ele>
        <time>2021-06-10T19:29:14Z</time>
      </trkpt>
      <trkpt lat="45.68722" lon="3.97004">
        <ele>755</ele>
        <time>2021-06-10T19:29:19Z</time>
      </trkpt>
      <trkpt lat="45.68675" lon="3.96994">
        <ele>752</ele>
        <time>2021-06-10T19:29:28Z</time>
      </trkpt>
      <trkpt lat="45.68665" lon="3.96996">
        <ele>751</ele>
        <time>2021-06-10T19:29:30Z</time>
      </trkpt>
      <trkpt lat="45.68651" lon="3.97004">
        <ele>750</ele>
        <time>2021-06-10T19:29:32Z</time>
      </trkpt>
      <trkpt lat="45.68635" lon="3.97009">
        <ele>751</ele>
        <time>2021-06-10T19:29:35Z</time>
      </trkpt>
      <trkpt lat="45.68613" lon="3.97009">
        <ele>752</ele>
        <time>2021-06-10T19:29:39Z</time>
      </trkpt>
      <trkpt lat="45.68604" lon="3.97013">
        <ele>752</ele>
        <time>2021-06-10T19:29:41Z</time>
      </trkpt>
      <trkpt lat="45.68596" lon="3.97023">
        <ele>753</ele>
        <time>2021-06-10T19:29:43Z</time>
      </trkpt>
      <trkpt lat="45.6859" lon="3.97036">
        <ele>753</ele>
        <time>2021-06-10T19:29:45Z</time>
      </trkpt>
      <trkpt lat="45.68589" lon="3.97049">
        <ele>753</ele>
        <time>2021-06-10T19:29:46Z</time>
      </trkpt>
      <trkpt lat="45.68596" lon="3.97071">
        <ele>752</ele>
        <time>2021-06-10T19:29:49Z</time>
      </trkpt>
      <trkpt lat="45.68606" lon="3.97081">
        <ele>751</ele>
        <time>2021-06-10T19:29:51Z</time>
      </trkpt>
      <trkpt lat="45.68656" lon="3.9711">
        <ele>747</ele>
        <time>2021-06-10T19:30:01Z</time>
      </trkpt>
      <trkpt lat="45.68671" lon="3.97113">
        <ele>745</ele>
        <time>2021-06-10T19:30:04Z</time>
      </trkpt>
      <trkpt lat="45.6868" lon="3.97108">
        <ele>745</ele>
        <time>2021-06-10T19:30:05Z</time>
      </trkpt>
      <trkpt lat="45.68694" lon="3.97089">
        <ele>744</ele>
        <time>2021-06-10T19:30:09Z</time>
      </trkpt>
      <trkpt lat="45.68703" lon="3.97085">
        <ele>744</ele>
        <time>2021-06-10T19:30:11Z</time>
      </trkpt>
      <trkpt lat="45.68711" lon="3.97087">
        <ele>743</ele>
        <time>2021-06-10T19:30:12Z</time>
      </trkpt>
      <trkpt lat="45.68732" lon="3.97111">
        <ele>742</ele>
        <time>2021-06-10T19:30:17Z</time>
      </trkpt>
      <trkpt lat="45.68772" lon="3.97134">
        <ele>741</ele>
        <time>2021-06-10T19:30:24Z</time>
      </trkpt>
      <trkpt lat="45.68784" lon="3.97149">
        <ele>740</ele>
        <time>2021-06-10T19:30:27Z</time>
      </trkpt>
      <trkpt lat="45.68807" lon="3.97187">
        <ele>737</ele>
        <time>2021-06-10T19:30:34Z</time>
      </trkpt>
      <trkpt lat="45.68825" lon="3.97204">
        <ele>735</ele>
        <time>2021-06-10T19:30:37Z</time>
      </trkpt>
      <trkpt lat="45.68839" lon="3.97206">
        <ele>735</ele>
        <time>2021-06-10T19:30:40Z</time>
      </trkpt>
      <trkpt lat="45.68884" lon="3.97206">
        <ele>738</ele>
        <time>2021-06-10T19:30:48Z</time>
      </trkpt>
      <trkpt lat="45.68918" lon="3.97219">
        <ele>738</ele>
        <time>2021-06-10T19:30:54Z</time>
      </trkpt>
      <trkpt lat="45.68961" lon="3.97243">
        <ele>736</ele>
        <time>2021-06-10T19:31:02Z</time>
      </trkpt>
      <trkpt lat="45.68974" lon="3.97245">
        <ele>736</ele>
        <time>2021-06-10T19:31:05Z</time>
      </trkpt>
      <trkpt lat="45.69014" lon="3.97231">
        <ele>740</ele>
        <time>2021-06-10T19:31:12Z</time>
      </trkpt>
      <trkpt lat="45.69029" lon="3.97229">
        <ele>742</ele>
        <time>2021-06-10T19:31:15Z</time>
      </trkpt>
      <trkpt lat="45.69043" lon="3.97224">
        <ele>744</ele>
        <time>2021-06-10T19:31:17Z</time>
      </trkpt>
      <trkpt lat="45.69051" lon="3.97216">
        <ele>745</ele>
        <time>2021-06-10T19:31:19Z</time>
      </trkpt>
      <trkpt lat="45.69059" lon="3.97203">
        <ele>745</ele>
        <time>2021-06-10T19:31:21Z</time>
      </trkpt>
      <trkpt lat="45.6907" lon="3.97172">
        <ele>746</ele>
        <time>2021-06-10T19:31:25Z</time>
      </trkpt>
      <trkpt lat="45.6908" lon="3.97159">
        <ele>746</ele>
        <time>2021-06-10T19:31:28Z</time>
      </trkpt>
      <trkpt lat="45.69137" lon="3.97122">
        <ele>749</ele>
        <time>2021-06-10T19:31:39Z</time>
      </trkpt>
      <trkpt lat="45.69186" lon="3.97086">
        <ele>746</ele>
        <time>2021-06-10T19:31:49Z</time>
      </trkpt>
      <trkpt lat="45.69201" lon="3.9708">
        <ele>745</ele>
        <time>2021-06-10T19:31:52Z</time>
      </trkpt>
      <trkpt lat="45.69213" lon="3.97079">
        <ele>745</ele>
        <time>2021-06-10T19:31:54Z</time>
      </trkpt>
      <trkpt lat="45.69253" lon="3.97086">
        <ele>746</ele>
        <time>2021-06-10T19:32:01Z</time>
      </trkpt>
      <trkpt lat="45.69269" lon="3.97091">
        <ele>747</ele>
        <time>2021-06-10T19:32:04Z</time>
      </trkpt>
      <trkpt lat="45.69284" lon="3.97101">
        <ele>748</ele>
        <time>2021-06-10T19:32:07Z</time>
      </trkpt>
      <trkpt lat="45.69491" lon="3.97269">
        <ele>745</ele>
        <time>2021-06-10T19:32:49Z</time>
      </trkpt>
      <trkpt lat="45.6958" lon="3.97309">
        <ele>744</ele>
        <time>2021-06-10T19:33:06Z</time>
      </trkpt>
      <trkpt lat="45.69607" lon="3.9734">
        <ele>744</ele>
        <time>2021-06-10T19:33:12Z</time>
      </trkpt>
      <trkpt lat="45.69634" lon="3.97377">
        <ele>744</ele>
        <time>2021-06-10T19:33:18Z</time>
      </trkpt>
      <trkpt lat="45.69649" lon="3.97484">
        <ele>741</ele>
        <time>2021-06-10T19:33:32Z</time>
      </trkpt>
      <trkpt lat="45.69671" lon="3.9755">
        <ele>737</ele>
        <time>2021-06-10T19:33:41Z</time>
      </trkpt>
      <trkpt lat="45.69647" lon="3.97673">
        <ele>735</ele>
        <time>2021-06-10T19:33:57Z</time>
      </trkpt>
      <trkpt lat="45.69644" lon="3.97703">
        <ele>735</ele>
        <time>2021-06-10T19:34:01Z</time>
      </trkpt>
      <trkpt lat="45.69646" lon="3.97737">
        <ele>735</ele>
        <time>2021-06-10T19:34:05Z</time>
      </trkpt>
      <trkpt lat="45.69653" lon="3.97776">
        <ele>734</ele>
        <time>2021-06-10T19:34:10Z</time>
      </trkpt>
      <trkpt lat="45.69671" lon="3.97834">
        <ele>731</ele>
        <time>2021-06-10T19:34:18Z</time>
      </trkpt>
      <trkpt lat="45.69734" lon="3.97971">
        <ele>725</ele>
        <time>2021-06-10T19:34:38Z</time>
      </trkpt>
      <trkpt lat="45.69741" lon="3.97992">
        <ele>725</ele>
        <time>2021-06-10T19:34:41Z</time>
      </trkpt>
      <trkpt lat="45.69832" lon="3.98332">
        <ele>719</ele>
        <time>2021-06-10T19:35:26Z</time>
      </trkpt>
      <trkpt lat="45.69898" lon="3.9849">
        <ele>719</ele>
        <time>2021-06-10T19:35:49Z</time>
      </trkpt>
      <trkpt lat="45.6992" lon="3.98588">
        <ele>719</ele>
        <time>2021-06-10T19:36:02Z</time>
      </trkpt>
      <trkpt lat="45.69937" lon="3.98636">
        <ele>722</ele>
        <time>2021-06-10T19:36:09Z</time>
      </trkpt>
      <trkpt lat="45.69953" lon="3.98649">
        <ele>722</ele>
        <time>2021-06-10T19:36:12Z</time>
      </trkpt>
      <trkpt lat="45.69964" lon="3.98649">
        <ele>722</ele>
        <time>2021-06-10T19:36:14Z</time>
      </trkpt>
      <trkpt lat="45.69988" lon="3.98642">
        <ele>721</ele>
        <time>2021-06-10T19:36:18Z</time>
      </trkpt>
      <trkpt lat="45.70004" lon="3.98644">
        <ele>721</ele>
        <time>2021-06-10T19:36:21Z</time>
      </trkpt>
      <trkpt lat="45.70048" lon="3.9866">
        <ele>723</ele>
        <time>2021-06-10T19:36:29Z</time>
      </trkpt>
      <trkpt lat="45.70087" lon="3.98666">
        <ele>722</ele>
        <time>2021-06-10T19:36:36Z</time>
      </trkpt>
      <trkpt lat="45.70097" lon="3.98671">
        <ele>722</ele>
        <time>2021-06-10T19:36:38Z</time>
      </trkpt>
      <trkpt lat="45.70103" lon="3.9868">
        <ele>722</ele>
        <time>2021-06-10T19:36:40Z</time>
      </trkpt>
      <trkpt lat="45.70113" lon="3.98708">
        <ele>723</ele>
        <time>2021-06-10T19:36:44Z</time>
      </trkpt>
      <trkpt lat="45.70117" lon="3.98737">
        <ele>724</ele>
        <time>2021-06-10T19:36:47Z</time>
      </trkpt>
      <trkpt lat="45.70121" lon="3.98808">
        <ele>725</ele>
        <time>2021-06-10T19:36:56Z</time>
      </trkpt>
      <trkpt lat="45.70126" lon="3.98825">
        <ele>724</ele>
        <time>2021-06-10T19:36:58Z</time>
      </trkpt>
      <trkpt lat="45.70139" lon="3.98843">
        <ele>724</ele>
        <time>2021-06-10T19:37:02Z</time>
      </trkpt>
      <trkpt lat="45.7016" lon="3.98865">
        <ele>722</ele>
        <time>2021-06-10T19:37:06Z</time>
      </trkpt>
      <trkpt lat="45.70184" lon="3.98885">
        <ele>723</ele>
        <time>2021-06-10T19:37:11Z</time>
      </trkpt>
      <trkpt lat="45.70202" lon="3.98896">
        <ele>724</ele>
        <time>2021-06-10T19:37:15Z</time>
      </trkpt>
      <trkpt lat="45.70229" lon="3.98904">
        <ele>725</ele>
        <time>2021-06-10T19:37:20Z</time>
      </trkpt>
      <trkpt lat="45.70287" lon="3.98902">
        <ele>728</ele>
        <time>2021-06-10T19:37:30Z</time>
      </trkpt>
      <trkpt lat="45.70306" lon="3.98905">
        <ele>729</ele>
        <time>2021-06-10T19:37:33Z</time>
      </trkpt>
      <trkpt lat="45.70391" lon="3.98938">
        <ele>731</ele>
        <time>2021-06-10T19:37:49Z</time>
      </trkpt>
      <trkpt lat="45.7046" lon="3.98959">
        <ele>734</ele>
        <time>2021-06-10T19:38:02Z</time>
      </trkpt>
      <trkpt lat="45.70488" lon="3.98965">
        <ele>735</ele>
        <time>2021-06-10T19:38:07Z</time>
      </trkpt>
      <trkpt lat="45.70508" lon="3.98963">
        <ele>735</ele>
        <time>2021-06-10T19:38:10Z</time>
      </trkpt>
      <trkpt lat="45.70535" lon="3.98954">
        <ele>735</ele>
        <time>2021-06-10T19:38:15Z</time>
      </trkpt>
      <trkpt lat="45.70566" lon="3.98932">
        <ele>734</ele>
        <time>2021-06-10T19:38:21Z</time>
      </trkpt>
      <trkpt lat="45.70638" lon="3.98854">
        <ele>732</ele>
        <time>2021-06-10T19:38:37Z</time>
      </trkpt>
      <trkpt lat="45.70673" lon="3.98831">
        <ele>730</ele>
        <time>2021-06-10T19:38:44Z</time>
      </trkpt>
      <trkpt lat="45.70729" lon="3.98803">
        <ele>728</ele>
        <time>2021-06-10T19:38:55Z</time>
      </trkpt>
      <trkpt lat="45.70754" lon="3.98795">
        <ele>727</ele>
        <time>2021-06-10T19:38:59Z</time>
      </trkpt>
      <trkpt lat="45.7078" lon="3.98793">
        <ele>727</ele>
        <time>2021-06-10T19:39:04Z</time>
      </trkpt>
      <trkpt lat="45.70819" lon="3.98797">
        <ele>729</ele>
        <time>2021-06-10T19:39:11Z</time>
      </trkpt>
      <trkpt lat="45.70876" lon="3.98808">
        <ele>732</ele>
        <time>2021-06-10T19:39:21Z</time>
      </trkpt>
      <trkpt lat="45.70891" lon="3.98808">
        <ele>732</ele>
        <time>2021-06-10T19:39:24Z</time>
      </trkpt>
      <trkpt lat="45.70934" lon="3.98791">
        <ele>731</ele>
        <time>2021-06-10T19:39:32Z</time>
      </trkpt>
      <trkpt lat="45.70955" lon="3.98776">
        <ele>731</ele>
        <time>2021-06-10T19:39:36Z</time>
      </trkpt>
      <trkpt lat="45.70976" lon="3.98746">
        <ele>730</ele>
        <time>2021-06-10T19:39:41Z</time>
      </trkpt>
      <trkpt lat="45.71002" lon="3.98688">
        <ele>727</ele>
        <time>2021-06-10T19:39:50Z</time>
      </trkpt>
      <trkpt lat="45.7102" lon="3.98655">
        <ele>726</ele>
        <time>2021-06-10T19:39:55Z</time>
      </trkpt>
      <trkpt lat="45.71112" lon="3.98501">
        <ele>722</ele>
        <time>2021-06-10T19:40:20Z</time>
      </trkpt>
      <trkpt lat="45.71129" lon="3.98468">
        <ele>721</ele>
        <time>2021-06-10T19:40:25Z</time>
      </trkpt>
      <trkpt lat="45.71175" lon="3.98353">
        <ele>718</ele>
        <time>2021-06-10T19:40:42Z</time>
      </trkpt>
      <trkpt lat="45.71196" lon="3.98293">
        <ele>716</ele>
        <time>2021-06-10T19:40:50Z</time>
      </trkpt>
      <trkpt lat="45.71216" lon="3.98217">
        <ele>711</ele>
        <time>2021-06-10T19:41:00Z</time>
      </trkpt>
      <trkpt lat="45.71228" lon="3.98193">
        <ele>709</ele>
        <time>2021-06-10T19:41:04Z</time>
      </trkpt>
      <trkpt lat="45.7128" lon="3.98138">
        <ele>706</ele>
        <time>2021-06-10T19:41:15Z</time>
      </trkpt>
      <trkpt lat="45.71362" lon="3.98071">
        <ele>704</ele>
        <time>2021-06-10T19:41:32Z</time>
      </trkpt>
      <trkpt lat="45.7138" lon="3.98052">
        <ele>704</ele>
        <time>2021-06-10T19:41:36Z</time>
      </trkpt>
      <trkpt lat="45.71447" lon="3.97949">
        <ele>697</ele>
        <time>2021-06-10T19:41:54Z</time>
      </trkpt>
      <trkpt lat="45.71467" lon="3.97925">
        <ele>695</ele>
        <time>2021-06-10T19:41:58Z</time>
      </trkpt>
      <trkpt lat="45.71487" lon="3.97907">
        <ele>694</ele>
        <time>2021-06-10T19:42:02Z</time>
      </trkpt>
      <trkpt lat="45.71511" lon="3.97898">
        <ele>693</ele>
        <time>2021-06-10T19:42:07Z</time>
      </trkpt>
      <trkpt lat="45.71535" lon="3.97896">
        <ele>691</ele>
        <time>2021-06-10T19:42:11Z</time>
      </trkpt>
      <trkpt lat="45.7156" lon="3.97898">
        <ele>691</ele>
        <time>2021-06-10T19:42:16Z</time>
      </trkpt>
      <trkpt lat="45.71592" lon="3.97909">
        <ele>691</ele>
        <time>2021-06-10T19:42:21Z</time>
      </trkpt>
      <trkpt lat="45.71611" lon="3.97919">
        <ele>690</ele>
        <time>2021-06-10T19:42:25Z</time>
      </trkpt>
      <trkpt lat="45.71651" lon="3.97953">
        <ele>685</ele>
        <time>2021-06-10T19:42:33Z</time>
      </trkpt>
      <trkpt lat="45.71657" lon="3.97961">
        <ele>684</ele>
        <time>2021-06-10T19:42:35Z</time>
      </trkpt>
      <trkpt lat="45.71665" lon="3.97979">
        <ele>683</ele>
        <time>2021-06-10T19:42:37Z</time>
      </trkpt>
      <trkpt lat="45.71669" lon="3.97998">
        <ele>683</ele>
        <time>2021-06-10T19:42:40Z</time>
      </trkpt>
      <trkpt lat="45.71668" lon="3.98026">
        <ele>683</ele>
        <time>2021-06-10T19:42:43Z</time>
      </trkpt>
      <trkpt lat="45.71665" lon="3.98051">
        <ele>683</ele>
        <time>2021-06-10T19:42:46Z</time>
      </trkpt>
      <trkpt lat="45.71649" lon="3.98091">
        <ele>686</ele>
        <time>2021-06-10T19:42:52Z</time>
      </trkpt>
      <trkpt lat="45.71648" lon="3.98109">
        <ele>687</ele>
        <time>2021-06-10T19:42:54Z</time>
      </trkpt>
      <trkpt lat="45.71678" lon="3.9819">
        <ele>681</ele>
        <time>2021-06-10T19:43:06Z</time>
      </trkpt>
      <trkpt lat="45.71691" lon="3.98281">
        <ele>679</ele>
        <time>2021-06-10T19:43:17Z</time>
      </trkpt>
      <trkpt lat="45.71701" lon="3.98324">
        <ele>677</ele>
        <time>2021-06-10T19:43:23Z</time>
      </trkpt>
      <trkpt lat="45.71713" lon="3.98365">
        <ele>675</ele>
        <time>2021-06-10T19:43:29Z</time>
      </trkpt>
      <trkpt lat="45.71738" lon="3.98427">
        <ele>671</ele>
        <time>2021-06-10T19:43:37Z</time>
      </trkpt>
      <trkpt lat="45.71741" lon="3.98447">
        <ele>670</ele>
        <time>2021-06-10T19:43:40Z</time>
      </trkpt>
      <trkpt lat="45.71741" lon="3.98466">
        <ele>668</ele>
        <time>2021-06-10T19:43:42Z</time>
      </trkpt>
      <trkpt lat="45.71737" lon="3.98483">
        <ele>667</ele>
        <time>2021-06-10T19:43:45Z</time>
      </trkpt>
      <trkpt lat="45.71727" lon="3.98495">
        <ele>668</ele>
        <time>2021-06-10T19:43:47Z</time>
      </trkpt>
      <trkpt lat="45.71712" lon="3.98502">
        <ele>670</ele>
        <time>2021-06-10T19:43:50Z</time>
      </trkpt>
      <trkpt lat="45.71698" lon="3.98512">
        <ele>671</ele>
        <time>2021-06-10T19:43:52Z</time>
      </trkpt>
      <trkpt lat="45.7169" lon="3.98521">
        <ele>672</ele>
        <time>2021-06-10T19:43:54Z</time>
      </trkpt>
      <trkpt lat="45.71687" lon="3.98536">
        <ele>672</ele>
        <time>2021-06-10T19:43:56Z</time>
      </trkpt>
      <trkpt lat="45.71686" lon="3.98556">
        <ele>672</ele>
        <time>2021-06-10T19:43:59Z</time>
      </trkpt>
      <trkpt lat="45.71715" lon="3.9861">
        <ele>662</ele>
        <time>2021-06-10T19:44:07Z</time>
      </trkpt>
      <trkpt lat="45.71721" lon="3.98626">
        <ele>660</ele>
        <time>2021-06-10T19:44:09Z</time>
      </trkpt>
      <trkpt lat="45.71723" lon="3.98644">
        <ele>660</ele>
        <time>2021-06-10T19:44:12Z</time>
      </trkpt>
      <trkpt lat="45.7172" lon="3.98662">
        <ele>660</ele>
        <time>2021-06-10T19:44:14Z</time>
      </trkpt>
      <trkpt lat="45.71699" lon="3.98723">
        <ele>656</ele>
        <time>2021-06-10T19:44:22Z</time>
      </trkpt>
      <trkpt lat="45.71688" lon="3.9874">
        <ele>654</ele>
        <time>2021-06-10T19:44:25Z</time>
      </trkpt>
      <trkpt lat="45.71673" lon="3.98753">
        <ele>654</ele>
        <time>2021-06-10T19:44:28Z</time>
      </trkpt>
      <trkpt lat="45.71659" lon="3.98755">
        <ele>655</ele>
        <time>2021-06-10T19:44:31Z</time>
      </trkpt>
      <trkpt lat="45.71646" lon="3.98752">
        <ele>656</ele>
        <time>2021-06-10T19:44:33Z</time>
      </trkpt>
      <trkpt lat="45.71635" lon="3.98745">
        <ele>658</ele>
        <time>2021-06-10T19:44:35Z</time>
      </trkpt>
      <trkpt lat="45.71616" lon="3.98739">
        <ele>660</ele>
        <time>2021-06-10T19:44:39Z</time>
      </trkpt>
      <trkpt lat="45.7159" lon="3.98742">
        <ele>660</ele>
        <time>2021-06-10T19:44:44Z</time>
      </trkpt>
      <trkpt lat="45.71537" lon="3.98753">
        <ele>664</ele>
        <time>2021-06-10T19:44:53Z</time>
      </trkpt>
      <trkpt lat="45.71512" lon="3.98764">
        <ele>665</ele>
        <time>2021-06-10T19:44:58Z</time>
      </trkpt>
      <trkpt lat="45.71501" lon="3.98774">
        <ele>665</ele>
        <time>2021-06-10T19:45:00Z</time>
      </trkpt>
      <trkpt lat="45.71488" lon="3.98804">
        <ele>663</ele>
        <time>2021-06-10T19:45:04Z</time>
      </trkpt>
      <trkpt lat="45.71488" lon="3.98836">
        <ele>657</ele>
        <time>2021-06-10T19:45:08Z</time>
      </trkpt>
      <trkpt lat="45.71496" lon="3.98863">
        <ele>654</ele>
        <time>2021-06-10T19:45:12Z</time>
      </trkpt>
      <trkpt lat="45.7151" lon="3.98885">
        <ele>650</ele>
        <time>2021-06-10T19:45:16Z</time>
      </trkpt>
      <trkpt lat="45.71525" lon="3.98915">
        <ele>643</ele>
        <time>2021-06-10T19:45:20Z</time>
      </trkpt>
      <trkpt lat="45.71531" lon="3.98934">
        <ele>640</ele>
        <time>2021-06-10T19:45:23Z</time>
      </trkpt>
      <trkpt lat="45.71527" lon="3.99013">
        <ele>636</ele>
        <time>2021-06-10T19:45:33Z</time>
      </trkpt>
      <trkpt lat="45.71524" lon="3.99028">
        <ele>634</ele>
        <time>2021-06-10T19:45:35Z</time>
      </trkpt>
      <trkpt lat="45.71516" lon="3.99043">
        <ele>634</ele>
        <time>2021-06-10T19:45:37Z</time>
      </trkpt>
      <trkpt lat="45.71506" lon="3.99054">
        <ele>634</ele>
        <time>2021-06-10T19:45:39Z</time>
      </trkpt>
      <trkpt lat="45.71414" lon="3.99077">
        <ele>644</ele>
        <time>2021-06-10T19:45:56Z</time>
      </trkpt>
      <trkpt lat="45.71403" lon="3.99087">
        <ele>643</ele>
        <time>2021-06-10T19:45:58Z</time>
      </trkpt>
      <trkpt lat="45.71396" lon="3.99102">
        <ele>642</ele>
        <time>2021-06-10T19:46:00Z</time>
      </trkpt>
      <trkpt lat="45.71395" lon="3.99125">
        <ele>638</ele>
        <time>2021-06-10T19:46:03Z</time>
      </trkpt>
      <trkpt lat="45.71419" lon="3.99199">
        <ele>624</ele>
        <time>2021-06-10T19:46:13Z</time>
      </trkpt>
      <trkpt lat="45.71421" lon="3.99213">
        <ele>623</ele>
        <time>2021-06-10T19:46:15Z</time>
      </trkpt>
      <trkpt lat="45.71416" lon="3.99241">
        <ele>623</ele>
        <time>2021-06-10T19:46:19Z</time>
      </trkpt>
      <trkpt lat="45.7137" lon="3.99335">
        <ele>618</ele>
        <time>2021-06-10T19:46:33Z</time>
      </trkpt>
      <trkpt lat="45.71354" lon="3.9935">
        <ele>619</ele>
        <time>2021-06-10T19:46:36Z</time>
      </trkpt>
      <trkpt lat="45.71291" lon="3.99378">
        <ele>621</ele>
        <time>2021-06-10T19:46:48Z</time>
      </trkpt>
      <trkpt lat="45.71276" lon="3.994">
        <ele>618</ele>
        <time>2021-06-10T19:46:52Z</time>
      </trkpt>
      <trkpt lat="45.71274" lon="3.99419">
        <ele>615</ele>
        <time>2021-06-10T19:46:54Z</time>
      </trkpt>
      <trkpt lat="45.71283" lon="3.99451">
        <ele>611</ele>
        <time>2021-06-10T19:46:59Z</time>
      </trkpt>
      <trkpt lat="45.71295" lon="3.99474">
        <ele>609</ele>
        <time>2021-06-10T19:47:02Z</time>
      </trkpt>
      <trkpt lat="45.71348" lon="3.99562">
        <ele>598</ele>
        <time>2021-06-10T19:47:17Z</time>
      </trkpt>
      <trkpt lat="45.71373" lon="3.99594">
        <ele>595</ele>
        <time>2021-06-10T19:47:23Z</time>
      </trkpt>
      <trkpt lat="45.71394" lon="3.99611">
        <ele>594</ele>
        <time>2021-06-10T19:47:27Z</time>
      </trkpt>
      <trkpt lat="45.71461" lon="3.99634">
        <ele>593</ele>
        <time>2021-06-10T19:47:39Z</time>
      </trkpt>
      <trkpt lat="45.71477" lon="3.99644">
        <ele>591</ele>
        <time>2021-06-10T19:47:42Z</time>
      </trkpt>
      <trkpt lat="45.71591" lon="3.99737">
        <ele>579</ele>
        <time>2021-06-10T19:48:06Z</time>
      </trkpt>
      <trkpt lat="45.71613" lon="3.99752">
        <ele>577</ele>
        <time>2021-06-10T19:48:10Z</time>
      </trkpt>
      <trkpt lat="45.7163" lon="3.99758">
        <ele>575</ele>
        <time>2021-06-10T19:48:13Z</time>
      </trkpt>
      <trkpt lat="45.71696" lon="3.99768">
        <ele>574</ele>
        <time>2021-06-10T19:48:25Z</time>
      </trkpt>
      <trkpt lat="45.71715" lon="3.99776">
        <ele>574</ele>
        <time>2021-06-10T19:48:28Z</time>
      </trkpt>
      <trkpt lat="45.71731" lon="3.99796">
        <ele>571</ele>
        <time>2021-06-10T19:48:32Z</time>
      </trkpt>
      <trkpt lat="45.71743" lon="3.99825">
        <ele>569</ele>
        <time>2021-06-10T19:48:36Z</time>
      </trkpt>
      <trkpt lat="45.71755" lon="3.99868">
        <ele>566</ele>
        <time>2021-06-10T19:48:42Z</time>
      </trkpt>
      <trkpt lat="45.71762" lon="3.99939">
        <ele>561</ele>
        <time>2021-06-10T19:48:51Z</time>
      </trkpt>
      <trkpt lat="45.71761" lon="3.99976">
        <ele>558</ele>
        <time>2021-06-10T19:48:56Z</time>
      </trkpt>
      <trkpt lat="45.7175" lon="4.00024">
        <ele>555</ele>
        <time>2021-06-10T19:49:02Z</time>
      </trkpt>
      <trkpt lat="45.7169" lon="4.00217">
        <ele>549</ele>
        <time>2021-06-10T19:49:28Z</time>
      </trkpt>
      <trkpt lat="45.71672" lon="4.00288">
        <ele>543</ele>
        <time>2021-06-10T19:49:38Z</time>
      </trkpt>
      <trkpt lat="45.7167" lon="4.00328">
        <ele>541</ele>
        <time>2021-06-10T19:49:43Z</time>
      </trkpt>
      <trkpt lat="45.71671" lon="4.00371">
        <ele>539</ele>
        <time>2021-06-10T19:49:48Z</time>
      </trkpt>
      <trkpt lat="45.71678" lon="4.00414">
        <ele>538</ele>
        <time>2021-06-10T19:49:53Z</time>
      </trkpt>
      <trkpt lat="45.71684" lon="4.00485">
        <ele>534</ele>
        <time>2021-06-10T19:50:02Z</time>
      </trkpt>
      <trkpt lat="45.71694" lon="4.0054">
        <ele>532</ele>
        <time>2021-06-10T19:50:09Z</time>
      </trkpt>
      <trkpt lat="45.71717" lon="4.00643">
        <ele>527</ele>
        <time>2021-06-10T19:50:23Z</time>
      </trkpt>
      <trkpt lat="45.71736" lon="4.00705">
        <ele>524</ele>
        <time>2021-06-10T19:50:31Z</time>
      </trkpt>
      <trkpt lat="45.71747" lon="4.00716">
        <ele>525</ele>
        <time>2021-06-10T19:50:34Z</time>
      </trkpt>
      <trkpt lat="45.71763" lon="4.00724">
        <ele>525</ele>
        <time>2021-06-10T19:50:37Z</time>
      </trkpt>
      <trkpt lat="45.71806" lon="4.00733">
        <ele>523</ele>
        <time>2021-06-10T19:50:44Z</time>
      </trkpt>
      <trkpt lat="45.7189" lon="4.00736">
        <ele>518</ele>
        <time>2021-06-10T19:50:59Z</time>
      </trkpt>
      <trkpt lat="45.71984" lon="4.00743">
        <ele>508</ele>
        <time>2021-06-10T19:51:16Z</time>
      </trkpt>
      <trkpt lat="45.7202" lon="4.00739">
        <ele>504</ele>
        <time>2021-06-10T19:51:22Z</time>
      </trkpt>
      <trkpt lat="45.72046" lon="4.00733">
        <ele>502</ele>
        <time>2021-06-10T19:51:27Z</time>
      </trkpt>
      <trkpt lat="45.72118" lon="4.00682">
        <ele>501</ele>
        <time>2021-06-10T19:51:41Z</time>
      </trkpt>
      <trkpt lat="45.72147" lon="4.00641">
        <ele>500</ele>
        <time>2021-06-10T19:51:49Z</time>
      </trkpt>
      <trkpt lat="45.72169" lon="4.00605">
        <ele>499</ele>
        <time>2021-06-10T19:51:55Z</time>
      </trkpt>
      <trkpt lat="45.72203" lon="4.0054">
        <ele>496</ele>
        <time>2021-06-10T19:52:05Z</time>
      </trkpt>
      <trkpt lat="45.72245" lon="4.00419">
        <ele>492</ele>
        <time>2021-06-10T19:52:21Z</time>
      </trkpt>
      <trkpt lat="45.7225" lon="4.0039">
        <ele>491</ele>
        <time>2021-06-10T19:52:25Z</time>
      </trkpt>
      <trkpt lat="45.72255" lon="4.00324">
        <ele>489</ele>
        <time>2021-06-10T19:52:33Z</time>
      </trkpt>
      <trkpt lat="45.72263" lon="4.00305">
        <ele>489</ele>
        <time>2021-06-10T19:52:36Z</time>
      </trkpt>
      <trkpt lat="45.72271" lon="4.00293">
        <ele>489</ele>
        <time>2021-06-10T19:52:38Z</time>
      </trkpt>
      <trkpt lat="45.72281" lon="4.00292">
        <ele>487</ele>
        <time>2021-06-10T19:52:40Z</time>
      </trkpt>
      <trkpt lat="45.72304" lon="4.00297">
        <ele>484</ele>
        <time>2021-06-10T19:52:44Z</time>
      </trkpt>
      <trkpt lat="45.72374" lon="4.00337">
        <ele>472</ele>
        <time>2021-06-10T19:52:58Z</time>
      </trkpt>
      <trkpt lat="45.72435" lon="4.00391">
        <ele>465</ele>
        <time>2021-06-10T19:53:10Z</time>
      </trkpt>
      <trkpt lat="45.72488" lon="4.00424">
        <ele>462</ele>
        <time>2021-06-10T19:53:21Z</time>
      </trkpt>
      <trkpt lat="45.72551" lon="4.00448">
        <ele>456</ele>
        <time>2021-06-10T19:53:32Z</time>
      </trkpt>
      <trkpt lat="45.72572" lon="4.00451">
        <ele>455</ele>
        <time>2021-06-10T19:53:36Z</time>
      </trkpt>
      <trkpt lat="45.72676" lon="4.0044">
        <ele>447</ele>
        <time>2021-06-10T19:53:55Z</time>
      </trkpt>
      <trkpt lat="45.72701" lon="4.00446">
        <ele>444</ele>
        <time>2021-06-10T19:53:59Z</time>
      </trkpt>
      <trkpt lat="45.72799" lon="4.00501">
        <ele>437</ele>
        <time>2021-06-10T19:54:18Z</time>
      </trkpt>
      <trkpt lat="45.72909" lon="4.00589">
        <ele>431</ele>
        <time>2021-06-10T19:54:40Z</time>
      </trkpt>
      <trkpt lat="45.72923" lon="4.00615">
        <ele>430</ele>
        <time>2021-06-10T19:54:44Z</time>
      </trkpt>
      <trkpt lat="45.72961" lon="4.00705">
        <ele>428</ele>
        <time>2021-06-10T19:54:57Z</time>
      </trkpt>
      <trkpt lat="45.72951" lon="4.00777">
        <ele>427</ele>
        <time>2021-06-10T19:55:06Z</time>
      </trkpt>
      <trkpt lat="45.72914" lon="4.00927">
        <ele>421</ele>
        <time>2021-06-10T19:55:26Z</time>
      </trkpt>
      <trkpt lat="45.72915" lon="4.00951">
        <ele>420</ele>
        <time>2021-06-10T19:55:29Z</time>
      </trkpt>
      <trkpt lat="45.7292" lon="4.00964">
        <ele>418</ele>
        <time>2021-06-10T19:55:31Z</time>
      </trkpt>
      <trkpt lat="45.72936" lon="4.00984">
        <ele>416</ele>
        <time>2021-06-10T19:55:35Z</time>
      </trkpt>
      <trkpt lat="45.72966" lon="4.00993">
        <ele>412</ele>
        <time>2021-06-10T19:55:40Z</time>
      </trkpt>
      <trkpt lat="45.73145" lon="4.00982">
        <ele>402</ele>
        <time>2021-06-10T19:56:12Z</time>
      </trkpt>
      <trkpt lat="45.73167" lon="4.00978">
        <ele>401</ele>
        <time>2021-06-10T19:56:16Z</time>
      </trkpt>
      <trkpt lat="45.73187" lon="4.0097">
        <ele>400</ele>
        <time>2021-06-10T19:56:20Z</time>
      </trkpt>
      <trkpt lat="45.73314" lon="4.00878">
        <ele>397</ele>
        <time>2021-06-10T19:56:45Z</time>
      </trkpt>
      <trkpt lat="45.73372" lon="4.00845">
        <ele>392</ele>
        <time>2021-06-10T19:56:56Z</time>
      </trkpt>
      <trkpt lat="45.7339" lon="4.00825">
        <ele>391</ele>
        <time>2021-06-10T19:57:00Z</time>
      </trkpt>
      <trkpt lat="45.73412" lon="4.00792">
        <ele>389</ele>
        <time>2021-06-10T19:57:06Z</time>
      </trkpt>
      <trkpt lat="45.73425" lon="4.00798">
        <ele>387</ele>
        <time>2021-06-10T19:57:08Z</time>
      </trkpt>
      <trkpt lat="45.73475" lon="4.00719">
        <ele>392</ele>
        <time>2021-06-10T19:57:22Z</time>
      </trkpt>
      <trkpt lat="45.73504" lon="4.00659">
        <ele>400</ele>
        <time>2021-06-10T19:57:31Z</time>
      </trkpt>
      <trkpt lat="45.73565" lon="4.00616">
        <ele>401</ele>
        <time>2021-06-10T19:57:43Z</time>
      </trkpt>
      <trkpt lat="45.73685" lon="4.006">
        <ele>395</ele>
        <time>2021-06-10T19:58:04Z</time>
      </trkpt>
      <trkpt lat="45.73799" lon="4.00599">
        <ele>392</ele>
        <time>2021-06-10T19:58:25Z</time>
      </trkpt>
      <trkpt lat="45.7386" lon="4.00611">
        <ele>391</ele>
        <time>2021-06-10T19:58:35Z</time>
      </trkpt>
      <trkpt lat="45.73961" lon="4.00647">
        <ele>391</ele>
        <time>2021-06-10T19:58:54Z</time>
      </trkpt>
      <trkpt lat="45.73994" lon="4.00672">
        <ele>390</ele>
        <time>2021-06-10T19:59:01Z</time>
      </trkpt>
      <trkpt lat="45.74016" lon="4.00708">
        <ele>389</ele>
        <time>2021-06-10T19:59:07Z</time>
      </trkpt>
      <trkpt lat="45.74046" lon="4.00772">
        <ele>392</ele>
        <time>2021-06-10T19:59:16Z</time>
      </trkpt>
      <trkpt lat="45.74051" lon="4.00771">
        <ele>392</ele>
        <time>2021-06-10T19:59:17Z</time>
      </trkpt>
      <trkpt lat="45.74055" lon="4.00778">
        <ele>393</ele>
        <time>2021-06-10T19:59:18Z</time>
      </trkpt>
      <trkpt lat="45.74063" lon="4.00779">
        <ele>394</ele>
        <time>2021-06-10T19:59:20Z</time>
      </trkpt>
      <trkpt lat="45.74077" lon="4.00774">
        <ele>395</ele>
        <time>2021-06-10T19:59:22Z</time>
      </trkpt>
      <trkpt lat="45.74132" lon="4.00726">
        <ele>398</ele>
        <time>2021-06-10T19:59:34Z</time>
      </trkpt>
      <trkpt lat="45.74173" lon="4.00676">
        <ele>394</ele>
        <time>2021-06-10T19:59:43Z</time>
      </trkpt>
      <trkpt lat="45.74184" lon="4.00666">
        <ele>394</ele>
        <time>2021-06-10T19:59:46Z</time>
      </trkpt>
      <trkpt lat="45.74242" lon="4.00639">
        <ele>398</ele>
        <time>2021-06-10T19:59:56Z</time>
      </trkpt>
      <trkpt lat="45.74275" lon="4.00614">
        <ele>398</ele>
        <time>2021-06-10T20:00:03Z</time>
      </trkpt>
      <trkpt lat="45.74317" lon="4.00576">
        <ele>395</ele>
        <time>2021-06-10T20:00:12Z</time>
      </trkpt>
      <trkpt lat="45.74356" lon="4.0055">
        <ele>396</ele>
        <time>2021-06-10T20:00:20Z</time>
      </trkpt>
      <trkpt lat="45.74437" lon="4.0051">
        <ele>400</ele>
        <time>2021-06-10T20:00:35Z</time>
      </trkpt>
      <trkpt lat="45.74459" lon="4.00506">
        <ele>402</ele>
        <time>2021-06-10T20:00:39Z</time>
      </trkpt>
      <trkpt lat="45.74576" lon="4.00442">
        <ele>408</ele>
        <time>2021-06-10T20:01:01Z</time>
      </trkpt>
      <trkpt lat="45.74589" lon="4.00423">
        <ele>408</ele>
        <time>2021-06-10T20:01:04Z</time>
      </trkpt>
      <trkpt lat="45.74598" lon="4.00398">
        <ele>408</ele>
        <time>2021-06-10T20:01:08Z</time>
      </trkpt>
      <trkpt lat="45.74608" lon="4.00334">
        <ele>409</ele>
        <time>2021-06-10T20:01:16Z</time>
      </trkpt>
      <trkpt lat="45.7466" lon="4.00342">
        <ele>416</ele>
        <time>2021-06-10T20:01:25Z</time>
      </trkpt>
      <trkpt lat="45.74708" lon="4.00363">
        <ele>420</ele>
        <time>2021-06-10T20:01:34Z</time>
      </trkpt>
      <trkpt lat="45.74734" lon="4.00384">
        <ele>421</ele>
        <time>2021-06-10T20:01:39Z</time>
      </trkpt>
      <trkpt lat="45.74804" lon="4.00415">
        <ele>427</ele>
        <time>2021-06-10T20:01:52Z</time>
      </trkpt>
      <trkpt lat="45.7481" lon="4.00425">
        <ele>427</ele>
        <time>2021-06-10T20:01:54Z</time>
      </trkpt>
      <trkpt lat="45.7483" lon="4.00476">
        <ele>429</ele>
        <time>2021-06-10T20:02:01Z</time>
      </trkpt>
      <trkpt lat="45.7486" lon="4.00536">
        <ele>433</ele>
        <time>2021-06-10T20:02:11Z</time>
      </trkpt>
      <trkpt lat="45.749" lon="4.00578">
        <ele>434</ele>
        <time>2021-06-10T20:02:19Z</time>
      </trkpt>
      <trkpt lat="45.74927" lon="4.00611">
        <ele>436</ele>
        <time>2021-06-10T20:02:26Z</time>
      </trkpt>
      <trkpt lat="45.7495" lon="4.00654">
        <ele>438</ele>
        <time>2021-06-10T20:02:32Z</time>
      </trkpt>
      <trkpt lat="45.74966" lon="4.00694">
        <ele>438</ele>
        <time>2021-06-10T20:02:38Z</time>
      </trkpt>
      <trkpt lat="45.74978" lon="4.00735">
        <ele>437</ele>
        <time>2021-06-10T20:02:44Z</time>
      </trkpt>
      <trkpt lat="45.74998" lon="4.00853">
        <ele>438</ele>
        <time>2021-06-10T20:02:59Z</time>
      </trkpt>
      <trkpt lat="45.7501" lon="4.0088">
        <ele>438</ele>
        <time>2021-06-10T20:03:03Z</time>
      </trkpt>
      <trkpt lat="45.75028" lon="4.00901">
        <ele>438</ele>
        <time>2021-06-10T20:03:07Z</time>
      </trkpt>
      <trkpt lat="45.7505" lon="4.00917">
        <ele>437</ele>
        <time>2021-06-10T20:03:11Z</time>
      </trkpt>
      <trkpt lat="45.75118" lon="4.00953">
        <ele>434</ele>
        <time>2021-06-10T20:03:24Z</time>
      </trkpt>
      <trkpt lat="45.75193" lon="4.00971">
        <ele>433</ele>
        <time>2021-06-10T20:03:38Z</time>
      </trkpt>
      <trkpt lat="45.75262" lon="4.01044">
        <ele>428</ele>
        <time>2021-06-10T20:03:53Z</time>
      </trkpt>
      <trkpt lat="45.75345" lon="4.01059">
        <ele>428</ele>
        <time>2021-06-10T20:04:08Z</time>
      </trkpt>
      <trkpt lat="45.7536" lon="4.01065">
        <ele>429</ele>
        <time>2021-06-10T20:04:11Z</time>
      </trkpt>
      <trkpt lat="45.75372" lon="4.01077">
        <ele>429</ele>
        <time>2021-06-10T20:04:13Z</time>
      </trkpt>
      <trkpt lat="45.75379" lon="4.01093">
        <ele>429</ele>
        <time>2021-06-10T20:04:16Z</time>
      </trkpt>
      <trkpt lat="45.7538" lon="4.01116">
        <ele>428</ele>
        <time>2021-06-10T20:04:18Z</time>
      </trkpt>
      <trkpt lat="45.75374" lon="4.01147">
        <ele>425</ele>
        <time>2021-06-10T20:04:22Z</time>
      </trkpt>
      <trkpt lat="45.75346" lon="4.01228">
        <ele>420</ele>
        <time>2021-06-10T20:04:34Z</time>
      </trkpt>
      <trkpt lat="45.75342" lon="4.0125">
        <ele>420</ele>
        <time>2021-06-10T20:04:36Z</time>
      </trkpt>
      <trkpt lat="45.75343" lon="4.01274">
        <ele>418</ele>
        <time>2021-06-10T20:04:39Z</time>
      </trkpt>
      <trkpt lat="45.75353" lon="4.01299">
        <ele>418</ele>
        <time>2021-06-10T20:04:43Z</time>
      </trkpt>
      <trkpt lat="45.75364" lon="4.01313">
        <ele>418</ele>
        <time>2021-06-10T20:04:46Z</time>
      </trkpt>
      <trkpt lat="45.75415" lon="4.01343">
        <ele>418</ele>
        <time>2021-06-10T20:04:55Z</time>
      </trkpt>
      <trkpt lat="45.75538" lon="4.01332">
        <ele>418</ele>
        <time>2021-06-10T20:05:17Z</time>
      </trkpt>
      <trkpt lat="45.75594" lon="4.0135">
        <ele>416</ele>
        <time>2021-06-10T20:05:28Z</time>
      </trkpt>
      <trkpt lat="45.75689" lon="4.01388">
        <ele>415</ele>
        <time>2021-06-10T20:05:45Z</time>
      </trkpt>
      <trkpt lat="45.75738" lon="4.01417">
        <ele>417</ele>
        <time>2021-06-10T20:05:55Z</time>
      </trkpt>
      <trkpt lat="45.75873" lon="4.01553">
        <ele>414</ele>
        <time>2021-06-10T20:06:24Z</time>
      </trkpt>
      <trkpt lat="45.7589" lon="4.01574">
        <ele>414</ele>
        <time>2021-06-10T20:06:28Z</time>
      </trkpt>
      <trkpt lat="45.75931" lon="4.01637">
        <ele>413</ele>
        <time>2021-06-10T20:06:39Z</time>
      </trkpt>
      <trkpt lat="45.75976" lon="4.0172">
        <ele>410</ele>
        <time>2021-06-10T20:06:52Z</time>
      </trkpt>
      <trkpt lat="45.76023" lon="4.01784">
        <ele>410</ele>
        <time>2021-06-10T20:07:03Z</time>
      </trkpt>
      <trkpt lat="45.76038" lon="4.01816">
        <ele>410</ele>
        <time>2021-06-10T20:07:08Z</time>
      </trkpt>
      <trkpt lat="45.76102" lon="4.02006">
        <ele>406</ele>
        <time>2021-06-10T20:07:34Z</time>
      </trkpt>
      <trkpt lat="45.76198" lon="4.02274">
        <ele>399</ele>
        <time>2021-06-10T20:08:12Z</time>
      </trkpt>
      <trkpt lat="45.76292" lon="4.02358">
        <ele>400</ele>
        <time>2021-06-10T20:08:31Z</time>
      </trkpt>
      <trkpt lat="45.7635" lon="4.02404">
        <ele>398</ele>
        <time>2021-06-10T20:08:43Z</time>
      </trkpt>
      <trkpt lat="45.76382" lon="4.02444">
        <ele>396</ele>
        <time>2021-06-10T20:08:51Z</time>
      </trkpt>
      <trkpt lat="45.7645" lon="4.02578">
        <ele>396</ele>
        <time>2021-06-10T20:09:11Z</time>
      </trkpt>
      <trkpt lat="45.76504" lon="4.02662">
        <ele>395</ele>
        <time>2021-06-10T20:09:25Z</time>
      </trkpt>
      <trkpt lat="45.76508" lon="4.02679">
        <ele>395</ele>
        <time>2021-06-10T20:09:28Z</time>
      </trkpt>
      <trkpt lat="45.76504" lon="4.02723">
        <ele>394</ele>
        <time>2021-06-10T20:09:33Z</time>
      </trkpt>
      <trkpt lat="45.76672" lon="4.02822">
        <ele>398</ele>
        <time>2021-06-10T20:10:05Z</time>
      </trkpt>
      <trkpt lat="45.77025" lon="4.02987">
        <ele>403</ele>
        <time>2021-06-10T20:11:11Z</time>
      </trkpt>
      <trkpt lat="45.77134" lon="4.03013">
        <ele>401</ele>
        <time>2021-06-10T20:11:31Z</time>
      </trkpt>
      <trkpt lat="45.77298" lon="4.03069">
        <ele>399</ele>
        <time>2021-06-10T20:12:01Z</time>
      </trkpt>
      <trkpt lat="45.77354" lon="4.03095">
        <ele>399</ele>
        <time>2021-06-10T20:12:12Z</time>
      </trkpt>
      <trkpt lat="45.77377" lon="4.03111">
        <ele>399</ele>
        <time>2021-06-10T20:12:16Z</time>
      </trkpt>
      <trkpt lat="45.77397" lon="4.03132">
        <ele>399</ele>
        <time>2021-06-10T20:12:21Z</time>
      </trkpt>
      <trkpt lat="45.77536" lon="4.03182">
        <ele>398</ele>
        <time>2021-06-10T20:12:46Z</time>
      </trkpt>
      <trkpt lat="45.7764" lon="4.03204">
        <ele>397</ele>
        <time>2021-06-10T20:13:05Z</time>
      </trkpt>
      <trkpt lat="45.77661" lon="4.03214">
        <ele>397</ele>
        <time>2021-06-10T20:13:09Z</time>
      </trkpt>
      <trkpt lat="45.77745" lon="4.03268">
        <ele>396</ele>
        <time>2021-06-10T20:13:25Z</time>
      </trkpt>
      <trkpt lat="45.77805" lon="4.03299">
        <ele>397</ele>
        <time>2021-06-10T20:13:36Z</time>
      </trkpt>
      <trkpt lat="45.7785" lon="4.0331">
        <ele>398</ele>
        <time>2021-06-10T20:13:45Z</time>
      </trkpt>
      <trkpt lat="45.78741" lon="4.03368">
        <ele>390</ele>
        <time>2021-06-10T20:16:23Z</time>
      </trkpt>
      <trkpt lat="45.78894" lon="4.03376">
        <ele>386</ele>
        <time>2021-06-10T20:16:50Z</time>
      </trkpt>
      <trkpt lat="45.78943" lon="4.0336">
        <ele>385</ele>
        <time>2021-06-10T20:16:59Z</time>
      </trkpt>
      <trkpt lat="45.79022" lon="4.03302">
        <ele>385</ele>
        <time>2021-06-10T20:17:15Z</time>
      </trkpt>
      <trkpt lat="45.79102" lon="4.03239">
        <ele>385</ele>
        <time>2021-06-10T20:17:31Z</time>
      </trkpt>
      <trkpt lat="45.79126" lon="4.03227">
        <ele>385</ele>
        <time>2021-06-10T20:17:36Z</time>
      </trkpt>
      <trkpt lat="45.7915" lon="4.03225">
        <ele>385</ele>
        <time>2021-06-10T20:17:40Z</time>
      </trkpt>
      <trkpt lat="45.79219" lon="4.03253">
        <ele>383</ele>
        <time>2021-06-10T20:17:53Z</time>
      </trkpt>
      <trkpt lat="45.7929" lon="4.03295">
        <ele>381</ele>
        <time>2021-06-10T20:18:07Z</time>
      </trkpt>
      <trkpt lat="45.79311" lon="4.03315">
        <ele>381</ele>
        <time>2021-06-10T20:18:11Z</time>
      </trkpt>
      <trkpt lat="45.79346" lon="4.03358">
        <ele>381</ele>
        <time>2021-06-10T20:18:19Z</time>
      </trkpt>
      <trkpt lat="45.79403" lon="4.03448">
        <ele>381</ele>
        <time>2021-06-10T20:18:34Z</time>
      </trkpt>
      <trkpt lat="45.79431" lon="4.03473">
        <ele>380</ele>
        <time>2021-06-10T20:18:40Z</time>
      </trkpt>
      <trkpt lat="45.79496" lon="4.03475">
        <ele>378</ele>
        <time>2021-06-10T20:18:52Z</time>
      </trkpt>
      <trkpt lat="45.79493" lon="4.03644">
        <ele>374</ele>
        <time>2021-06-10T20:19:13Z</time>
      </trkpt>
      <trkpt lat="45.79483" lon="4.0382">
        <ele>370</ele>
        <time>2021-06-10T20:19:35Z</time>
      </trkpt>
      <trkpt lat="45.79472" lon="4.03874">
        <ele>368</ele>
        <time>2021-06-10T20:19:42Z</time>
      </trkpt>
      <trkpt lat="45.79472" lon="4.03908">
        <ele>367</ele>
        <time>2021-06-10T20:19:46Z</time>
      </trkpt>
      <trkpt lat="45.79486" lon="4.03952">
        <ele>366</ele>
        <time>2021-06-10T20:19:52Z</time>
      </trkpt>
      <trkpt lat="45.79597" lon="4.04189">
        <ele>360</ele>
        <time>2021-06-10T20:20:27Z</time>
      </trkpt>
      <trkpt lat="45.79661" lon="4.04288">
        <ele>357</ele>
        <time>2021-06-10T20:20:44Z</time>
      </trkpt>
      <trkpt lat="45.79691" lon="4.04326">
        <ele>356</ele>
        <time>2021-06-10T20:20:51Z</time>
      </trkpt>
      <trkpt lat="45.79721" lon="4.04358">
        <ele>356</ele>
        <time>2021-06-10T20:20:58Z</time>
      </trkpt>
      <trkpt lat="45.79789" lon="4.04414">
        <ele>356</ele>
        <time>2021-06-10T20:21:12Z</time>
      </trkpt>
      <trkpt lat="45.7981" lon="4.04446">
        <ele>356</ele>
        <time>2021-06-10T20:21:17Z</time>
      </trkpt>
      <trkpt lat="45.79864" lon="4.04592">
        <ele>357</ele>
        <time>2021-06-10T20:21:38Z</time>
      </trkpt>
      <trkpt lat="45.79888" lon="4.04631">
        <ele>357</ele>
        <time>2021-06-10T20:21:44Z</time>
      </trkpt>
      <trkpt lat="45.79917" lon="4.04661">
        <ele>357</ele>
        <time>2021-06-10T20:21:51Z</time>
      </trkpt>
      <trkpt lat="45.7997" lon="4.04708">
        <ele>357</ele>
        <time>2021-06-10T20:22:02Z</time>
      </trkpt>
      <trkpt lat="45.80038" lon="4.04791">
        <ele>357</ele>
        <time>2021-06-10T20:22:18Z</time>
      </trkpt>
      <trkpt lat="45.80068" lon="4.04815">
        <ele>357</ele>
        <time>2021-06-10T20:22:24Z</time>
      </trkpt>
      <trkpt lat="45.80101" lon="4.04834">
        <ele>357</ele>
        <time>2021-06-10T20:22:30Z</time>
      </trkpt>
      <trkpt lat="45.80133" lon="4.0486">
        <ele>356</ele>
        <time>2021-06-10T20:22:37Z</time>
      </trkpt>
      <trkpt lat="45.8016" lon="4.04892">
        <ele>355</ele>
        <time>2021-06-10T20:22:43Z</time>
      </trkpt>
      <trkpt lat="45.8018" lon="4.04927">
        <ele>355</ele>
        <time>2021-06-10T20:22:48Z</time>
      </trkpt>
      <trkpt lat="45.80204" lon="4.0501">
        <ele>354</ele>
        <time>2021-06-10T20:23:00Z</time>
      </trkpt>
      <trkpt lat="45.80219" lon="4.05043">
        <ele>353</ele>
        <time>2021-06-10T20:23:04Z</time>
      </trkpt>
      <trkpt lat="45.80433" lon="4.05214">
        <ele>351</ele>
        <time>2021-06-10T20:23:48Z</time>
      </trkpt>
      <trkpt lat="45.80492" lon="4.05272">
        <ele>351</ele>
        <time>2021-06-10T20:24:01Z</time>
      </trkpt>
      <trkpt lat="45.80537" lon="4.0533">
        <ele>350</ele>
        <time>2021-06-10T20:24:12Z</time>
      </trkpt>
      <trkpt lat="45.80578" lon="4.05373">
        <ele>350</ele>
        <time>2021-06-10T20:24:21Z</time>
      </trkpt>
      <trkpt lat="45.80621" lon="4.05412">
        <ele>350</ele>
        <time>2021-06-10T20:24:30Z</time>
      </trkpt>
      <trkpt lat="45.80735" lon="4.05549">
        <ele>348</ele>
        <time>2021-06-10T20:24:56Z</time>
      </trkpt>
      <trkpt lat="45.80772" lon="4.05583">
        <ele>348</ele>
        <time>2021-06-10T20:25:04Z</time>
      </trkpt>
      <trkpt lat="45.80802" lon="4.05594">
        <ele>348</ele>
        <time>2021-06-10T20:25:09Z</time>
      </trkpt>
      <trkpt lat="45.80845" lon="4.056">
        <ele>348</ele>
        <time>2021-06-10T20:25:17Z</time>
      </trkpt>
      <trkpt lat="45.80938" lon="4.05624">
        <ele>347</ele>
        <time>2021-06-10T20:25:34Z</time>
      </trkpt>
      <trkpt lat="45.80979" lon="4.05615">
        <ele>346</ele>
        <time>2021-06-10T20:25:41Z</time>
      </trkpt>
      <trkpt lat="45.81011" lon="4.05624">
        <ele>346</ele>
        <time>2021-06-10T20:25:47Z</time>
      </trkpt>
      <trkpt lat="45.81285" lon="4.05744">
        <ele>344</ele>
        <time>2021-06-10T20:26:38Z</time>
      </trkpt>
      <trkpt lat="45.81326" lon="4.05766">
        <ele>345</ele>
        <time>2021-06-10T20:26:46Z</time>
      </trkpt>
      <trkpt lat="45.81354" lon="4.05809">
        <ele>344</ele>
        <time>2021-06-10T20:26:53Z</time>
      </trkpt>
      <trkpt lat="45.81412" lon="4.05908">
        <ele>345</ele>
        <time>2021-06-10T20:27:09Z</time>
      </trkpt>
      <trkpt lat="45.81433" lon="4.05947">
        <ele>345</ele>
        <time>2021-06-10T20:27:15Z</time>
      </trkpt>
      <trkpt lat="45.81462" lon="4.06012">
        <ele>344</ele>
        <time>2021-06-10T20:27:25Z</time>
      </trkpt>
      <trkpt lat="45.81467" lon="4.06018">
        <ele>344</ele>
        <time>2021-06-10T20:27:26Z</time>
      </trkpt>
      <trkpt lat="45.81474" lon="4.0602">
        <ele>344</ele>
        <time>2021-06-10T20:27:27Z</time>
      </trkpt>
      <trkpt lat="45.81583" lon="4.05998">
        <ele>343</ele>
        <time>2021-06-10T20:27:47Z</time>
      </trkpt>
      <trkpt lat="45.81612" lon="4.06006">
        <ele>342</ele>
        <time>2021-06-10T20:27:52Z</time>
      </trkpt>
      <trkpt lat="45.81653" lon="4.06035">
        <ele>341</ele>
        <time>2021-06-10T20:28:00Z</time>
      </trkpt>
      <trkpt lat="45.81899" lon="4.0615">
        <ele>341</ele>
        <time>2021-06-10T20:28:46Z</time>
      </trkpt>
      <trkpt lat="45.81943" lon="4.06168">
        <ele>341</ele>
        <time>2021-06-10T20:28:54Z</time>
      </trkpt>
      <trkpt lat="45.81982" lon="4.06192">
        <ele>341</ele>
        <time>2021-06-10T20:29:02Z</time>
      </trkpt>
      <trkpt lat="45.82107" lon="4.06299">
        <ele>339</ele>
        <time>2021-06-10T20:29:28Z</time>
      </trkpt>
      <trkpt lat="45.82095" lon="4.06629">
        <ele>338</ele>
        <time>2021-06-10T20:30:09Z</time>
      </trkpt>
      <trkpt lat="45.82074" lon="4.06749">
        <ele>337</ele>
        <time>2021-06-10T20:30:24Z</time>
      </trkpt>
      <trkpt lat="45.82038" lon="4.0688">
        <ele>337</ele>
        <time>2021-06-10T20:30:42Z</time>
      </trkpt>
      <trkpt lat="45.8223" lon="4.069">
        <ele>337</ele>
        <time>2021-06-10T20:31:16Z</time>
      </trkpt>
      <trkpt lat="45.82256" lon="4.06897">
        <ele>337</ele>
        <time>2021-06-10T20:31:21Z</time>
      </trkpt>
      <trkpt lat="45.82282" lon="4.06881">
        <ele>337</ele>
        <time>2021-06-10T20:31:26Z</time>
      </trkpt>
      <trkpt lat="45.82531" lon="4.06683">
        <ele>338</ele>
        <time>2021-06-10T20:32:16Z</time>
      </trkpt>
      <trkpt lat="45.82551" lon="4.06674">
        <ele>338</ele>
        <time>2021-06-10T20:32:20Z</time>
      </trkpt>
      <trkpt lat="45.82566" lon="4.0667">
        <ele>338</ele>
        <time>2021-06-10T20:32:23Z</time>
      </trkpt>
      <trkpt lat="45.82604" lon="4.0667">
        <ele>337</ele>
        <time>2021-06-10T20:32:29Z</time>
      </trkpt>
      <trkpt lat="45.82672" lon="4.06675">
        <ele>335</ele>
        <time>2021-06-10T20:32:42Z</time>
      </trkpt>
      <trkpt lat="45.82717" lon="4.06679">
        <ele>337</ele>
        <time>2021-06-10T20:32:50Z</time>
      </trkpt>
      <trkpt lat="45.82751" lon="4.06689">
        <ele>339</ele>
        <time>2021-06-10T20:32:56Z</time>
      </trkpt>
      <trkpt lat="45.82762" lon="4.0669">
        <ele>339</ele>
        <time>2021-06-10T20:32:58Z</time>
      </trkpt>
      <trkpt lat="45.82832" lon="4.06715">
        <ele>341</ele>
        <time>2021-06-10T20:33:11Z</time>
      </trkpt>
      <trkpt lat="45.82842" lon="4.06713">
        <ele>341</ele>
        <time>2021-06-10T20:33:12Z</time>
      </trkpt>
      <trkpt lat="45.82855" lon="4.06728">
        <ele>342</ele>
        <time>2021-06-10T20:33:15Z</time>
      </trkpt>
      <trkpt lat="45.82909" lon="4.06848">
        <ele>351</ele>
        <time>2021-06-10T20:33:33Z</time>
      </trkpt>
      <trkpt lat="45.8293" lon="4.06872">
        <ele>352</ele>
        <time>2021-06-10T20:33:38Z</time>
      </trkpt>
      <trkpt lat="45.83083" lon="4.06934">
        <ele>358</ele>
        <time>2021-06-10T20:34:06Z</time>
      </trkpt>
      <trkpt lat="45.83126" lon="4.06954">
        <ele>358</ele>
        <time>2021-06-10T20:34:14Z</time>
      </trkpt>
      <trkpt lat="45.83218" lon="4.07007">
        <ele>359</ele>
        <time>2021-06-10T20:34:32Z</time>
      </trkpt>
      <trkpt lat="45.83234" lon="4.07013">
        <ele>360</ele>
        <time>2021-06-10T20:34:35Z</time>
      </trkpt>
      <trkpt lat="45.83291" lon="4.07019">
        <ele>360</ele>
        <time>2021-06-10T20:34:45Z</time>
      </trkpt>
      <trkpt lat="45.83493" lon="4.07086">
        <ele>362</ele>
        <time>2021-06-10T20:35:22Z</time>
      </trkpt>
      <trkpt lat="45.83571" lon="4.07092">
        <ele>362</ele>
        <time>2021-06-10T20:35:36Z</time>
      </trkpt>
      <trkpt lat="45.83636" lon="4.07108">
        <ele>362</ele>
        <time>2021-06-10T20:35:47Z</time>
      </trkpt>
      <trkpt lat="45.83738" lon="4.07191">
        <ele>364</ele>
        <time>2021-06-10T20:36:08Z</time>
      </trkpt>
      <trkpt lat="45.83789" lon="4.07249">
        <ele>365</ele>
        <time>2021-06-10T20:36:20Z</time>
      </trkpt>
      <trkpt lat="45.83999" lon="4.07367">
        <ele>364</ele>
        <time>2021-06-10T20:37:00Z</time>
      </trkpt>
      <trkpt lat="45.84057" lon="4.0742">
        <ele>366</ele>
        <time>2021-06-10T20:37:12Z</time>
      </trkpt>
      <trkpt lat="45.84167" lon="4.07477">
        <ele>367</ele>
        <time>2021-06-10T20:37:33Z</time>
      </trkpt>
      <trkpt lat="45.84307" lon="4.07507">
        <ele>368</ele>
        <time>2021-06-10T20:37:58Z</time>
      </trkpt>
      <trkpt lat="45.84333" lon="4.07535">
        <ele>368</ele>
        <time>2021-06-10T20:38:04Z</time>
      </trkpt>
      <trkpt lat="45.84366" lon="4.07549">
        <ele>368</ele>
        <time>2021-06-10T20:38:10Z</time>
      </trkpt>
      <trkpt lat="45.84405" lon="4.07553">
        <ele>369</ele>
        <time>2021-06-10T20:38:17Z</time>
      </trkpt>
      <trkpt lat="45.84509" lon="4.08538">
        <ele>370</ele>
        <time>2021-06-10T20:40:21Z</time>
      </trkpt>
      <trkpt lat="45.8454" lon="4.088">
        <ele>371</ele>
        <time>2021-06-10T20:40:54Z</time>
      </trkpt>
      <trkpt lat="45.84824" lon="4.11461">
        <ele>393</ele>
        <time>2021-06-10T20:46:27Z</time>
      </trkpt>
      <trkpt lat="45.84847" lon="4.11654">
        <ele>394</ele>
        <time>2021-06-10T20:46:51Z</time>
      </trkpt>
      <trkpt lat="45.84855" lon="4.11758">
        <ele>394</ele>
        <time>2021-06-10T20:47:04Z</time>
      </trkpt>
      <trkpt lat="45.84864" lon="4.1183">
        <ele>394</ele>
        <time>2021-06-10T20:47:13Z</time>
      </trkpt>
      <trkpt lat="45.84876" lon="4.11877">
        <ele>395</ele>
        <time>2021-06-10T20:47:20Z</time>
      </trkpt>
      <trkpt lat="45.84927" lon="4.12008">
        <ele>396</ele>
        <time>2021-06-10T20:47:38Z</time>
      </trkpt>
      <trkpt lat="45.84947" lon="4.12067">
        <ele>397</ele>
        <time>2021-06-10T20:47:46Z</time>
      </trkpt>
      <trkpt lat="45.84957" lon="4.12118">
        <ele>396</ele>
        <time>2021-06-10T20:47:53Z</time>
      </trkpt>
      <trkpt lat="45.8497" lon="4.12257">
        <ele>395</ele>
        <time>2021-06-10T20:48:10Z</time>
      </trkpt>
      <trkpt lat="45.84981" lon="4.12344">
        <ele>394</ele>
        <time>2021-06-10T20:48:21Z</time>
      </trkpt>
      <trkpt lat="45.84985" lon="4.12407">
        <ele>393</ele>
        <time>2021-06-10T20:48:29Z</time>
      </trkpt>
      <trkpt lat="45.84984" lon="4.12457">
        <ele>393</ele>
        <time>2021-06-10T20:48:35Z</time>
      </trkpt>
      <trkpt lat="45.84975" lon="4.12531">
        <ele>394</ele>
        <time>2021-06-10T20:48:45Z</time>
      </trkpt>
      <trkpt lat="45.8498" lon="4.12636">
        <ele>395</ele>
        <time>2021-06-10T20:48:58Z</time>
      </trkpt>
      <trkpt lat="45.84975" lon="4.12949">
        <ele>391</ele>
        <time>2021-06-10T20:49:37Z</time>
      </trkpt>
      <trkpt lat="45.8497" lon="4.12965">
        <ele>391</ele>
        <time>2021-06-10T20:49:39Z</time>
      </trkpt>
      <trkpt lat="45.84956" lon="4.1299">
        <ele>391</ele>
        <time>2021-06-10T20:49:43Z</time>
      </trkpt>
      <trkpt lat="45.84901" lon="4.13068">
        <ele>390</ele>
        <time>2021-06-10T20:49:56Z</time>
      </trkpt>
      <trkpt lat="45.84917" lon="4.13137">
        <ele>392</ele>
        <time>2021-06-10T20:50:05Z</time>
      </trkpt>
      <trkpt lat="45.84942" lon="4.13186">
        <ele>391</ele>
        <time>2021-06-10T20:50:13Z</time>
      </trkpt>
      <trkpt lat="45.84949" lon="4.13193">
        <ele>390</ele>
        <time>2021-06-10T20:50:14Z</time>
      </trkpt>
      <trkpt lat="45.84958" lon="4.13187">
        <ele>390</ele>
        <time>2021-06-10T20:50:16Z</time>
      </trkpt>
      <trkpt lat="45.84989" lon="4.13137">
        <ele>391</ele>
        <time>2021-06-10T20:50:25Z</time>
      </trkpt>
      <trkpt lat="45.85005" lon="4.13122">
        <ele>390</ele>
        <time>2021-06-10T20:50:28Z</time>
      </trkpt>
      <trkpt lat="45.85077" lon="4.13072">
        <ele>391</ele>
        <time>2021-06-10T20:50:42Z</time>
      </trkpt>
      <trkpt lat="45.85106" lon="4.13046">
        <ele>392</ele>
        <time>2021-06-10T20:50:48Z</time>
      </trkpt>
      <trkpt lat="45.85145" lon="4.13018">
        <ele>392</ele>
        <time>2021-06-10T20:50:56Z</time>
      </trkpt>
      <trkpt lat="45.8517" lon="4.13007">
        <ele>392</ele>
        <time>2021-06-10T20:51:01Z</time>
      </trkpt>
      <trkpt lat="45.85442" lon="4.12921">
        <ele>388</ele>
        <time>2021-06-10T20:51:50Z</time>
      </trkpt>
      <trkpt lat="45.85477" lon="4.12914">
        <ele>388</ele>
        <time>2021-06-10T20:51:56Z</time>
      </trkpt>
      <trkpt lat="45.85515" lon="4.12914">
        <ele>388</ele>
        <time>2021-06-10T20:52:03Z</time>
      </trkpt>
      <trkpt lat="45.85557" lon="4.12921">
        <ele>385</ele>
        <time>2021-06-10T20:52:11Z</time>
      </trkpt>
      <trkpt lat="45.85671" lon="4.12975">
        <ele>375</ele>
        <time>2021-06-10T20:52:32Z</time>
      </trkpt>
      <trkpt lat="45.85708" lon="4.1298">
        <ele>374</ele>
        <time>2021-06-10T20:52:39Z</time>
      </trkpt>
      <trkpt lat="45.8574" lon="4.12981">
        <ele>373</ele>
        <time>2021-06-10T20:52:44Z</time>
      </trkpt>
      <trkpt lat="45.85791" lon="4.12977">
        <ele>373</ele>
        <time>2021-06-10T20:52:54Z</time>
      </trkpt>
      <trkpt lat="45.85835" lon="4.12985">
        <ele>371</ele>
        <time>2021-06-10T20:53:01Z</time>
      </trkpt>
      <trkpt lat="45.85867" lon="4.13004">
        <ele>368</ele>
        <time>2021-06-10T20:53:08Z</time>
      </trkpt>
      <trkpt lat="45.85895" lon="4.13027">
        <ele>365</ele>
        <time>2021-06-10T20:53:13Z</time>
      </trkpt>
      <trkpt lat="45.8591" lon="4.13031">
        <ele>365</ele>
        <time>2021-06-10T20:53:16Z</time>
      </trkpt>
      <trkpt lat="45.85927" lon="4.13031">
        <ele>366</ele>
        <time>2021-06-10T20:53:19Z</time>
      </trkpt>
      <trkpt lat="45.85956" lon="4.13026">
        <ele>368</ele>
        <time>2021-06-10T20:53:24Z</time>
      </trkpt>
      <trkpt lat="45.85988" lon="4.1303">
        <ele>367</ele>
        <time>2021-06-10T20:53:30Z</time>
      </trkpt>
      <trkpt lat="45.86038" lon="4.13054">
        <ele>361</ele>
        <time>2021-06-10T20:53:39Z</time>
      </trkpt>
      <trkpt lat="45.8605" lon="4.13056">
        <ele>361</ele>
        <time>2021-06-10T20:53:42Z</time>
      </trkpt>
      <trkpt lat="45.86121" lon="4.13055">
        <ele>359</ele>
        <time>2021-06-10T20:53:54Z</time>
      </trkpt>
      <trkpt lat="45.86188" lon="4.13065">
        <ele>354</ele>
        <time>2021-06-10T20:54:06Z</time>
      </trkpt>
      <trkpt lat="45.86205" lon="4.13063">
        <ele>354</ele>
        <time>2021-06-10T20:54:09Z</time>
      </trkpt>
      <trkpt lat="45.86256" lon="4.13045">
        <ele>356</ele>
        <time>2021-06-10T20:54:19Z</time>
      </trkpt>
      <trkpt lat="45.86286" lon="4.13038">
        <ele>356</ele>
        <time>2021-06-10T20:54:24Z</time>
      </trkpt>
      <trkpt lat="45.86317" lon="4.13033">
        <ele>356</ele>
        <time>2021-06-10T20:54:29Z</time>
      </trkpt>
      <trkpt lat="45.86357" lon="4.13033">
        <ele>353</ele>
        <time>2021-06-10T20:54:37Z</time>
      </trkpt>
      <trkpt lat="45.86378" lon="4.1303">
        <ele>353</ele>
        <time>2021-06-10T20:54:40Z</time>
      </trkpt>
      <trkpt lat="45.86503" lon="4.12983">
        <ele>349</ele>
        <time>2021-06-10T20:55:03Z</time>
      </trkpt>
      <trkpt lat="45.86534" lon="4.12978">
        <ele>347</ele>
        <time>2021-06-10T20:55:09Z</time>
      </trkpt>
      <trkpt lat="45.8657" lon="4.12977">
        <ele>344</ele>
        <time>2021-06-10T20:55:15Z</time>
      </trkpt>
      <trkpt lat="45.86619" lon="4.12972">
        <ele>339</ele>
        <time>2021-06-10T20:55:24Z</time>
      </trkpt>
      <trkpt lat="45.86637" lon="4.12966">
        <ele>338</ele>
        <time>2021-06-10T20:55:27Z</time>
      </trkpt>
      <trkpt lat="45.86662" lon="4.12953">
        <ele>338</ele>
        <time>2021-06-10T20:55:32Z</time>
      </trkpt>
      <trkpt lat="45.86682" lon="4.1294">
        <ele>339</ele>
        <time>2021-06-10T20:55:36Z</time>
      </trkpt>
      <trkpt lat="45.86714" lon="4.12912">
        <ele>340</ele>
        <time>2021-06-10T20:55:43Z</time>
      </trkpt>
      <trkpt lat="45.86814" lon="4.12892">
        <ele>322</ele>
        <time>2021-06-10T20:56:01Z</time>
      </trkpt>
      <trkpt lat="45.86876" lon="4.12889">
        <ele>322</ele>
        <time>2021-06-10T20:56:12Z</time>
      </trkpt>
      <trkpt lat="45.86957" lon="4.12892">
        <ele>335</ele>
        <time>2021-06-10T20:56:26Z</time>
      </trkpt>
      <trkpt lat="45.86966" lon="4.12883">
        <ele>337</ele>
        <time>2021-06-10T20:56:28Z</time>
      </trkpt>
      <trkpt lat="45.86977" lon="4.1286">
        <ele>337</ele>
        <time>2021-06-10T20:56:31Z</time>
      </trkpt>
      <trkpt lat="45.86987" lon="4.12795">
        <ele>334</ele>
        <time>2021-06-10T20:56:40Z</time>
      </trkpt>
      <trkpt lat="45.86992" lon="4.12742">
        <ele>333</ele>
        <time>2021-06-10T20:56:46Z</time>
      </trkpt>
      <trkpt lat="45.86988" lon="4.12726">
        <ele>332</ele>
        <time>2021-06-10T20:56:48Z</time>
      </trkpt>
      <trkpt lat="45.86969" lon="4.12762">
        <ele>329</ele>
        <time>2021-06-10T20:56:54Z</time>
      </trkpt>
      <trkpt lat="45.86951" lon="4.12803">
        <ele>327</ele>
        <time>2021-06-10T20:57:00Z</time>
      </trkpt>
      <trkpt lat="45.86934" lon="4.12831">
        <ele>325</ele>
        <time>2021-06-10T20:57:05Z</time>
      </trkpt>
      <trkpt lat="45.8686" lon="4.12936">
        <ele>321</ele>
        <time>2021-06-10T20:57:23Z</time>
      </trkpt>
      <trkpt lat="45.86804" lon="4.13058">
        <ele>325</ele>
        <time>2021-06-10T20:57:41Z</time>
      </trkpt>
      <trkpt lat="45.86792" lon="4.13079">
        <ele>324</ele>
        <time>2021-06-10T20:57:45Z</time>
      </trkpt>
      <trkpt lat="45.8676" lon="4.13118">
        <ele>322</ele>
        <time>2021-06-10T20:57:52Z</time>
      </trkpt>
      <trkpt lat="45.86744" lon="4.13133">
        <ele>322</ele>
        <time>2021-06-10T20:57:55Z</time>
      </trkpt>
      <trkpt lat="45.86723" lon="4.13147">
        <ele>323</ele>
        <time>2021-06-10T20:58:00Z</time>
      </trkpt>
      <trkpt lat="45.86697" lon="4.13158">
        <ele>323</ele>
        <time>2021-06-10T20:58:04Z</time>
      </trkpt>
      <trkpt lat="45.86618" lon="4.13168">
        <ele>323</ele>
        <time>2021-06-10T20:58:19Z</time>
      </trkpt>
      <trkpt lat="45.86561" lon="4.13178">
        <ele>325</ele>
        <time>2021-06-10T20:58:29Z</time>
      </trkpt>
      <trkpt lat="45.86502" lon="4.13201">
        <ele>327</ele>
        <time>2021-06-10T20:58:40Z</time>
      </trkpt>
      <trkpt lat="45.86397" lon="4.13253">
        <ele>325</ele>
        <time>2021-06-10T20:58:59Z</time>
      </trkpt>
      <trkpt lat="45.86351" lon="4.13279">
        <ele>326</ele>
        <time>2021-06-10T20:59:08Z</time>
      </trkpt>
      <trkpt lat="45.86309" lon="4.1331">
        <ele>326</ele>
        <time>2021-06-10T20:59:17Z</time>
      </trkpt>
      <trkpt lat="45.86239" lon="4.13372">
        <ele>328</ele>
        <time>2021-06-10T20:59:31Z</time>
      </trkpt>
      <trkpt lat="45.86202" lon="4.13393">
        <ele>328</ele>
        <time>2021-06-10T20:59:38Z</time>
      </trkpt>
      <trkpt lat="45.8617" lon="4.134">
        <ele>327</ele>
        <time>2021-06-10T20:59:44Z</time>
      </trkpt>
      <trkpt lat="45.86141" lon="4.13403">
        <ele>327</ele>
        <time>2021-06-10T20:59:49Z</time>
      </trkpt>
      <trkpt lat="45.86114" lon="4.134">
        <ele>325</ele>
        <time>2021-06-10T20:59:54Z</time>
      </trkpt>
      <trkpt lat="45.85878" lon="4.13323">
        <ele>321</ele>
        <time>2021-06-10T21:00:37Z</time>
      </trkpt>
      <trkpt lat="45.85846" lon="4.13317">
        <ele>322</ele>
        <time>2021-06-10T21:00:43Z</time>
      </trkpt>
      <trkpt lat="45.8582" lon="4.13315">
        <ele>322</ele>
        <time>2021-06-10T21:00:47Z</time>
      </trkpt>
      <trkpt lat="45.8579" lon="4.13321">
        <ele>320</ele>
        <time>2021-06-10T21:00:53Z</time>
      </trkpt>
      <trkpt lat="45.85767" lon="4.13331">
        <ele>319</ele>
        <time>2021-06-10T21:00:57Z</time>
      </trkpt>
      <trkpt lat="45.85746" lon="4.1335">
        <ele>320</ele>
        <time>2021-06-10T21:01:02Z</time>
      </trkpt>
      <trkpt lat="45.85681" lon="4.13396">
        <ele>323</ele>
        <time>2021-06-10T21:01:14Z</time>
      </trkpt>
      <trkpt lat="45.85611" lon="4.1346">
        <ele>324</ele>
        <time>2021-06-10T21:01:29Z</time>
      </trkpt>
      <trkpt lat="45.8556" lon="4.13498">
        <ele>323</ele>
        <time>2021-06-10T21:01:39Z</time>
      </trkpt>
      <trkpt lat="45.8548" lon="4.13552">
        <ele>323</ele>
        <time>2021-06-10T21:01:55Z</time>
      </trkpt>
      <trkpt lat="45.85388" lon="4.13648">
        <ele>327</ele>
        <time>2021-06-10T21:02:15Z</time>
      </trkpt>
      <trkpt lat="45.85288" lon="4.13723">
        <ele>328</ele>
        <time>2021-06-10T21:02:35Z</time>
      </trkpt>
      <trkpt lat="45.85181" lon="4.13841">
        <ele>327</ele>
        <time>2021-06-10T21:02:59Z</time>
      </trkpt>
      <trkpt lat="45.85139" lon="4.13891">
        <ele>328</ele>
        <time>2021-06-10T21:03:09Z</time>
      </trkpt>
      <trkpt lat="45.85114" lon="4.13915">
        <ele>326</ele>
        <time>2021-06-10T21:03:15Z</time>
      </trkpt>
      <trkpt lat="45.85063" lon="4.13951">
        <ele>323</ele>
        <time>2021-06-10T21:03:25Z</time>
      </trkpt>
      <trkpt lat="45.85029" lon="4.13982">
        <ele>323</ele>
        <time>2021-06-10T21:03:32Z</time>
      </trkpt>
      <trkpt lat="45.84993" lon="4.14024">
        <ele>322</ele>
        <time>2021-06-10T21:03:40Z</time>
      </trkpt>
      <trkpt lat="45.84912" lon="4.14145">
        <ele>320</ele>
        <time>2021-06-10T21:04:01Z</time>
      </trkpt>
      <trkpt lat="45.84894" lon="4.14163">
        <ele>319</ele>
        <time>2021-06-10T21:04:05Z</time>
      </trkpt>
      <trkpt lat="45.84857" lon="4.14185">
        <ele>321</ele>
        <time>2021-06-10T21:04:12Z</time>
      </trkpt>
      <trkpt lat="45.84815" lon="4.14205">
        <ele>323</ele>
        <time>2021-06-10T21:04:20Z</time>
      </trkpt>
      <trkpt lat="45.84793" lon="4.14223">
        <ele>323</ele>
        <time>2021-06-10T21:04:24Z</time>
      </trkpt>
      <trkpt lat="45.84754" lon="4.14263">
        <ele>324</ele>
        <time>2021-06-10T21:04:33Z</time>
      </trkpt>
      <trkpt lat="45.84736" lon="4.14277">
        <ele>325</ele>
        <time>2021-06-10T21:04:36Z</time>
      </trkpt>
      <trkpt lat="45.84714" lon="4.14285">
        <ele>326</ele>
        <time>2021-06-10T21:04:40Z</time>
      </trkpt>
      <trkpt lat="45.84663" lon="4.14297">
        <ele>325</ele>
        <time>2021-06-10T21:04:50Z</time>
      </trkpt>
      <trkpt lat="45.84622" lon="4.14315">
        <ele>323</ele>
        <time>2021-06-10T21:04:57Z</time>
      </trkpt>
      <trkpt lat="45.84588" lon="4.1434">
        <ele>321</ele>
        <time>2021-06-10T21:05:04Z</time>
      </trkpt>
      <trkpt lat="45.84552" lon="4.14361">
        <ele>322</ele>
        <time>2021-06-10T21:05:11Z</time>
      </trkpt>
      <trkpt lat="45.84509" lon="4.14378">
        <ele>323</ele>
        <time>2021-06-10T21:05:19Z</time>
      </trkpt>
      <trkpt lat="45.84481" lon="4.14383">
        <ele>323</ele>
        <time>2021-06-10T21:05:24Z</time>
      </trkpt>
      <trkpt lat="45.84117" lon="4.14392">
        <ele>322</ele>
        <time>2021-06-10T21:06:29Z</time>
      </trkpt>
      <trkpt lat="45.83894" lon="4.1443">
        <ele>320</ele>
        <time>2021-06-10T21:07:09Z</time>
      </trkpt>
      <trkpt lat="45.8385" lon="4.14444">
        <ele>321</ele>
        <time>2021-06-10T21:07:17Z</time>
      </trkpt>
      <trkpt lat="45.83779" lon="4.14479">
        <ele>320</ele>
        <time>2021-06-10T21:07:30Z</time>
      </trkpt>
      <trkpt lat="45.83745" lon="4.14502">
        <ele>319</ele>
        <time>2021-06-10T21:07:37Z</time>
      </trkpt>
      <trkpt lat="45.83703" lon="4.14536">
        <ele>320</ele>
        <time>2021-06-10T21:07:45Z</time>
      </trkpt>
      <trkpt lat="45.83655" lon="4.14583">
        <ele>320</ele>
        <time>2021-06-10T21:07:56Z</time>
      </trkpt>
      <trkpt lat="45.83524" lon="4.14758">
        <ele>322</ele>
        <time>2021-06-10T21:08:28Z</time>
      </trkpt>
      <trkpt lat="45.83495" lon="4.148">
        <ele>323</ele>
        <time>2021-06-10T21:08:35Z</time>
      </trkpt>
      <trkpt lat="45.83458" lon="4.14871">
        <ele>325</ele>
        <time>2021-06-10T21:08:46Z</time>
      </trkpt>
      <trkpt lat="45.83416" lon="4.14977">
        <ele>326</ele>
        <time>2021-06-10T21:09:01Z</time>
      </trkpt>
      <trkpt lat="45.83383" lon="4.15046">
        <ele>328</ele>
        <time>2021-06-10T21:09:11Z</time>
      </trkpt>
      <trkpt lat="45.83298" lon="4.15176">
        <ele>324</ele>
        <time>2021-06-10T21:09:33Z</time>
      </trkpt>
      <trkpt lat="45.83274" lon="4.15233">
        <ele>324</ele>
        <time>2021-06-10T21:09:42Z</time>
      </trkpt>
      <trkpt lat="45.83249" lon="4.15312">
        <ele>322</ele>
        <time>2021-06-10T21:09:52Z</time>
      </trkpt>
      <trkpt lat="45.83226" lon="4.15357">
        <ele>324</ele>
        <time>2021-06-10T21:09:59Z</time>
      </trkpt>
      <trkpt lat="45.83179" lon="4.15417">
        <ele>324</ele>
        <time>2021-06-10T21:10:11Z</time>
      </trkpt>
      <trkpt lat="45.83148" lon="4.1547">
        <ele>326</ele>
        <time>2021-06-10T21:10:19Z</time>
      </trkpt>
      <trkpt lat="45.83121" lon="4.15522">
        <ele>327</ele>
        <time>2021-06-10T21:10:27Z</time>
      </trkpt>
      <trkpt lat="45.83096" lon="4.15561">
        <ele>326</ele>
        <time>2021-06-10T21:10:34Z</time>
      </trkpt>
      <trkpt lat="45.83062" lon="4.15607">
        <ele>326</ele>
        <time>2021-06-10T21:10:42Z</time>
      </trkpt>
      <trkpt lat="45.83044" lon="4.15637">
        <ele>326</ele>
        <time>2021-06-10T21:10:47Z</time>
      </trkpt>
      <trkpt lat="45.83033" lon="4.15662">
        <ele>327</ele>
        <time>2021-06-10T21:10:51Z</time>
      </trkpt>
      <trkpt lat="45.83023" lon="4.15694">
        <ele>327</ele>
        <time>2021-06-10T21:10:55Z</time>
      </trkpt>
      <trkpt lat="45.83017" lon="4.15723">
        <ele>328</ele>
        <time>2021-06-10T21:10:59Z</time>
      </trkpt>
      <trkpt lat="45.83013" lon="4.1576">
        <ele>330</ele>
        <time>2021-06-10T21:11:03Z</time>
      </trkpt>
      <trkpt lat="45.83008" lon="4.1587">
        <ele>332</ele>
        <time>2021-06-10T21:11:17Z</time>
      </trkpt>
      <trkpt lat="45.83" lon="4.15932">
        <ele>333</ele>
        <time>2021-06-10T21:11:25Z</time>
      </trkpt>
      <trkpt lat="45.8298" lon="4.15993">
        <ele>334</ele>
        <time>2021-06-10T21:11:33Z</time>
      </trkpt>
      <trkpt lat="45.82943" lon="4.16131">
        <ele>333</ele>
        <time>2021-06-10T21:11:52Z</time>
      </trkpt>
      <trkpt lat="45.82898" lon="4.16379">
        <ele>332</ele>
        <time>2021-06-10T21:12:23Z</time>
      </trkpt>
      <trkpt lat="45.82883" lon="4.16429">
        <ele>331</ele>
        <time>2021-06-10T21:12:30Z</time>
      </trkpt>
      <trkpt lat="45.82858" lon="4.16494">
        <ele>329</ele>
        <time>2021-06-10T21:12:39Z</time>
      </trkpt>
      <trkpt lat="45.8285" lon="4.16533">
        <ele>329</ele>
        <time>2021-06-10T21:12:44Z</time>
      </trkpt>
      <trkpt lat="45.82815" lon="4.16858">
        <ele>332</ele>
        <time>2021-06-10T21:13:25Z</time>
      </trkpt>
      <trkpt lat="45.82816" lon="4.1689">
        <ele>332</ele>
        <time>2021-06-10T21:13:29Z</time>
      </trkpt>
      <trkpt lat="45.82821" lon="4.16927">
        <ele>332</ele>
        <time>2021-06-10T21:13:34Z</time>
      </trkpt>
      <trkpt lat="45.8283" lon="4.16958">
        <ele>332</ele>
        <time>2021-06-10T21:13:38Z</time>
      </trkpt>
      <trkpt lat="45.8284" lon="4.16979">
        <ele>332</ele>
        <time>2021-06-10T21:13:41Z</time>
      </trkpt>
      <trkpt lat="45.82901" lon="4.17072">
        <ele>330</ele>
        <time>2021-06-10T21:13:57Z</time>
      </trkpt>
      <trkpt lat="45.82912" lon="4.171">
        <ele>330</ele>
        <time>2021-06-10T21:14:01Z</time>
      </trkpt>
      <trkpt lat="45.82916" lon="4.17123">
        <ele>330</ele>
        <time>2021-06-10T21:14:04Z</time>
      </trkpt>
      <trkpt lat="45.82915" lon="4.17138">
        <ele>329</ele>
        <time>2021-06-10T21:14:06Z</time>
      </trkpt>
      <trkpt lat="45.82909" lon="4.1715">
        <ele>329</ele>
        <time>2021-06-10T21:14:08Z</time>
      </trkpt>
      <trkpt lat="45.82787" lon="4.17322">
        <ele>330</ele>
        <time>2021-06-10T21:14:38Z</time>
      </trkpt>
      <trkpt lat="45.82673" lon="4.1744">
        <ele>333</ele>
        <time>2021-06-10T21:15:03Z</time>
      </trkpt>
      <trkpt lat="45.82553" lon="4.17576">
        <ele>335</ele>
        <time>2021-06-10T21:15:30Z</time>
      </trkpt>
      <trkpt lat="45.82537" lon="4.17604">
        <ele>335</ele>
        <time>2021-06-10T21:15:35Z</time>
      </trkpt>
      <trkpt lat="45.82535" lon="4.17616">
        <ele>336</ele>
        <time>2021-06-10T21:15:36Z</time>
      </trkpt>
      <trkpt lat="45.82536" lon="4.17635">
        <ele>336</ele>
        <time>2021-06-10T21:15:39Z</time>
      </trkpt>
      <trkpt lat="45.8254" lon="4.1766">
        <ele>336</ele>
        <time>2021-06-10T21:15:42Z</time>
      </trkpt>
      <trkpt lat="45.82546" lon="4.17658">
        <ele>336</ele>
        <time>2021-06-10T21:15:43Z</time>
      </trkpt>
      <trkpt lat="45.8255" lon="4.17672">
        <ele>336</ele>
        <time>2021-06-10T21:15:45Z</time>
      </trkpt>
      <trkpt lat="45.82571" lon="4.177">
        <ele>336</ele>
        <time>2021-06-10T21:15:50Z</time>
      </trkpt>
      <trkpt lat="45.82573" lon="4.17712">
        <ele>336</ele>
        <time>2021-06-10T21:15:51Z</time>
      </trkpt>
      <trkpt lat="45.82546" lon="4.17743">
        <ele>336</ele>
        <time>2021-06-10T21:15:58Z</time>
      </trkpt>
      <trkpt lat="45.82238" lon="4.18163">
        <ele>333</ele>
        <time>2021-06-10T21:17:13Z</time>
      </trkpt>
      <trkpt lat="45.82175" lon="4.18243">
        <ele>332</ele>
        <time>2021-06-10T21:17:28Z</time>
      </trkpt>
      <trkpt lat="45.82111" lon="4.18334">
        <ele>330</ele>
        <time>2021-06-10T21:17:44Z</time>
      </trkpt>
      <trkpt lat="45.82094" lon="4.18373">
        <ele>331</ele>
        <time>2021-06-10T21:17:50Z</time>
      </trkpt>
      <trkpt lat="45.82091" lon="4.18394">
        <ele>331</ele>
        <time>2021-06-10T21:17:52Z</time>
      </trkpt>
      <trkpt lat="45.8207" lon="4.18441">
        <ele>332</ele>
        <time>2021-06-10T21:17:59Z</time>
      </trkpt>
      <trkpt lat="45.81927" lon="4.18652">
        <ele>333</ele>
        <time>2021-06-10T21:18:36Z</time>
      </trkpt>
      <trkpt lat="45.81855" lon="4.18763">
        <ele>333</ele>
        <time>2021-06-10T21:18:55Z</time>
      </trkpt>
      <trkpt lat="45.81839" lon="4.18781">
        <ele>333</ele>
        <time>2021-06-10T21:18:58Z</time>
      </trkpt>
      <trkpt lat="45.81825" lon="4.18788">
        <ele>333</ele>
        <time>2021-06-10T21:19:01Z</time>
      </trkpt>
      <trkpt lat="45.8186" lon="4.18966">
        <ele>334</ele>
        <time>2021-06-10T21:19:24Z</time>
      </trkpt>
      <trkpt lat="45.81872" lon="4.19043">
        <ele>333</ele>
        <time>2021-06-10T21:19:34Z</time>
      </trkpt>
      <trkpt lat="45.81876" lon="4.19085">
        <ele>333</ele>
        <time>2021-06-10T21:19:39Z</time>
      </trkpt>
      <trkpt lat="45.8187" lon="4.19129">
        <ele>334</ele>
        <time>2021-06-10T21:19:44Z</time>
      </trkpt>
      <trkpt lat="45.81854" lon="4.19188">
        <ele>335</ele>
        <time>2021-06-10T21:19:52Z</time>
      </trkpt>
      <trkpt lat="45.81776" lon="4.19534">
        <ele>338</ele>
        <time>2021-06-10T21:20:37Z</time>
      </trkpt>
      <trkpt lat="45.81766" lon="4.19532">
        <ele>338</ele>
        <time>2021-06-10T21:20:39Z</time>
      </trkpt>
      <trkpt lat="45.81757" lon="4.19538">
        <ele>338</ele>
        <time>2021-06-10T21:20:41Z</time>
      </trkpt>
      <trkpt lat="45.81753" lon="4.19547">
        <ele>338</ele>
        <time>2021-06-10T21:20:42Z</time>
      </trkpt>
      <trkpt lat="45.81753" lon="4.19559">
        <ele>338</ele>
        <time>2021-06-10T21:20:44Z</time>
      </trkpt>
      <trkpt lat="45.81756" lon="4.19568">
        <ele>338</ele>
        <time>2021-06-10T21:20:45Z</time>
      </trkpt>
      <trkpt lat="45.81762" lon="4.19575">
        <ele>338</ele>
        <time>2021-06-10T21:20:46Z</time>
      </trkpt>
      <trkpt lat="45.81769" lon="4.19577">
        <ele>338</ele>
        <time>2021-06-10T21:20:48Z</time>
      </trkpt>
      <trkpt lat="45.81769" lon="4.19618">
        <ele>338</ele>
        <time>2021-06-10T21:20:53Z</time>
      </trkpt>
      <trkpt lat="45.81739" lon="4.1991">
        <ele>341</ele>
        <time>2021-06-10T21:21:29Z</time>
      </trkpt>
      <trkpt lat="45.81735" lon="4.19969">
        <ele>341</ele>
        <time>2021-06-10T21:21:37Z</time>
      </trkpt>
      <trkpt lat="45.81652" lon="4.20198">
        <ele>345</ele>
        <time>2021-06-10T21:22:09Z</time>
      </trkpt>
      <trkpt lat="45.81626" lon="4.20276">
        <ele>345</ele>
        <time>2021-06-10T21:22:19Z</time>
      </trkpt>
      <trkpt lat="45.81607" lon="4.2036">
        <ele>345</ele>
        <time>2021-06-10T21:22:30Z</time>
      </trkpt>
      <trkpt lat="45.81254" lon="4.21523">
        <ele>354</ele>
        <time>2021-06-10T21:25:08Z</time>
      </trkpt>
      <trkpt lat="45.81229" lon="4.21566">
        <ele>356</ele>
        <time>2021-06-10T21:25:15Z</time>
      </trkpt>
      <trkpt lat="45.81214" lon="4.21583">
        <ele>357</ele>
        <time>2021-06-10T21:25:18Z</time>
      </trkpt>
      <trkpt lat="45.812" lon="4.21597">
        <ele>359</ele>
        <time>2021-06-10T21:25:21Z</time>
      </trkpt>
      <trkpt lat="45.81169" lon="4.21617">
        <ele>361</ele>
        <time>2021-06-10T21:25:27Z</time>
      </trkpt>
      <trkpt lat="45.81135" lon="4.21647">
        <ele>362</ele>
        <time>2021-06-10T21:25:34Z</time>
      </trkpt>
      <trkpt lat="45.81107" lon="4.21676">
        <ele>362</ele>
        <time>2021-06-10T21:25:40Z</time>
      </trkpt>
      <trkpt lat="45.81071" lon="4.21724">
        <ele>361</ele>
        <time>2021-06-10T21:25:49Z</time>
      </trkpt>
      <trkpt lat="45.8106" lon="4.21746">
        <ele>361</ele>
        <time>2021-06-10T21:25:52Z</time>
      </trkpt>
      <trkpt lat="45.81041" lon="4.21798">
        <ele>362</ele>
        <time>2021-06-10T21:26:00Z</time>
      </trkpt>
      <trkpt lat="45.81026" lon="4.21858">
        <ele>363</ele>
        <time>2021-06-10T21:26:08Z</time>
      </trkpt>
      <trkpt lat="45.80955" lon="4.21986">
        <ele>361</ele>
        <time>2021-06-10T21:26:28Z</time>
      </trkpt>
      <trkpt lat="45.80914" lon="4.22055">
        <ele>361</ele>
        <time>2021-06-10T21:26:39Z</time>
      </trkpt>
      <trkpt lat="45.80832" lon="4.22146">
        <ele>363</ele>
        <time>2021-06-10T21:26:58Z</time>
      </trkpt>
      <trkpt lat="45.8076" lon="4.22221">
        <ele>362</ele>
        <time>2021-06-10T21:27:13Z</time>
      </trkpt>
      <trkpt lat="45.80691" lon="4.22337">
        <ele>363</ele>
        <time>2021-06-10T21:27:32Z</time>
      </trkpt>
      <trkpt lat="45.80628" lon="4.22405">
        <ele>363</ele>
        <time>2021-06-10T21:27:46Z</time>
      </trkpt>
      <trkpt lat="45.80597" lon="4.22442">
        <ele>363</ele>
        <time>2021-06-10T21:27:54Z</time>
      </trkpt>
      <trkpt lat="45.80484" lon="4.2253">
        <ele>362</ele>
        <time>2021-06-10T21:28:16Z</time>
      </trkpt>
      <trkpt lat="45.80421" lon="4.22594">
        <ele>359</ele>
        <time>2021-06-10T21:28:30Z</time>
      </trkpt>
      <trkpt lat="45.804" lon="4.22607">
        <ele>359</ele>
        <time>2021-06-10T21:28:34Z</time>
      </trkpt>
      <trkpt lat="45.8031" lon="4.22642">
        <ele>358</ele>
        <time>2021-06-10T21:28:51Z</time>
      </trkpt>
      <trkpt lat="45.80235" lon="4.22677">
        <ele>358</ele>
        <time>2021-06-10T21:29:05Z</time>
      </trkpt>
      <trkpt lat="45.80211" lon="4.22695">
        <ele>358</ele>
        <time>2021-06-10T21:29:10Z</time>
      </trkpt>
      <trkpt lat="45.80142" lon="4.22766">
        <ele>358</ele>
        <time>2021-06-10T21:29:25Z</time>
      </trkpt>
      <trkpt lat="45.80131" lon="4.2278">
        <ele>358</ele>
        <time>2021-06-10T21:29:27Z</time>
      </trkpt>
      <trkpt lat="45.80089" lon="4.22849">
        <ele>360</ele>
        <time>2021-06-10T21:29:39Z</time>
      </trkpt>
      <trkpt lat="45.80058" lon="4.22917">
        <ele>361</ele>
        <time>2021-06-10T21:29:49Z</time>
      </trkpt>
      <trkpt lat="45.80042" lon="4.22941">
        <ele>361</ele>
        <time>2021-06-10T21:29:53Z</time>
      </trkpt>
      <trkpt lat="45.80021" lon="4.22966">
        <ele>362</ele>
        <time>2021-06-10T21:29:58Z</time>
      </trkpt>
      <trkpt lat="45.79953" lon="4.23015">
        <ele>361</ele>
        <time>2021-06-10T21:30:11Z</time>
      </trkpt>
      <trkpt lat="45.79947" lon="4.23023">
        <ele>361</ele>
        <time>2021-06-10T21:30:13Z</time>
      </trkpt>
      <trkpt lat="45.79938" lon="4.23051">
        <ele>362</ele>
        <time>2021-06-10T21:30:17Z</time>
      </trkpt>
      <trkpt lat="45.79932" lon="4.23088">
        <ele>363</ele>
        <time>2021-06-10T21:30:21Z</time>
      </trkpt>
      <trkpt lat="45.79928" lon="4.231">
        <ele>364</ele>
        <time>2021-06-10T21:30:23Z</time>
      </trkpt>
      <trkpt lat="45.79853" lon="4.23191">
        <ele>365</ele>
        <time>2021-06-10T21:30:41Z</time>
      </trkpt>
      <trkpt lat="45.79832" lon="4.23225">
        <ele>365</ele>
        <time>2021-06-10T21:30:46Z</time>
      </trkpt>
      <trkpt lat="45.79803" lon="4.23332">
        <ele>365</ele>
        <time>2021-06-10T21:31:00Z</time>
      </trkpt>
      <trkpt lat="45.79803" lon="4.23346">
        <ele>365</ele>
        <time>2021-06-10T21:31:02Z</time>
      </trkpt>
      <trkpt lat="45.79815" lon="4.2342">
        <ele>366</ele>
        <time>2021-06-10T21:31:12Z</time>
      </trkpt>
      <trkpt lat="45.79839" lon="4.23514">
        <ele>370</ele>
        <time>2021-06-10T21:31:24Z</time>
      </trkpt>
      <trkpt lat="45.79849" lon="4.23569">
        <ele>371</ele>
        <time>2021-06-10T21:31:31Z</time>
      </trkpt>
      <trkpt lat="45.7986" lon="4.23609">
        <ele>372</ele>
        <time>2021-06-10T21:31:36Z</time>
      </trkpt>
      <trkpt lat="45.7988" lon="4.23637">
        <ele>374</ele>
        <time>2021-06-10T21:31:41Z</time>
      </trkpt>
      <trkpt lat="45.79946" lon="4.23688">
        <ele>379</ele>
        <time>2021-06-10T21:31:55Z</time>
      </trkpt>
      <trkpt lat="45.79979" lon="4.23722">
        <ele>381</ele>
        <time>2021-06-10T21:32:02Z</time>
      </trkpt>
      <trkpt lat="45.8004" lon="4.23846">
        <ele>390</ele>
        <time>2021-06-10T21:32:21Z</time>
      </trkpt>
      <trkpt lat="45.80098" lon="4.23992">
        <ele>390</ele>
        <time>2021-06-10T21:32:42Z</time>
      </trkpt>
      <trkpt lat="45.80216" lon="4.24148">
        <ele>399</ele>
        <time>2021-06-10T21:33:10Z</time>
      </trkpt>
      <trkpt lat="45.8033" lon="4.24358">
        <ele>402</ele>
        <time>2021-06-10T21:33:43Z</time>
      </trkpt>
      <trkpt lat="45.80351" lon="4.24386">
        <ele>403</ele>
        <time>2021-06-10T21:33:48Z</time>
      </trkpt>
      <trkpt lat="45.80454" lon="4.24469">
        <ele>411</ele>
        <time>2021-06-10T21:34:09Z</time>
      </trkpt>
      <trkpt lat="45.80505" lon="4.24562">
        <ele>414</ele>
        <time>2021-06-10T21:34:24Z</time>
      </trkpt>
      <trkpt lat="45.80526" lon="4.24625">
        <ele>417</ele>
        <time>2021-06-10T21:34:33Z</time>
      </trkpt>
      <trkpt lat="45.80571" lon="4.24683">
        <ele>413</ele>
        <time>2021-06-10T21:34:43Z</time>
      </trkpt>
      <trkpt lat="45.80601" lon="4.24711">
        <ele>415</ele>
        <time>2021-06-10T21:34:50Z</time>
      </trkpt>
      <trkpt lat="45.8063" lon="4.24722">
        <ele>415</ele>
        <time>2021-06-10T21:34:55Z</time>
      </trkpt>
      <trkpt lat="45.80783" lon="4.24719">
        <ele>417</ele>
        <time>2021-06-10T21:35:22Z</time>
      </trkpt>
      <trkpt lat="45.80828" lon="4.24721">
        <ele>418</ele>
        <time>2021-06-10T21:35:30Z</time>
      </trkpt>
      <trkpt lat="45.80873" lon="4.24731">
        <ele>422</ele>
        <time>2021-06-10T21:35:38Z</time>
      </trkpt>
      <trkpt lat="45.80953" lon="4.24764">
        <ele>426</ele>
        <time>2021-06-10T21:35:53Z</time>
      </trkpt>
      <trkpt lat="45.81047" lon="4.24769">
        <ele>430</ele>
        <time>2021-06-10T21:36:10Z</time>
      </trkpt>
      <trkpt lat="45.81074" lon="4.24756">
        <ele>431</ele>
        <time>2021-06-10T21:36:15Z</time>
      </trkpt>
      <trkpt lat="45.81105" lon="4.24736">
        <ele>433</ele>
        <time>2021-06-10T21:36:21Z</time>
      </trkpt>
      <trkpt lat="45.8124" lon="4.24668">
        <ele>439</ele>
        <time>2021-06-10T21:36:47Z</time>
      </trkpt>
      <trkpt lat="45.81302" lon="4.24625">
        <ele>451</ele>
        <time>2021-06-10T21:36:59Z</time>
      </trkpt>
      <trkpt lat="45.81462" lon="4.24582">
        <ele>452</ele>
        <time>2021-06-10T21:37:28Z</time>
      </trkpt>
      <trkpt lat="45.81511" lon="4.24577">
        <ele>453</ele>
        <time>2021-06-10T21:37:36Z</time>
      </trkpt>
      <trkpt lat="45.81582" lon="4.24588">
        <ele>458</ele>
        <time>2021-06-10T21:37:49Z</time>
      </trkpt>
      <trkpt lat="45.8162" lon="4.24598">
        <ele>461</ele>
        <time>2021-06-10T21:37:56Z</time>
      </trkpt>
      <trkpt lat="45.81696" lon="4.24627">
        <ele>465</ele>
        <time>2021-06-10T21:38:10Z</time>
      </trkpt>
      <trkpt lat="45.81713" lon="4.24636">
        <ele>466</ele>
        <time>2021-06-10T21:38:13Z</time>
      </trkpt>
      <trkpt lat="45.81725" lon="4.24646">
        <ele>465</ele>
        <time>2021-06-10T21:38:16Z</time>
      </trkpt>
      <trkpt lat="45.81752" lon="4.24688">
        <ele>464</ele>
        <time>2021-06-10T21:38:23Z</time>
      </trkpt>
      <trkpt lat="45.81767" lon="4.24722">
        <ele>465</ele>
        <time>2021-06-10T21:38:28Z</time>
      </trkpt>
      <trkpt lat="45.81794" lon="4.24794">
        <ele>463</ele>
        <time>2021-06-10T21:38:38Z</time>
      </trkpt>
      <trkpt lat="45.81807" lon="4.24882">
        <ele>459</ele>
        <time>2021-06-10T21:38:49Z</time>
      </trkpt>
      <trkpt lat="45.8182" lon="4.24927">
        <ele>459</ele>
        <time>2021-06-10T21:38:55Z</time>
      </trkpt>
      <trkpt lat="45.81837" lon="4.24968">
        <ele>460</ele>
        <time>2021-06-10T21:39:01Z</time>
      </trkpt>
      <trkpt lat="45.8196" lon="4.25065">
        <ele>468</ele>
        <time>2021-06-10T21:39:26Z</time>
      </trkpt>
      <trkpt lat="45.82081" lon="4.25152">
        <ele>471</ele>
        <time>2021-06-10T21:39:50Z</time>
      </trkpt>
      <trkpt lat="45.82105" lon="4.25158">
        <ele>471</ele>
        <time>2021-06-10T21:39:54Z</time>
      </trkpt>
      <trkpt lat="45.82127" lon="4.25156">
        <ele>472</ele>
        <time>2021-06-10T21:39:58Z</time>
      </trkpt>
      <trkpt lat="45.82167" lon="4.25141">
        <ele>475</ele>
        <time>2021-06-10T21:40:06Z</time>
      </trkpt>
      <trkpt lat="45.82279" lon="4.25144">
        <ele>483</ele>
        <time>2021-06-10T21:40:26Z</time>
      </trkpt>
      <trkpt lat="45.82304" lon="4.25155">
        <ele>485</ele>
        <time>2021-06-10T21:40:30Z</time>
      </trkpt>
      <trkpt lat="45.82334" lon="4.25191">
        <ele>487</ele>
        <time>2021-06-10T21:40:37Z</time>
      </trkpt>
      <trkpt lat="45.82356" lon="4.25229">
        <ele>488</ele>
        <time>2021-06-10T21:40:43Z</time>
      </trkpt>
      <trkpt lat="45.82441" lon="4.25264">
        <ele>495</ele>
        <time>2021-06-10T21:40:59Z</time>
      </trkpt>
      <trkpt lat="45.82465" lon="4.25271">
        <ele>495</ele>
        <time>2021-06-10T21:41:04Z</time>
      </trkpt>
      <trkpt lat="45.82487" lon="4.25288">
        <ele>494</ele>
        <time>2021-06-10T21:41:08Z</time>
      </trkpt>
      <trkpt lat="45.82586" lon="4.25411">
        <ele>498</ele>
        <time>2021-06-10T21:41:31Z</time>
      </trkpt>
      <trkpt lat="45.82618" lon="4.2543">
        <ele>500</ele>
        <time>2021-06-10T21:41:37Z</time>
      </trkpt>
      <trkpt lat="45.82636" lon="4.25435">
        <ele>501</ele>
        <time>2021-06-10T21:41:41Z</time>
      </trkpt>
      <trkpt lat="45.82719" lon="4.25535">
        <ele>503</ele>
        <time>2021-06-10T21:42:00Z</time>
      </trkpt>
      <trkpt lat="45.82723" lon="4.25556">
        <ele>502</ele>
        <time>2021-06-10T21:42:03Z</time>
      </trkpt>
      <trkpt lat="45.82717" lon="4.25573">
        <ele>501</ele>
        <time>2021-06-10T21:42:05Z</time>
      </trkpt>
      <trkpt lat="45.82711" lon="4.2558">
        <ele>501</ele>
        <time>2021-06-10T21:42:06Z</time>
      </trkpt>
      <trkpt lat="45.82702" lon="4.25583">
        <ele>500</ele>
        <time>2021-06-10T21:42:08Z</time>
      </trkpt>
      <trkpt lat="45.82675" lon="4.2558">
        <ele>499</ele>
        <time>2021-06-10T21:42:13Z</time>
      </trkpt>
      <trkpt lat="45.82544" lon="4.25556">
        <ele>503</ele>
        <time>2021-06-10T21:42:36Z</time>
      </trkpt>
      <trkpt lat="45.82535" lon="4.25557">
        <ele>503</ele>
        <time>2021-06-10T21:42:38Z</time>
      </trkpt>
      <trkpt lat="45.8251" lon="4.25575">
        <ele>505</ele>
        <time>2021-06-10T21:42:43Z</time>
      </trkpt>
      <trkpt lat="45.82501" lon="4.25593">
        <ele>506</ele>
        <time>2021-06-10T21:42:46Z</time>
      </trkpt>
      <trkpt lat="45.82496" lon="4.25619">
        <ele>507</ele>
        <time>2021-06-10T21:42:49Z</time>
      </trkpt>
      <trkpt lat="45.8249" lon="4.25635">
        <ele>508</ele>
        <time>2021-06-10T21:42:51Z</time>
      </trkpt>
      <trkpt lat="45.82479" lon="4.25646">
        <ele>508</ele>
        <time>2021-06-10T21:42:54Z</time>
      </trkpt>
      <trkpt lat="45.82466" lon="4.2565">
        <ele>509</ele>
        <time>2021-06-10T21:42:56Z</time>
      </trkpt>
      <trkpt lat="45.82415" lon="4.25633">
        <ele>509</ele>
        <time>2021-06-10T21:43:05Z</time>
      </trkpt>
      <trkpt lat="45.8239" lon="4.25629">
        <ele>510</ele>
        <time>2021-06-10T21:43:10Z</time>
      </trkpt>
      <trkpt lat="45.82317" lon="4.25627">
        <ele>516</ele>
        <time>2021-06-10T21:43:23Z</time>
      </trkpt>
      <trkpt lat="45.82297" lon="4.25615">
        <ele>516</ele>
        <time>2021-06-10T21:43:27Z</time>
      </trkpt>
      <trkpt lat="45.82259" lon="4.2558">
        <ele>517</ele>
        <time>2021-06-10T21:43:35Z</time>
      </trkpt>
      <trkpt lat="45.82235" lon="4.25563">
        <ele>518</ele>
        <time>2021-06-10T21:43:39Z</time>
      </trkpt>
      <trkpt lat="45.822" lon="4.2555">
        <ele>519</ele>
        <time>2021-06-10T21:43:46Z</time>
      </trkpt>
      <trkpt lat="45.82162" lon="4.25542">
        <ele>521</ele>
        <time>2021-06-10T21:43:53Z</time>
      </trkpt>
      <trkpt lat="45.82144" lon="4.25542">
        <ele>522</ele>
        <time>2021-06-10T21:43:56Z</time>
      </trkpt>
      <trkpt lat="45.82127" lon="4.2555">
        <ele>523</ele>
        <time>2021-06-10T21:43:59Z</time>
      </trkpt>
      <trkpt lat="45.82114" lon="4.25561">
        <ele>524</ele>
        <time>2021-06-10T21:44:02Z</time>
      </trkpt>
      <trkpt lat="45.82101" lon="4.25581">
        <ele>526</ele>
        <time>2021-06-10T21:44:05Z</time>
      </trkpt>
      <trkpt lat="45.82089" lon="4.25614">
        <ele>528</ele>
        <time>2021-06-10T21:44:10Z</time>
      </trkpt>
      <trkpt lat="45.82076" lon="4.25686">
        <ele>529</ele>
        <time>2021-06-10T21:44:19Z</time>
      </trkpt>
      <trkpt lat="45.82076" lon="4.25713">
        <ele>529</ele>
        <time>2021-06-10T21:44:22Z</time>
      </trkpt>
      <trkpt lat="45.82084" lon="4.25743">
        <ele>531</ele>
        <time>2021-06-10T21:44:26Z</time>
      </trkpt>
      <trkpt lat="45.821" lon="4.25765">
        <ele>532</ele>
        <time>2021-06-10T21:44:30Z</time>
      </trkpt>
      <trkpt lat="45.82228" lon="4.25894">
        <ele>534</ele>
        <time>2021-06-10T21:44:58Z</time>
      </trkpt>
      <trkpt lat="45.823" lon="4.25939">
        <ele>537</ele>
        <time>2021-06-10T21:45:12Z</time>
      </trkpt>
      <trkpt lat="45.82315" lon="4.2596">
        <ele>537</ele>
        <time>2021-06-10T21:45:16Z</time>
      </trkpt>
      <trkpt lat="45.82317" lon="4.25985">
        <ele>536</ele>
        <time>2021-06-10T21:45:19Z</time>
      </trkpt>
      <trkpt lat="45.82313" lon="4.25997">
        <ele>535</ele>
        <time>2021-06-10T21:45:21Z</time>
      </trkpt>
      <trkpt lat="45.82304" lon="4.26009">
        <ele>534</ele>
        <time>2021-06-10T21:45:23Z</time>
      </trkpt>
      <trkpt lat="45.82226" lon="4.26084">
        <ele>526</ele>
        <time>2021-06-10T21:45:40Z</time>
      </trkpt>
      <trkpt lat="45.82217" lon="4.26096">
        <ele>524</ele>
        <time>2021-06-10T21:45:42Z</time>
      </trkpt>
      <trkpt lat="45.82211" lon="4.26112">
        <ele>523</ele>
        <time>2021-06-10T21:45:44Z</time>
      </trkpt>
      <trkpt lat="45.82209" lon="4.26127">
        <ele>523</ele>
        <time>2021-06-10T21:45:46Z</time>
      </trkpt>
      <trkpt lat="45.82211" lon="4.26144">
        <ele>523</ele>
        <time>2021-06-10T21:45:48Z</time>
      </trkpt>
      <trkpt lat="45.82259" lon="4.26248">
        <ele>525</ele>
        <time>2021-06-10T21:46:03Z</time>
      </trkpt>
      <trkpt lat="45.82267" lon="4.26271">
        <ele>527</ele>
        <time>2021-06-10T21:46:07Z</time>
      </trkpt>
      <trkpt lat="45.82269" lon="4.26286">
        <ele>527</ele>
        <time>2021-06-10T21:46:09Z</time>
      </trkpt>
      <trkpt lat="45.82267" lon="4.263">
        <ele>527</ele>
        <time>2021-06-10T21:46:10Z</time>
      </trkpt>
      <trkpt lat="45.82261" lon="4.26313">
        <ele>525</ele>
        <time>2021-06-10T21:46:12Z</time>
      </trkpt>
      <trkpt lat="45.82252" lon="4.26323">
        <ele>523</ele>
        <time>2021-06-10T21:46:14Z</time>
      </trkpt>
      <trkpt lat="45.82237" lon="4.26325">
        <ele>523</ele>
        <time>2021-06-10T21:46:17Z</time>
      </trkpt>
      <trkpt lat="45.82223" lon="4.26324">
        <ele>524</ele>
        <time>2021-06-10T21:46:19Z</time>
      </trkpt>
      <trkpt lat="45.82165" lon="4.26285">
        <ele>520</ele>
        <time>2021-06-10T21:46:31Z</time>
      </trkpt>
      <trkpt lat="45.82143" lon="4.26289">
        <ele>519</ele>
        <time>2021-06-10T21:46:35Z</time>
      </trkpt>
      <trkpt lat="45.82132" lon="4.26298">
        <ele>520</ele>
        <time>2021-06-10T21:46:37Z</time>
      </trkpt>
      <trkpt lat="45.82123" lon="4.26315">
        <ele>521</ele>
        <time>2021-06-10T21:46:40Z</time>
      </trkpt>
      <trkpt lat="45.82117" lon="4.26337">
        <ele>523</ele>
        <time>2021-06-10T21:46:43Z</time>
      </trkpt>
      <trkpt lat="45.8211" lon="4.26387">
        <ele>525</ele>
        <time>2021-06-10T21:46:49Z</time>
      </trkpt>
      <trkpt lat="45.82111" lon="4.26419">
        <ele>528</ele>
        <time>2021-06-10T21:46:53Z</time>
      </trkpt>
      <trkpt lat="45.8213" lon="4.2651">
        <ele>537</ele>
        <time>2021-06-10T21:47:05Z</time>
      </trkpt>
      <trkpt lat="45.82129" lon="4.26523">
        <ele>537</ele>
        <time>2021-06-10T21:47:06Z</time>
      </trkpt>
      <trkpt lat="45.82124" lon="4.26536">
        <ele>537</ele>
        <time>2021-06-10T21:47:08Z</time>
      </trkpt>
      <trkpt lat="45.82114" lon="4.26543">
        <ele>537</ele>
        <time>2021-06-10T21:47:10Z</time>
      </trkpt>
      <trkpt lat="45.82104" lon="4.26545">
        <ele>536</ele>
        <time>2021-06-10T21:47:12Z</time>
      </trkpt>
      <trkpt lat="45.82053" lon="4.26517">
        <ele>533</ele>
        <time>2021-06-10T21:47:22Z</time>
      </trkpt>
      <trkpt lat="45.82032" lon="4.2651">
        <ele>533</ele>
        <time>2021-06-10T21:47:25Z</time>
      </trkpt>
      <trkpt lat="45.82006" lon="4.26509">
        <ele>534</ele>
        <time>2021-06-10T21:47:30Z</time>
      </trkpt>
      <trkpt lat="45.81983" lon="4.26516">
        <ele>534</ele>
        <time>2021-06-10T21:47:34Z</time>
      </trkpt>
      <trkpt lat="45.81952" lon="4.26535">
        <ele>532</ele>
        <time>2021-06-10T21:47:40Z</time>
      </trkpt>
      <trkpt lat="45.8194" lon="4.26549">
        <ele>531</ele>
        <time>2021-06-10T21:47:43Z</time>
      </trkpt>
      <trkpt lat="45.81926" lon="4.26572">
        <ele>529</ele>
        <time>2021-06-10T21:47:47Z</time>
      </trkpt>
      <trkpt lat="45.81906" lon="4.26592">
        <ele>527</ele>
        <time>2021-06-10T21:47:51Z</time>
      </trkpt>
      <trkpt lat="45.81878" lon="4.26612">
        <ele>523</ele>
        <time>2021-06-10T21:47:57Z</time>
      </trkpt>
      <trkpt lat="45.81868" lon="4.26635">
        <ele>522</ele>
        <time>2021-06-10T21:48:00Z</time>
      </trkpt>
      <trkpt lat="45.81862" lon="4.26657">
        <ele>522</ele>
        <time>2021-06-10T21:48:03Z</time>
      </trkpt>
      <trkpt lat="45.81861" lon="4.26677">
        <ele>522</ele>
        <time>2021-06-10T21:48:06Z</time>
      </trkpt>
      <trkpt lat="45.81872" lon="4.26705">
        <ele>523</ele>
        <time>2021-06-10T21:48:09Z</time>
      </trkpt>
      <trkpt lat="45.8192" lon="4.26773">
        <ele>523</ele>
        <time>2021-06-10T21:48:21Z</time>
      </trkpt>
      <trkpt lat="45.81928" lon="4.26795">
        <ele>523</ele>
        <time>2021-06-10T21:48:25Z</time>
      </trkpt>
      <trkpt lat="45.81931" lon="4.26811">
        <ele>522</ele>
        <time>2021-06-10T21:48:27Z</time>
      </trkpt>
      <trkpt lat="45.81929" lon="4.26832">
        <ele>519</ele>
        <time>2021-06-10T21:48:29Z</time>
      </trkpt>
      <trkpt lat="45.81922" lon="4.26849">
        <ele>518</ele>
        <time>2021-06-10T21:48:32Z</time>
      </trkpt>
      <trkpt lat="45.81912" lon="4.26862">
        <ele>517</ele>
        <time>2021-06-10T21:48:34Z</time>
      </trkpt>
      <trkpt lat="45.81821" lon="4.26909">
        <ele>506</ele>
        <time>2021-06-10T21:48:51Z</time>
      </trkpt>
      <trkpt lat="45.81812" lon="4.26922">
        <ele>505</ele>
        <time>2021-06-10T21:48:54Z</time>
      </trkpt>
      <trkpt lat="45.81799" lon="4.26976">
        <ele>506</ele>
        <time>2021-06-10T21:49:01Z</time>
      </trkpt>
      <trkpt lat="45.8179" lon="4.26987">
        <ele>505</ele>
        <time>2021-06-10T21:49:03Z</time>
      </trkpt>
      <trkpt lat="45.81779" lon="4.26991">
        <ele>504</ele>
        <time>2021-06-10T21:49:05Z</time>
      </trkpt>
      <trkpt lat="45.81764" lon="4.26987">
        <ele>502</ele>
        <time>2021-06-10T21:49:08Z</time>
      </trkpt>
      <trkpt lat="45.81724" lon="4.26958">
        <ele>497</ele>
        <time>2021-06-10T21:49:15Z</time>
      </trkpt>
      <trkpt lat="45.81678" lon="4.26879">
        <ele>491</ele>
        <time>2021-06-10T21:49:28Z</time>
      </trkpt>
      <trkpt lat="45.81664" lon="4.26846">
        <ele>489</ele>
        <time>2021-06-10T21:49:33Z</time>
      </trkpt>
      <trkpt lat="45.81653" lon="4.26783">
        <ele>490</ele>
        <time>2021-06-10T21:49:41Z</time>
      </trkpt>
      <trkpt lat="45.81622" lon="4.26685">
        <ele>488</ele>
        <time>2021-06-10T21:49:54Z</time>
      </trkpt>
      <trkpt lat="45.81615" lon="4.26656">
        <ele>487</ele>
        <time>2021-06-10T21:49:58Z</time>
      </trkpt>
      <trkpt lat="45.81605" lon="4.26588">
        <ele>482</ele>
        <time>2021-06-10T21:50:07Z</time>
      </trkpt>
      <trkpt lat="45.81596" lon="4.26549">
        <ele>481</ele>
        <time>2021-06-10T21:50:12Z</time>
      </trkpt>
      <trkpt lat="45.81563" lon="4.26504">
        <ele>481</ele>
        <time>2021-06-10T21:50:20Z</time>
      </trkpt>
      <trkpt lat="45.81521" lon="4.26411">
        <ele>478</ele>
        <time>2021-06-10T21:50:34Z</time>
      </trkpt>
      <trkpt lat="45.81515" lon="4.26403">
        <ele>477</ele>
        <time>2021-06-10T21:50:35Z</time>
      </trkpt>
      <trkpt lat="45.8147" lon="4.26393">
        <ele>478</ele>
        <time>2021-06-10T21:50:43Z</time>
      </trkpt>
      <trkpt lat="45.81452" lon="4.26375">
        <ele>479</ele>
        <time>2021-06-10T21:50:47Z</time>
      </trkpt>
      <trkpt lat="45.81392" lon="4.26282">
        <ele>470</ele>
        <time>2021-06-10T21:51:03Z</time>
      </trkpt>
      <trkpt lat="45.8138" lon="4.26275">
        <ele>469</ele>
        <time>2021-06-10T21:51:05Z</time>
      </trkpt>
      <trkpt lat="45.81367" lon="4.26272">
        <ele>469</ele>
        <time>2021-06-10T21:51:08Z</time>
      </trkpt>
      <trkpt lat="45.81343" lon="4.26275">
        <ele>470</ele>
        <time>2021-06-10T21:51:12Z</time>
      </trkpt>
      <trkpt lat="45.81322" lon="4.2628">
        <ele>471</ele>
        <time>2021-06-10T21:51:16Z</time>
      </trkpt>
      <trkpt lat="45.81188" lon="4.26335">
        <ele>476</ele>
        <time>2021-06-10T21:51:40Z</time>
      </trkpt>
      <trkpt lat="45.81105" lon="4.26345">
        <ele>479</ele>
        <time>2021-06-10T21:51:55Z</time>
      </trkpt>
      <trkpt lat="45.8104" lon="4.26356">
        <ele>483</ele>
        <time>2021-06-10T21:52:07Z</time>
      </trkpt>
      <trkpt lat="45.81022" lon="4.26362">
        <ele>484</ele>
        <time>2021-06-10T21:52:10Z</time>
      </trkpt>
      <trkpt lat="45.81006" lon="4.26374">
        <ele>484</ele>
        <time>2021-06-10T21:52:13Z</time>
      </trkpt>
      <trkpt lat="45.80921" lon="4.2647">
        <ele>488</ele>
        <time>2021-06-10T21:52:33Z</time>
      </trkpt>
      <trkpt lat="45.80859" lon="4.26553">
        <ele>487</ele>
        <time>2021-06-10T21:52:48Z</time>
      </trkpt>
      <trkpt lat="45.80815" lon="4.26633">
        <ele>483</ele>
        <time>2021-06-10T21:53:00Z</time>
      </trkpt>
      <trkpt lat="45.808" lon="4.26668">
        <ele>482</ele>
        <time>2021-06-10T21:53:06Z</time>
      </trkpt>
      <trkpt lat="45.80779" lon="4.26752">
        <ele>481</ele>
        <time>2021-06-10T21:53:17Z</time>
      </trkpt>
      <trkpt lat="45.80772" lon="4.2677">
        <ele>481</ele>
        <time>2021-06-10T21:53:19Z</time>
      </trkpt>
      <trkpt lat="45.80731" lon="4.26832">
        <ele>484</ele>
        <time>2021-06-10T21:53:30Z</time>
      </trkpt>
      <trkpt lat="45.80707" lon="4.2689">
        <ele>486</ele>
        <time>2021-06-10T21:53:38Z</time>
      </trkpt>
      <trkpt lat="45.80693" lon="4.2691">
        <ele>487</ele>
        <time>2021-06-10T21:53:42Z</time>
      </trkpt>
      <trkpt lat="45.80678" lon="4.26926">
        <ele>487</ele>
        <time>2021-06-10T21:53:45Z</time>
      </trkpt>
      <trkpt lat="45.80624" lon="4.26961">
        <ele>489</ele>
        <time>2021-06-10T21:53:56Z</time>
      </trkpt>
      <trkpt lat="45.80588" lon="4.26993">
        <ele>491</ele>
        <time>2021-06-10T21:54:03Z</time>
      </trkpt>
      <trkpt lat="45.80552" lon="4.27035">
        <ele>493</ele>
        <time>2021-06-10T21:54:11Z</time>
      </trkpt>
      <trkpt lat="45.80453" lon="4.27197">
        <ele>494</ele>
        <time>2021-06-10T21:54:38Z</time>
      </trkpt>
      <trkpt lat="45.80408" lon="4.27265">
        <ele>494</ele>
        <time>2021-06-10T21:54:50Z</time>
      </trkpt>
      <trkpt lat="45.80357" lon="4.27304">
        <ele>494</ele>
        <time>2021-06-10T21:55:00Z</time>
      </trkpt>
      <trkpt lat="45.80341" lon="4.2732">
        <ele>493</ele>
        <time>2021-06-10T21:55:03Z</time>
      </trkpt>
      <trkpt lat="45.8032" lon="4.27354">
        <ele>493</ele>
        <time>2021-06-10T21:55:09Z</time>
      </trkpt>
      <trkpt lat="45.80307" lon="4.27382">
        <ele>493</ele>
        <time>2021-06-10T21:55:13Z</time>
      </trkpt>
      <trkpt lat="45.80283" lon="4.27418">
        <ele>494</ele>
        <time>2021-06-10T21:55:19Z</time>
      </trkpt>
      <trkpt lat="45.80185" lon="4.27481">
        <ele>496</ele>
        <time>2021-06-10T21:55:38Z</time>
      </trkpt>
      <trkpt lat="45.8011" lon="4.27526">
        <ele>494</ele>
        <time>2021-06-10T21:55:53Z</time>
      </trkpt>
      <trkpt lat="45.80085" lon="4.27546">
        <ele>493</ele>
        <time>2021-06-10T21:55:58Z</time>
      </trkpt>
      <trkpt lat="45.80078" lon="4.27543">
        <ele>492</ele>
        <time>2021-06-10T21:55:59Z</time>
      </trkpt>
      <trkpt lat="45.80075" lon="4.27545">
        <ele>492</ele>
        <time>2021-06-10T21:56:00Z</time>
      </trkpt>
      <trkpt lat="45.80072" lon="4.27553">
        <ele>492</ele>
        <time>2021-06-10T21:56:01Z</time>
      </trkpt>
      <trkpt lat="45.8005" lon="4.27557">
        <ele>492</ele>
        <time>2021-06-10T21:56:05Z</time>
      </trkpt>
      <trkpt lat="45.79946" lon="4.27621">
        <ele>494</ele>
        <time>2021-06-10T21:56:25Z</time>
      </trkpt>
      <trkpt lat="45.79903" lon="4.27643">
        <ele>495</ele>
        <time>2021-06-10T21:56:33Z</time>
      </trkpt>
      <trkpt lat="45.79871" lon="4.2765">
        <ele>494</ele>
        <time>2021-06-10T21:56:39Z</time>
      </trkpt>
      <trkpt lat="45.79799" lon="4.2766">
        <ele>492</ele>
        <time>2021-06-10T21:56:52Z</time>
      </trkpt>
      <trkpt lat="45.79748" lon="4.27678">
        <ele>490</ele>
        <time>2021-06-10T21:57:01Z</time>
      </trkpt>
      <trkpt lat="45.7974" lon="4.2767">
        <ele>489</ele>
        <time>2021-06-10T21:57:03Z</time>
      </trkpt>
      <trkpt lat="45.79735" lon="4.27672">
        <ele>489</ele>
        <time>2021-06-10T21:57:04Z</time>
      </trkpt>
      <trkpt lat="45.79728" lon="4.27658">
        <ele>489</ele>
        <time>2021-06-10T21:57:06Z</time>
      </trkpt>
      <trkpt lat="45.79689" lon="4.27512">
        <ele>482</ele>
        <time>2021-06-10T21:57:25Z</time>
      </trkpt>
      <trkpt lat="45.79595" lon="4.27252">
        <ele>482</ele>
        <time>2021-06-10T21:58:02Z</time>
      </trkpt>
      <trkpt lat="45.79586" lon="4.27236">
        <ele>482</ele>
        <time>2021-06-10T21:58:04Z</time>
      </trkpt>
      <trkpt lat="45.79572" lon="4.27225">
        <ele>482</ele>
        <time>2021-06-10T21:58:07Z</time>
      </trkpt>
      <trkpt lat="45.79535" lon="4.27225">
        <ele>480</ele>
        <time>2021-06-10T21:58:14Z</time>
      </trkpt>
      <trkpt lat="45.79495" lon="4.27221">
        <ele>478</ele>
        <time>2021-06-10T21:58:21Z</time>
      </trkpt>
      <trkpt lat="45.79445" lon="4.27214">
        <ele>476</ele>
        <time>2021-06-10T21:58:30Z</time>
      </trkpt>
      <trkpt lat="45.79415" lon="4.27205">
        <ele>476</ele>
        <time>2021-06-10T21:58:35Z</time>
      </trkpt>
      <trkpt lat="45.79392" lon="4.27207">
        <ele>475</ele>
        <time>2021-06-10T21:58:39Z</time>
      </trkpt>
      <trkpt lat="45.79358" lon="4.27226">
        <ele>472</ele>
        <time>2021-06-10T21:58:46Z</time>
      </trkpt>
      <trkpt lat="45.79329" lon="4.27247">
        <ele>469</ele>
        <time>2021-06-10T21:58:52Z</time>
      </trkpt>
      <trkpt lat="45.79294" lon="4.27265">
        <ele>467</ele>
        <time>2021-06-10T21:58:58Z</time>
      </trkpt>
      <trkpt lat="45.7928" lon="4.27267">
        <ele>466</ele>
        <time>2021-06-10T21:59:01Z</time>
      </trkpt>
      <trkpt lat="45.79263" lon="4.27263">
        <ele>466</ele>
        <time>2021-06-10T21:59:04Z</time>
      </trkpt>
      <trkpt lat="45.7923" lon="4.27248">
        <ele>468</ele>
        <time>2021-06-10T21:59:10Z</time>
      </trkpt>
      <trkpt lat="45.79194" lon="4.27243">
        <ele>468</ele>
        <time>2021-06-10T21:59:16Z</time>
      </trkpt>
      <trkpt lat="45.79178" lon="4.27249">
        <ele>466</ele>
        <time>2021-06-10T21:59:19Z</time>
      </trkpt>
      <trkpt lat="45.79159" lon="4.27266">
        <ele>464</ele>
        <time>2021-06-10T21:59:23Z</time>
      </trkpt>
      <trkpt lat="45.79127" lon="4.27334">
        <ele>457</ele>
        <time>2021-06-10T21:59:34Z</time>
      </trkpt>
      <trkpt lat="45.79109" lon="4.2735">
        <ele>457</ele>
        <time>2021-06-10T21:59:37Z</time>
      </trkpt>
      <trkpt lat="45.79039" lon="4.27375">
        <ele>459</ele>
        <time>2021-06-10T21:59:50Z</time>
      </trkpt>
      <trkpt lat="45.78994" lon="4.27388">
        <ele>459</ele>
        <time>2021-06-10T21:59:58Z</time>
      </trkpt>
      <trkpt lat="45.78935" lon="4.27437">
        <ele>456</ele>
        <time>2021-06-10T22:00:10Z</time>
      </trkpt>
      <trkpt lat="45.78896" lon="4.27463">
        <ele>451</ele>
        <time>2021-06-10T22:00:18Z</time>
      </trkpt>
      <trkpt lat="45.78844" lon="4.27486">
        <ele>447</ele>
        <time>2021-06-10T22:00:28Z</time>
      </trkpt>
      <trkpt lat="45.78761" lon="4.27507">
        <ele>439</ele>
        <time>2021-06-10T22:00:43Z</time>
      </trkpt>
      <trkpt lat="45.78695" lon="4.27518">
        <ele>429</ele>
        <time>2021-06-10T22:00:55Z</time>
      </trkpt>
      <trkpt lat="45.78678" lon="4.27509">
        <ele>428</ele>
        <time>2021-06-10T22:00:58Z</time>
      </trkpt>
      <trkpt lat="45.78662" lon="4.2749">
        <ele>427</ele>
        <time>2021-06-10T22:01:02Z</time>
      </trkpt>
      <trkpt lat="45.78656" lon="4.27471">
        <ele>426</ele>
        <time>2021-06-10T22:01:04Z</time>
      </trkpt>
      <trkpt lat="45.78641" lon="4.27381">
        <ele>428</ele>
        <time>2021-06-10T22:01:16Z</time>
      </trkpt>
      <trkpt lat="45.78632" lon="4.27357">
        <ele>428</ele>
        <time>2021-06-10T22:01:19Z</time>
      </trkpt>
      <trkpt lat="45.78621" lon="4.27337">
        <ele>428</ele>
        <time>2021-06-10T22:01:22Z</time>
      </trkpt>
      <trkpt lat="45.78595" lon="4.27313">
        <ele>426</ele>
        <time>2021-06-10T22:01:28Z</time>
      </trkpt>
      <trkpt lat="45.78528" lon="4.2726">
        <ele>421</ele>
        <time>2021-06-10T22:01:41Z</time>
      </trkpt>
      <trkpt lat="45.785" lon="4.27228">
        <ele>418</ele>
        <time>2021-06-10T22:01:48Z</time>
      </trkpt>
      <trkpt lat="45.78479" lon="4.2719">
        <ele>418</ele>
        <time>2021-06-10T22:01:54Z</time>
      </trkpt>
      <trkpt lat="45.78464" lon="4.27146">
        <ele>416</ele>
        <time>2021-06-10T22:02:00Z</time>
      </trkpt>
      <trkpt lat="45.78457" lon="4.27098">
        <ele>415</ele>
        <time>2021-06-10T22:02:06Z</time>
      </trkpt>
      <trkpt lat="45.7846" lon="4.26752">
        <ele>411</ele>
        <time>2021-06-10T22:02:49Z</time>
      </trkpt>
      <trkpt lat="45.78474" lon="4.26562">
        <ele>411</ele>
        <time>2021-06-10T22:03:12Z</time>
      </trkpt>
      <trkpt lat="45.78469" lon="4.26502">
        <ele>411</ele>
        <time>2021-06-10T22:03:20Z</time>
      </trkpt>
      <trkpt lat="45.78451" lon="4.26433">
        <ele>412</ele>
        <time>2021-06-10T22:03:29Z</time>
      </trkpt>
      <trkpt lat="45.78436" lon="4.264">
        <ele>414</ele>
        <time>2021-06-10T22:03:34Z</time>
      </trkpt>
      <trkpt lat="45.78139" lon="4.25839">
        <ele>417</ele>
        <time>2021-06-10T22:05:01Z</time>
      </trkpt>
      <trkpt lat="45.78128" lon="4.25809">
        <ele>416</ele>
        <time>2021-06-10T22:05:06Z</time>
      </trkpt>
      <trkpt lat="45.78125" lon="4.25782">
        <ele>415</ele>
        <time>2021-06-10T22:05:09Z</time>
      </trkpt>
      <trkpt lat="45.78125" lon="4.25748">
        <ele>414</ele>
        <time>2021-06-10T22:05:13Z</time>
      </trkpt>
      <trkpt lat="45.78133" lon="4.25708">
        <ele>413</ele>
        <time>2021-06-10T22:05:18Z</time>
      </trkpt>
      <trkpt lat="45.78166" lon="4.2561">
        <ele>409</ele>
        <time>2021-06-10T22:05:32Z</time>
      </trkpt>
      <trkpt lat="45.78178" lon="4.25561">
        <ele>406</ele>
        <time>2021-06-10T22:05:38Z</time>
      </trkpt>
      <trkpt lat="45.78176" lon="4.25505">
        <ele>403</ele>
        <time>2021-06-10T22:05:45Z</time>
      </trkpt>
      <trkpt lat="45.7817" lon="4.25476">
        <ele>401</ele>
        <time>2021-06-10T22:05:49Z</time>
      </trkpt>
      <trkpt lat="45.78111" lon="4.25268">
        <ele>393</ele>
        <time>2021-06-10T22:06:17Z</time>
      </trkpt>
      <trkpt lat="45.78101" lon="4.25249">
        <ele>392</ele>
        <time>2021-06-10T22:06:20Z</time>
      </trkpt>
      <trkpt lat="45.78087" lon="4.25233">
        <ele>391</ele>
        <time>2021-06-10T22:06:23Z</time>
      </trkpt>
      <trkpt lat="45.78064" lon="4.25226">
        <ele>389</ele>
        <time>2021-06-10T22:06:27Z</time>
      </trkpt>
      <trkpt lat="45.78046" lon="4.25232">
        <ele>388</ele>
        <time>2021-06-10T22:06:30Z</time>
      </trkpt>
      <trkpt lat="45.77977" lon="4.25269">
        <ele>385</ele>
        <time>2021-06-10T22:06:44Z</time>
      </trkpt>
      <trkpt lat="45.77916" lon="4.25325">
        <ele>383</ele>
        <time>2021-06-10T22:06:56Z</time>
      </trkpt>
      <trkpt lat="45.77907" lon="4.25328">
        <ele>382</ele>
        <time>2021-06-10T22:06:58Z</time>
      </trkpt>
      <trkpt lat="45.77897" lon="4.2532">
        <ele>381</ele>
        <time>2021-06-10T22:07:00Z</time>
      </trkpt>
      <trkpt lat="45.77895" lon="4.25314">
        <ele>381</ele>
        <time>2021-06-10T22:07:01Z</time>
      </trkpt>
      <trkpt lat="45.77888" lon="4.25341">
        <ele>382</ele>
        <time>2021-06-10T22:07:05Z</time>
      </trkpt>
      <trkpt lat="45.77878" lon="4.25366">
        <ele>382</ele>
        <time>2021-06-10T22:07:08Z</time>
      </trkpt>
      <trkpt lat="45.77853" lon="4.25399">
        <ele>382</ele>
        <time>2021-06-10T22:07:14Z</time>
      </trkpt>
      <trkpt lat="45.77837" lon="4.25411">
        <ele>381</ele>
        <time>2021-06-10T22:07:17Z</time>
      </trkpt>
      <trkpt lat="45.77825" lon="4.25406">
        <ele>381</ele>
        <time>2021-06-10T22:07:20Z</time>
      </trkpt>
      <trkpt lat="45.77815" lon="4.25411">
        <ele>381</ele>
        <time>2021-06-10T22:07:21Z</time>
      </trkpt>
      <trkpt lat="45.77808" lon="4.25425">
        <ele>382</ele>
        <time>2021-06-10T22:07:24Z</time>
      </trkpt>
      <trkpt lat="45.77807" lon="4.2544">
        <ele>383</ele>
        <time>2021-06-10T22:07:25Z</time>
      </trkpt>
      <trkpt lat="45.77794" lon="4.2546">
        <ele>384</ele>
        <time>2021-06-10T22:07:29Z</time>
      </trkpt>
      <trkpt lat="45.77346" lon="4.25869">
        <ele>390</ele>
        <time>2021-06-10T22:09:03Z</time>
      </trkpt>
      <trkpt lat="45.77148" lon="4.26016">
        <ele>390</ele>
        <time>2021-06-10T22:09:43Z</time>
      </trkpt>
      <trkpt lat="45.77108" lon="4.26035">
        <ele>390</ele>
        <time>2021-06-10T22:09:51Z</time>
      </trkpt>
      <trkpt lat="45.77061" lon="4.26053">
        <ele>390</ele>
        <time>2021-06-10T22:09:59Z</time>
      </trkpt>
      <trkpt lat="45.77017" lon="4.26066">
        <ele>389</ele>
        <time>2021-06-10T22:10:07Z</time>
      </trkpt>
      <trkpt lat="45.76975" lon="4.26084">
        <ele>389</ele>
        <time>2021-06-10T22:10:15Z</time>
      </trkpt>
      <trkpt lat="45.76841" lon="4.2618">
        <ele>392</ele>
        <time>2021-06-10T22:10:42Z</time>
      </trkpt>
      <trkpt lat="45.7668" lon="4.26327">
        <ele>391</ele>
        <time>2021-06-10T22:11:16Z</time>
      </trkpt>
      <trkpt lat="45.76596" lon="4.26415">
        <ele>393</ele>
        <time>2021-06-10T22:11:34Z</time>
      </trkpt>
      <trkpt lat="45.76418" lon="4.26627">
        <ele>400</ele>
        <time>2021-06-10T22:12:15Z</time>
      </trkpt>
      <trkpt lat="45.76381" lon="4.26662">
        <ele>400</ele>
        <time>2021-06-10T22:12:23Z</time>
      </trkpt>
      <trkpt lat="45.76312" lon="4.26738">
        <ele>398</ele>
        <time>2021-06-10T22:12:39Z</time>
      </trkpt>
      <trkpt lat="45.76293" lon="4.26754">
        <ele>398</ele>
        <time>2021-06-10T22:12:43Z</time>
      </trkpt>
      <trkpt lat="45.76231" lon="4.2679">
        <ele>396</ele>
        <time>2021-06-10T22:12:55Z</time>
      </trkpt>
      <trkpt lat="45.76218" lon="4.26791">
        <ele>396</ele>
        <time>2021-06-10T22:12:57Z</time>
      </trkpt>
      <trkpt lat="45.76167" lon="4.26813">
        <ele>393</ele>
        <time>2021-06-10T22:13:06Z</time>
      </trkpt>
      <trkpt lat="45.76156" lon="4.2682">
        <ele>393</ele>
        <time>2021-06-10T22:13:08Z</time>
      </trkpt>
      <trkpt lat="45.76122" lon="4.26829">
        <ele>391</ele>
        <time>2021-06-10T22:13:15Z</time>
      </trkpt>
      <trkpt lat="45.7601" lon="4.26821">
        <ele>384</ele>
        <time>2021-06-10T22:13:35Z</time>
      </trkpt>
      <trkpt lat="45.75974" lon="4.26823">
        <ele>383</ele>
        <time>2021-06-10T22:13:41Z</time>
      </trkpt>
      <trkpt lat="45.75707" lon="4.26939">
        <ele>377</ele>
        <time>2021-06-10T22:14:31Z</time>
      </trkpt>
      <trkpt lat="45.75607" lon="4.26952">
        <ele>374</ele>
        <time>2021-06-10T22:14:48Z</time>
      </trkpt>
      <trkpt lat="45.75537" lon="4.26971">
        <ele>371</ele>
        <time>2021-06-10T22:15:01Z</time>
      </trkpt>
      <trkpt lat="45.7528" lon="4.27059">
        <ele>366</ele>
        <time>2021-06-10T22:15:48Z</time>
      </trkpt>
      <trkpt lat="45.75135" lon="4.27098">
        <ele>363</ele>
        <time>2021-06-10T22:16:14Z</time>
      </trkpt>
      <trkpt lat="45.7509" lon="4.27123">
        <ele>362</ele>
        <time>2021-06-10T22:16:23Z</time>
      </trkpt>
      <trkpt lat="45.75029" lon="4.27177">
        <ele>359</ele>
        <time>2021-06-10T22:16:36Z</time>
      </trkpt>
      <trkpt lat="45.74955" lon="4.27249">
        <ele>358</ele>
        <time>2021-06-10T22:16:52Z</time>
      </trkpt>
      <trkpt lat="45.74725" lon="4.27399">
        <ele>352</ele>
        <time>2021-06-10T22:17:37Z</time>
      </trkpt>
      <trkpt lat="45.74467" lon="4.27579">
        <ele>353</ele>
        <time>2021-06-10T22:18:28Z</time>
      </trkpt>
      <trkpt lat="45.7442" lon="4.27616">
        <ele>352</ele>
        <time>2021-06-10T22:18:37Z</time>
      </trkpt>
      <trkpt lat="45.74315" lon="4.2771">
        <ele>352</ele>
        <time>2021-06-10T22:18:59Z</time>
      </trkpt>
      <trkpt lat="45.74299" lon="4.27712">
        <ele>352</ele>
        <time>2021-06-10T22:19:02Z</time>
      </trkpt>
      <trkpt lat="45.74287" lon="4.2771">
        <ele>353</ele>
        <time>2021-06-10T22:19:04Z</time>
      </trkpt>
      <trkpt lat="45.74281" lon="4.27705">
        <ele>353</ele>
        <time>2021-06-10T22:19:05Z</time>
      </trkpt>
      <trkpt lat="45.7425" lon="4.27789">
        <ele>353</ele>
        <time>2021-06-10T22:19:17Z</time>
      </trkpt>
      <trkpt lat="45.74213" lon="4.27936">
        <ele>355</ele>
        <time>2021-06-10T22:19:37Z</time>
      </trkpt>
      <trkpt lat="45.74167" lon="4.28064">
        <ele>354</ele>
        <time>2021-06-10T22:19:55Z</time>
      </trkpt>
      <trkpt lat="45.74142" lon="4.28158">
        <ele>356</ele>
        <time>2021-06-10T22:20:07Z</time>
      </trkpt>
      <trkpt lat="45.74111" lon="4.2838">
        <ele>360</ele>
        <time>2021-06-10T22:20:35Z</time>
      </trkpt>
      <trkpt lat="45.74101" lon="4.28474">
        <ele>364</ele>
        <time>2021-06-10T22:20:47Z</time>
      </trkpt>
      <trkpt lat="45.74072" lon="4.28616">
        <ele>369</ele>
        <time>2021-06-10T22:21:05Z</time>
      </trkpt>
      <trkpt lat="45.74061" lon="4.28613">
        <ele>368</ele>
        <time>2021-06-10T22:21:07Z</time>
      </trkpt>
      <trkpt lat="45.7405" lon="4.28618">
        <ele>367</ele>
        <time>2021-06-10T22:21:09Z</time>
      </trkpt>
      <trkpt lat="45.74041" lon="4.28627">
        <ele>367</ele>
        <time>2021-06-10T22:21:11Z</time>
      </trkpt>
      <trkpt lat="45.73978" lon="4.28666">
        <ele>364</ele>
        <time>2021-06-10T22:21:24Z</time>
      </trkpt>
      <trkpt lat="45.73942" lon="4.28708">
        <ele>363</ele>
        <time>2021-06-10T22:21:32Z</time>
      </trkpt>
      <trkpt lat="45.73916" lon="4.2879">
        <ele>362</ele>
        <time>2021-06-10T22:21:43Z</time>
      </trkpt>
      <trkpt lat="45.73905" lon="4.28806">
        <ele>362</ele>
        <time>2021-06-10T22:21:46Z</time>
      </trkpt>
      <trkpt lat="45.73899" lon="4.28809">
        <ele>362</ele>
        <time>2021-06-10T22:21:47Z</time>
      </trkpt>
      <trkpt lat="45.73886" lon="4.2881">
        <ele>361</ele>
        <time>2021-06-10T22:21:49Z</time>
      </trkpt>
      <trkpt lat="45.73852" lon="4.28831">
        <ele>359</ele>
        <time>2021-06-10T22:21:56Z</time>
      </trkpt>
      <trkpt lat="45.73806" lon="4.28855">
        <ele>358</ele>
        <time>2021-06-10T22:22:05Z</time>
      </trkpt>
      <trkpt lat="45.73796" lon="4.28859">
        <ele>358</ele>
        <time>2021-06-10T22:22:06Z</time>
      </trkpt>
      <trkpt lat="45.73785" lon="4.2886">
        <ele>358</ele>
        <time>2021-06-10T22:22:08Z</time>
      </trkpt>
      <trkpt lat="45.73781" lon="4.28859">
        <ele>358</ele>
        <time>2021-06-10T22:22:09Z</time>
      </trkpt>
      <trkpt lat="45.73745" lon="4.28831">
        <ele>356</ele>
        <time>2021-06-10T22:22:16Z</time>
      </trkpt>
      <trkpt lat="45.73688" lon="4.28823">
        <ele>358</ele>
        <time>2021-06-10T22:22:27Z</time>
      </trkpt>
      <trkpt lat="45.73596" lon="4.28827">
        <ele>363</ele>
        <time>2021-06-10T22:22:43Z</time>
      </trkpt>
      <trkpt lat="45.7355" lon="4.28826">
        <ele>365</ele>
        <time>2021-06-10T22:22:51Z</time>
      </trkpt>
      <trkpt lat="45.73498" lon="4.28834">
        <ele>368</ele>
        <time>2021-06-10T22:23:00Z</time>
      </trkpt>
      <trkpt lat="45.73443" lon="4.28839">
        <ele>373</ele>
        <time>2021-06-10T22:23:10Z</time>
      </trkpt>
      <trkpt lat="45.73303" lon="4.28845">
        <ele>381</ele>
        <time>2021-06-10T22:23:35Z</time>
      </trkpt>
      <trkpt lat="45.73249" lon="4.28846">
        <ele>383</ele>
        <time>2021-06-10T22:23:45Z</time>
      </trkpt>
      <trkpt lat="45.73237" lon="4.2884">
        <ele>384</ele>
        <time>2021-06-10T22:23:47Z</time>
      </trkpt>
      <trkpt lat="45.73213" lon="4.28833">
        <ele>384</ele>
        <time>2021-06-10T22:23:51Z</time>
      </trkpt>
      <trkpt lat="45.73194" lon="4.28834">
        <ele>385</ele>
        <time>2021-06-10T22:23:55Z</time>
      </trkpt>
      <trkpt lat="45.73177" lon="4.28843">
        <ele>386</ele>
        <time>2021-06-10T22:23:58Z</time>
      </trkpt>
      <trkpt lat="45.73141" lon="4.28881">
        <ele>387</ele>
        <time>2021-06-10T22:24:06Z</time>
      </trkpt>
      <trkpt lat="45.73074" lon="4.28916">
        <ele>388</ele>
        <time>2021-06-10T22:24:19Z</time>
      </trkpt>
      <trkpt lat="45.72932" lon="4.2898">
        <ele>392</ele>
        <time>2021-06-10T22:24:45Z</time>
      </trkpt>
      <trkpt lat="45.71414" lon="4.29693">
        <ele>380</ele>
        <time>2021-06-10T22:29:29Z</time>
      </trkpt>
      <trkpt lat="45.71367" lon="4.29726">
        <ele>381</ele>
        <time>2021-06-10T22:29:39Z</time>
      </trkpt>
      <trkpt lat="45.71312" lon="4.29787">
        <ele>382</ele>
        <time>2021-06-10T22:29:51Z</time>
      </trkpt>
      <trkpt lat="45.71038" lon="4.2988">
        <ele>376</ele>
        <time>2021-06-10T22:30:41Z</time>
      </trkpt>
      <trkpt lat="45.70982" lon="4.29901">
        <ele>375</ele>
        <time>2021-06-10T22:30:51Z</time>
      </trkpt>
      <trkpt lat="45.70953" lon="4.29907">
        <ele>374</ele>
        <time>2021-06-10T22:30:57Z</time>
      </trkpt>
      <trkpt lat="45.70756" lon="4.29978">
        <ele>375</ele>
        <time>2021-06-10T22:31:33Z</time>
      </trkpt>
      <trkpt lat="45.70676" lon="4.3001">
        <ele>376</ele>
        <time>2021-06-10T22:31:48Z</time>
      </trkpt>
      <trkpt lat="45.70503" lon="4.30068">
        <ele>381</ele>
        <time>2021-06-10T22:32:19Z</time>
      </trkpt>
      <trkpt lat="45.70457" lon="4.30082">
        <ele>381</ele>
        <time>2021-06-10T22:32:28Z</time>
      </trkpt>
      <trkpt lat="45.7037" lon="4.3009">
        <ele>382</ele>
        <time>2021-06-10T22:32:43Z</time>
      </trkpt>
      <trkpt lat="45.70112" lon="4.30105">
        <ele>387</ele>
        <time>2021-06-10T22:33:29Z</time>
      </trkpt>
      <trkpt lat="45.69845" lon="4.30111">
        <ele>391</ele>
        <time>2021-06-10T22:34:17Z</time>
      </trkpt>
      <trkpt lat="45.69807" lon="4.30114">
        <ele>391</ele>
        <time>2021-06-10T22:34:23Z</time>
      </trkpt>
      <trkpt lat="45.69742" lon="4.3014">
        <ele>394</ele>
        <time>2021-06-10T22:34:35Z</time>
      </trkpt>
      <trkpt lat="45.69674" lon="4.30187">
        <ele>398</ele>
        <time>2021-06-10T22:34:49Z</time>
      </trkpt>
      <trkpt lat="45.69542" lon="4.30291">
        <ele>405</ele>
        <time>2021-06-10T22:35:16Z</time>
      </trkpt>
      <trkpt lat="45.69485" lon="4.30322">
        <ele>407</ele>
        <time>2021-06-10T22:35:26Z</time>
      </trkpt>
      <trkpt lat="45.69462" lon="4.3033">
        <ele>408</ele>
        <time>2021-06-10T22:35:31Z</time>
      </trkpt>
      <trkpt lat="45.69422" lon="4.30333">
        <ele>408</ele>
        <time>2021-06-10T22:35:38Z</time>
      </trkpt>
      <trkpt lat="45.6897" lon="4.30275">
        <ele>409</ele>
        <time>2021-06-10T22:36:59Z</time>
      </trkpt>
      <trkpt lat="45.68931" lon="4.30264">
        <ele>408</ele>
        <time>2021-06-10T22:37:06Z</time>
      </trkpt>
      <trkpt lat="45.68871" lon="4.30241">
        <ele>405</ele>
        <time>2021-06-10T22:37:17Z</time>
      </trkpt>
      <trkpt lat="45.68714" lon="4.30158">
        <ele>402</ele>
        <time>2021-06-10T22:37:46Z</time>
      </trkpt>
      <trkpt lat="45.6859" lon="4.30076">
        <ele>404</ele>
        <time>2021-06-10T22:38:11Z</time>
      </trkpt>
      <trkpt lat="45.68305" lon="4.29944">
        <ele>394</ele>
        <time>2021-06-10T22:39:04Z</time>
      </trkpt>
      <trkpt lat="45.68256" lon="4.29919">
        <ele>390</ele>
        <time>2021-06-10T22:39:13Z</time>
      </trkpt>
      <trkpt lat="45.67955" lon="4.29736">
        <ele>394</ele>
        <time>2021-06-10T22:40:11Z</time>
      </trkpt>
      <trkpt lat="45.67911" lon="4.29697">
        <ele>392</ele>
        <time>2021-06-10T22:40:21Z</time>
      </trkpt>
      <trkpt lat="45.67797" lon="4.29561">
        <ele>386</ele>
        <time>2021-06-10T22:40:47Z</time>
      </trkpt>
      <trkpt lat="45.67745" lon="4.29507">
        <ele>385</ele>
        <time>2021-06-10T22:40:58Z</time>
      </trkpt>
      <trkpt lat="45.677" lon="4.29486">
        <ele>385</ele>
        <time>2021-06-10T22:41:07Z</time>
      </trkpt>
      <trkpt lat="45.67597" lon="4.29448">
        <ele>384</ele>
        <time>2021-06-10T22:41:26Z</time>
      </trkpt>
      <trkpt lat="45.67568" lon="4.29441">
        <ele>382</ele>
        <time>2021-06-10T22:41:31Z</time>
      </trkpt>
      <trkpt lat="45.67499" lon="4.29441">
        <ele>378</ele>
        <time>2021-06-10T22:41:43Z</time>
      </trkpt>
      <trkpt lat="45.67454" lon="4.29445">
        <ele>376</ele>
        <time>2021-06-10T22:41:51Z</time>
      </trkpt>
      <trkpt lat="45.67435" lon="4.29442">
        <ele>375</ele>
        <time>2021-06-10T22:41:55Z</time>
      </trkpt>
      <trkpt lat="45.67333" lon="4.29443">
        <ele>372</ele>
        <time>2021-06-10T22:42:13Z</time>
      </trkpt>
      <trkpt lat="45.67321" lon="4.29441">
        <ele>373</ele>
        <time>2021-06-10T22:42:15Z</time>
      </trkpt>
      <trkpt lat="45.67133" lon="4.29379">
        <ele>372</ele>
        <time>2021-06-10T22:42:49Z</time>
      </trkpt>
      <trkpt lat="45.67068" lon="4.29368">
        <ele>372</ele>
        <time>2021-06-10T22:43:01Z</time>
      </trkpt>
      <trkpt lat="45.6704" lon="4.29368">
        <ele>373</ele>
        <time>2021-06-10T22:43:06Z</time>
      </trkpt>
      <trkpt lat="45.66957" lon="4.29381">
        <ele>374</ele>
        <time>2021-06-10T22:43:21Z</time>
      </trkpt>
      <trkpt lat="45.66935" lon="4.29377">
        <ele>374</ele>
        <time>2021-06-10T22:43:25Z</time>
      </trkpt>
      <trkpt lat="45.66904" lon="4.29366">
        <ele>374</ele>
        <time>2021-06-10T22:43:31Z</time>
      </trkpt>
      <trkpt lat="45.66857" lon="4.29333">
        <ele>373</ele>
        <time>2021-06-10T22:43:40Z</time>
      </trkpt>
      <trkpt lat="45.6682" lon="4.29313">
        <ele>373</ele>
        <time>2021-06-10T22:43:47Z</time>
      </trkpt>
      <trkpt lat="45.66653" lon="4.29278">
        <ele>375</ele>
        <time>2021-06-10T22:44:17Z</time>
      </trkpt>
      <trkpt lat="45.66416" lon="4.29235">
        <ele>376</ele>
        <time>2021-06-10T22:44:59Z</time>
      </trkpt>
      <trkpt lat="45.65997" lon="4.29133">
        <ele>375</ele>
        <time>2021-06-10T22:46:15Z</time>
      </trkpt>
      <trkpt lat="45.65967" lon="4.2913">
        <ele>375</ele>
        <time>2021-06-10T22:46:20Z</time>
      </trkpt>
      <trkpt lat="45.65934" lon="4.29136">
        <ele>375</ele>
        <time>2021-06-10T22:46:26Z</time>
      </trkpt>
      <trkpt lat="45.65895" lon="4.29149">
        <ele>376</ele>
        <time>2021-06-10T22:46:33Z</time>
      </trkpt>
      <trkpt lat="45.65772" lon="4.29261">
        <ele>379</ele>
        <time>2021-06-10T22:46:59Z</time>
      </trkpt>
      <trkpt lat="45.65758" lon="4.29269">
        <ele>379</ele>
        <time>2021-06-10T22:47:02Z</time>
      </trkpt>
      <trkpt lat="45.65709" lon="4.29288">
        <ele>380</ele>
        <time>2021-06-10T22:47:11Z</time>
      </trkpt>
      <trkpt lat="45.65588" lon="4.2932">
        <ele>381</ele>
        <time>2021-06-10T22:47:33Z</time>
      </trkpt>
      <trkpt lat="45.6545" lon="4.29325">
        <ele>382</ele>
        <time>2021-06-10T22:47:58Z</time>
      </trkpt>
      <trkpt lat="45.65419" lon="4.29331">
        <ele>383</ele>
        <time>2021-06-10T22:48:03Z</time>
      </trkpt>
      <trkpt lat="45.65367" lon="4.29345">
        <ele>383</ele>
        <time>2021-06-10T22:48:13Z</time>
      </trkpt>
      <trkpt lat="45.65201" lon="4.29413">
        <ele>385</ele>
        <time>2021-06-10T22:48:43Z</time>
      </trkpt>
      <trkpt lat="45.65175" lon="4.29419">
        <ele>385</ele>
        <time>2021-06-10T22:48:48Z</time>
      </trkpt>
      <trkpt lat="45.6487" lon="4.29432">
        <ele>387</ele>
        <time>2021-06-10T22:49:42Z</time>
      </trkpt>
      <trkpt lat="45.64847" lon="4.29437">
        <ele>388</ele>
        <time>2021-06-10T22:49:46Z</time>
      </trkpt>
      <trkpt lat="45.64812" lon="4.2945">
        <ele>389</ele>
        <time>2021-06-10T22:49:53Z</time>
      </trkpt>
      <trkpt lat="45.64777" lon="4.29466">
        <ele>389</ele>
        <time>2021-06-10T22:49:59Z</time>
      </trkpt>
      <trkpt lat="45.64732" lon="4.29498">
        <ele>390</ele>
        <time>2021-06-10T22:50:08Z</time>
      </trkpt>
      <trkpt lat="45.64668" lon="4.29535">
        <ele>391</ele>
        <time>2021-06-10T22:50:21Z</time>
      </trkpt>
      <trkpt lat="45.64664" lon="4.29541">
        <ele>391</ele>
        <time>2021-06-10T22:50:22Z</time>
      </trkpt>
      <trkpt lat="45.64664" lon="4.29555">
        <ele>392</ele>
        <time>2021-06-10T22:50:23Z</time>
      </trkpt>
      <trkpt lat="45.64661" lon="4.29555">
        <ele>392</ele>
        <time>2021-06-10T22:50:24Z</time>
      </trkpt>
      <trkpt lat="45.64632" lon="4.29586">
        <ele>392</ele>
        <time>2021-06-10T22:50:30Z</time>
      </trkpt>
      <trkpt lat="45.64599" lon="4.29667">
        <ele>393</ele>
        <time>2021-06-10T22:50:42Z</time>
      </trkpt>
      <trkpt lat="45.6459" lon="4.29683">
        <ele>393</ele>
        <time>2021-06-10T22:50:45Z</time>
      </trkpt>
      <trkpt lat="45.64529" lon="4.2974">
        <ele>390</ele>
        <time>2021-06-10T22:50:57Z</time>
      </trkpt>
      <trkpt lat="45.6447" lon="4.29805">
        <ele>389</ele>
        <time>2021-06-10T22:51:11Z</time>
      </trkpt>
      <trkpt lat="45.64453" lon="4.29817">
        <ele>389</ele>
        <time>2021-06-10T22:51:14Z</time>
      </trkpt>
      <trkpt lat="45.64374" lon="4.29831">
        <ele>389</ele>
        <time>2021-06-10T22:51:28Z</time>
      </trkpt>
      <trkpt lat="45.64332" lon="4.29841">
        <ele>389</ele>
        <time>2021-06-10T22:51:36Z</time>
      </trkpt>
      <trkpt lat="45.64287" lon="4.29845">
        <ele>391</ele>
        <time>2021-06-10T22:51:44Z</time>
      </trkpt>
      <trkpt lat="45.64172" lon="4.29848">
        <ele>391</ele>
        <time>2021-06-10T22:52:04Z</time>
      </trkpt>
      <trkpt lat="45.64138" lon="4.29858">
        <ele>391</ele>
        <time>2021-06-10T22:52:11Z</time>
      </trkpt>
      <trkpt lat="45.63949" lon="4.29953">
        <ele>392</ele>
        <time>2021-06-10T22:52:46Z</time>
      </trkpt>
      <trkpt lat="45.63927" lon="4.2996">
        <ele>392</ele>
        <time>2021-06-10T22:52:50Z</time>
      </trkpt>
      <trkpt lat="45.639" lon="4.29964">
        <ele>392</ele>
        <time>2021-06-10T22:52:55Z</time>
      </trkpt>
      <trkpt lat="45.6384" lon="4.29968">
        <ele>393</ele>
        <time>2021-06-10T22:53:06Z</time>
      </trkpt>
      <trkpt lat="45.63825" lon="4.29973">
        <ele>394</ele>
        <time>2021-06-10T22:53:08Z</time>
      </trkpt>
      <trkpt lat="45.63802" lon="4.29985">
        <ele>394</ele>
        <time>2021-06-10T22:53:13Z</time>
      </trkpt>
      <trkpt lat="45.63623" lon="4.30112">
        <ele>398</ele>
        <time>2021-06-10T22:53:48Z</time>
      </trkpt>
      <trkpt lat="45.636" lon="4.30123">
        <ele>398</ele>
        <time>2021-06-10T22:53:53Z</time>
      </trkpt>
      <trkpt lat="45.63202" lon="4.30193">
        <ele>395</ele>
        <time>2021-06-10T22:55:04Z</time>
      </trkpt>
      <trkpt lat="45.63147" lon="4.30204">
        <ele>395</ele>
        <time>2021-06-10T22:55:14Z</time>
      </trkpt>
      <trkpt lat="45.63095" lon="4.30222">
        <ele>396</ele>
        <time>2021-06-10T22:55:23Z</time>
      </trkpt>
      <trkpt lat="45.63038" lon="4.3026">
        <ele>397</ele>
        <time>2021-06-10T22:55:35Z</time>
      </trkpt>
      <trkpt lat="45.62718" lon="4.30503">
        <ele>400</ele>
        <time>2021-06-10T22:56:39Z</time>
      </trkpt>
      <trkpt lat="45.62522" lon="4.30642">
        <ele>399</ele>
        <time>2021-06-10T22:57:18Z</time>
      </trkpt>
      <trkpt lat="45.62445" lon="4.30682">
        <ele>400</ele>
        <time>2021-06-10T22:57:33Z</time>
      </trkpt>
      <trkpt lat="45.62358" lon="4.30732">
        <ele>402</ele>
        <time>2021-06-10T22:57:49Z</time>
      </trkpt>
      <trkpt lat="45.62325" lon="4.30747">
        <ele>402</ele>
        <time>2021-06-10T22:57:55Z</time>
      </trkpt>
      <trkpt lat="45.62299" lon="4.30754">
        <ele>402</ele>
        <time>2021-06-10T22:58:00Z</time>
      </trkpt>
      <trkpt lat="45.61886" lon="4.30744">
        <ele>396</ele>
        <time>2021-06-10T22:59:14Z</time>
      </trkpt>
      <trkpt lat="45.61839" lon="4.30752">
        <ele>396</ele>
        <time>2021-06-10T22:59:22Z</time>
      </trkpt>
      <trkpt lat="45.61762" lon="4.30794">
        <ele>396</ele>
        <time>2021-06-10T22:59:37Z</time>
      </trkpt>
      <trkpt lat="45.61522" lon="4.30953">
        <ele>400</ele>
        <time>2021-06-10T23:00:24Z</time>
      </trkpt>
      <trkpt lat="45.61471" lon="4.30981">
        <ele>401</ele>
        <time>2021-06-10T23:00:33Z</time>
      </trkpt>
      <trkpt lat="45.61315" lon="4.31043">
        <ele>400</ele>
        <time>2021-06-10T23:01:02Z</time>
      </trkpt>
      <trkpt lat="45.61127" lon="4.31128">
        <ele>402</ele>
        <time>2021-06-10T23:01:37Z</time>
      </trkpt>
      <trkpt lat="45.61075" lon="4.31147">
        <ele>402</ele>
        <time>2021-06-10T23:01:47Z</time>
      </trkpt>
      <trkpt lat="45.60808" lon="4.3126">
        <ele>408</ele>
        <time>2021-06-10T23:02:36Z</time>
      </trkpt>
      <trkpt lat="45.60498" lon="4.31325">
        <ele>411</ele>
        <time>2021-06-10T23:03:32Z</time>
      </trkpt>
      <trkpt lat="45.60324" lon="4.31378">
        <ele>416</ele>
        <time>2021-06-10T23:04:04Z</time>
      </trkpt>
      <trkpt lat="45.60314" lon="4.31384">
        <ele>417</ele>
        <time>2021-06-10T23:04:06Z</time>
      </trkpt>
      <trkpt lat="45.60308" lon="4.31391">
        <ele>417</ele>
        <time>2021-06-10T23:04:07Z</time>
      </trkpt>
      <trkpt lat="45.60303" lon="4.31384">
        <ele>417</ele>
        <time>2021-06-10T23:04:08Z</time>
      </trkpt>
      <trkpt lat="45.60297" lon="4.31384">
        <ele>417</ele>
        <time>2021-06-10T23:04:09Z</time>
      </trkpt>
      <trkpt lat="45.6029" lon="4.31391">
        <ele>418</ele>
        <time>2021-06-10T23:04:11Z</time>
      </trkpt>
      <trkpt lat="45.60285" lon="4.31385">
        <ele>418</ele>
        <time>2021-06-10T23:04:12Z</time>
      </trkpt>
      <trkpt lat="45.60253" lon="4.3138">
        <ele>418</ele>
        <time>2021-06-10T23:04:18Z</time>
      </trkpt>
      <trkpt lat="45.60166" lon="4.31382">
        <ele>421</ele>
        <time>2021-06-10T23:04:33Z</time>
      </trkpt>
      <trkpt lat="45.60094" lon="4.31374">
        <ele>419</ele>
        <time>2021-06-10T23:04:46Z</time>
      </trkpt>
      <trkpt lat="45.60004" lon="4.31371">
        <ele>418</ele>
        <time>2021-06-10T23:05:02Z</time>
      </trkpt>
      <trkpt lat="45.59936" lon="4.31384">
        <ele>417</ele>
        <time>2021-06-10T23:05:14Z</time>
      </trkpt>
      <trkpt lat="45.59483" lon="4.31569">
        <ele>426</ele>
        <time>2021-06-10T23:06:38Z</time>
      </trkpt>
      <trkpt lat="45.59471" lon="4.31565">
        <ele>425</ele>
        <time>2021-06-10T23:06:40Z</time>
      </trkpt>
      <trkpt lat="45.59469" lon="4.31559">
        <ele>424</ele>
        <time>2021-06-10T23:06:41Z</time>
      </trkpt>
      <trkpt lat="45.59474" lon="4.31548">
        <ele>422</ele>
        <time>2021-06-10T23:06:43Z</time>
      </trkpt>
      <trkpt lat="45.59557" lon="4.31508">
        <ele>418</ele>
        <time>2021-06-10T23:06:59Z</time>
      </trkpt>
      <trkpt lat="45.59593" lon="4.31481">
        <ele>415</ele>
        <time>2021-06-10T23:07:06Z</time>
      </trkpt>
      <trkpt lat="45.59604" lon="4.31467">
        <ele>414</ele>
        <time>2021-06-10T23:07:08Z</time>
      </trkpt>
      <trkpt lat="45.59606" lon="4.31446">
        <ele>412</ele>
        <time>2021-06-10T23:07:11Z</time>
      </trkpt>
      <trkpt lat="45.59599" lon="4.31425">
        <ele>410</ele>
        <time>2021-06-10T23:07:14Z</time>
      </trkpt>
      <trkpt lat="45.59593" lon="4.31416">
        <ele>409</ele>
        <time>2021-06-10T23:07:15Z</time>
      </trkpt>
      <trkpt lat="45.59582" lon="4.31409">
        <ele>408</ele>
        <time>2021-06-10T23:07:18Z</time>
      </trkpt>
      <trkpt lat="45.59574" lon="4.31409">
        <ele>408</ele>
        <time>2021-06-10T23:07:19Z</time>
      </trkpt>
      <trkpt lat="45.59418" lon="4.31422">
        <ele>406</ele>
        <time>2021-06-10T23:07:47Z</time>
      </trkpt>
      <trkpt lat="45.59318" lon="4.31435">
        <ele>400</ele>
        <time>2021-06-10T23:08:05Z</time>
      </trkpt>
      <trkpt lat="45.59196" lon="4.31445">
        <ele>395</ele>
        <time>2021-06-10T23:08:26Z</time>
      </trkpt>
      <trkpt lat="45.59051" lon="4.31451">
        <ele>388</ele>
        <time>2021-06-10T23:08:52Z</time>
      </trkpt>
      <trkpt lat="45.59001" lon="4.3144">
        <ele>383</ele>
        <time>2021-06-10T23:09:01Z</time>
      </trkpt>
      <trkpt lat="45.58967" lon="4.31424">
        <ele>379</ele>
        <time>2021-06-10T23:09:08Z</time>
      </trkpt>
      <trkpt lat="45.58962" lon="4.31414">
        <ele>378</ele>
        <time>2021-06-10T23:09:09Z</time>
      </trkpt>
      <trkpt lat="45.58954" lon="4.3141">
        <ele>377</ele>
        <time>2021-06-10T23:09:11Z</time>
      </trkpt>
      <trkpt lat="45.58945" lon="4.31414">
        <ele>377</ele>
        <time>2021-06-10T23:09:12Z</time>
      </trkpt>
      <trkpt lat="45.58922" lon="4.31416">
        <ele>375</ele>
        <time>2021-06-10T23:09:16Z</time>
      </trkpt>
      <trkpt lat="45.58756" lon="4.31365">
        <ele>375</ele>
        <time>2021-06-10T23:09:47Z</time>
      </trkpt>
      <trkpt lat="45.58746" lon="4.31355">
        <ele>375</ele>
        <time>2021-06-10T23:09:49Z</time>
      </trkpt>
      <trkpt lat="45.58646" lon="4.31163">
        <ele>377</ele>
        <time>2021-06-10T23:10:19Z</time>
      </trkpt>
      <trkpt lat="45.58637" lon="4.31141">
        <ele>377</ele>
        <time>2021-06-10T23:10:22Z</time>
      </trkpt>
      <trkpt lat="45.58625" lon="4.31125">
        <ele>377</ele>
        <time>2021-06-10T23:10:25Z</time>
      </trkpt>
      <trkpt lat="45.58623" lon="4.31114">
        <ele>377</ele>
        <time>2021-06-10T23:10:26Z</time>
      </trkpt>
      <trkpt lat="45.58618" lon="4.31109">
        <ele>377</ele>
        <time>2021-06-10T23:10:27Z</time>
      </trkpt>
      <trkpt lat="45.58613" lon="4.3111">
        <ele>377</ele>
        <time>2021-06-10T23:10:28Z</time>
      </trkpt>
      <trkpt lat="45.58591" lon="4.31096">
        <ele>378</ele>
        <time>2021-06-10T23:10:32Z</time>
      </trkpt>
      <trkpt lat="45.58578" lon="4.31094">
        <ele>378</ele>
        <time>2021-06-10T23:10:35Z</time>
      </trkpt>
      <trkpt lat="45.58522" lon="4.31062">
        <ele>380</ele>
        <time>2021-06-10T23:10:45Z</time>
      </trkpt>
      <trkpt lat="45.58481" lon="4.31025">
        <ele>381</ele>
        <time>2021-06-10T23:10:54Z</time>
      </trkpt>
      <trkpt lat="45.58448" lon="4.30987">
        <ele>383</ele>
        <time>2021-06-10T23:11:02Z</time>
      </trkpt>
      <trkpt lat="45.58407" lon="4.3092">
        <ele>384</ele>
        <time>2021-06-10T23:11:13Z</time>
      </trkpt>
      <trkpt lat="45.58399" lon="4.30897">
        <ele>384</ele>
        <time>2021-06-10T23:11:16Z</time>
      </trkpt>
      <trkpt lat="45.5838" lon="4.30924">
        <ele>384</ele>
        <time>2021-06-10T23:11:21Z</time>
      </trkpt>
      <trkpt lat="45.58376" lon="4.30947">
        <ele>384</ele>
        <time>2021-06-10T23:11:24Z</time>
      </trkpt>
      <trkpt lat="45.58372" lon="4.31022">
        <ele>383</ele>
        <time>2021-06-10T23:11:33Z</time>
      </trkpt>
      <trkpt lat="45.58357" lon="4.31134">
        <ele>382</ele>
        <time>2021-06-10T23:11:47Z</time>
      </trkpt>
      <trkpt lat="45.58339" lon="4.31188">
        <ele>384</ele>
        <time>2021-06-10T23:11:55Z</time>
      </trkpt>
      <trkpt lat="45.58277" lon="4.31353">
        <ele>386</ele>
        <time>2021-06-10T23:12:18Z</time>
      </trkpt>
      <trkpt lat="45.58269" lon="4.31384">
        <ele>386</ele>
        <time>2021-06-10T23:12:22Z</time>
      </trkpt>
      <trkpt lat="45.58264" lon="4.31386">
        <ele>386</ele>
        <time>2021-06-10T23:12:23Z</time>
      </trkpt>
      <trkpt lat="45.58261" lon="4.31391">
        <ele>386</ele>
        <time>2021-06-10T23:12:24Z</time>
      </trkpt>
      <trkpt lat="45.58223" lon="4.31504">
        <ele>388</ele>
        <time>2021-06-10T23:12:39Z</time>
      </trkpt>
      <trkpt lat="45.58168" lon="4.31607">
        <ele>393</ele>
        <time>2021-06-10T23:12:56Z</time>
      </trkpt>
      <trkpt lat="45.58095" lon="4.31715">
        <ele>396</ele>
        <time>2021-06-10T23:13:14Z</time>
      </trkpt>
      <trkpt lat="45.58066" lon="4.31762">
        <ele>398</ele>
        <time>2021-06-10T23:13:22Z</time>
      </trkpt>
      <trkpt lat="45.58045" lon="4.31785">
        <ele>399</ele>
        <time>2021-06-10T23:13:27Z</time>
      </trkpt>
      <trkpt lat="45.58021" lon="4.31794">
        <ele>400</ele>
        <time>2021-06-10T23:13:31Z</time>
      </trkpt>
      <trkpt lat="45.58004" lon="4.31797">
        <ele>401</ele>
        <time>2021-06-10T23:13:34Z</time>
      </trkpt>
      <trkpt lat="45.5798" lon="4.31793">
        <ele>402</ele>
        <time>2021-06-10T23:13:39Z</time>
      </trkpt>
      <trkpt lat="45.57957" lon="4.31783">
        <ele>402</ele>
        <time>2021-06-10T23:13:43Z</time>
      </trkpt>
      <trkpt lat="45.57935" lon="4.31769">
        <ele>402</ele>
        <time>2021-06-10T23:13:47Z</time>
      </trkpt>
      <trkpt lat="45.57879" lon="4.31722">
        <ele>402</ele>
        <time>2021-06-10T23:13:59Z</time>
      </trkpt>
      <trkpt lat="45.57802" lon="4.31665">
        <ele>401</ele>
        <time>2021-06-10T23:14:14Z</time>
      </trkpt>
      <trkpt lat="45.57753" lon="4.31645">
        <ele>402</ele>
        <time>2021-06-10T23:14:23Z</time>
      </trkpt>
      <trkpt lat="45.57738" lon="4.31643">
        <ele>402</ele>
        <time>2021-06-10T23:14:26Z</time>
      </trkpt>
      <trkpt lat="45.57687" lon="4.31656">
        <ele>403</ele>
        <time>2021-06-10T23:14:35Z</time>
      </trkpt>
      <trkpt lat="45.576" lon="4.31673">
        <ele>402</ele>
        <time>2021-06-10T23:14:51Z</time>
      </trkpt>
      <trkpt lat="45.57549" lon="4.3168">
        <ele>403</ele>
        <time>2021-06-10T23:15:00Z</time>
      </trkpt>
      <trkpt lat="45.57504" lon="4.31663">
        <ele>404</ele>
        <time>2021-06-10T23:15:08Z</time>
      </trkpt>
      <trkpt lat="45.57363" lon="4.31552">
        <ele>401</ele>
        <time>2021-06-10T23:15:37Z</time>
      </trkpt>
      <trkpt lat="45.57315" lon="4.3154">
        <ele>400</ele>
        <time>2021-06-10T23:15:45Z</time>
      </trkpt>
      <trkpt lat="45.57265" lon="4.31548">
        <ele>401</ele>
        <time>2021-06-10T23:15:54Z</time>
      </trkpt>
      <trkpt lat="45.57207" lon="4.3157">
        <ele>402</ele>
        <time>2021-06-10T23:16:05Z</time>
      </trkpt>
      <trkpt lat="45.57138" lon="4.31591">
        <ele>402</ele>
        <time>2021-06-10T23:16:18Z</time>
      </trkpt>
      <trkpt lat="45.571" lon="4.316">
        <ele>401</ele>
        <time>2021-06-10T23:16:24Z</time>
      </trkpt>
      <trkpt lat="45.57007" lon="4.31608">
        <ele>400</ele>
        <time>2021-06-10T23:16:41Z</time>
      </trkpt>
      <trkpt lat="45.56913" lon="4.31602">
        <ele>400</ele>
        <time>2021-06-10T23:16:58Z</time>
      </trkpt>
      <trkpt lat="45.56807" lon="4.31613">
        <ele>398</ele>
        <time>2021-06-10T23:17:17Z</time>
      </trkpt>
      <trkpt lat="45.56703" lon="4.31659">
        <ele>399</ele>
        <time>2021-06-10T23:17:36Z</time>
      </trkpt>
      <trkpt lat="45.56648" lon="4.31678">
        <ele>399</ele>
        <time>2021-06-10T23:17:46Z</time>
      </trkpt>
      <trkpt lat="45.56594" lon="4.31696">
        <ele>399</ele>
        <time>2021-06-10T23:17:56Z</time>
      </trkpt>
      <trkpt lat="45.56464" lon="4.31728">
        <ele>400</ele>
        <time>2021-06-10T23:18:19Z</time>
      </trkpt>
      <trkpt lat="45.56306" lon="4.31762">
        <ele>399</ele>
        <time>2021-06-10T23:18:48Z</time>
      </trkpt>
      <trkpt lat="45.56266" lon="4.31766">
        <ele>400</ele>
        <time>2021-06-10T23:18:55Z</time>
      </trkpt>
      <trkpt lat="45.56246" lon="4.31749">
        <ele>400</ele>
        <time>2021-06-10T23:18:59Z</time>
      </trkpt>
      <trkpt lat="45.562" lon="4.31815">
        <ele>400</ele>
        <time>2021-06-10T23:19:11Z</time>
      </trkpt>
      <trkpt lat="45.56085" lon="4.31963">
        <ele>402</ele>
        <time>2021-06-10T23:19:38Z</time>
      </trkpt>
      <trkpt lat="45.56025" lon="4.32017">
        <ele>403</ele>
        <time>2021-06-10T23:19:51Z</time>
      </trkpt>
      <trkpt lat="45.56004" lon="4.32028">
        <ele>402</ele>
        <time>2021-06-10T23:19:55Z</time>
      </trkpt>
      <trkpt lat="45.5598" lon="4.32031">
        <ele>404</ele>
        <time>2021-06-10T23:19:59Z</time>
      </trkpt>
      <trkpt lat="45.55864" lon="4.31997">
        <ele>411</ele>
        <time>2021-06-10T23:20:20Z</time>
      </trkpt>
      <trkpt lat="45.55832" lon="4.32013">
        <ele>415</ele>
        <time>2021-06-10T23:20:26Z</time>
      </trkpt>
      <trkpt lat="45.55823" lon="4.32023">
        <ele>416</ele>
        <time>2021-06-10T23:20:28Z</time>
      </trkpt>
      <trkpt lat="45.55811" lon="4.32045">
        <ele>418</ele>
        <time>2021-06-10T23:20:32Z</time>
      </trkpt>
      <trkpt lat="45.55809" lon="4.32103">
        <ele>422</ele>
        <time>2021-06-10T23:20:39Z</time>
      </trkpt>
      <trkpt lat="45.55782" lon="4.32275">
        <ele>420</ele>
        <time>2021-06-10T23:21:01Z</time>
      </trkpt>
      <trkpt lat="45.55772" lon="4.32313">
        <ele>420</ele>
        <time>2021-06-10T23:21:06Z</time>
      </trkpt>
      <trkpt lat="45.55762" lon="4.32334">
        <ele>420</ele>
        <time>2021-06-10T23:21:09Z</time>
      </trkpt>
      <trkpt lat="45.55719" lon="4.32377">
        <ele>421</ele>
        <time>2021-06-10T23:21:19Z</time>
      </trkpt>
      <trkpt lat="45.55661" lon="4.3243">
        <ele>423</ele>
        <time>2021-06-10T23:21:31Z</time>
      </trkpt>
      <trkpt lat="45.55599" lon="4.32503">
        <ele>425</ele>
        <time>2021-06-10T23:21:45Z</time>
      </trkpt>
      <trkpt lat="45.55544" lon="4.32573">
        <ele>429</ele>
        <time>2021-06-10T23:21:58Z</time>
      </trkpt>
      <trkpt lat="45.55469" lon="4.32613">
        <ele>433</ele>
        <time>2021-06-10T23:22:12Z</time>
      </trkpt>
      <trkpt lat="45.55425" lon="4.32684">
        <ele>435</ele>
        <time>2021-06-10T23:22:24Z</time>
      </trkpt>
      <trkpt lat="45.55352" lon="4.32725">
        <ele>439</ele>
        <time>2021-06-10T23:22:38Z</time>
      </trkpt>
      <trkpt lat="45.55271" lon="4.32734">
        <ele>442</ele>
        <time>2021-06-10T23:22:53Z</time>
      </trkpt>
      <trkpt lat="45.55176" lon="4.32725">
        <ele>445</ele>
        <time>2021-06-10T23:23:10Z</time>
      </trkpt>
      <trkpt lat="45.54949" lon="4.32743">
        <ele>454</ele>
        <time>2021-06-10T23:23:50Z</time>
      </trkpt>
      <trkpt lat="45.54869" lon="4.32752">
        <ele>459</ele>
        <time>2021-06-10T23:24:04Z</time>
      </trkpt>
      <trkpt lat="45.54854" lon="4.32757">
        <ele>460</ele>
        <time>2021-06-10T23:24:07Z</time>
      </trkpt>
      <trkpt lat="45.54763" lon="4.32831">
        <ele>467</ele>
        <time>2021-06-10T23:24:26Z</time>
      </trkpt>
      <trkpt lat="45.54739" lon="4.32846">
        <ele>468</ele>
        <time>2021-06-10T23:24:30Z</time>
      </trkpt>
      <trkpt lat="45.54713" lon="4.32854">
        <ele>469</ele>
        <time>2021-06-10T23:24:35Z</time>
      </trkpt>
      <trkpt lat="45.54659" lon="4.32861">
        <ele>472</ele>
        <time>2021-06-10T23:24:45Z</time>
      </trkpt>
      <trkpt lat="45.54617" lon="4.32879">
        <ele>477</ele>
        <time>2021-06-10T23:24:53Z</time>
      </trkpt>
      <trkpt lat="45.5448" lon="4.32949">
        <ele>485</ele>
        <time>2021-06-10T23:25:18Z</time>
      </trkpt>
      <trkpt lat="45.54396" lon="4.32949">
        <ele>490</ele>
        <time>2021-06-10T23:25:33Z</time>
      </trkpt>
      <trkpt lat="45.54382" lon="4.32973">
        <ele>493</ele>
        <time>2021-06-10T23:25:37Z</time>
      </trkpt>
      <trkpt lat="45.54369" lon="4.33094">
        <ele>496</ele>
        <time>2021-06-10T23:25:53Z</time>
      </trkpt>
      <trkpt lat="45.54353" lon="4.33123">
        <ele>497</ele>
        <time>2021-06-10T23:25:57Z</time>
      </trkpt>
      <trkpt lat="45.54239" lon="4.33258">
        <ele>502</ele>
        <time>2021-06-10T23:26:23Z</time>
      </trkpt>
      <trkpt lat="45.54228" lon="4.33277">
        <ele>503</ele>
        <time>2021-06-10T23:26:27Z</time>
      </trkpt>
      <trkpt lat="45.5421" lon="4.33363">
        <ele>507</ele>
        <time>2021-06-10T23:26:38Z</time>
      </trkpt>
      <trkpt lat="45.54177" lon="4.33464">
        <ele>512</ele>
        <time>2021-06-10T23:26:52Z</time>
      </trkpt>
      <trkpt lat="45.54156" lon="4.33514">
        <ele>515</ele>
        <time>2021-06-10T23:26:59Z</time>
      </trkpt>
      <trkpt lat="45.5413" lon="4.33547">
        <ele>517</ele>
        <time>2021-06-10T23:27:05Z</time>
      </trkpt>
      <trkpt lat="45.5409" lon="4.33577">
        <ele>520</ele>
        <time>2021-06-10T23:27:13Z</time>
      </trkpt>
      <trkpt lat="45.54032" lon="4.33615">
        <ele>520</ele>
        <time>2021-06-10T23:27:24Z</time>
      </trkpt>
      <trkpt lat="45.54012" lon="4.33636">
        <ele>520</ele>
        <time>2021-06-10T23:27:29Z</time>
      </trkpt>
      <trkpt lat="45.54" lon="4.3367">
        <ele>522</ele>
        <time>2021-06-10T23:27:34Z</time>
      </trkpt>
      <trkpt lat="45.54" lon="4.337">
        <ele>524</ele>
        <time>2021-06-10T23:27:37Z</time>
      </trkpt>
      <trkpt lat="45.54031" lon="4.33791">
        <ele>527</ele>
        <time>2021-06-10T23:27:50Z</time>
      </trkpt>
      <trkpt lat="45.54036" lon="4.33824">
        <ele>527</ele>
        <time>2021-06-10T23:27:54Z</time>
      </trkpt>
      <trkpt lat="45.54035" lon="4.33856">
        <ele>526</ele>
        <time>2021-06-10T23:27:58Z</time>
      </trkpt>
      <trkpt lat="45.54018" lon="4.33968">
        <ele>526</ele>
        <time>2021-06-10T23:28:12Z</time>
      </trkpt>
      <trkpt lat="45.54028" lon="4.34027">
        <ele>526</ele>
        <time>2021-06-10T23:28:20Z</time>
      </trkpt>
      <trkpt lat="45.54041" lon="4.34068">
        <ele>528</ele>
        <time>2021-06-10T23:28:26Z</time>
      </trkpt>
      <trkpt lat="45.54053" lon="4.34092">
        <ele>529</ele>
        <time>2021-06-10T23:28:29Z</time>
      </trkpt>
      <trkpt lat="45.54083" lon="4.34117">
        <ele>531</ele>
        <time>2021-06-10T23:28:35Z</time>
      </trkpt>
      <trkpt lat="45.54108" lon="4.34129">
        <ele>531</ele>
        <time>2021-06-10T23:28:40Z</time>
      </trkpt>
      <trkpt lat="45.54181" lon="4.34146">
        <ele>529</ele>
        <time>2021-06-10T23:28:53Z</time>
      </trkpt>
      <trkpt lat="45.5421" lon="4.34157">
        <ele>529</ele>
        <time>2021-06-10T23:28:59Z</time>
      </trkpt>
      <trkpt lat="45.54229" lon="4.34176">
        <ele>530</ele>
        <time>2021-06-10T23:29:03Z</time>
      </trkpt>
      <trkpt lat="45.54236" lon="4.34201">
        <ele>531</ele>
        <time>2021-06-10T23:29:06Z</time>
      </trkpt>
      <trkpt lat="45.54233" lon="4.34229">
        <ele>533</ele>
        <time>2021-06-10T23:29:10Z</time>
      </trkpt>
      <trkpt lat="45.54216" lon="4.34268">
        <ele>534</ele>
        <time>2021-06-10T23:29:15Z</time>
      </trkpt>
      <trkpt lat="45.54154" lon="4.3438">
        <ele>540</ele>
        <time>2021-06-10T23:29:33Z</time>
      </trkpt>
      <trkpt lat="45.54143" lon="4.34415">
        <ele>540</ele>
        <time>2021-06-10T23:29:38Z</time>
      </trkpt>
      <trkpt lat="45.54142" lon="4.34445">
        <ele>540</ele>
        <time>2021-06-10T23:29:42Z</time>
      </trkpt>
      <trkpt lat="45.54206" lon="4.34742">
        <ele>543</ele>
        <time>2021-06-10T23:30:20Z</time>
      </trkpt>
      <trkpt lat="45.54204" lon="4.34889">
        <ele>548</ele>
        <time>2021-06-10T23:30:39Z</time>
      </trkpt>
      <trkpt lat="45.54211" lon="4.34926">
        <ele>548</ele>
        <time>2021-06-10T23:30:44Z</time>
      </trkpt>
      <trkpt lat="45.54293" lon="4.35138">
        <ele>551</ele>
        <time>2021-06-10T23:31:14Z</time>
      </trkpt>
      <trkpt lat="45.543" lon="4.35179">
        <ele>552</ele>
        <time>2021-06-10T23:31:19Z</time>
      </trkpt>
      <trkpt lat="45.54299" lon="4.35209">
        <ele>551</ele>
        <time>2021-06-10T23:31:23Z</time>
      </trkpt>
      <trkpt lat="45.54294" lon="4.35243">
        <ele>551</ele>
        <time>2021-06-10T23:31:27Z</time>
      </trkpt>
      <trkpt lat="45.54282" lon="4.35264">
        <ele>550</ele>
        <time>2021-06-10T23:31:30Z</time>
      </trkpt>
      <trkpt lat="45.542" lon="4.35332">
        <ele>551</ele>
        <time>2021-06-10T23:31:47Z</time>
      </trkpt>
      <trkpt lat="45.54163" lon="4.35356">
        <ele>552</ele>
        <time>2021-06-10T23:31:55Z</time>
      </trkpt>
      <trkpt lat="45.54134" lon="4.35367">
        <ele>553</ele>
        <time>2021-06-10T23:32:00Z</time>
      </trkpt>
      <trkpt lat="45.54106" lon="4.3539">
        <ele>553</ele>
        <time>2021-06-10T23:32:06Z</time>
      </trkpt>
      <trkpt lat="45.54058" lon="4.35446">
        <ele>557</ele>
        <time>2021-06-10T23:32:17Z</time>
      </trkpt>
      <trkpt lat="45.54013" lon="4.35556">
        <ele>563</ele>
        <time>2021-06-10T23:32:33Z</time>
      </trkpt>
      <trkpt lat="45.53964" lon="4.35706">
        <ele>570</ele>
        <time>2021-06-10T23:32:53Z</time>
      </trkpt>
      <trkpt lat="45.53918" lon="4.3579">
        <ele>574</ele>
        <time>2021-06-10T23:33:06Z</time>
      </trkpt>
      <trkpt lat="45.53846" lon="4.35865">
        <ele>579</ele>
        <time>2021-06-10T23:33:22Z</time>
      </trkpt>
      <trkpt lat="45.53806" lon="4.35939">
        <ele>582</ele>
        <time>2021-06-10T23:33:34Z</time>
      </trkpt>
      <trkpt lat="45.53675" lon="4.36133">
        <ele>592</ele>
        <time>2021-06-10T23:34:08Z</time>
      </trkpt>
      <trkpt lat="45.53508" lon="4.3639">
        <ele>602</ele>
        <time>2021-06-10T23:34:51Z</time>
      </trkpt>
      <trkpt lat="45.53468" lon="4.36467">
        <ele>596</ele>
        <time>2021-06-10T23:35:03Z</time>
      </trkpt>
      <trkpt lat="45.5349" lon="4.36521">
        <ele>595</ele>
        <time>2021-06-10T23:35:11Z</time>
      </trkpt>
      <trkpt lat="45.53496" lon="4.36543">
        <ele>595</ele>
        <time>2021-06-10T23:35:14Z</time>
      </trkpt>
      <trkpt lat="45.53502" lon="4.3686">
        <ele>597</ele>
        <time>2021-06-10T23:35:53Z</time>
      </trkpt>
      <trkpt lat="45.53507" lon="4.36887">
        <ele>599</ele>
        <time>2021-06-10T23:35:57Z</time>
      </trkpt>
      <trkpt lat="45.53557" lon="4.36889">
        <ele>602</ele>
        <time>2021-06-10T23:36:06Z</time>
      </trkpt>
      <trkpt lat="45.5358" lon="4.36897">
        <ele>604</ele>
        <time>2021-06-10T23:36:10Z</time>
      </trkpt>
      <trkpt lat="45.53599" lon="4.3692">
        <ele>607</ele>
        <time>2021-06-10T23:36:14Z</time>
      </trkpt>
      <trkpt lat="45.53607" lon="4.36943">
        <ele>608</ele>
        <time>2021-06-10T23:36:18Z</time>
      </trkpt>
      <trkpt lat="45.53609" lon="4.36965">
        <ele>609</ele>
        <time>2021-06-10T23:36:20Z</time>
      </trkpt>
      <trkpt lat="45.53605" lon="4.36978">
        <ele>609</ele>
        <time>2021-06-10T23:36:22Z</time>
      </trkpt>
      <trkpt lat="45.53598" lon="4.36989">
        <ele>609</ele>
        <time>2021-06-10T23:36:24Z</time>
      </trkpt>
      <trkpt lat="45.53583" lon="4.36988">
        <ele>607</ele>
        <time>2021-06-10T23:36:27Z</time>
      </trkpt>
      <trkpt lat="45.53573" lon="4.36976">
        <ele>606</ele>
        <time>2021-06-10T23:36:29Z</time>
      </trkpt>
      <trkpt lat="45.53556" lon="4.36968">
        <ele>605</ele>
        <time>2021-06-10T23:36:32Z</time>
      </trkpt>
      <trkpt lat="45.53543" lon="4.36977">
        <ele>605</ele>
        <time>2021-06-10T23:36:35Z</time>
      </trkpt>
      <trkpt lat="45.53536" lon="4.36992">
        <ele>605</ele>
        <time>2021-06-10T23:36:37Z</time>
      </trkpt>
      <trkpt lat="45.53536" lon="4.37013">
        <ele>606</ele>
        <time>2021-06-10T23:36:40Z</time>
      </trkpt>
      <trkpt lat="45.53541" lon="4.37028">
        <ele>606</ele>
        <time>2021-06-10T23:36:42Z</time>
      </trkpt>
      <trkpt lat="45.53619" lon="4.3713">
        <ele>616</ele>
        <time>2021-06-10T23:37:01Z</time>
      </trkpt>
      <trkpt lat="45.53642" lon="4.37156">
        <ele>618</ele>
        <time>2021-06-10T23:37:06Z</time>
      </trkpt>
      <trkpt lat="45.53693" lon="4.37198">
        <ele>623</ele>
        <time>2021-06-10T23:37:16Z</time>
      </trkpt>
      <trkpt lat="45.53709" lon="4.37216">
        <ele>623</ele>
        <time>2021-06-10T23:37:20Z</time>
      </trkpt>
      <trkpt lat="45.53723" lon="4.37238">
        <ele>624</ele>
        <time>2021-06-10T23:37:24Z</time>
      </trkpt>
      <trkpt lat="45.53725" lon="4.37252">
        <ele>624</ele>
        <time>2021-06-10T23:37:25Z</time>
      </trkpt>
      <trkpt lat="45.53721" lon="4.37269">
        <ele>626</ele>
        <time>2021-06-10T23:37:28Z</time>
      </trkpt>
      <trkpt lat="45.53714" lon="4.37274">
        <ele>627</ele>
        <time>2021-06-10T23:37:29Z</time>
      </trkpt>
      <trkpt lat="45.53707" lon="4.37274">
        <ele>628</ele>
        <time>2021-06-10T23:37:30Z</time>
      </trkpt>
      <trkpt lat="45.53665" lon="4.37249">
        <ele>629</ele>
        <time>2021-06-10T23:37:38Z</time>
      </trkpt>
      <trkpt lat="45.53642" lon="4.37248">
        <ele>628</ele>
        <time>2021-06-10T23:37:42Z</time>
      </trkpt>
      <trkpt lat="45.53623" lon="4.37259">
        <ele>629</ele>
        <time>2021-06-10T23:37:46Z</time>
      </trkpt>
      <trkpt lat="45.53589" lon="4.37295">
        <ele>632</ele>
        <time>2021-06-10T23:37:54Z</time>
      </trkpt>
      <trkpt lat="45.53528" lon="4.37437">
        <ele>639</ele>
        <time>2021-06-10T23:38:14Z</time>
      </trkpt>
      <trkpt lat="45.53495" lon="4.37557">
        <ele>646</ele>
        <time>2021-06-10T23:38:30Z</time>
      </trkpt>
      <trkpt lat="45.53481" lon="4.37593">
        <ele>648</ele>
        <time>2021-06-10T23:38:36Z</time>
      </trkpt>
      <trkpt lat="45.53463" lon="4.37624">
        <ele>648</ele>
        <time>2021-06-10T23:38:41Z</time>
      </trkpt>
      <trkpt lat="45.5344" lon="4.37649">
        <ele>648</ele>
        <time>2021-06-10T23:38:46Z</time>
      </trkpt>
      <trkpt lat="45.53387" lon="4.37688">
        <ele>653</ele>
        <time>2021-06-10T23:38:56Z</time>
      </trkpt>
      <trkpt lat="45.53379" lon="4.37676">
        <ele>653</ele>
        <time>2021-06-10T23:38:58Z</time>
      </trkpt>
      <trkpt lat="45.53374" lon="4.37674">
        <ele>654</ele>
        <time>2021-06-10T23:38:59Z</time>
      </trkpt>
      <trkpt lat="45.53362" lon="4.37676">
        <ele>655</ele>
        <time>2021-06-10T23:39:01Z</time>
      </trkpt>
      <trkpt lat="45.53357" lon="4.37681">
        <ele>656</ele>
        <time>2021-06-10T23:39:03Z</time>
      </trkpt>
      <trkpt lat="45.53326" lon="4.37643">
        <ele>658</ele>
        <time>2021-06-10T23:39:10Z</time>
      </trkpt>
      <trkpt lat="45.53254" lon="4.37507">
        <ele>663</ele>
        <time>2021-06-10T23:39:31Z</time>
      </trkpt>
      <trkpt lat="45.53241" lon="4.37472">
        <ele>665</ele>
        <time>2021-06-10T23:39:36Z</time>
      </trkpt>
      <trkpt lat="45.53221" lon="4.374">
        <ele>666</ele>
        <time>2021-06-10T23:39:46Z</time>
      </trkpt>
      <trkpt lat="45.53214" lon="4.37385">
        <ele>666</ele>
        <time>2021-06-10T23:39:48Z</time>
      </trkpt>
      <trkpt lat="45.53143" lon="4.37285">
        <ele>666</ele>
        <time>2021-06-10T23:40:06Z</time>
      </trkpt>
      <trkpt lat="45.53115" lon="4.37273">
        <ele>667</ele>
        <time>2021-06-10T23:40:11Z</time>
      </trkpt>
      <trkpt lat="45.53089" lon="4.37278">
        <ele>671</ele>
        <time>2021-06-10T23:40:16Z</time>
      </trkpt>
      <trkpt lat="45.53048" lon="4.37291">
        <ele>673</ele>
        <time>2021-06-10T23:40:23Z</time>
      </trkpt>
      <trkpt lat="45.52892" lon="4.37256">
        <ele>672</ele>
        <time>2021-06-10T23:40:51Z</time>
      </trkpt>
      <trkpt lat="45.52849" lon="4.37254">
        <ele>672</ele>
        <time>2021-06-10T23:40:59Z</time>
      </trkpt>
      <trkpt lat="45.52746" lon="4.3727">
        <ele>669</ele>
        <time>2021-06-10T23:41:17Z</time>
      </trkpt>
      <trkpt lat="45.52664" lon="4.3725">
        <ele>665</ele>
        <time>2021-06-10T23:41:32Z</time>
      </trkpt>
      <trkpt lat="45.52652" lon="4.37252">
        <ele>666</ele>
        <time>2021-06-10T23:41:34Z</time>
      </trkpt>
      <trkpt lat="45.5263" lon="4.37263">
        <ele>668</ele>
        <time>2021-06-10T23:41:38Z</time>
      </trkpt>
      <trkpt lat="45.5256" lon="4.37286">
        <ele>674</ele>
        <time>2021-06-10T23:41:51Z</time>
      </trkpt>
      <trkpt lat="45.52518" lon="4.37296">
        <ele>677</ele>
        <time>2021-06-10T23:41:59Z</time>
      </trkpt>
      <trkpt lat="45.52473" lon="4.37311">
        <ele>680</ele>
        <time>2021-06-10T23:42:07Z</time>
      </trkpt>
      <trkpt lat="45.52414" lon="4.37334">
        <ele>680</ele>
        <time>2021-06-10T23:42:18Z</time>
      </trkpt>
      <trkpt lat="45.52364" lon="4.37365">
        <ele>680</ele>
        <time>2021-06-10T23:42:27Z</time>
      </trkpt>
      <trkpt lat="45.52349" lon="4.37382">
        <ele>681</ele>
        <time>2021-06-10T23:42:31Z</time>
      </trkpt>
      <trkpt lat="45.52317" lon="4.37442">
        <ele>682</ele>
        <time>2021-06-10T23:42:40Z</time>
      </trkpt>
      <trkpt lat="45.52227" lon="4.37556">
        <ele>680</ele>
        <time>2021-06-10T23:43:02Z</time>
      </trkpt>
      <trkpt lat="45.52211" lon="4.37598">
        <ele>677</ele>
        <time>2021-06-10T23:43:08Z</time>
      </trkpt>
      <trkpt lat="45.52209" lon="4.37626">
        <ele>676</ele>
        <time>2021-06-10T23:43:11Z</time>
      </trkpt>
      <trkpt lat="45.52211" lon="4.3765">
        <ele>675</ele>
        <time>2021-06-10T23:43:14Z</time>
      </trkpt>
      <trkpt lat="45.52224" lon="4.37684">
        <ele>676</ele>
        <time>2021-06-10T23:43:19Z</time>
      </trkpt>
      <trkpt lat="45.52261" lon="4.37746">
        <ele>675</ele>
        <time>2021-06-10T23:43:29Z</time>
      </trkpt>
      <trkpt lat="45.52268" lon="4.37767">
        <ele>675</ele>
        <time>2021-06-10T23:43:32Z</time>
      </trkpt>
      <trkpt lat="45.52272" lon="4.37803">
        <ele>672</ele>
        <time>2021-06-10T23:43:37Z</time>
      </trkpt>
      <trkpt lat="45.52272" lon="4.37833">
        <ele>669</ele>
        <time>2021-06-10T23:43:40Z</time>
      </trkpt>
      <trkpt lat="45.52264" lon="4.37867">
        <ele>667</ele>
        <time>2021-06-10T23:43:45Z</time>
      </trkpt>
      <trkpt lat="45.5225" lon="4.37896">
        <ele>666</ele>
        <time>2021-06-10T23:43:49Z</time>
      </trkpt>
      <trkpt lat="45.52227" lon="4.37923">
        <ele>670</ele>
        <time>2021-06-10T23:43:54Z</time>
      </trkpt>
      <trkpt lat="45.522" lon="4.37936">
        <ele>674</ele>
        <time>2021-06-10T23:44:00Z</time>
      </trkpt>
      <trkpt lat="45.5217" lon="4.37938">
        <ele>677</ele>
        <time>2021-06-10T23:44:05Z</time>
      </trkpt>
      <trkpt lat="45.52149" lon="4.37929">
        <ele>677</ele>
        <time>2021-06-10T23:44:09Z</time>
      </trkpt>
      <trkpt lat="45.52039" lon="4.37854">
        <ele>675</ele>
        <time>2021-06-10T23:44:30Z</time>
      </trkpt>
      <trkpt lat="45.51988" lon="4.37815">
        <ele>676</ele>
        <time>2021-06-10T23:44:41Z</time>
      </trkpt>
      <trkpt lat="45.51951" lon="4.37802">
        <ele>677</ele>
        <time>2021-06-10T23:44:48Z</time>
      </trkpt>
      <trkpt lat="45.51907" lon="4.3782">
        <ele>679</ele>
        <time>2021-06-10T23:44:56Z</time>
      </trkpt>
      <trkpt lat="45.51883" lon="4.37859">
        <ele>677</ele>
        <time>2021-06-10T23:45:02Z</time>
      </trkpt>
      <trkpt lat="45.51862" lon="4.37956">
        <ele>678</ele>
        <time>2021-06-10T23:45:15Z</time>
      </trkpt>
      <trkpt lat="45.51844" lon="4.37993">
        <ele>675</ele>
        <time>2021-06-10T23:45:20Z</time>
      </trkpt>
      <trkpt lat="45.51812" lon="4.38021">
        <ele>674</ele>
        <time>2021-06-10T23:45:27Z</time>
      </trkpt>
      <trkpt lat="45.51771" lon="4.3803">
        <ele>675</ele>
        <time>2021-06-10T23:45:35Z</time>
      </trkpt>
      <trkpt lat="45.51731" lon="4.38012">
        <ele>674</ele>
        <time>2021-06-10T23:45:42Z</time>
      </trkpt>
      <trkpt lat="45.51663" lon="4.37939">
        <ele>671</ele>
        <time>2021-06-10T23:45:57Z</time>
      </trkpt>
      <trkpt lat="45.51624" lon="4.37861">
        <ele>670</ele>
        <time>2021-06-10T23:46:09Z</time>
      </trkpt>
      <trkpt lat="45.51544" lon="4.37619">
        <ele>662</ele>
        <time>2021-06-10T23:46:42Z</time>
      </trkpt>
      <trkpt lat="45.51534" lon="4.37598">
        <ele>661</ele>
        <time>2021-06-10T23:46:46Z</time>
      </trkpt>
      <trkpt lat="45.51504" lon="4.37569">
        <ele>660</ele>
        <time>2021-06-10T23:46:52Z</time>
      </trkpt>
      <trkpt lat="45.51477" lon="4.37559">
        <ele>659</ele>
        <time>2021-06-10T23:46:57Z</time>
      </trkpt>
      <trkpt lat="45.51436" lon="4.37566">
        <ele>656</ele>
        <time>2021-06-10T23:47:04Z</time>
      </trkpt>
      <trkpt lat="45.51353" lon="4.37654">
        <ele>648</ele>
        <time>2021-06-10T23:47:23Z</time>
      </trkpt>
      <trkpt lat="45.51311" lon="4.37707">
        <ele>641</ele>
        <time>2021-06-10T23:47:33Z</time>
      </trkpt>
      <trkpt lat="45.51277" lon="4.37778">
        <ele>635</ele>
        <time>2021-06-10T23:47:43Z</time>
      </trkpt>
      <trkpt lat="45.51248" lon="4.37899">
        <ele>632</ele>
        <time>2021-06-10T23:47:59Z</time>
      </trkpt>
      <trkpt lat="45.51225" lon="4.37939">
        <ele>632</ele>
        <time>2021-06-10T23:48:06Z</time>
      </trkpt>
      <trkpt lat="45.51197" lon="4.37969">
        <ele>630</ele>
        <time>2021-06-10T23:48:12Z</time>
      </trkpt>
      <trkpt lat="45.51168" lon="4.38005">
        <ele>627</ele>
        <time>2021-06-10T23:48:19Z</time>
      </trkpt>
      <trkpt lat="45.51151" lon="4.38034">
        <ele>625</ele>
        <time>2021-06-10T23:48:24Z</time>
      </trkpt>
      <trkpt lat="45.51131" lon="4.38086">
        <ele>622</ele>
        <time>2021-06-10T23:48:31Z</time>
      </trkpt>
      <trkpt lat="45.51118" lon="4.38152">
        <ele>617</ele>
        <time>2021-06-10T23:48:40Z</time>
      </trkpt>
      <trkpt lat="45.51118" lon="4.38319">
        <ele>612</ele>
        <time>2021-06-10T23:49:00Z</time>
      </trkpt>
      <trkpt lat="45.51112" lon="4.38372">
        <ele>608</ele>
        <time>2021-06-10T23:49:07Z</time>
      </trkpt>
      <trkpt lat="45.51093" lon="4.38419">
        <ele>604</ele>
        <time>2021-06-10T23:49:14Z</time>
      </trkpt>
      <trkpt lat="45.51061" lon="4.38453">
        <ele>606</ele>
        <time>2021-06-10T23:49:21Z</time>
      </trkpt>
      <trkpt lat="45.51022" lon="4.38462">
        <ele>604</ele>
        <time>2021-06-10T23:49:28Z</time>
      </trkpt>
      <trkpt lat="45.50977" lon="4.38464">
        <ele>604</ele>
        <time>2021-06-10T23:49:36Z</time>
      </trkpt>
      <trkpt lat="45.50976" lon="4.38512">
        <ele>605</ele>
        <time>2021-06-10T23:49:42Z</time>
      </trkpt>
      <trkpt lat="45.51008" lon="4.3857">
        <ele>603</ele>
        <time>2021-06-10T23:49:51Z</time>
      </trkpt>
      <trkpt lat="45.51037" lon="4.38733">
        <ele>602</ele>
        <time>2021-06-10T23:50:12Z</time>
      </trkpt>
      <trkpt lat="45.51023" lon="4.38819">
        <ele>594</ele>
        <time>2021-06-10T23:50:23Z</time>
      </trkpt>
      <trkpt lat="45.51034" lon="4.38964">
        <ele>590</ele>
        <time>2021-06-10T23:50:41Z</time>
      </trkpt>
      <trkpt lat="45.51014" lon="4.39077">
        <ele>585</ele>
        <time>2021-06-10T23:50:56Z</time>
      </trkpt>
      <trkpt lat="45.51009" lon="4.39174">
        <ele>580</ele>
        <time>2021-06-10T23:51:08Z</time>
      </trkpt>
      <trkpt lat="45.51034" lon="4.39252">
        <ele>575</ele>
        <time>2021-06-10T23:51:19Z</time>
      </trkpt>
      <trkpt lat="45.51105" lon="4.39285">
        <ele>585</ele>
        <time>2021-06-10T23:51:32Z</time>
      </trkpt>
      <trkpt lat="45.51121" lon="4.39319">
        <ele>584</ele>
        <time>2021-06-10T23:51:37Z</time>
      </trkpt>
      <trkpt lat="45.51117" lon="4.39349">
        <ele>582</ele>
        <time>2021-06-10T23:51:41Z</time>
      </trkpt>
      <trkpt lat="45.51031" lon="4.39438">
        <ele>574</ele>
        <time>2021-06-10T23:52:00Z</time>
      </trkpt>
      <trkpt lat="45.50987" lon="4.39517">
        <ele>574</ele>
        <time>2021-06-10T23:52:12Z</time>
      </trkpt>
      <trkpt lat="45.50993" lon="4.39587">
        <ele>578</ele>
        <time>2021-06-10T23:52:21Z</time>
      </trkpt>
      <trkpt lat="45.51023" lon="4.397">
        <ele>577</ele>
        <time>2021-06-10T23:52:36Z</time>
      </trkpt>
      <trkpt lat="45.51068" lon="4.39757">
        <ele>575</ele>
        <time>2021-06-10T23:52:47Z</time>
      </trkpt>
      <trkpt lat="45.51144" lon="4.39807">
        <ele>578</ele>
        <time>2021-06-10T23:53:02Z</time>
      </trkpt>
      <trkpt lat="45.51191" lon="4.3987">
        <ele>580</ele>
        <time>2021-06-10T23:53:13Z</time>
      </trkpt>
      <trkpt lat="45.51203" lon="4.39976">
        <ele>582</ele>
        <time>2021-06-10T23:53:27Z</time>
      </trkpt>
      <trkpt lat="45.51222" lon="4.40074">
        <ele>585</ele>
        <time>2021-06-10T23:53:39Z</time>
      </trkpt>
      <trkpt lat="45.5125" lon="4.40116">
        <ele>584</ele>
        <time>2021-06-10T23:53:47Z</time>
      </trkpt>
      <trkpt lat="45.51254" lon="4.40202">
        <ele>584</ele>
        <time>2021-06-10T23:53:57Z</time>
      </trkpt>
      <trkpt lat="45.51267" lon="4.40269">
        <ele>591</ele>
        <time>2021-06-10T23:54:06Z</time>
      </trkpt>
      <trkpt lat="45.51302" lon="4.40361">
        <ele>601</ele>
        <time>2021-06-10T23:54:19Z</time>
      </trkpt>
      <trkpt lat="45.51305" lon="4.40409">
        <ele>600</ele>
        <time>2021-06-10T23:54:25Z</time>
      </trkpt>
      <trkpt lat="45.51296" lon="4.40439">
        <ele>597</ele>
        <time>2021-06-10T23:54:29Z</time>
      </trkpt>
      <trkpt lat="45.51277" lon="4.40442">
        <ele>594</ele>
        <time>2021-06-10T23:54:33Z</time>
      </trkpt>
      <trkpt lat="45.51241" lon="4.40419">
        <ele>588</ele>
        <time>2021-06-10T23:54:40Z</time>
      </trkpt>
      <trkpt lat="45.51189" lon="4.40315">
        <ele>592</ele>
        <time>2021-06-10T23:54:55Z</time>
      </trkpt>
      <trkpt lat="45.51141" lon="4.4016">
        <ele>594</ele>
        <time>2021-06-10T23:55:17Z</time>
      </trkpt>
      <trkpt lat="45.51112" lon="4.40087">
        <ele>594</ele>
        <time>2021-06-10T23:55:27Z</time>
      </trkpt>
      <trkpt lat="45.51093" lon="4.40071">
        <ele>595</ele>
        <time>2021-06-10T23:55:31Z</time>
      </trkpt>
      <trkpt lat="45.51076" lon="4.40078">
        <ele>596</ele>
        <time>2021-06-10T23:55:34Z</time>
      </trkpt>
      <trkpt lat="45.51066" lon="4.40098">
        <ele>596</ele>
        <time>2021-06-10T23:55:37Z</time>
      </trkpt>
      <trkpt lat="45.51052" lon="4.40224">
        <ele>603</ele>
        <time>2021-06-10T23:55:53Z</time>
      </trkpt>
      <trkpt lat="45.51014" lon="4.40331">
        <ele>605</ele>
        <time>2021-06-10T23:56:08Z</time>
      </trkpt>
      <trkpt lat="45.51014" lon="4.40368">
        <ele>607</ele>
        <time>2021-06-10T23:56:13Z</time>
      </trkpt>
      <trkpt lat="45.51076" lon="4.40623">
        <ele>620</ele>
        <time>2021-06-10T23:56:46Z</time>
      </trkpt>
      <trkpt lat="45.5107" lon="4.40763">
        <ele>620</ele>
        <time>2021-06-10T23:57:04Z</time>
      </trkpt>
      <trkpt lat="45.51122" lon="4.40923">
        <ele>624</ele>
        <time>2021-06-10T23:57:26Z</time>
      </trkpt>
      <trkpt lat="45.51124" lon="4.41057">
        <ele>631</ele>
        <time>2021-06-10T23:57:43Z</time>
      </trkpt>
      <trkpt lat="45.51198" lon="4.41347">
        <ele>640</ele>
        <time>2021-06-10T23:58:21Z</time>
      </trkpt>
      <trkpt lat="45.51234" lon="4.41419">
        <ele>644</ele>
        <time>2021-06-10T23:58:32Z</time>
      </trkpt>
      <trkpt lat="45.51269" lon="4.41442">
        <ele>650</ele>
        <time>2021-06-10T23:58:39Z</time>
      </trkpt>
      <trkpt lat="45.51316" lon="4.41448">
        <ele>657</ele>
        <time>2021-06-10T23:58:47Z</time>
      </trkpt>
      <trkpt lat="45.51343" lon="4.41467">
        <ele>659</ele>
        <time>2021-06-10T23:58:53Z</time>
      </trkpt>
      <trkpt lat="45.51347" lon="4.41496">
        <ele>654</ele>
        <time>2021-06-10T23:58:56Z</time>
      </trkpt>
      <trkpt lat="45.51331" lon="4.41515">
        <ele>656</ele>
        <time>2021-06-10T23:59:00Z</time>
      </trkpt>
      <trkpt lat="45.51227" lon="4.41541">
        <ele>648</ele>
        <time>2021-06-10T23:59:19Z</time>
      </trkpt>
      <trkpt lat="45.51205" lon="4.41568">
        <ele>650</ele>
        <time>2021-06-10T23:59:24Z</time>
      </trkpt>
      <trkpt lat="45.5116" lon="4.417">
        <ele>660</ele>
        <time>2021-06-10T23:59:42Z</time>
      </trkpt>
      <trkpt lat="45.51056" lon="4.41852">
        <ele>662</ele>
        <time>2021-06-11T00:00:09Z</time>
      </trkpt>
      <trkpt lat="45.51052" lon="4.41887">
        <ele>660</ele>
        <time>2021-06-11T00:00:13Z</time>
      </trkpt>
      <trkpt lat="45.51061" lon="4.4191">
        <ele>658</ele>
        <time>2021-06-11T00:00:17Z</time>
      </trkpt>
      <trkpt lat="45.51084" lon="4.41923">
        <ele>656</ele>
        <time>2021-06-11T00:00:21Z</time>
      </trkpt>
      <trkpt lat="45.51135" lon="4.41934">
        <ele>658</ele>
        <time>2021-06-11T00:00:30Z</time>
      </trkpt>
      <trkpt lat="45.51158" lon="4.41943">
        <ele>658</ele>
        <time>2021-06-11T00:00:34Z</time>
      </trkpt>
      <trkpt lat="45.51172" lon="4.41961">
        <ele>657</ele>
        <time>2021-06-11T00:00:38Z</time>
      </trkpt>
      <trkpt lat="45.51186" lon="4.41985">
        <ele>659</ele>
        <time>2021-06-11T00:00:42Z</time>
      </trkpt>
      <trkpt lat="45.51195" lon="4.42013">
        <ele>658</ele>
        <time>2021-06-11T00:00:45Z</time>
      </trkpt>
      <trkpt lat="45.51203" lon="4.42098">
        <ele>650</ele>
        <time>2021-06-11T00:00:56Z</time>
      </trkpt>
      <trkpt lat="45.51208" lon="4.42118">
        <ele>649</ele>
        <time>2021-06-11T00:00:59Z</time>
      </trkpt>
      <trkpt lat="45.51226" lon="4.42155">
        <ele>650</ele>
        <time>2021-06-11T00:01:04Z</time>
      </trkpt>
      <trkpt lat="45.51231" lon="4.42176">
        <ele>650</ele>
        <time>2021-06-11T00:01:07Z</time>
      </trkpt>
      <trkpt lat="45.51228" lon="4.4219">
        <ele>649</ele>
        <time>2021-06-11T00:01:09Z</time>
      </trkpt>
      <trkpt lat="45.51211" lon="4.42211">
        <ele>643</ele>
        <time>2021-06-11T00:01:13Z</time>
      </trkpt>
      <trkpt lat="45.51194" lon="4.42226">
        <ele>637</ele>
        <time>2021-06-11T00:01:17Z</time>
      </trkpt>
      <trkpt lat="45.51205" lon="4.42197">
        <ele>641</ele>
        <time>2021-06-11T00:01:21Z</time>
      </trkpt>
      <trkpt lat="45.51207" lon="4.42175">
        <ele>642</ele>
        <time>2021-06-11T00:01:23Z</time>
      </trkpt>
      <trkpt lat="45.51195" lon="4.42146">
        <ele>640</ele>
        <time>2021-06-11T00:01:28Z</time>
      </trkpt>
      <trkpt lat="45.51136" lon="4.4208">
        <ele>635</ele>
        <time>2021-06-11T00:01:41Z</time>
      </trkpt>
      <trkpt lat="45.5112" lon="4.42073">
        <ele>635</ele>
        <time>2021-06-11T00:01:44Z</time>
      </trkpt>
      <trkpt lat="45.51105" lon="4.42077">
        <ele>632</ele>
        <time>2021-06-11T00:01:47Z</time>
      </trkpt>
      <trkpt lat="45.5105" lon="4.42136">
        <ele>626</ele>
        <time>2021-06-11T00:01:59Z</time>
      </trkpt>
      <trkpt lat="45.5104" lon="4.42153">
        <ele>625</ele>
        <time>2021-06-11T00:02:02Z</time>
      </trkpt>
      <trkpt lat="45.51034" lon="4.42173">
        <ele>624</ele>
        <time>2021-06-11T00:02:04Z</time>
      </trkpt>
      <trkpt lat="45.51035" lon="4.42224">
        <ele>618</ele>
        <time>2021-06-11T00:02:11Z</time>
      </trkpt>
      <trkpt lat="45.51016" lon="4.42277">
        <ele>614</ele>
        <time>2021-06-11T00:02:18Z</time>
      </trkpt>
      <trkpt lat="45.50991" lon="4.42332">
        <ele>607</ele>
        <time>2021-06-11T00:02:26Z</time>
      </trkpt>
      <trkpt lat="45.50978" lon="4.42342">
        <ele>605</ele>
        <time>2021-06-11T00:02:29Z</time>
      </trkpt>
      <trkpt lat="45.50968" lon="4.42342">
        <ele>605</ele>
        <time>2021-06-11T00:02:31Z</time>
      </trkpt>
      <trkpt lat="45.50946" lon="4.42326">
        <ele>607</ele>
        <time>2021-06-11T00:02:35Z</time>
      </trkpt>
      <trkpt lat="45.50908" lon="4.42316">
        <ele>608</ele>
        <time>2021-06-11T00:02:42Z</time>
      </trkpt>
      <trkpt lat="45.50894" lon="4.42322">
        <ele>607</ele>
        <time>2021-06-11T00:02:45Z</time>
      </trkpt>
      <trkpt lat="45.50888" lon="4.42333">
        <ele>606</ele>
        <time>2021-06-11T00:02:46Z</time>
      </trkpt>
      <trkpt lat="45.50889" lon="4.42349">
        <ele>605</ele>
        <time>2021-06-11T00:02:48Z</time>
      </trkpt>
      <trkpt lat="45.50931" lon="4.42473">
        <ele>602</ele>
        <time>2021-06-11T00:03:05Z</time>
      </trkpt>
      <trkpt lat="45.50968" lon="4.42511">
        <ele>597</ele>
        <time>2021-06-11T00:03:14Z</time>
      </trkpt>
      <trkpt lat="45.50981" lon="4.4253">
        <ele>595</ele>
        <time>2021-06-11T00:03:17Z</time>
      </trkpt>
      <trkpt lat="45.5099" lon="4.42562">
        <ele>593</ele>
        <time>2021-06-11T00:03:21Z</time>
      </trkpt>
      <trkpt lat="45.50991" lon="4.42585">
        <ele>592</ele>
        <time>2021-06-11T00:03:24Z</time>
      </trkpt>
      <trkpt lat="45.50986" lon="4.42613">
        <ele>590</ele>
        <time>2021-06-11T00:03:28Z</time>
      </trkpt>
      <trkpt lat="45.50967" lon="4.42647">
        <ele>588</ele>
        <time>2021-06-11T00:03:33Z</time>
      </trkpt>
      <trkpt lat="45.50912" lon="4.42705">
        <ele>584</ele>
        <time>2021-06-11T00:03:45Z</time>
      </trkpt>
      <trkpt lat="45.50901" lon="4.42708">
        <ele>584</ele>
        <time>2021-06-11T00:03:47Z</time>
      </trkpt>
      <trkpt lat="45.50874" lon="4.427">
        <ele>588</ele>
        <time>2021-06-11T00:03:52Z</time>
      </trkpt>
      <trkpt lat="45.50859" lon="4.42708">
        <ele>588</ele>
        <time>2021-06-11T00:03:55Z</time>
      </trkpt>
      <trkpt lat="45.50852" lon="4.42722">
        <ele>588</ele>
        <time>2021-06-11T00:03:57Z</time>
      </trkpt>
      <trkpt lat="45.50851" lon="4.42758">
        <ele>586</ele>
        <time>2021-06-11T00:04:02Z</time>
      </trkpt>
      <trkpt lat="45.5087" lon="4.4281">
        <ele>581</ele>
        <time>2021-06-11T00:04:09Z</time>
      </trkpt>
      <trkpt lat="45.50872" lon="4.42839">
        <ele>579</ele>
        <time>2021-06-11T00:04:13Z</time>
      </trkpt>
      <trkpt lat="45.50867" lon="4.42869">
        <ele>578</ele>
        <time>2021-06-11T00:04:16Z</time>
      </trkpt>
      <trkpt lat="45.50846" lon="4.42941">
        <ele>576</ele>
        <time>2021-06-11T00:04:26Z</time>
      </trkpt>
      <trkpt lat="45.50816" lon="4.42996">
        <ele>575</ele>
        <time>2021-06-11T00:04:35Z</time>
      </trkpt>
      <trkpt lat="45.50795" lon="4.43047">
        <ele>573</ele>
        <time>2021-06-11T00:04:42Z</time>
      </trkpt>
      <trkpt lat="45.50738" lon="4.43202">
        <ele>562</ele>
        <time>2021-06-11T00:05:04Z</time>
      </trkpt>
      <trkpt lat="45.50698" lon="4.43269">
        <ele>559</ele>
        <time>2021-06-11T00:05:15Z</time>
      </trkpt>
      <trkpt lat="45.50599" lon="4.43405">
        <ele>553</ele>
        <time>2021-06-11T00:05:40Z</time>
      </trkpt>
      <trkpt lat="45.50562" lon="4.4343">
        <ele>553</ele>
        <time>2021-06-11T00:05:47Z</time>
      </trkpt>
      <trkpt lat="45.50534" lon="4.43444">
        <ele>552</ele>
        <time>2021-06-11T00:05:52Z</time>
      </trkpt>
      <trkpt lat="45.50489" lon="4.43459">
        <ele>550</ele>
        <time>2021-06-11T00:06:00Z</time>
      </trkpt>
      <trkpt lat="45.50453" lon="4.43476">
        <ele>550</ele>
        <time>2021-06-11T00:06:07Z</time>
      </trkpt>
      <trkpt lat="45.50362" lon="4.43557">
        <ele>542</ele>
        <time>2021-06-11T00:06:26Z</time>
      </trkpt>
      <trkpt lat="45.50343" lon="4.43565">
        <ele>540</ele>
        <time>2021-06-11T00:06:30Z</time>
      </trkpt>
      <trkpt lat="45.50325" lon="4.43564">
        <ele>540</ele>
        <time>2021-06-11T00:06:33Z</time>
      </trkpt>
      <trkpt lat="45.50071" lon="4.43434">
        <ele>536</ele>
        <time>2021-06-11T00:07:21Z</time>
      </trkpt>
      <trkpt lat="45.50037" lon="4.43426">
        <ele>535</ele>
        <time>2021-06-11T00:07:27Z</time>
      </trkpt>
      <trkpt lat="45.48689" lon="4.43617">
        <ele>517</ele>
        <time>2021-06-11T00:11:28Z</time>
      </trkpt>
      <trkpt lat="45.48682" lon="4.43601">
        <ele>518</ele>
        <time>2021-06-11T00:11:30Z</time>
      </trkpt>
      <trkpt lat="45.48672" lon="4.43599">
        <ele>519</ele>
        <time>2021-06-11T00:11:32Z</time>
      </trkpt>
      <trkpt lat="45.48663" lon="4.43609">
        <ele>518</ele>
        <time>2021-06-11T00:11:34Z</time>
      </trkpt>
      <trkpt lat="45.48662" lon="4.4362">
        <ele>517</ele>
        <time>2021-06-11T00:11:36Z</time>
      </trkpt>
      <trkpt lat="45.48657" lon="4.43622">
        <ele>517</ele>
        <time>2021-06-11T00:11:37Z</time>
      </trkpt>
      <trkpt lat="45.48495" lon="4.4364">
        <ele>513</ele>
        <time>2021-06-11T00:12:05Z</time>
      </trkpt>
      <trkpt lat="45.4845" lon="4.43636">
        <ele>513</ele>
        <time>2021-06-11T00:12:13Z</time>
      </trkpt>
      <trkpt lat="45.48391" lon="4.43621">
        <ele>512</ele>
        <time>2021-06-11T00:12:24Z</time>
      </trkpt>
      <trkpt lat="45.48324" lon="4.43592">
        <ele>511</ele>
        <time>2021-06-11T00:12:37Z</time>
      </trkpt>
      <trkpt lat="45.48306" lon="4.43569">
        <ele>511</ele>
        <time>2021-06-11T00:12:41Z</time>
      </trkpt>
      <trkpt lat="45.48211" lon="4.43429">
        <ele>509</ele>
        <time>2021-06-11T00:13:05Z</time>
      </trkpt>
      <trkpt lat="45.482" lon="4.43433">
        <ele>509</ele>
        <time>2021-06-11T00:13:07Z</time>
      </trkpt>
      <trkpt lat="45.48115" lon="4.43482">
        <ele>508</ele>
        <time>2021-06-11T00:13:24Z</time>
      </trkpt>
      <trkpt lat="45.48207" lon="4.43734">
        <ele>509</ele>
        <time>2021-06-11T00:13:59Z</time>
      </trkpt>
      <trkpt lat="45.48251" lon="4.43864">
        <ele>508</ele>
        <time>2021-06-11T00:14:17Z</time>
      </trkpt>
      <trkpt lat="45.48264" lon="4.4392">
        <ele>508</ele>
        <time>2021-06-11T00:14:24Z</time>
      </trkpt>
      <trkpt lat="45.48266" lon="4.4395">
        <ele>507</ele>
        <time>2021-06-11T00:14:28Z</time>
      </trkpt>
      <trkpt lat="45.48258" lon="4.44077">
        <ele>503</ele>
        <time>2021-06-11T00:14:44Z</time>
      </trkpt>
      <trkpt lat="45.48254" lon="4.44115">
        <ele>503</ele>
        <time>2021-06-11T00:14:49Z</time>
      </trkpt>
      <trkpt lat="45.48241" lon="4.44155">
        <ele>504</ele>
        <time>2021-06-11T00:14:54Z</time>
      </trkpt>
      <trkpt lat="45.48221" lon="4.44194">
        <ele>503</ele>
        <time>2021-06-11T00:15:00Z</time>
      </trkpt>
      <trkpt lat="45.48197" lon="4.44232">
        <ele>503</ele>
        <time>2021-06-11T00:15:07Z</time>
      </trkpt>
      <trkpt lat="45.48184" lon="4.44275">
        <ele>503</ele>
        <time>2021-06-11T00:15:13Z</time>
      </trkpt>
      <trkpt lat="45.48153" lon="4.44456">
        <ele>505</ele>
        <time>2021-06-11T00:15:36Z</time>
      </trkpt>
      <trkpt lat="45.48083" lon="4.44926">
        <ele>507</ele>
        <time>2021-06-11T00:16:36Z</time>
      </trkpt>
      <trkpt lat="45.48043" lon="4.4517">
        <ele>510</ele>
        <time>2021-06-11T00:17:07Z</time>
      </trkpt>
      <trkpt lat="45.48025" lon="4.45214">
        <ele>510</ele>
        <time>2021-06-11T00:17:13Z</time>
      </trkpt>
      <trkpt lat="45.48004" lon="4.45237">
        <ele>510</ele>
        <time>2021-06-11T00:17:18Z</time>
      </trkpt>
      <trkpt lat="45.47998" lon="4.45235">
        <ele>510</ele>
        <time>2021-06-11T00:17:19Z</time>
      </trkpt>
      <trkpt lat="45.47992" lon="4.45237">
        <ele>510</ele>
        <time>2021-06-11T00:17:20Z</time>
      </trkpt>
      <trkpt lat="45.47983" lon="4.45248">
        <ele>511</ele>
        <time>2021-06-11T00:17:22Z</time>
      </trkpt>
      <trkpt lat="45.47981" lon="4.45263">
        <ele>510</ele>
        <time>2021-06-11T00:17:24Z</time>
      </trkpt>
      <trkpt lat="45.47985" lon="4.45279">
        <ele>509</ele>
        <time>2021-06-11T00:17:26Z</time>
      </trkpt>
      <trkpt lat="45.47983" lon="4.45317">
        <ele>508</ele>
        <time>2021-06-11T00:17:31Z</time>
      </trkpt>
      <trkpt lat="45.4796" lon="4.45398">
        <ele>506</ele>
        <time>2021-06-11T00:17:42Z</time>
      </trkpt>
      <trkpt lat="45.47948" lon="4.45458">
        <ele>504</ele>
        <time>2021-06-11T00:17:50Z</time>
      </trkpt>
      <trkpt lat="45.47943" lon="4.4552">
        <ele>501</ele>
        <time>2021-06-11T00:17:58Z</time>
      </trkpt>
      <trkpt lat="45.47943" lon="4.4557">
        <ele>500</ele>
        <time>2021-06-11T00:18:04Z</time>
      </trkpt>
      <trkpt lat="45.47947" lon="4.45602">
        <ele>499</ele>
        <time>2021-06-11T00:18:08Z</time>
      </trkpt>
      <trkpt lat="45.47956" lon="4.45632">
        <ele>498</ele>
        <time>2021-06-11T00:18:12Z</time>
      </trkpt>
      <trkpt lat="45.4797" lon="4.45664">
        <ele>495</ele>
        <time>2021-06-11T00:18:17Z</time>
      </trkpt>
      <trkpt lat="45.47996" lon="4.45694">
        <ele>493</ele>
        <time>2021-06-11T00:18:23Z</time>
      </trkpt>
      <trkpt lat="45.48026" lon="4.45706">
        <ele>491</ele>
        <time>2021-06-11T00:18:28Z</time>
      </trkpt>
      <trkpt lat="45.4814" lon="4.45718">
        <ele>486</ele>
        <time>2021-06-11T00:18:48Z</time>
      </trkpt>
      <trkpt lat="45.48157" lon="4.45726">
        <ele>486</ele>
        <time>2021-06-11T00:18:52Z</time>
      </trkpt>
      <trkpt lat="45.48166" lon="4.45739">
        <ele>485</ele>
        <time>2021-06-11T00:18:54Z</time>
      </trkpt>
      <trkpt lat="45.48176" lon="4.4577">
        <ele>483</ele>
        <time>2021-06-11T00:18:58Z</time>
      </trkpt>
      <trkpt lat="45.48187" lon="4.45929">
        <ele>476</ele>
        <time>2021-06-11T00:19:18Z</time>
      </trkpt>
      <trkpt lat="45.48187" lon="4.4597">
        <ele>476</ele>
        <time>2021-06-11T00:19:23Z</time>
      </trkpt>
      <trkpt lat="45.48178" lon="4.46">
        <ele>476</ele>
        <time>2021-06-11T00:19:27Z</time>
      </trkpt>
      <trkpt lat="45.48137" lon="4.46089">
        <ele>476</ele>
        <time>2021-06-11T00:19:41Z</time>
      </trkpt>
      <trkpt lat="45.48044" lon="4.46279">
        <ele>470</ele>
        <time>2021-06-11T00:20:10Z</time>
      </trkpt>
      <trkpt lat="45.48016" lon="4.46321">
        <ele>469</ele>
        <time>2021-06-11T00:20:17Z</time>
      </trkpt>
      <trkpt lat="45.47982" lon="4.46362">
        <ele>467</ele>
        <time>2021-06-11T00:20:25Z</time>
      </trkpt>
      <trkpt lat="45.47897" lon="4.46447">
        <ele>460</ele>
        <time>2021-06-11T00:20:43Z</time>
      </trkpt>
      <trkpt lat="45.47833" lon="4.46536">
        <ele>457</ele>
        <time>2021-06-11T00:20:59Z</time>
      </trkpt>
      <trkpt lat="45.47746" lon="4.46624">
        <ele>454</ele>
        <time>2021-06-11T00:21:18Z</time>
      </trkpt>
      <trkpt lat="45.47733" lon="4.46643">
        <ele>454</ele>
        <time>2021-06-11T00:21:21Z</time>
      </trkpt>
      <trkpt lat="45.47717" lon="4.46692">
        <ele>452</ele>
        <time>2021-06-11T00:21:28Z</time>
      </trkpt>
      <trkpt lat="45.47703" lon="4.46723">
        <ele>451</ele>
        <time>2021-06-11T00:21:33Z</time>
      </trkpt>
      <trkpt lat="45.47656" lon="4.4679">
        <ele>447</ele>
        <time>2021-06-11T00:21:45Z</time>
      </trkpt>
      <trkpt lat="45.47648" lon="4.46806">
        <ele>448</ele>
        <time>2021-06-11T00:21:47Z</time>
      </trkpt>
      <trkpt lat="45.47639" lon="4.46848">
        <ele>447</ele>
        <time>2021-06-11T00:21:52Z</time>
      </trkpt>
      <trkpt lat="45.47646" lon="4.47014">
        <ele>444</ele>
        <time>2021-06-11T00:22:13Z</time>
      </trkpt>
      <trkpt lat="45.47646" lon="4.47063">
        <ele>442</ele>
        <time>2021-06-11T00:22:19Z</time>
      </trkpt>
      <trkpt lat="45.47639" lon="4.4711">
        <ele>442</ele>
        <time>2021-06-11T00:22:25Z</time>
      </trkpt>
      <trkpt lat="45.4761" lon="4.47216">
        <ele>437</ele>
        <time>2021-06-11T00:22:39Z</time>
      </trkpt>
      <trkpt lat="45.47607" lon="4.47236">
        <ele>435</ele>
        <time>2021-06-11T00:22:42Z</time>
      </trkpt>
      <trkpt lat="45.4761" lon="4.47322">
        <ele>429</ele>
        <time>2021-06-11T00:22:53Z</time>
      </trkpt>
      <trkpt lat="45.47609" lon="4.47359">
        <ele>429</ele>
        <time>2021-06-11T00:22:57Z</time>
      </trkpt>
      <trkpt lat="45.47599" lon="4.47396">
        <ele>428</ele>
        <time>2021-06-11T00:23:02Z</time>
      </trkpt>
      <trkpt lat="45.4758" lon="4.47434">
        <ele>428</ele>
        <time>2021-06-11T00:23:08Z</time>
      </trkpt>
      <trkpt lat="45.47531" lon="4.47504">
        <ele>431</ele>
        <time>2021-06-11T00:23:21Z</time>
      </trkpt>
      <trkpt lat="45.47515" lon="4.47538">
        <ele>428</ele>
        <time>2021-06-11T00:23:26Z</time>
      </trkpt>
      <trkpt lat="45.47397" lon="4.47957">
        <ele>424</ele>
        <time>2021-06-11T00:24:22Z</time>
      </trkpt>
      <trkpt lat="45.47347" lon="4.48146">
        <ele>417</ele>
        <time>2021-06-11T00:24:47Z</time>
      </trkpt>
      <trkpt lat="45.47331" lon="4.48183">
        <ele>414</ele>
        <time>2021-06-11T00:24:53Z</time>
      </trkpt>
      <trkpt lat="45.47285" lon="4.48267">
        <ele>418</ele>
        <time>2021-06-11T00:25:06Z</time>
      </trkpt>
      <trkpt lat="45.4727" lon="4.48299">
        <ele>416</ele>
        <time>2021-06-11T00:25:11Z</time>
      </trkpt>
      <trkpt lat="45.47229" lon="4.48403">
        <ele>409</ele>
        <time>2021-06-11T00:25:26Z</time>
      </trkpt>
      <trkpt lat="45.47219" lon="4.48437">
        <ele>408</ele>
        <time>2021-06-11T00:25:30Z</time>
      </trkpt>
      <trkpt lat="45.47217" lon="4.48457">
        <ele>408</ele>
        <time>2021-06-11T00:25:33Z</time>
      </trkpt>
      <trkpt lat="45.47221" lon="4.48637">
        <ele>407</ele>
        <time>2021-06-11T00:25:55Z</time>
      </trkpt>
      <trkpt lat="45.47216" lon="4.48679">
        <ele>407</ele>
        <time>2021-06-11T00:26:00Z</time>
      </trkpt>
      <trkpt lat="45.47196" lon="4.48731">
        <ele>404</ele>
        <time>2021-06-11T00:26:08Z</time>
      </trkpt>
      <trkpt lat="45.47193" lon="4.48763">
        <ele>404</ele>
        <time>2021-06-11T00:26:12Z</time>
      </trkpt>
      <trkpt lat="45.47202" lon="4.48847">
        <ele>405</ele>
        <time>2021-06-11T00:26:23Z</time>
      </trkpt>
      <trkpt lat="45.47204" lon="4.48889">
        <ele>404</ele>
        <time>2021-06-11T00:26:28Z</time>
      </trkpt>
      <trkpt lat="45.47198" lon="4.48932">
        <ele>402</ele>
        <time>2021-06-11T00:26:33Z</time>
      </trkpt>
      <trkpt lat="45.47172" lon="4.49024">
        <ele>395</ele>
        <time>2021-06-11T00:26:46Z</time>
      </trkpt>
      <trkpt lat="45.47164" lon="4.49065">
        <ele>394</ele>
        <time>2021-06-11T00:26:51Z</time>
      </trkpt>
      <trkpt lat="45.47162" lon="4.49119">
        <ele>394</ele>
        <time>2021-06-11T00:26:58Z</time>
      </trkpt>
      <trkpt lat="45.47187" lon="4.49344">
        <ele>392</ele>
        <time>2021-06-11T00:27:26Z</time>
      </trkpt>
      <trkpt lat="45.47187" lon="4.49363">
        <ele>391</ele>
        <time>2021-06-11T00:27:28Z</time>
      </trkpt>
      <trkpt lat="45.47183" lon="4.49396">
        <ele>388</ele>
        <time>2021-06-11T00:27:33Z</time>
      </trkpt>
      <trkpt lat="45.4717" lon="4.49441">
        <ele>384</ele>
        <time>2021-06-11T00:27:39Z</time>
      </trkpt>
      <trkpt lat="45.47159" lon="4.49558">
        <ele>381</ele>
        <time>2021-06-11T00:27:53Z</time>
      </trkpt>
      <trkpt lat="45.47142" lon="4.49669">
        <ele>377</ele>
        <time>2021-06-11T00:28:08Z</time>
      </trkpt>
      <trkpt lat="45.4714" lon="4.49712">
        <ele>376</ele>
        <time>2021-06-11T00:28:13Z</time>
      </trkpt>
      <trkpt lat="45.47168" lon="4.49871">
        <ele>372</ele>
        <time>2021-06-11T00:28:33Z</time>
      </trkpt>
      <trkpt lat="45.47174" lon="4.49915">
        <ele>371</ele>
        <time>2021-06-11T00:28:39Z</time>
      </trkpt>
      <trkpt lat="45.47174" lon="4.49932">
        <ele>371</ele>
        <time>2021-06-11T00:28:41Z</time>
      </trkpt>
      <trkpt lat="45.4716" lon="4.50141">
        <ele>364</ele>
        <time>2021-06-11T00:29:07Z</time>
      </trkpt>
      <trkpt lat="45.4716" lon="4.50187">
        <ele>364</ele>
        <time>2021-06-11T00:29:13Z</time>
      </trkpt>
      <trkpt lat="45.47158" lon="4.50199">
        <ele>364</ele>
        <time>2021-06-11T00:29:15Z</time>
      </trkpt>
      <trkpt lat="45.47145" lon="4.50208">
        <ele>365</ele>
        <time>2021-06-11T00:29:17Z</time>
      </trkpt>
      <trkpt lat="45.4714" lon="4.50226">
        <ele>366</ele>
        <time>2021-06-11T00:29:20Z</time>
      </trkpt>
      <trkpt lat="45.47142" lon="4.50244">
        <ele>367</ele>
        <time>2021-06-11T00:29:22Z</time>
      </trkpt>
      <trkpt lat="45.47145" lon="4.50251">
        <ele>367</ele>
        <time>2021-06-11T00:29:23Z</time>
      </trkpt>
      <trkpt lat="45.47155" lon="4.5026">
        <ele>367</ele>
        <time>2021-06-11T00:29:25Z</time>
      </trkpt>
      <trkpt lat="45.47158" lon="4.5029">
        <ele>368</ele>
        <time>2021-06-11T00:29:29Z</time>
      </trkpt>
      <trkpt lat="45.47245" lon="4.50845">
        <ele>370</ele>
        <time>2021-06-11T00:30:40Z</time>
      </trkpt>
      <trkpt lat="45.47424" lon="4.51311">
        <ele>377</ele>
        <time>2021-06-11T00:31:46Z</time>
      </trkpt>
      <trkpt lat="45.47414" lon="4.51335">
        <ele>378</ele>
        <time>2021-06-11T00:31:50Z</time>
      </trkpt>
      <trkpt lat="45.47339" lon="4.51568">
        <ele>379</ele>
        <time>2021-06-11T00:32:22Z</time>
      </trkpt>
      <trkpt lat="45.47305" lon="4.51664">
        <ele>377</ele>
        <time>2021-06-11T00:32:35Z</time>
      </trkpt>
      <trkpt lat="45.47303" lon="4.5169">
        <ele>377</ele>
        <time>2021-06-11T00:32:38Z</time>
      </trkpt>
      <trkpt lat="45.47306" lon="4.51701">
        <ele>377</ele>
        <time>2021-06-11T00:32:40Z</time>
      </trkpt>
      <trkpt lat="45.47315" lon="4.51722">
        <ele>376</ele>
        <time>2021-06-11T00:32:43Z</time>
      </trkpt>
      <trkpt lat="45.47327" lon="4.51738">
        <ele>375</ele>
        <time>2021-06-11T00:32:46Z</time>
      </trkpt>
      <trkpt lat="45.4734" lon="4.51747">
        <ele>375</ele>
        <time>2021-06-11T00:32:48Z</time>
      </trkpt>
      <trkpt lat="45.4735" lon="4.51758">
        <ele>374</ele>
        <time>2021-06-11T00:32:51Z</time>
      </trkpt>
      <trkpt lat="45.47486" lon="4.51979">
        <ele>369</ele>
        <time>2021-06-11T00:33:27Z</time>
      </trkpt>
      <trkpt lat="45.47495" lon="4.51985">
        <ele>369</ele>
        <time>2021-06-11T00:33:29Z</time>
      </trkpt>
      <trkpt lat="45.47545" lon="4.51996">
        <ele>366</ele>
        <time>2021-06-11T00:33:38Z</time>
      </trkpt>
      <trkpt lat="45.47552" lon="4.52">
        <ele>365</ele>
        <time>2021-06-11T00:33:39Z</time>
      </trkpt>
      <trkpt lat="45.47646" lon="4.52143">
        <ele>359</ele>
        <time>2021-06-11T00:34:04Z</time>
      </trkpt>
      <trkpt lat="45.47684" lon="4.52202">
        <ele>358</ele>
        <time>2021-06-11T00:34:14Z</time>
      </trkpt>
      <trkpt lat="45.48193" lon="4.53058">
        <ele>339</ele>
        <time>2021-06-11T00:36:34Z</time>
      </trkpt>
      <trkpt lat="45.48222" lon="4.53104">
        <ele>338</ele>
        <time>2021-06-11T00:36:42Z</time>
      </trkpt>
      <trkpt lat="45.48229" lon="4.53109">
        <ele>337</ele>
        <time>2021-06-11T00:36:43Z</time>
      </trkpt>
      <trkpt lat="45.48226" lon="4.53123">
        <ele>337</ele>
        <time>2021-06-11T00:36:45Z</time>
      </trkpt>
      <trkpt lat="45.4823" lon="4.53139">
        <ele>337</ele>
        <time>2021-06-11T00:36:47Z</time>
      </trkpt>
      <trkpt lat="45.48239" lon="4.53149">
        <ele>336</ele>
        <time>2021-06-11T00:36:49Z</time>
      </trkpt>
      <trkpt lat="45.48246" lon="4.53151">
        <ele>335</ele>
        <time>2021-06-11T00:36:50Z</time>
      </trkpt>
      <trkpt lat="45.48258" lon="4.53161">
        <ele>335</ele>
        <time>2021-06-11T00:36:53Z</time>
      </trkpt>
      <trkpt lat="45.48271" lon="4.53187">
        <ele>335</ele>
        <time>2021-06-11T00:36:57Z</time>
      </trkpt>
      <trkpt lat="45.48318" lon="4.53344">
        <ele>335</ele>
        <time>2021-06-11T00:37:18Z</time>
      </trkpt>
      <trkpt lat="45.48319" lon="4.53356">
        <ele>335</ele>
        <time>2021-06-11T00:37:19Z</time>
      </trkpt>
      <trkpt lat="45.48314" lon="4.53364">
        <ele>335</ele>
        <time>2021-06-11T00:37:21Z</time>
      </trkpt>
      <trkpt lat="45.48314" lon="4.53374">
        <ele>335</ele>
        <time>2021-06-11T00:37:22Z</time>
      </trkpt>
      <trkpt lat="45.48321" lon="4.53384">
        <ele>335</ele>
        <time>2021-06-11T00:37:24Z</time>
      </trkpt>
      <trkpt lat="45.48328" lon="4.53385">
        <ele>334</ele>
        <time>2021-06-11T00:37:25Z</time>
      </trkpt>
      <trkpt lat="45.48331" lon="4.53383">
        <ele>334</ele>
        <time>2021-06-11T00:37:26Z</time>
      </trkpt>
      <trkpt lat="45.48339" lon="4.534">
        <ele>334</ele>
        <time>2021-06-11T00:37:28Z</time>
      </trkpt>
      <trkpt lat="45.48391" lon="4.53571">
        <ele>338</ele>
        <time>2021-06-11T00:37:51Z</time>
      </trkpt>
      <trkpt lat="45.48389" lon="4.53592">
        <ele>340</ele>
        <time>2021-06-11T00:37:54Z</time>
      </trkpt>
      <trkpt lat="45.48398" lon="4.53711">
        <ele>340</ele>
        <time>2021-06-11T00:38:09Z</time>
      </trkpt>
      <trkpt lat="45.4839" lon="4.53849">
        <ele>340</ele>
        <time>2021-06-11T00:38:26Z</time>
      </trkpt>
      <trkpt lat="45.48384" lon="4.53916">
        <ele>340</ele>
        <time>2021-06-11T00:38:35Z</time>
      </trkpt>
      <trkpt lat="45.48381" lon="4.53923">
        <ele>340</ele>
        <time>2021-06-11T00:38:36Z</time>
      </trkpt>
      <trkpt lat="45.48383" lon="4.53929">
        <ele>340</ele>
        <time>2021-06-11T00:38:37Z</time>
      </trkpt>
      <trkpt lat="45.48374" lon="4.53949">
        <ele>341</ele>
        <time>2021-06-11T00:38:39Z</time>
      </trkpt>
      <trkpt lat="45.48295" lon="4.54205">
        <ele>341</ele>
        <time>2021-06-11T00:39:14Z</time>
      </trkpt>
      <trkpt lat="45.48293" lon="4.54223">
        <ele>341</ele>
        <time>2021-06-11T00:39:17Z</time>
      </trkpt>
      <trkpt lat="45.48332" lon="4.54374">
        <ele>332</ele>
        <time>2021-06-11T00:39:37Z</time>
      </trkpt>
      <trkpt lat="45.48339" lon="4.54458">
        <ele>328</ele>
        <time>2021-06-11T00:39:47Z</time>
      </trkpt>
      <trkpt lat="45.4836" lon="4.54515">
        <ele>328</ele>
        <time>2021-06-11T00:39:55Z</time>
      </trkpt>
      <trkpt lat="45.48393" lon="4.54585">
        <ele>328</ele>
        <time>2021-06-11T00:40:06Z</time>
      </trkpt>
      <trkpt lat="45.4842" lon="4.54696">
        <ele>331</ele>
        <time>2021-06-11T00:40:20Z</time>
      </trkpt>
      <trkpt lat="45.48457" lon="4.54811">
        <ele>335</ele>
        <time>2021-06-11T00:40:36Z</time>
      </trkpt>
      <trkpt lat="45.48467" lon="4.54862">
        <ele>335</ele>
        <time>2021-06-11T00:40:43Z</time>
      </trkpt>
      <trkpt lat="45.4846" lon="4.54936">
        <ele>335</ele>
        <time>2021-06-11T00:40:52Z</time>
      </trkpt>
      <trkpt lat="45.48447" lon="4.54955">
        <ele>336</ele>
        <time>2021-06-11T00:40:56Z</time>
      </trkpt>
      <trkpt lat="45.4843" lon="4.54974">
        <ele>337</ele>
        <time>2021-06-11T00:40:59Z</time>
      </trkpt>
      <trkpt lat="45.48433" lon="4.54983">
        <ele>336</ele>
        <time>2021-06-11T00:41:01Z</time>
      </trkpt>
      <trkpt lat="45.48453" lon="4.55008">
        <ele>336</ele>
        <time>2021-06-11T00:41:05Z</time>
      </trkpt>
      <trkpt lat="45.48458" lon="4.55031">
        <ele>335</ele>
        <time>2021-06-11T00:41:08Z</time>
      </trkpt>
      <trkpt lat="45.48456" lon="4.55076">
        <ele>335</ele>
        <time>2021-06-11T00:41:14Z</time>
      </trkpt>
      <trkpt lat="45.48461" lon="4.55117">
        <ele>335</ele>
        <time>2021-06-11T00:41:19Z</time>
      </trkpt>
      <trkpt lat="45.4849" lon="4.55288">
        <ele>343</ele>
        <time>2021-06-11T00:41:41Z</time>
      </trkpt>
      <trkpt lat="45.48494" lon="4.55387">
        <ele>350</ele>
        <time>2021-06-11T00:41:53Z</time>
      </trkpt>
      <trkpt lat="45.48484" lon="4.55469">
        <ele>355</ele>
        <time>2021-06-11T00:42:04Z</time>
      </trkpt>
      <trkpt lat="45.4847" lon="4.55527">
        <ele>359</ele>
        <time>2021-06-11T00:42:11Z</time>
      </trkpt>
      <trkpt lat="45.48468" lon="4.55548">
        <ele>359</ele>
        <time>2021-06-11T00:42:14Z</time>
      </trkpt>
      <trkpt lat="45.48471" lon="4.55584">
        <ele>360</ele>
        <time>2021-06-11T00:42:19Z</time>
      </trkpt>
      <trkpt lat="45.48505" lon="4.55777">
        <ele>367</ele>
        <time>2021-06-11T00:42:43Z</time>
      </trkpt>
      <trkpt lat="45.48503" lon="4.55853">
        <ele>369</ele>
        <time>2021-06-11T00:42:53Z</time>
      </trkpt>
      <trkpt lat="45.48508" lon="4.55955">
        <ele>374</ele>
        <time>2021-06-11T00:43:06Z</time>
      </trkpt>
      <trkpt lat="45.48505" lon="4.56139">
        <ele>376</ele>
        <time>2021-06-11T00:43:29Z</time>
      </trkpt>
      <trkpt lat="45.48497" lon="4.56169">
        <ele>375</ele>
        <time>2021-06-11T00:43:33Z</time>
      </trkpt>
      <trkpt lat="45.48485" lon="4.56179">
        <ele>373</ele>
        <time>2021-06-11T00:43:35Z</time>
      </trkpt>
      <trkpt lat="45.48421" lon="4.56179">
        <ele>371</ele>
        <time>2021-06-11T00:43:47Z</time>
      </trkpt>
      <trkpt lat="45.48387" lon="4.56169">
        <ele>371</ele>
        <time>2021-06-11T00:43:53Z</time>
      </trkpt>
      <trkpt lat="45.48367" lon="4.56169">
        <ele>371</ele>
        <time>2021-06-11T00:43:56Z</time>
      </trkpt>
      <trkpt lat="45.48353" lon="4.56176">
        <ele>371</ele>
        <time>2021-06-11T00:43:59Z</time>
      </trkpt>
      <trkpt lat="45.48341" lon="4.56189">
        <ele>370</ele>
        <time>2021-06-11T00:44:02Z</time>
      </trkpt>
      <trkpt lat="45.48326" lon="4.56256">
        <ele>368</ele>
        <time>2021-06-11T00:44:10Z</time>
      </trkpt>
      <trkpt lat="45.48314" lon="4.56269">
        <ele>370</ele>
        <time>2021-06-11T00:44:13Z</time>
      </trkpt>
      <trkpt lat="45.48298" lon="4.56273">
        <ele>373</ele>
        <time>2021-06-11T00:44:16Z</time>
      </trkpt>
      <trkpt lat="45.48263" lon="4.56275">
        <ele>379</ele>
        <time>2021-06-11T00:44:22Z</time>
      </trkpt>
      <trkpt lat="45.48255" lon="4.56281">
        <ele>381</ele>
        <time>2021-06-11T00:44:24Z</time>
      </trkpt>
      <trkpt lat="45.48252" lon="4.56293">
        <ele>381</ele>
        <time>2021-06-11T00:44:25Z</time>
      </trkpt>
      <trkpt lat="45.48256" lon="4.56307">
        <ele>381</ele>
        <time>2021-06-11T00:44:27Z</time>
      </trkpt>
      <trkpt lat="45.48266" lon="4.56317">
        <ele>379</ele>
        <time>2021-06-11T00:44:29Z</time>
      </trkpt>
      <trkpt lat="45.48288" lon="4.56327">
        <ele>376</ele>
        <time>2021-06-11T00:44:34Z</time>
      </trkpt>
      <trkpt lat="45.48321" lon="4.56348">
        <ele>373</ele>
        <time>2021-06-11T00:44:40Z</time>
      </trkpt>
      <trkpt lat="45.48351" lon="4.56377">
        <ele>374</ele>
        <time>2021-06-11T00:44:46Z</time>
      </trkpt>
      <trkpt lat="45.48373" lon="4.56407">
        <ele>375</ele>
        <time>2021-06-11T00:44:52Z</time>
      </trkpt>
      <trkpt lat="45.48398" lon="4.56465">
        <ele>377</ele>
        <time>2021-06-11T00:45:00Z</time>
      </trkpt>
      <trkpt lat="45.4842" lon="4.56525">
        <ele>379</ele>
        <time>2021-06-11T00:45:09Z</time>
      </trkpt>
      <trkpt lat="45.48469" lon="4.56629">
        <ele>383</ele>
        <time>2021-06-11T00:45:24Z</time>
      </trkpt>
      <trkpt lat="45.4848" lon="4.56668">
        <ele>385</ele>
        <time>2021-06-11T00:45:30Z</time>
      </trkpt>
      <trkpt lat="45.48506" lon="4.56836">
        <ele>392</ele>
        <time>2021-06-11T00:45:51Z</time>
      </trkpt>
      <trkpt lat="45.48513" lon="4.56903">
        <ele>391</ele>
        <time>2021-06-11T00:46:00Z</time>
      </trkpt>
      <trkpt lat="45.48504" lon="4.56931">
        <ele>393</ele>
        <time>2021-06-11T00:46:03Z</time>
      </trkpt>
      <trkpt lat="45.48477" lon="4.56996">
        <ele>395</ele>
        <time>2021-06-11T00:46:13Z</time>
      </trkpt>
      <trkpt lat="45.4847" lon="4.57008">
        <ele>394</ele>
        <time>2021-06-11T00:46:15Z</time>
      </trkpt>
      <trkpt lat="45.48458" lon="4.57014">
        <ele>395</ele>
        <time>2021-06-11T00:46:17Z</time>
      </trkpt>
      <trkpt lat="45.48433" lon="4.57014">
        <ele>396</ele>
        <time>2021-06-11T00:46:21Z</time>
      </trkpt>
      <trkpt lat="45.48429" lon="4.57016">
        <ele>396</ele>
        <time>2021-06-11T00:46:22Z</time>
      </trkpt>
      <trkpt lat="45.48395" lon="4.57113">
        <ele>390</ele>
        <time>2021-06-11T00:46:36Z</time>
      </trkpt>
      <trkpt lat="45.48366" lon="4.57185">
        <ele>392</ele>
        <time>2021-06-11T00:46:46Z</time>
      </trkpt>
      <trkpt lat="45.48295" lon="4.57281">
        <ele>402</ele>
        <time>2021-06-11T00:47:04Z</time>
      </trkpt>
      <trkpt lat="45.48265" lon="4.57332">
        <ele>407</ele>
        <time>2021-06-11T00:47:12Z</time>
      </trkpt>
      <trkpt lat="45.48265" lon="4.57341">
        <ele>407</ele>
        <time>2021-06-11T00:47:13Z</time>
      </trkpt>
      <trkpt lat="45.48243" lon="4.57348">
        <ele>409</ele>
        <time>2021-06-11T00:47:17Z</time>
      </trkpt>
      <trkpt lat="45.48234" lon="4.57355">
        <ele>410</ele>
        <time>2021-06-11T00:47:19Z</time>
      </trkpt>
      <trkpt lat="45.48223" lon="4.57397">
        <ele>412</ele>
        <time>2021-06-11T00:47:24Z</time>
      </trkpt>
      <trkpt lat="45.48223" lon="4.57412">
        <ele>412</ele>
        <time>2021-06-11T00:47:26Z</time>
      </trkpt>
      <trkpt lat="45.48229" lon="4.57446">
        <ele>411</ele>
        <time>2021-06-11T00:47:31Z</time>
      </trkpt>
      <trkpt lat="45.48235" lon="4.57465">
        <ele>410</ele>
        <time>2021-06-11T00:47:33Z</time>
      </trkpt>
      <trkpt lat="45.48228" lon="4.57531">
        <ele>408</ele>
        <time>2021-06-11T00:47:42Z</time>
      </trkpt>
      <trkpt lat="45.48222" lon="4.57557">
        <ele>408</ele>
        <time>2021-06-11T00:47:45Z</time>
      </trkpt>
      <trkpt lat="45.48162" lon="4.5774">
        <ele>407</ele>
        <time>2021-06-11T00:48:10Z</time>
      </trkpt>
      <trkpt lat="45.4813" lon="4.57828">
        <ele>407</ele>
        <time>2021-06-11T00:48:23Z</time>
      </trkpt>
      <trkpt lat="45.48131" lon="4.57833">
        <ele>407</ele>
        <time>2021-06-11T00:48:23Z</time>
      </trkpt>
      <trkpt lat="45.48091" lon="4.57862">
        <ele>409</ele>
        <time>2021-06-11T00:48:31Z</time>
      </trkpt>
      <trkpt lat="45.47917" lon="4.57938">
        <ele>418</ele>
        <time>2021-06-11T00:49:04Z</time>
      </trkpt>
      <trkpt lat="45.47869" lon="4.57964">
        <ele>422</ele>
        <time>2021-06-11T00:49:13Z</time>
      </trkpt>
      <trkpt lat="45.47833" lon="4.57994">
        <ele>424</ele>
        <time>2021-06-11T00:49:20Z</time>
      </trkpt>
      <trkpt lat="45.47694" lon="4.58148">
        <ele>423</ele>
        <time>2021-06-11T00:49:51Z</time>
      </trkpt>
      <trkpt lat="45.47648" lon="4.58193">
        <ele>425</ele>
        <time>2021-06-11T00:50:01Z</time>
      </trkpt>
      <trkpt lat="45.47619" lon="4.58214">
        <ele>426</ele>
        <time>2021-06-11T00:50:07Z</time>
      </trkpt>
      <trkpt lat="45.476" lon="4.58219">
        <ele>427</ele>
        <time>2021-06-11T00:50:11Z</time>
      </trkpt>
      <trkpt lat="45.47585" lon="4.5822">
        <ele>427</ele>
        <time>2021-06-11T00:50:13Z</time>
      </trkpt>
      <trkpt lat="45.47559" lon="4.58212">
        <ele>426</ele>
        <time>2021-06-11T00:50:18Z</time>
      </trkpt>
      <trkpt lat="45.47494" lon="4.58168">
        <ele>426</ele>
        <time>2021-06-11T00:50:31Z</time>
      </trkpt>
      <trkpt lat="45.47466" lon="4.58153">
        <ele>429</ele>
        <time>2021-06-11T00:50:36Z</time>
      </trkpt>
      <trkpt lat="45.47454" lon="4.58151">
        <ele>431</ele>
        <time>2021-06-11T00:50:38Z</time>
      </trkpt>
      <trkpt lat="45.47441" lon="4.58153">
        <ele>432</ele>
        <time>2021-06-11T00:50:41Z</time>
      </trkpt>
      <trkpt lat="45.47428" lon="4.58158">
        <ele>433</ele>
        <time>2021-06-11T00:50:43Z</time>
      </trkpt>
      <trkpt lat="45.47415" lon="4.58168">
        <ele>434</ele>
        <time>2021-06-11T00:50:46Z</time>
      </trkpt>
      <trkpt lat="45.47353" lon="4.58244">
        <ele>433</ele>
        <time>2021-06-11T00:51:00Z</time>
      </trkpt>
      <trkpt lat="45.47333" lon="4.58262">
        <ele>433</ele>
        <time>2021-06-11T00:51:04Z</time>
      </trkpt>
      <trkpt lat="45.47309" lon="4.58279">
        <ele>433</ele>
        <time>2021-06-11T00:51:09Z</time>
      </trkpt>
      <trkpt lat="45.46964" lon="4.58463">
        <ele>436</ele>
        <time>2021-06-11T00:52:15Z</time>
      </trkpt>
      <trkpt lat="45.46942" lon="4.58468">
        <ele>435</ele>
        <time>2021-06-11T00:52:19Z</time>
      </trkpt>
      <trkpt lat="45.46922" lon="4.58468">
        <ele>436</ele>
        <time>2021-06-11T00:52:22Z</time>
      </trkpt>
      <trkpt lat="45.46822" lon="4.58449">
        <ele>438</ele>
        <time>2021-06-11T00:52:40Z</time>
      </trkpt>
      <trkpt lat="45.46793" lon="4.58441">
        <ele>439</ele>
        <time>2021-06-11T00:52:45Z</time>
      </trkpt>
      <trkpt lat="45.46675" lon="4.58393">
        <ele>442</ele>
        <time>2021-06-11T00:53:07Z</time>
      </trkpt>
      <trkpt lat="45.4666" lon="4.58391">
        <ele>442</ele>
        <time>2021-06-11T00:53:10Z</time>
      </trkpt>
      <trkpt lat="45.46646" lon="4.58392">
        <ele>442</ele>
        <time>2021-06-11T00:53:12Z</time>
      </trkpt>
      <trkpt lat="45.46449" lon="4.58436">
        <ele>441</ele>
        <time>2021-06-11T00:53:48Z</time>
      </trkpt>
      <trkpt lat="45.46426" lon="4.58439">
        <ele>440</ele>
        <time>2021-06-11T00:53:52Z</time>
      </trkpt>
      <trkpt lat="45.46389" lon="4.58431">
        <ele>440</ele>
        <time>2021-06-11T00:53:59Z</time>
      </trkpt>
      <trkpt lat="45.46345" lon="4.58407">
        <ele>442</ele>
        <time>2021-06-11T00:54:07Z</time>
      </trkpt>
      <trkpt lat="45.46327" lon="4.58393">
        <ele>443</ele>
        <time>2021-06-11T00:54:11Z</time>
      </trkpt>
      <trkpt lat="45.46286" lon="4.58351">
        <ele>447</ele>
        <time>2021-06-11T00:54:20Z</time>
      </trkpt>
      <trkpt lat="45.46263" lon="4.58332">
        <ele>448</ele>
        <time>2021-06-11T00:54:24Z</time>
      </trkpt>
      <trkpt lat="45.46247" lon="4.58323">
        <ele>448</ele>
        <time>2021-06-11T00:54:27Z</time>
      </trkpt>
      <trkpt lat="45.46146" lon="4.5828">
        <ele>451</ele>
        <time>2021-06-11T00:54:46Z</time>
      </trkpt>
      <trkpt lat="45.46101" lon="4.58265">
        <ele>454</ele>
        <time>2021-06-11T00:54:54Z</time>
      </trkpt>
      <trkpt lat="45.46048" lon="4.58254">
        <ele>456</ele>
        <time>2021-06-11T00:55:04Z</time>
      </trkpt>
      <trkpt lat="45.4602" lon="4.58251">
        <ele>457</ele>
        <time>2021-06-11T00:55:09Z</time>
      </trkpt>
      <trkpt lat="45.45867" lon="4.58258">
        <ele>449</ele>
        <time>2021-06-11T00:55:36Z</time>
      </trkpt>
      <trkpt lat="45.45852" lon="4.58254">
        <ele>449</ele>
        <time>2021-06-11T00:55:39Z</time>
      </trkpt>
      <trkpt lat="45.45839" lon="4.58249">
        <ele>449</ele>
        <time>2021-06-11T00:55:41Z</time>
      </trkpt>
      <trkpt lat="45.45683" lon="4.58158">
        <ele>454</ele>
        <time>2021-06-11T00:56:11Z</time>
      </trkpt>
      <trkpt lat="45.45659" lon="4.58149">
        <ele>453</ele>
        <time>2021-06-11T00:56:16Z</time>
      </trkpt>
      <trkpt lat="45.45643" lon="4.58147">
        <ele>454</ele>
        <time>2021-06-11T00:56:19Z</time>
      </trkpt>
      <trkpt lat="45.45561" lon="4.58159">
        <ele>453</ele>
        <time>2021-06-11T00:56:33Z</time>
      </trkpt>
      <trkpt lat="45.45542" lon="4.58157">
        <ele>453</ele>
        <time>2021-06-11T00:56:37Z</time>
      </trkpt>
      <trkpt lat="45.45526" lon="4.58151">
        <ele>453</ele>
        <time>2021-06-11T00:56:40Z</time>
      </trkpt>
      <trkpt lat="45.45482" lon="4.58128">
        <ele>456</ele>
        <time>2021-06-11T00:56:48Z</time>
      </trkpt>
      <trkpt lat="45.45461" lon="4.58114">
        <ele>457</ele>
        <time>2021-06-11T00:56:52Z</time>
      </trkpt>
      <trkpt lat="45.45397" lon="4.5806">
        <ele>464</ele>
        <time>2021-06-11T00:57:05Z</time>
      </trkpt>
      <trkpt lat="45.45381" lon="4.58053">
        <ele>465</ele>
        <time>2021-06-11T00:57:08Z</time>
      </trkpt>
      <trkpt lat="45.45373" lon="4.58052">
        <ele>465</ele>
        <time>2021-06-11T00:57:10Z</time>
      </trkpt>
      <trkpt lat="45.45359" lon="4.58059">
        <ele>464</ele>
        <time>2021-06-11T00:57:12Z</time>
      </trkpt>
      <trkpt lat="45.45351" lon="4.58068">
        <ele>463</ele>
        <time>2021-06-11T00:57:14Z</time>
      </trkpt>
      <trkpt lat="45.45343" lon="4.58088">
        <ele>461</ele>
        <time>2021-06-11T00:57:17Z</time>
      </trkpt>
      <trkpt lat="45.45327" lon="4.58193">
        <ele>458</ele>
        <time>2021-06-11T00:57:30Z</time>
      </trkpt>
      <trkpt lat="45.45314" lon="4.58222">
        <ele>456</ele>
        <time>2021-06-11T00:57:35Z</time>
      </trkpt>
      <trkpt lat="45.45303" lon="4.58231">
        <ele>456</ele>
        <time>2021-06-11T00:57:37Z</time>
      </trkpt>
      <trkpt lat="45.45295" lon="4.58234">
        <ele>456</ele>
        <time>2021-06-11T00:57:38Z</time>
      </trkpt>
      <trkpt lat="45.4527" lon="4.58232">
        <ele>457</ele>
        <time>2021-06-11T00:57:43Z</time>
      </trkpt>
      <trkpt lat="45.45198" lon="4.58214">
        <ele>463</ele>
        <time>2021-06-11T00:57:56Z</time>
      </trkpt>
      <trkpt lat="45.45153" lon="4.58217">
        <ele>465</ele>
        <time>2021-06-11T00:58:04Z</time>
      </trkpt>
      <trkpt lat="45.45144" lon="4.58221">
        <ele>465</ele>
        <time>2021-06-11T00:58:06Z</time>
      </trkpt>
      <trkpt lat="45.45131" lon="4.58232">
        <ele>465</ele>
        <time>2021-06-11T00:58:08Z</time>
      </trkpt>
      <trkpt lat="45.45104" lon="4.5827">
        <ele>462</ele>
        <time>2021-06-11T00:58:15Z</time>
      </trkpt>
      <trkpt lat="45.45088" lon="4.58287">
        <ele>461</ele>
        <time>2021-06-11T00:58:19Z</time>
      </trkpt>
      <trkpt lat="45.4508" lon="4.58291">
        <ele>461</ele>
        <time>2021-06-11T00:58:20Z</time>
      </trkpt>
      <trkpt lat="45.45038" lon="4.58302">
        <ele>460</ele>
        <time>2021-06-11T00:58:28Z</time>
      </trkpt>
      <trkpt lat="45.45027" lon="4.58296">
        <ele>461</ele>
        <time>2021-06-11T00:58:30Z</time>
      </trkpt>
      <trkpt lat="45.44993" lon="4.58262">
        <ele>469</ele>
        <time>2021-06-11T00:58:37Z</time>
      </trkpt>
      <trkpt lat="45.44975" lon="4.58257">
        <ele>471</ele>
        <time>2021-06-11T00:58:40Z</time>
      </trkpt>
      <trkpt lat="45.44966" lon="4.58259">
        <ele>471</ele>
        <time>2021-06-11T00:58:42Z</time>
      </trkpt>
      <trkpt lat="45.44889" lon="4.58307">
        <ele>463</ele>
        <time>2021-06-11T00:58:57Z</time>
      </trkpt>
      <trkpt lat="45.44875" lon="4.58311">
        <ele>462</ele>
        <time>2021-06-11T00:59:00Z</time>
      </trkpt>
      <trkpt lat="45.4486" lon="4.58308">
        <ele>463</ele>
        <time>2021-06-11T00:59:02Z</time>
      </trkpt>
      <trkpt lat="45.44831" lon="4.58288">
        <ele>467</ele>
        <time>2021-06-11T00:59:08Z</time>
      </trkpt>
      <trkpt lat="45.44811" lon="4.58279">
        <ele>469</ele>
        <time>2021-06-11T00:59:12Z</time>
      </trkpt>
      <trkpt lat="45.44771" lon="4.58276">
        <ele>470</ele>
        <time>2021-06-11T00:59:19Z</time>
      </trkpt>
      <trkpt lat="45.44739" lon="4.58278">
        <ele>470</ele>
        <time>2021-06-11T00:59:25Z</time>
      </trkpt>
      <trkpt lat="45.44731" lon="4.58281">
        <ele>470</ele>
        <time>2021-06-11T00:59:26Z</time>
      </trkpt>
      <trkpt lat="45.44725" lon="4.58295">
        <ele>468</ele>
        <time>2021-06-11T00:59:28Z</time>
      </trkpt>
      <trkpt lat="45.44721" lon="4.58353">
        <ele>464</ele>
        <time>2021-06-11T00:59:35Z</time>
      </trkpt>
      <trkpt lat="45.44688" lon="4.58353">
        <ele>466</ele>
        <time>2021-06-11T00:59:41Z</time>
      </trkpt>
      <trkpt lat="45.44648" lon="4.58342">
        <ele>470</ele>
        <time>2021-06-11T00:59:48Z</time>
      </trkpt>
      <trkpt lat="45.44623" lon="4.58329">
        <ele>475</ele>
        <time>2021-06-11T00:59:53Z</time>
      </trkpt>
      <trkpt lat="45.44611" lon="4.58317">
        <ele>477</ele>
        <time>2021-06-11T00:59:56Z</time>
      </trkpt>
      <trkpt lat="45.44597" lon="4.58294">
        <ele>480</ele>
        <time>2021-06-11T01:00:00Z</time>
      </trkpt>
      <trkpt lat="45.44591" lon="4.58262">
        <ele>480</ele>
        <time>2021-06-11T01:00:04Z</time>
      </trkpt>
      <trkpt lat="45.44587" lon="4.58202">
        <ele>480</ele>
        <time>2021-06-11T01:00:11Z</time>
      </trkpt>
      <trkpt lat="45.44579" lon="4.58176">
        <ele>481</ele>
        <time>2021-06-11T01:00:15Z</time>
      </trkpt>
      <trkpt lat="45.44573" lon="4.58165">
        <ele>481</ele>
        <time>2021-06-11T01:00:17Z</time>
      </trkpt>
      <trkpt lat="45.44527" lon="4.58102">
        <ele>485</ele>
        <time>2021-06-11T01:00:28Z</time>
      </trkpt>
      <trkpt lat="45.44502" lon="4.58077">
        <ele>486</ele>
        <time>2021-06-11T01:00:33Z</time>
      </trkpt>
      <trkpt lat="45.44455" lon="4.58013">
        <ele>486</ele>
        <time>2021-06-11T01:00:45Z</time>
      </trkpt>
      <trkpt lat="45.4444" lon="4.58001">
        <ele>486</ele>
        <time>2021-06-11T01:00:48Z</time>
      </trkpt>
      <trkpt lat="45.4439" lon="4.57979">
        <ele>491</ele>
        <time>2021-06-11T01:00:57Z</time>
      </trkpt>
      <trkpt lat="45.44379" lon="4.57981">
        <ele>493</ele>
        <time>2021-06-11T01:00:59Z</time>
      </trkpt>
      <trkpt lat="45.44364" lon="4.57992">
        <ele>496</ele>
        <time>2021-06-11T01:01:02Z</time>
      </trkpt>
      <trkpt lat="45.44354" lon="4.58014">
        <ele>499</ele>
        <time>2021-06-11T01:01:06Z</time>
      </trkpt>
      <trkpt lat="45.44352" lon="4.58039">
        <ele>501</ele>
        <time>2021-06-11T01:01:09Z</time>
      </trkpt>
      <trkpt lat="45.44355" lon="4.58051">
        <ele>502</ele>
        <time>2021-06-11T01:01:10Z</time>
      </trkpt>
      <trkpt lat="45.44367" lon="4.58072">
        <ele>502</ele>
        <time>2021-06-11T01:01:14Z</time>
      </trkpt>
      <trkpt lat="45.44411" lon="4.5811">
        <ele>501</ele>
        <time>2021-06-11T01:01:23Z</time>
      </trkpt>
      <trkpt lat="45.44424" lon="4.58128">
        <ele>500</ele>
        <time>2021-06-11T01:01:26Z</time>
      </trkpt>
      <trkpt lat="45.44427" lon="4.5814">
        <ele>501</ele>
        <time>2021-06-11T01:01:28Z</time>
      </trkpt>
      <trkpt lat="45.44425" lon="4.58169">
        <ele>503</ele>
        <time>2021-06-11T01:01:31Z</time>
      </trkpt>
      <trkpt lat="45.44421" lon="4.58181">
        <ele>505</ele>
        <time>2021-06-11T01:01:33Z</time>
      </trkpt>
      <trkpt lat="45.44406" lon="4.58198">
        <ele>508</ele>
        <time>2021-06-11T01:01:36Z</time>
      </trkpt>
      <trkpt lat="45.44388" lon="4.58202">
        <ele>511</ele>
        <time>2021-06-11T01:01:40Z</time>
      </trkpt>
      <trkpt lat="45.44368" lon="4.58192">
        <ele>513</ele>
        <time>2021-06-11T01:01:43Z</time>
      </trkpt>
      <trkpt lat="45.44281" lon="4.58108">
        <ele>516</ele>
        <time>2021-06-11T01:02:02Z</time>
      </trkpt>
      <trkpt lat="45.44226" lon="4.5806">
        <ele>520</ele>
        <time>2021-06-11T01:02:13Z</time>
      </trkpt>
      <trkpt lat="45.44214" lon="4.58083">
        <ele>523</ele>
        <time>2021-06-11T01:02:17Z</time>
      </trkpt>
      <trkpt lat="45.44214" lon="4.58102">
        <ele>525</ele>
        <time>2021-06-11T01:02:19Z</time>
      </trkpt>
      <trkpt lat="45.44222" lon="4.58125">
        <ele>527</ele>
        <time>2021-06-11T01:02:23Z</time>
      </trkpt>
      <trkpt lat="45.44248" lon="4.5816">
        <ele>527</ele>
        <time>2021-06-11T01:02:29Z</time>
      </trkpt>
      <trkpt lat="45.44287" lon="4.5825">
        <ele>532</ele>
        <time>2021-06-11T01:02:42Z</time>
      </trkpt>
      <trkpt lat="45.44318" lon="4.58296">
        <ele>533</ele>
        <time>2021-06-11T01:02:50Z</time>
      </trkpt>
      <trkpt lat="45.4432" lon="4.58303">
        <ele>533</ele>
        <time>2021-06-11T01:02:51Z</time>
      </trkpt>
      <trkpt lat="45.44319" lon="4.58316">
        <ele>535</ele>
        <time>2021-06-11T01:02:53Z</time>
      </trkpt>
      <trkpt lat="45.44312" lon="4.58324">
        <ele>538</ele>
        <time>2021-06-11T01:02:54Z</time>
      </trkpt>
      <trkpt lat="45.44307" lon="4.58324">
        <ele>539</ele>
        <time>2021-06-11T01:02:55Z</time>
      </trkpt>
      <trkpt lat="45.44301" lon="4.58321">
        <ele>540</ele>
        <time>2021-06-11T01:02:56Z</time>
      </trkpt>
      <trkpt lat="45.4425" lon="4.58267">
        <ele>541</ele>
        <time>2021-06-11T01:03:08Z</time>
      </trkpt>
      <trkpt lat="45.4422" lon="4.58244">
        <ele>543</ele>
        <time>2021-06-11T01:03:14Z</time>
      </trkpt>
      <trkpt lat="45.44091" lon="4.58159">
        <ele>554</ele>
        <time>2021-06-11T01:03:39Z</time>
      </trkpt>
      <trkpt lat="45.44059" lon="4.5814">
        <ele>557</ele>
        <time>2021-06-11T01:03:45Z</time>
      </trkpt>
      <trkpt lat="45.43985" lon="4.58115">
        <ele>564</ele>
        <time>2021-06-11T01:03:59Z</time>
      </trkpt>
      <trkpt lat="45.43935" lon="4.58084">
        <ele>568</ele>
        <time>2021-06-11T01:04:08Z</time>
      </trkpt>
      <trkpt lat="45.43901" lon="4.5807">
        <ele>572</ele>
        <time>2021-06-11T01:04:15Z</time>
      </trkpt>
      <trkpt lat="45.43886" lon="4.58056">
        <ele>573</ele>
        <time>2021-06-11T01:04:18Z</time>
      </trkpt>
      <trkpt lat="45.43844" lon="4.57997">
        <ele>573</ele>
        <time>2021-06-11T01:04:28Z</time>
      </trkpt>
      <trkpt lat="45.43802" lon="4.57956">
        <ele>577</ele>
        <time>2021-06-11T01:04:37Z</time>
      </trkpt>
      <trkpt lat="45.43749" lon="4.5791">
        <ele>580</ele>
        <time>2021-06-11T01:04:49Z</time>
      </trkpt>
      <trkpt lat="45.43719" lon="4.57892">
        <ele>579</ele>
        <time>2021-06-11T01:04:54Z</time>
      </trkpt>
      <trkpt lat="45.43696" lon="4.57889">
        <ele>581</ele>
        <time>2021-06-11T01:04:58Z</time>
      </trkpt>
      <trkpt lat="45.43667" lon="4.57889">
        <ele>583</ele>
        <time>2021-06-11T01:05:04Z</time>
      </trkpt>
      <trkpt lat="45.43656" lon="4.57884">
        <ele>583</ele>
        <time>2021-06-11T01:05:06Z</time>
      </trkpt>
      <trkpt lat="45.43627" lon="4.57846">
        <ele>580</ele>
        <time>2021-06-11T01:05:13Z</time>
      </trkpt>
      <trkpt lat="45.43548" lon="4.57842">
        <ele>583</ele>
        <time>2021-06-11T01:05:27Z</time>
      </trkpt>
      <trkpt lat="45.43506" lon="4.57824">
        <ele>581</ele>
        <time>2021-06-11T01:05:34Z</time>
      </trkpt>
      <trkpt lat="45.43481" lon="4.57819">
        <ele>579</ele>
        <time>2021-06-11T01:05:39Z</time>
      </trkpt>
      <trkpt lat="45.43445" lon="4.5782">
        <ele>579</ele>
        <time>2021-06-11T01:05:45Z</time>
      </trkpt>
      <trkpt lat="45.43421" lon="4.57831">
        <ele>581</ele>
        <time>2021-06-11T01:05:50Z</time>
      </trkpt>
      <trkpt lat="45.434" lon="4.57852">
        <ele>582</ele>
        <time>2021-06-11T01:05:54Z</time>
      </trkpt>
      <trkpt lat="45.43381" lon="4.57901">
        <ele>589</ele>
        <time>2021-06-11T01:06:01Z</time>
      </trkpt>
      <trkpt lat="45.43373" lon="4.57912">
        <ele>591</ele>
        <time>2021-06-11T01:06:03Z</time>
      </trkpt>
      <trkpt lat="45.43358" lon="4.57923">
        <ele>591</ele>
        <time>2021-06-11T01:06:06Z</time>
      </trkpt>
      <trkpt lat="45.43329" lon="4.5793">
        <ele>589</ele>
        <time>2021-06-11T01:06:12Z</time>
      </trkpt>
      <trkpt lat="45.43286" lon="4.57977">
        <ele>598</ele>
        <time>2021-06-11T01:06:21Z</time>
      </trkpt>
      <trkpt lat="45.43252" lon="4.58008">
        <ele>605</ele>
        <time>2021-06-11T01:06:28Z</time>
      </trkpt>
      <trkpt lat="45.43237" lon="4.58018">
        <ele>607</ele>
        <time>2021-06-11T01:06:31Z</time>
      </trkpt>
      <trkpt lat="45.43133" lon="4.58057">
        <ele>611</ele>
        <time>2021-06-11T01:06:51Z</time>
      </trkpt>
      <trkpt lat="45.43109" lon="4.58069">
        <ele>611</ele>
        <time>2021-06-11T01:06:55Z</time>
      </trkpt>
      <trkpt lat="45.43088" lon="4.58083">
        <ele>613</ele>
        <time>2021-06-11T01:06:59Z</time>
      </trkpt>
      <trkpt lat="45.43064" lon="4.58109">
        <ele>612</ele>
        <time>2021-06-11T01:07:05Z</time>
      </trkpt>
      <trkpt lat="45.43008" lon="4.58214">
        <ele>616</ele>
        <time>2021-06-11T01:07:21Z</time>
      </trkpt>
      <trkpt lat="45.42982" lon="4.58301">
        <ele>619</ele>
        <time>2021-06-11T01:07:33Z</time>
      </trkpt>
      <trkpt lat="45.42962" lon="4.58425">
        <ele>626</ele>
        <time>2021-06-11T01:07:49Z</time>
      </trkpt>
      <trkpt lat="45.42968" lon="4.58492">
        <ele>630</ele>
        <time>2021-06-11T01:07:57Z</time>
      </trkpt>
      <trkpt lat="45.4298" lon="4.5853">
        <ele>633</ele>
        <time>2021-06-11T01:08:02Z</time>
      </trkpt>
      <trkpt lat="45.43029" lon="4.58641">
        <ele>640</ele>
        <time>2021-06-11T01:08:19Z</time>
      </trkpt>
      <trkpt lat="45.43038" lon="4.58678">
        <ele>642</ele>
        <time>2021-06-11T01:08:24Z</time>
      </trkpt>
      <trkpt lat="45.43033" lon="4.5879">
        <ele>650</ele>
        <time>2021-06-11T01:08:38Z</time>
      </trkpt>
      <trkpt lat="45.43023" lon="4.58812">
        <ele>651</ele>
        <time>2021-06-11T01:08:41Z</time>
      </trkpt>
      <trkpt lat="45.43006" lon="4.58814">
        <ele>649</ele>
        <time>2021-06-11T01:08:44Z</time>
      </trkpt>
      <trkpt lat="45.42986" lon="4.58802">
        <ele>648</ele>
        <time>2021-06-11T01:08:48Z</time>
      </trkpt>
      <trkpt lat="45.42918" lon="4.58748">
        <ele>643</ele>
        <time>2021-06-11T01:09:02Z</time>
      </trkpt>
      <trkpt lat="45.42891" lon="4.58735">
        <ele>639</ele>
        <time>2021-06-11T01:09:07Z</time>
      </trkpt>
      <trkpt lat="45.42865" lon="4.58729">
        <ele>637</ele>
        <time>2021-06-11T01:09:11Z</time>
      </trkpt>
      <trkpt lat="45.42843" lon="4.58741">
        <ele>639</ele>
        <time>2021-06-11T01:09:16Z</time>
      </trkpt>
      <trkpt lat="45.42834" lon="4.58756">
        <ele>642</ele>
        <time>2021-06-11T01:09:18Z</time>
      </trkpt>
      <trkpt lat="45.42822" lon="4.58787">
        <ele>643</ele>
        <time>2021-06-11T01:09:23Z</time>
      </trkpt>
      <trkpt lat="45.42818" lon="4.58863">
        <ele>651</ele>
        <time>2021-06-11T01:09:32Z</time>
      </trkpt>
      <trkpt lat="45.42799" lon="4.58999">
        <ele>660</ele>
        <time>2021-06-11T01:09:49Z</time>
      </trkpt>
      <trkpt lat="45.42776" lon="4.59066">
        <ele>659</ele>
        <time>2021-06-11T01:09:59Z</time>
      </trkpt>
      <trkpt lat="45.4278" lon="4.5911">
        <ele>665</ele>
        <time>2021-06-11T01:10:04Z</time>
      </trkpt>
      <trkpt lat="45.42781" lon="4.5916">
        <ele>672</ele>
        <time>2021-06-11T01:10:10Z</time>
      </trkpt>
      <trkpt lat="45.42776" lon="4.59188">
        <ele>673</ele>
        <time>2021-06-11T01:10:14Z</time>
      </trkpt>
      <trkpt lat="45.42762" lon="4.59198">
        <ele>670</ele>
        <time>2021-06-11T01:10:17Z</time>
      </trkpt>
      <trkpt lat="45.42738" lon="4.59184">
        <ele>668</ele>
        <time>2021-06-11T01:10:21Z</time>
      </trkpt>
      <trkpt lat="45.42715" lon="4.59104">
        <ele>667</ele>
        <time>2021-06-11T01:10:32Z</time>
      </trkpt>
      <trkpt lat="45.42717" lon="4.5897">
        <ele>651</ele>
        <time>2021-06-11T01:10:49Z</time>
      </trkpt>
      <trkpt lat="45.42715" lon="4.58938">
        <ele>646</ele>
        <time>2021-06-11T01:10:53Z</time>
      </trkpt>
      <trkpt lat="45.42705" lon="4.58894">
        <ele>642</ele>
        <time>2021-06-11T01:10:59Z</time>
      </trkpt>
      <trkpt lat="45.42673" lon="4.58865">
        <ele>642</ele>
        <time>2021-06-11T01:11:06Z</time>
      </trkpt>
      <trkpt lat="45.42651" lon="4.58851">
        <ele>641</ele>
        <time>2021-06-11T01:11:10Z</time>
      </trkpt>
      <trkpt lat="45.42627" lon="4.58844">
        <ele>642</ele>
        <time>2021-06-11T01:11:14Z</time>
      </trkpt>
      <trkpt lat="45.426" lon="4.58841">
        <ele>643</ele>
        <time>2021-06-11T01:11:19Z</time>
      </trkpt>
      <trkpt lat="45.42407" lon="4.58892">
        <ele>662</ele>
        <time>2021-06-11T01:11:54Z</time>
      </trkpt>
      <trkpt lat="45.42389" lon="4.58933">
        <ele>672</ele>
        <time>2021-06-11T01:12:00Z</time>
      </trkpt>
      <trkpt lat="45.42373" lon="4.58949">
        <ele>674</ele>
        <time>2021-06-11T01:12:03Z</time>
      </trkpt>
      <trkpt lat="45.42362" lon="4.5897">
        <ele>677</ele>
        <time>2021-06-11T01:12:07Z</time>
      </trkpt>
      <trkpt lat="45.4236" lon="4.59019">
        <ele>685</ele>
        <time>2021-06-11T01:12:13Z</time>
      </trkpt>
      <trkpt lat="45.42351" lon="4.59039">
        <ele>687</ele>
        <time>2021-06-11T01:12:16Z</time>
      </trkpt>
      <trkpt lat="45.42331" lon="4.59062">
        <ele>691</ele>
        <time>2021-06-11T01:12:20Z</time>
      </trkpt>
      <trkpt lat="45.42321" lon="4.59064">
        <ele>694</ele>
        <time>2021-06-11T01:12:22Z</time>
      </trkpt>
      <trkpt lat="45.42305" lon="4.59043">
        <ele>695</ele>
        <time>2021-06-11T01:12:26Z</time>
      </trkpt>
      <trkpt lat="45.42291" lon="4.59004">
        <ele>694</ele>
        <time>2021-06-11T01:12:31Z</time>
      </trkpt>
      <trkpt lat="45.42273" lon="4.58928">
        <ele>690</ele>
        <time>2021-06-11T01:12:42Z</time>
      </trkpt>
      <trkpt lat="45.42254" lon="4.58895">
        <ele>691</ele>
        <time>2021-06-11T01:12:47Z</time>
      </trkpt>
      <trkpt lat="45.42208" lon="4.58848">
        <ele>700</ele>
        <time>2021-06-11T01:12:57Z</time>
      </trkpt>
      <trkpt lat="45.42178" lon="4.58798">
        <ele>699</ele>
        <time>2021-06-11T01:13:05Z</time>
      </trkpt>
      <trkpt lat="45.42073" lon="4.58723">
        <ele>711</ele>
        <time>2021-06-11T01:13:26Z</time>
      </trkpt>
      <trkpt lat="45.41937" lon="4.58644">
        <ele>715</ele>
        <time>2021-06-11T01:13:52Z</time>
      </trkpt>
      <trkpt lat="45.41858" lon="4.58627">
        <ele>721</ele>
        <time>2021-06-11T01:14:06Z</time>
      </trkpt>
      <trkpt lat="45.41702" lon="4.58651">
        <ele>734</ele>
        <time>2021-06-11T01:14:34Z</time>
      </trkpt>
      <trkpt lat="45.41633" lon="4.58669">
        <ele>739</ele>
        <time>2021-06-11T01:14:47Z</time>
      </trkpt>
      <trkpt lat="45.41579" lon="4.58666">
        <ele>735</ele>
        <time>2021-06-11T01:14:56Z</time>
      </trkpt>
      <trkpt lat="45.41353" lon="4.58703">
        <ele>729</ele>
        <time>2021-06-11T01:15:37Z</time>
      </trkpt>
      <trkpt lat="45.41234" lon="4.58755">
        <ele>732</ele>
        <time>2021-06-11T01:15:59Z</time>
      </trkpt>
      <trkpt lat="45.41216" lon="4.58766">
        <ele>734</ele>
        <time>2021-06-11T01:16:03Z</time>
      </trkpt>
      <trkpt lat="45.41192" lon="4.58805">
        <ele>737</ele>
        <time>2021-06-11T01:16:09Z</time>
      </trkpt>
      <trkpt lat="45.4117" lon="4.58832">
        <ele>734</ele>
        <time>2021-06-11T01:16:14Z</time>
      </trkpt>
      <trkpt lat="45.41106" lon="4.58893">
        <ele>742</ele>
        <time>2021-06-11T01:16:28Z</time>
      </trkpt>
      <trkpt lat="45.41066" lon="4.58938">
        <ele>744</ele>
        <time>2021-06-11T01:16:37Z</time>
      </trkpt>
      <trkpt lat="45.4097" lon="4.59052">
        <ele>756</ele>
        <time>2021-06-11T01:16:59Z</time>
      </trkpt>
      <trkpt lat="45.40966" lon="4.59066">
        <ele>758</ele>
        <time>2021-06-11T01:17:01Z</time>
      </trkpt>
      <trkpt lat="45.40947" lon="4.59088">
        <ele>760</ele>
        <time>2021-06-11T01:17:05Z</time>
      </trkpt>
      <trkpt lat="45.40936" lon="4.59094">
        <ele>762</ele>
        <time>2021-06-11T01:17:07Z</time>
      </trkpt>
      <trkpt lat="45.40925" lon="4.59096">
        <ele>762</ele>
        <time>2021-06-11T01:17:09Z</time>
      </trkpt>
      <trkpt lat="45.40915" lon="4.59093">
        <ele>761</ele>
        <time>2021-06-11T01:17:11Z</time>
      </trkpt>
      <trkpt lat="45.40896" lon="4.59082">
        <ele>760</ele>
        <time>2021-06-11T01:17:15Z</time>
      </trkpt>
      <trkpt lat="45.40872" lon="4.59078">
        <ele>764</ele>
        <time>2021-06-11T01:17:19Z</time>
      </trkpt>
      <trkpt lat="45.40852" lon="4.5908">
        <ele>765</ele>
        <time>2021-06-11T01:17:23Z</time>
      </trkpt>
      <trkpt lat="45.40834" lon="4.59088">
        <ele>766</ele>
        <time>2021-06-11T01:17:26Z</time>
      </trkpt>
      <trkpt lat="45.40833" lon="4.59097">
        <ele>765</ele>
        <time>2021-06-11T01:17:27Z</time>
      </trkpt>
      <trkpt lat="45.40837" lon="4.59117">
        <ele>765</ele>
        <time>2021-06-11T01:17:30Z</time>
      </trkpt>
      <trkpt lat="45.40839" lon="4.59123">
        <ele>765</ele>
        <time>2021-06-11T01:17:31Z</time>
      </trkpt>
      <trkpt lat="45.40849" lon="4.59136">
        <ele>766</ele>
        <time>2021-06-11T01:17:33Z</time>
      </trkpt>
      <trkpt lat="45.40874" lon="4.59143">
        <ele>770</ele>
        <time>2021-06-11T01:17:38Z</time>
      </trkpt>
      <trkpt lat="45.40922" lon="4.59145">
        <ele>778</ele>
        <time>2021-06-11T01:17:46Z</time>
      </trkpt>
      <trkpt lat="45.40963" lon="4.59134">
        <ele>776</ele>
        <time>2021-06-11T01:17:54Z</time>
      </trkpt>
      <trkpt lat="45.40995" lon="4.59119">
        <ele>772</ele>
        <time>2021-06-11T01:18:00Z</time>
      </trkpt>
      <trkpt lat="45.41019" lon="4.59119">
        <ele>778</ele>
        <time>2021-06-11T01:18:04Z</time>
      </trkpt>
      <trkpt lat="45.41026" lon="4.59116">
        <ele>780</ele>
        <time>2021-06-11T01:18:05Z</time>
      </trkpt>
      <trkpt lat="45.41035" lon="4.59106">
        <ele>780</ele>
        <time>2021-06-11T01:18:07Z</time>
      </trkpt>
      <trkpt lat="45.41046" lon="4.59079">
        <ele>776</ele>
        <time>2021-06-11T01:18:11Z</time>
      </trkpt>
      <trkpt lat="45.41067" lon="4.59059">
        <ele>778</ele>
        <time>2021-06-11T01:18:16Z</time>
      </trkpt>
      <trkpt lat="45.41095" lon="4.59019">
        <ele>776</ele>
        <time>2021-06-11T01:18:23Z</time>
      </trkpt>
      <trkpt lat="45.41103" lon="4.59015">
        <ele>778</ele>
        <time>2021-06-11T01:18:24Z</time>
      </trkpt>
      <trkpt lat="45.41126" lon="4.59012">
        <ele>787</ele>
        <time>2021-06-11T01:18:28Z</time>
      </trkpt>
      <trkpt lat="45.41138" lon="4.59006">
        <ele>790</ele>
        <time>2021-06-11T01:18:31Z</time>
      </trkpt>
      <trkpt lat="45.41193" lon="4.58966">
        <ele>789</ele>
        <time>2021-06-11T01:18:42Z</time>
      </trkpt>
      <trkpt lat="45.41212" lon="4.58956">
        <ele>789</ele>
        <time>2021-06-11T01:18:45Z</time>
      </trkpt>
      <trkpt lat="45.41253" lon="4.5894">
        <ele>790</ele>
        <time>2021-06-11T01:18:53Z</time>
      </trkpt>
      <trkpt lat="45.41281" lon="4.58935">
        <ele>793</ele>
        <time>2021-06-11T01:18:58Z</time>
      </trkpt>
      <trkpt lat="45.41352" lon="4.58906">
        <ele>794</ele>
        <time>2021-06-11T01:19:11Z</time>
      </trkpt>
      <trkpt lat="45.41452" lon="4.58892">
        <ele>807</ele>
        <time>2021-06-11T01:19:29Z</time>
      </trkpt>
      <trkpt lat="45.4151" lon="4.58892">
        <ele>814</ele>
        <time>2021-06-11T01:19:39Z</time>
      </trkpt>
      <trkpt lat="45.41608" lon="4.58886">
        <ele>815</ele>
        <time>2021-06-11T01:19:57Z</time>
      </trkpt>
      <trkpt lat="45.41685" lon="4.58889">
        <ele>815</ele>
        <time>2021-06-11T01:20:10Z</time>
      </trkpt>
      <trkpt lat="45.41717" lon="4.58895">
        <ele>811</ele>
        <time>2021-06-11T01:20:16Z</time>
      </trkpt>
      <trkpt lat="45.41848" lon="4.5903">
        <ele>825</ele>
        <time>2021-06-11T01:20:45Z</time>
      </trkpt>
      <trkpt lat="45.4194" lon="4.59135">
        <ele>839</ele>
        <time>2021-06-11T01:21:06Z</time>
      </trkpt>
      <trkpt lat="45.41962" lon="4.59173">
        <ele>840</ele>
        <time>2021-06-11T01:21:12Z</time>
      </trkpt>
      <trkpt lat="45.41974" lon="4.59199">
        <ele>838</ele>
        <time>2021-06-11T01:21:16Z</time>
      </trkpt>
      <trkpt lat="45.41979" lon="4.59227">
        <ele>837</ele>
        <time>2021-06-11T01:21:19Z</time>
      </trkpt>
      <trkpt lat="45.4198" lon="4.59252">
        <ele>838</ele>
        <time>2021-06-11T01:21:22Z</time>
      </trkpt>
      <trkpt lat="45.41975" lon="4.59271">
        <ele>839</ele>
        <time>2021-06-11T01:21:25Z</time>
      </trkpt>
      <trkpt lat="45.4197" lon="4.59323">
        <ele>841</ele>
        <time>2021-06-11T01:21:32Z</time>
      </trkpt>
      <trkpt lat="45.41971" lon="4.59361">
        <ele>841</ele>
        <time>2021-06-11T01:21:36Z</time>
      </trkpt>
      <trkpt lat="45.41954" lon="4.59447">
        <ele>853</ele>
        <time>2021-06-11T01:21:47Z</time>
      </trkpt>
      <trkpt lat="45.41959" lon="4.59461">
        <ele>854</ele>
        <time>2021-06-11T01:21:49Z</time>
      </trkpt>
      <trkpt lat="45.41975" lon="4.59469">
        <ele>851</ele>
        <time>2021-06-11T01:21:52Z</time>
      </trkpt>
      <trkpt lat="45.42061" lon="4.59463">
        <ele>842</ele>
        <time>2021-06-11T01:22:08Z</time>
      </trkpt>
      <trkpt lat="45.42098" lon="4.59467">
        <ele>842</ele>
        <time>2021-06-11T01:22:14Z</time>
      </trkpt>
      <trkpt lat="45.42148" lon="4.59496">
        <ele>845</ele>
        <time>2021-06-11T01:22:24Z</time>
      </trkpt>
      <trkpt lat="45.42208" lon="4.59556">
        <ele>851</ele>
        <time>2021-06-11T01:22:37Z</time>
      </trkpt>
      <trkpt lat="45.42267" lon="4.59634">
        <ele>854</ele>
        <time>2021-06-11T01:22:51Z</time>
      </trkpt>
      <trkpt lat="45.42306" lon="4.59724">
        <ele>857</ele>
        <time>2021-06-11T01:23:05Z</time>
      </trkpt>
      <trkpt lat="45.42351" lon="4.59862">
        <ele>862</ele>
        <time>2021-06-11T01:23:24Z</time>
      </trkpt>
      <trkpt lat="45.42372" lon="4.59954">
        <ele>868</ele>
        <time>2021-06-11T01:23:36Z</time>
      </trkpt>
      <trkpt lat="45.42396" lon="4.60042">
        <ele>872</ele>
        <time>2021-06-11T01:23:47Z</time>
      </trkpt>
      <trkpt lat="45.42401" lon="4.60089">
        <ele>877</ele>
        <time>2021-06-11T01:23:53Z</time>
      </trkpt>
      <trkpt lat="45.42418" lon="4.60149">
        <ele>882</ele>
        <time>2021-06-11T01:24:01Z</time>
      </trkpt>
      <trkpt lat="45.42434" lon="4.60243">
        <ele>890</ele>
        <time>2021-06-11T01:24:14Z</time>
      </trkpt>
      <trkpt lat="45.42438" lon="4.60279">
        <ele>893</ele>
        <time>2021-06-11T01:24:18Z</time>
      </trkpt>
      <trkpt lat="45.42444" lon="4.60508">
        <ele>912</ele>
        <time>2021-06-11T01:24:47Z</time>
      </trkpt>
      <trkpt lat="45.42457" lon="4.60606">
        <ele>911</ele>
        <time>2021-06-11T01:24:59Z</time>
      </trkpt>
      <trkpt lat="45.42454" lon="4.60687">
        <ele>910</ele>
        <time>2021-06-11T01:25:09Z</time>
      </trkpt>
      <trkpt lat="45.42431" lon="4.60757">
        <ele>911</ele>
        <time>2021-06-11T01:25:19Z</time>
      </trkpt>
      <trkpt lat="45.42318" lon="4.6084">
        <ele>931</ele>
        <time>2021-06-11T01:25:42Z</time>
      </trkpt>
      <trkpt lat="45.42293" lon="4.60869">
        <ele>935</ele>
        <time>2021-06-11T01:25:47Z</time>
      </trkpt>
      <trkpt lat="45.42272" lon="4.60908">
        <ele>937</ele>
        <time>2021-06-11T01:25:53Z</time>
      </trkpt>
      <trkpt lat="45.42258" lon="4.60951">
        <ele>943</ele>
        <time>2021-06-11T01:25:59Z</time>
      </trkpt>
      <trkpt lat="45.42321" lon="4.61094">
        <ele>938</ele>
        <time>2021-06-11T01:26:20Z</time>
      </trkpt>
      <trkpt lat="45.42409" lon="4.61309">
        <ele>936</ele>
        <time>2021-06-11T01:26:52Z</time>
      </trkpt>
      <trkpt lat="45.42442" lon="4.61426">
        <ele>940</ele>
        <time>2021-06-11T01:27:07Z</time>
      </trkpt>
      <trkpt lat="45.42453" lon="4.61524">
        <ele>944</ele>
        <time>2021-06-11T01:27:20Z</time>
      </trkpt>
      <trkpt lat="45.42507" lon="4.61738">
        <ele>947</ele>
        <time>2021-06-11T01:27:48Z</time>
      </trkpt>
      <trkpt lat="45.42431" lon="4.61768">
        <ele>952</ele>
        <time>2021-06-11T01:28:02Z</time>
      </trkpt>
      <trkpt lat="45.42365" lon="4.61814">
        <ele>956</ele>
        <time>2021-06-11T01:28:15Z</time>
      </trkpt>
      <trkpt lat="45.42298" lon="4.61833">
        <ele>967</ele>
        <time>2021-06-11T01:28:27Z</time>
      </trkpt>
      <trkpt lat="45.4211" lon="4.61977">
        <ele>985</ele>
        <time>2021-06-11T01:29:05Z</time>
      </trkpt>
      <trkpt lat="45.41933" lon="4.62064">
        <ele>1008</ele>
        <time>2021-06-11T01:29:39Z</time>
      </trkpt>
      <trkpt lat="45.41808" lon="4.62034">
        <ele>1025</ele>
        <time>2021-06-11T01:30:01Z</time>
      </trkpt>
      <trkpt lat="45.41651" lon="4.62038">
        <ele>1038</ele>
        <time>2021-06-11T01:30:29Z</time>
      </trkpt>
      <trkpt lat="45.41441" lon="4.6219">
        <ele>1048</ele>
        <time>2021-06-11T01:31:11Z</time>
      </trkpt>
      <trkpt lat="45.41359" lon="4.62265">
        <ele>1050</ele>
        <time>2021-06-11T01:31:28Z</time>
      </trkpt>
      <trkpt lat="45.41292" lon="4.62361">
        <ele>1049</ele>
        <time>2021-06-11T01:31:45Z</time>
      </trkpt>
      <trkpt lat="45.41279" lon="4.62365">
        <ele>1050</ele>
        <time>2021-06-11T01:31:48Z</time>
      </trkpt>
      <trkpt lat="45.41268" lon="4.62358">
        <ele>1052</ele>
        <time>2021-06-11T01:31:50Z</time>
      </trkpt>
      <trkpt lat="45.41131" lon="4.62134">
        <ele>1087</ele>
        <time>2021-06-11T01:32:27Z</time>
      </trkpt>
      <trkpt lat="45.40964" lon="4.61991">
        <ele>1102</ele>
        <time>2021-06-11T01:33:02Z</time>
      </trkpt>
      <trkpt lat="45.40923" lon="4.6196">
        <ele>1104</ele>
        <time>2021-06-11T01:33:10Z</time>
      </trkpt>
      <trkpt lat="45.40882" lon="4.61922">
        <ele>1108</ele>
        <time>2021-06-11T01:33:19Z</time>
      </trkpt>
      <trkpt lat="45.40843" lon="4.61891">
        <ele>1112</ele>
        <time>2021-06-11T01:33:26Z</time>
      </trkpt>
      <trkpt lat="45.40797" lon="4.61866">
        <ele>1117</ele>
        <time>2021-06-11T01:33:35Z</time>
      </trkpt>
      <trkpt lat="45.40754" lon="4.61848">
        <ele>1121</ele>
        <time>2021-06-11T01:33:43Z</time>
      </trkpt>
      <trkpt lat="45.4071" lon="4.61839">
        <ele>1128</ele>
        <time>2021-06-11T01:33:51Z</time>
      </trkpt>
      <trkpt lat="45.40624" lon="4.61852">
        <ele>1133</ele>
        <time>2021-06-11T01:34:07Z</time>
      </trkpt>
      <trkpt lat="45.40532" lon="4.61846">
        <ele>1139</ele>
        <time>2021-06-11T01:34:23Z</time>
      </trkpt>
      <trkpt lat="45.40406" lon="4.61815">
        <ele>1155</ele>
        <time>2021-06-11T01:34:46Z</time>
      </trkpt>
      <trkpt lat="45.40341" lon="4.61809">
        <ele>1158</ele>
        <time>2021-06-11T01:34:57Z</time>
      </trkpt>
      <trkpt lat="45.40308" lon="4.61809">
        <ele>1164</ele>
        <time>2021-06-11T01:35:03Z</time>
      </trkpt>
      <trkpt lat="45.40279" lon="4.61823">
        <ele>1166</ele>
        <time>2021-06-11T01:35:09Z</time>
      </trkpt>
      <trkpt lat="45.40259" lon="4.6184">
        <ele>1166</ele>
        <time>2021-06-11T01:35:13Z</time>
      </trkpt>
      <trkpt lat="45.40211" lon="4.61916">
        <ele>1169</ele>
        <time>2021-06-11T01:35:25Z</time>
      </trkpt>
      <trkpt lat="45.40142" lon="4.62011">
        <ele>1169</ele>
        <time>2021-06-11T01:35:43Z</time>
      </trkpt>
      <trkpt lat="45.40105" lon="4.62041">
        <ele>1161</ele>
        <time>2021-06-11T01:35:50Z</time>
      </trkpt>
      <trkpt lat="45.4008" lon="4.62023">
        <ele>1168</ele>
        <time>2021-06-11T01:35:55Z</time>
      </trkpt>
      <trkpt lat="45.40056" lon="4.61992">
        <ele>1172</ele>
        <time>2021-06-11T01:36:01Z</time>
      </trkpt>
      <trkpt lat="45.40004" lon="4.61956">
        <ele>1173</ele>
        <time>2021-06-11T01:36:11Z</time>
      </trkpt>
      <trkpt lat="45.3991" lon="4.61768">
        <ele>1198</ele>
        <time>2021-06-11T01:36:40Z</time>
      </trkpt>
      <trkpt lat="45.39802" lon="4.61629">
        <ele>1216</ele>
        <time>2021-06-11T01:37:06Z</time>
      </trkpt>
      <trkpt lat="45.39769" lon="4.61601">
        <ele>1221</ele>
        <time>2021-06-11T01:37:13Z</time>
      </trkpt>
      <trkpt lat="45.39729" lon="4.6158">
        <ele>1224</ele>
        <time>2021-06-11T01:37:20Z</time>
      </trkpt>
      <trkpt lat="45.39688" lon="4.6157">
        <ele>1225</ele>
        <time>2021-06-11T01:37:28Z</time>
      </trkpt>
      <trkpt lat="45.39575" lon="4.61536">
        <ele>1228</ele>
        <time>2021-06-11T01:37:48Z</time>
      </trkpt>
      <trkpt lat="45.3945" lon="4.61533">
        <ele>1232</ele>
        <time>2021-06-11T01:38:11Z</time>
      </trkpt>
      <trkpt lat="45.39329" lon="4.61571">
        <ele>1240</ele>
        <time>2021-06-11T01:38:33Z</time>
      </trkpt>
      <trkpt lat="45.39266" lon="4.61582">
        <ele>1232</ele>
        <time>2021-06-11T01:38:44Z</time>
      </trkpt>
      <trkpt lat="45.39162" lon="4.61573">
        <ele>1235</ele>
        <time>2021-06-11T01:39:02Z</time>
      </trkpt>
      <trkpt lat="45.38937" lon="4.61584">
        <ele>1234</ele>
        <time>2021-06-11T01:39:42Z</time>
      </trkpt>
      <trkpt lat="45.38879" lon="4.61582">
        <ele>1236</ele>
        <time>2021-06-11T01:39:53Z</time>
      </trkpt>
      <trkpt lat="45.38857" lon="4.61574">
        <ele>1236</ele>
        <time>2021-06-11T01:39:57Z</time>
      </trkpt>
      <trkpt lat="45.38848" lon="4.61566">
        <ele>1236</ele>
        <time>2021-06-11T01:39:59Z</time>
      </trkpt>
      <trkpt lat="45.38841" lon="4.61549">
        <ele>1236</ele>
        <time>2021-06-11T01:40:01Z</time>
      </trkpt>
      <trkpt lat="45.38838" lon="4.61516">
        <ele>1235</ele>
        <time>2021-06-11T01:40:05Z</time>
      </trkpt>
      <trkpt lat="45.38839" lon="4.61442">
        <ele>1233</ele>
        <time>2021-06-11T01:40:15Z</time>
      </trkpt>
      <trkpt lat="45.38833" lon="4.61427">
        <ele>1231</ele>
        <time>2021-06-11T01:40:17Z</time>
      </trkpt>
      <trkpt lat="45.3882" lon="4.61418">
        <ele>1229</ele>
        <time>2021-06-11T01:40:19Z</time>
      </trkpt>
      <trkpt lat="45.38812" lon="4.61418">
        <ele>1227</ele>
        <time>2021-06-11T01:40:21Z</time>
      </trkpt>
      <trkpt lat="45.38805" lon="4.61422">
        <ele>1226</ele>
        <time>2021-06-11T01:40:22Z</time>
      </trkpt>
      <trkpt lat="45.38766" lon="4.61459">
        <ele>1222</ele>
        <time>2021-06-11T01:40:30Z</time>
      </trkpt>
      <trkpt lat="45.38714" lon="4.61489">
        <ele>1219</ele>
        <time>2021-06-11T01:40:40Z</time>
      </trkpt>
      <trkpt lat="45.3867" lon="4.61506">
        <ele>1217</ele>
        <time>2021-06-11T01:40:48Z</time>
      </trkpt>
      <trkpt lat="45.38635" lon="4.61507">
        <ele>1214</ele>
        <time>2021-06-11T01:40:55Z</time>
      </trkpt>
      <trkpt lat="45.38599" lon="4.61517">
        <ele>1211</ele>
        <time>2021-06-11T01:41:01Z</time>
      </trkpt>
      <trkpt lat="45.38537" lon="4.61541">
        <ele>1207</ele>
        <time>2021-06-11T01:41:13Z</time>
      </trkpt>
      <trkpt lat="45.38528" lon="4.6154">
        <ele>1206</ele>
        <time>2021-06-11T01:41:14Z</time>
      </trkpt>
      <trkpt lat="45.38522" lon="4.61536">
        <ele>1205</ele>
        <time>2021-06-11T01:41:15Z</time>
      </trkpt>
      <trkpt lat="45.38516" lon="4.6152">
        <ele>1205</ele>
        <time>2021-06-11T01:41:18Z</time>
      </trkpt>
      <trkpt lat="45.3852" lon="4.61504">
        <ele>1206</ele>
        <time>2021-06-11T01:41:20Z</time>
      </trkpt>
      <trkpt lat="45.38524" lon="4.61498">
        <ele>1206</ele>
        <time>2021-06-11T01:41:21Z</time>
      </trkpt>
      <trkpt lat="45.38555" lon="4.61483">
        <ele>1205</ele>
        <time>2021-06-11T01:41:27Z</time>
      </trkpt>
      <trkpt lat="45.38582" lon="4.61466">
        <ele>1204</ele>
        <time>2021-06-11T01:41:32Z</time>
      </trkpt>
      <trkpt lat="45.38645" lon="4.61375">
        <ele>1201</ele>
        <time>2021-06-11T01:41:48Z</time>
      </trkpt>
      <trkpt lat="45.38653" lon="4.61357">
        <ele>1201</ele>
        <time>2021-06-11T01:41:51Z</time>
      </trkpt>
      <trkpt lat="45.38657" lon="4.61332">
        <ele>1199</ele>
        <time>2021-06-11T01:41:54Z</time>
      </trkpt>
      <trkpt lat="45.38661" lon="4.61263">
        <ele>1195</ele>
        <time>2021-06-11T01:42:02Z</time>
      </trkpt>
      <trkpt lat="45.38662" lon="4.61199">
        <ele>1195</ele>
        <time>2021-06-11T01:42:10Z</time>
      </trkpt>
      <trkpt lat="45.38658" lon="4.61177">
        <ele>1195</ele>
        <time>2021-06-11T01:42:13Z</time>
      </trkpt>
      <trkpt lat="45.38643" lon="4.61154">
        <ele>1194</ele>
        <time>2021-06-11T01:42:17Z</time>
      </trkpt>
      <trkpt lat="45.38628" lon="4.61144">
        <ele>1192</ele>
        <time>2021-06-11T01:42:20Z</time>
      </trkpt>
      <trkpt lat="45.38601" lon="4.61131">
        <ele>1188</ele>
        <time>2021-06-11T01:42:25Z</time>
      </trkpt>
      <trkpt lat="45.38575" lon="4.61111">
        <ele>1186</ele>
        <time>2021-06-11T01:42:30Z</time>
      </trkpt>
      <trkpt lat="45.38536" lon="4.61067">
        <ele>1182</ele>
        <time>2021-06-11T01:42:39Z</time>
      </trkpt>
      <trkpt lat="45.38444" lon="4.60941">
        <ele>1175</ele>
        <time>2021-06-11T01:43:02Z</time>
      </trkpt>
      <trkpt lat="45.38379" lon="4.60862">
        <ele>1167</ele>
        <time>2021-06-11T01:43:17Z</time>
      </trkpt>
      <trkpt lat="45.38315" lon="4.60726">
        <ele>1160</ele>
        <time>2021-06-11T01:43:38Z</time>
      </trkpt>
      <trkpt lat="45.38296" lon="4.60628">
        <ele>1156</ele>
        <time>2021-06-11T01:43:50Z</time>
      </trkpt>
      <trkpt lat="45.38283" lon="4.60579">
        <ele>1152</ele>
        <time>2021-06-11T01:43:57Z</time>
      </trkpt>
      <trkpt lat="45.38265" lon="4.60491">
        <ele>1146</ele>
        <time>2021-06-11T01:44:08Z</time>
      </trkpt>
      <trkpt lat="45.38254" lon="4.60424">
        <ele>1145</ele>
        <time>2021-06-11T01:44:17Z</time>
      </trkpt>
      <trkpt lat="45.38251" lon="4.60387">
        <ele>1146</ele>
        <time>2021-06-11T01:44:22Z</time>
      </trkpt>
      <trkpt lat="45.38242" lon="4.60351">
        <ele>1149</ele>
        <time>2021-06-11T01:44:26Z</time>
      </trkpt>
      <trkpt lat="45.38232" lon="4.60344">
        <ele>1149</ele>
        <time>2021-06-11T01:44:28Z</time>
      </trkpt>
      <trkpt lat="45.38221" lon="4.60341">
        <ele>1150</ele>
        <time>2021-06-11T01:44:30Z</time>
      </trkpt>
      <trkpt lat="45.38164" lon="4.60371">
        <ele>1142</ele>
        <time>2021-06-11T01:44:41Z</time>
      </trkpt>
      <trkpt lat="45.38105" lon="4.60396">
        <ele>1134</ele>
        <time>2021-06-11T01:44:52Z</time>
      </trkpt>
      <trkpt lat="45.38057" lon="4.60401">
        <ele>1129</ele>
        <time>2021-06-11T01:45:01Z</time>
      </trkpt>
      <trkpt lat="45.38024" lon="4.60399">
        <ele>1126</ele>
        <time>2021-06-11T01:45:07Z</time>
      </trkpt>
      <trkpt lat="45.37985" lon="4.60388">
        <ele>1123</ele>
        <time>2021-06-11T01:45:14Z</time>
      </trkpt>
      <trkpt lat="45.37935" lon="4.6034">
        <ele>1124</ele>
        <time>2021-06-11T01:45:24Z</time>
      </trkpt>
      <trkpt lat="45.37904" lon="4.60283">
        <ele>1122</ele>
        <time>2021-06-11T01:45:33Z</time>
      </trkpt>
      <trkpt lat="45.3789" lon="4.60244">
        <ele>1119</ele>
        <time>2021-06-11T01:45:39Z</time>
      </trkpt>
      <trkpt lat="45.37882" lon="4.60203">
        <ele>1115</ele>
        <time>2021-06-11T01:45:44Z</time>
      </trkpt>
      <trkpt lat="45.37876" lon="4.601">
        <ele>1116</ele>
        <time>2021-06-11T01:45:57Z</time>
      </trkpt>
      <trkpt lat="45.37873" lon="4.60084">
        <ele>1117</ele>
        <time>2021-06-11T01:45:59Z</time>
      </trkpt>
      <trkpt lat="45.37864" lon="4.60074">
        <ele>1118</ele>
        <time>2021-06-11T01:46:01Z</time>
      </trkpt>
      <trkpt lat="45.3785" lon="4.6007">
        <ele>1116</ele>
        <time>2021-06-11T01:46:04Z</time>
      </trkpt>
      <trkpt lat="45.37783" lon="4.60075">
        <ele>1106</ele>
        <time>2021-06-11T01:46:16Z</time>
      </trkpt>
      <trkpt lat="45.37752" lon="4.60073">
        <ele>1103</ele>
        <time>2021-06-11T01:46:21Z</time>
      </trkpt>
      <trkpt lat="45.37722" lon="4.60068">
        <ele>1099</ele>
        <time>2021-06-11T01:46:27Z</time>
      </trkpt>
      <trkpt lat="45.37683" lon="4.60049">
        <ele>1096</ele>
        <time>2021-06-11T01:46:34Z</time>
      </trkpt>
      <trkpt lat="45.37647" lon="4.60015">
        <ele>1093</ele>
        <time>2021-06-11T01:46:42Z</time>
      </trkpt>
      <trkpt lat="45.3763" lon="4.59991">
        <ele>1092</ele>
        <time>2021-06-11T01:46:46Z</time>
      </trkpt>
      <trkpt lat="45.37618" lon="4.59961">
        <ele>1090</ele>
        <time>2021-06-11T01:46:50Z</time>
      </trkpt>
      <trkpt lat="45.37611" lon="4.59925">
        <ele>1090</ele>
        <time>2021-06-11T01:46:55Z</time>
      </trkpt>
      <trkpt lat="45.376" lon="4.59808">
        <ele>1083</ele>
        <time>2021-06-11T01:47:10Z</time>
      </trkpt>
      <trkpt lat="45.37598" lon="4.59723">
        <ele>1078</ele>
        <time>2021-06-11T01:47:20Z</time>
      </trkpt>
      <trkpt lat="45.3761" lon="4.59642">
        <ele>1084</ele>
        <time>2021-06-11T01:47:31Z</time>
      </trkpt>
      <trkpt lat="45.37606" lon="4.59632">
        <ele>1084</ele>
        <time>2021-06-11T01:47:32Z</time>
      </trkpt>
      <trkpt lat="45.37596" lon="4.59625">
        <ele>1084</ele>
        <time>2021-06-11T01:47:34Z</time>
      </trkpt>
      <trkpt lat="45.37583" lon="4.5963">
        <ele>1080</ele>
        <time>2021-06-11T01:47:36Z</time>
      </trkpt>
      <trkpt lat="45.37563" lon="4.59646">
        <ele>1078</ele>
        <time>2021-06-11T01:47:41Z</time>
      </trkpt>
      <trkpt lat="45.37459" lon="4.59701">
        <ele>1068</ele>
        <time>2021-06-11T01:48:00Z</time>
      </trkpt>
      <trkpt lat="45.37336" lon="4.59746">
        <ele>1054</ele>
        <time>2021-06-11T01:48:23Z</time>
      </trkpt>
      <trkpt lat="45.37317" lon="4.59747">
        <ele>1053</ele>
        <time>2021-06-11T01:48:26Z</time>
      </trkpt>
      <trkpt lat="45.37291" lon="4.59729">
        <ele>1056</ele>
        <time>2021-06-11T01:48:31Z</time>
      </trkpt>
      <trkpt lat="45.37263" lon="4.59717">
        <ele>1058</ele>
        <time>2021-06-11T01:48:37Z</time>
      </trkpt>
      <trkpt lat="45.37194" lon="4.59749">
        <ele>1046</ele>
        <time>2021-06-11T01:48:49Z</time>
      </trkpt>
      <trkpt lat="45.37163" lon="4.59739">
        <ele>1048</ele>
        <time>2021-06-11T01:48:55Z</time>
      </trkpt>
      <trkpt lat="45.37157" lon="4.59739">
        <ele>1050</ele>
        <time>2021-06-11T01:48:56Z</time>
      </trkpt>
      <trkpt lat="45.3715" lon="4.59745">
        <ele>1051</ele>
        <time>2021-06-11T01:48:58Z</time>
      </trkpt>
      <trkpt lat="45.37097" lon="4.59891">
        <ele>1040</ele>
        <time>2021-06-11T01:49:18Z</time>
      </trkpt>
      <trkpt lat="45.37052" lon="4.59931">
        <ele>1038</ele>
        <time>2021-06-11T01:49:28Z</time>
      </trkpt>
      <trkpt lat="45.37005" lon="4.59967">
        <ele>1036</ele>
        <time>2021-06-11T01:49:37Z</time>
      </trkpt>
      <trkpt lat="45.3696" lon="4.60015">
        <ele>1029</ele>
        <time>2021-06-11T01:49:47Z</time>
      </trkpt>
      <trkpt lat="45.36917" lon="4.60047">
        <ele>1027</ele>
        <time>2021-06-11T01:49:56Z</time>
      </trkpt>
      <trkpt lat="45.36774" lon="4.60102">
        <ele>1030</ele>
        <time>2021-06-11T01:50:22Z</time>
      </trkpt>
      <trkpt lat="45.36728" lon="4.60102">
        <ele>1037</ele>
        <time>2021-06-11T01:50:30Z</time>
      </trkpt>
      <trkpt lat="45.36668" lon="4.60132">
        <ele>1040</ele>
        <time>2021-06-11T01:50:42Z</time>
      </trkpt>
      <trkpt lat="45.36624" lon="4.6017">
        <ele>1035</ele>
        <time>2021-06-11T01:50:51Z</time>
      </trkpt>
      <trkpt lat="45.3659" lon="4.60174">
        <ele>1037</ele>
        <time>2021-06-11T01:50:57Z</time>
      </trkpt>
      <trkpt lat="45.36562" lon="4.60155">
        <ele>1036</ele>
        <time>2021-06-11T01:51:02Z</time>
      </trkpt>
      <trkpt lat="45.36539" lon="4.60128">
        <ele>1036</ele>
        <time>2021-06-11T01:51:08Z</time>
      </trkpt>
      <trkpt lat="45.36512" lon="4.60077">
        <ele>1040</ele>
        <time>2021-06-11T01:51:16Z</time>
      </trkpt>
      <trkpt lat="45.36487" lon="4.60017">
        <ele>1042</ele>
        <time>2021-06-11T01:51:24Z</time>
      </trkpt>
      <trkpt lat="45.36438" lon="4.59869">
        <ele>1054</ele>
        <time>2021-06-11T01:51:45Z</time>
      </trkpt>
      <trkpt lat="45.36398" lon="4.59818">
        <ele>1055</ele>
        <time>2021-06-11T01:51:54Z</time>
      </trkpt>
      <trkpt lat="45.36356" lon="4.59775">
        <ele>1056</ele>
        <time>2021-06-11T01:52:04Z</time>
      </trkpt>
      <trkpt lat="45.36255" lon="4.59698">
        <ele>1060</ele>
        <time>2021-06-11T01:52:24Z</time>
      </trkpt>
      <trkpt lat="45.36155" lon="4.59609">
        <ele>1064</ele>
        <time>2021-06-11T01:52:45Z</time>
      </trkpt>
      <trkpt lat="45.36126" lon="4.59571">
        <ele>1063</ele>
        <time>2021-06-11T01:52:52Z</time>
      </trkpt>
      <trkpt lat="45.36107" lon="4.59535">
        <ele>1062</ele>
        <time>2021-06-11T01:52:58Z</time>
      </trkpt>
      <trkpt lat="45.3609" lon="4.59493">
        <ele>1061</ele>
        <time>2021-06-11T01:53:04Z</time>
      </trkpt>
      <trkpt lat="45.36078" lon="4.59447">
        <ele>1061</ele>
        <time>2021-06-11T01:53:10Z</time>
      </trkpt>
      <trkpt lat="45.3608" lon="4.59386">
        <ele>1064</ele>
        <time>2021-06-11T01:53:17Z</time>
      </trkpt>
      <trkpt lat="45.36088" lon="4.59326">
        <ele>1067</ele>
        <time>2021-06-11T01:53:25Z</time>
      </trkpt>
      <trkpt lat="45.36108" lon="4.59255">
        <ele>1073</ele>
        <time>2021-06-11T01:53:35Z</time>
      </trkpt>
      <trkpt lat="45.3612" lon="4.59221">
        <ele>1077</ele>
        <time>2021-06-11T01:53:39Z</time>
      </trkpt>
      <trkpt lat="45.36127" lon="4.59185">
        <ele>1081</ele>
        <time>2021-06-11T01:53:44Z</time>
      </trkpt>
      <trkpt lat="45.36123" lon="4.59149">
        <ele>1083</ele>
        <time>2021-06-11T01:53:49Z</time>
      </trkpt>
      <trkpt lat="45.36105" lon="4.59108">
        <ele>1081</ele>
        <time>2021-06-11T01:53:55Z</time>
      </trkpt>
      <trkpt lat="45.3609" lon="4.59034">
        <ele>1082</ele>
        <time>2021-06-11T01:54:04Z</time>
      </trkpt>
      <trkpt lat="45.36056" lon="4.58961">
        <ele>1081</ele>
        <time>2021-06-11T01:54:15Z</time>
      </trkpt>
      <trkpt lat="45.3604" lon="4.58919">
        <ele>1081</ele>
        <time>2021-06-11T01:54:21Z</time>
      </trkpt>
      <trkpt lat="45.36022" lon="4.58885">
        <ele>1083</ele>
        <time>2021-06-11T01:54:27Z</time>
      </trkpt>
      <trkpt lat="45.35982" lon="4.58827">
        <ele>1084</ele>
        <time>2021-06-11T01:54:37Z</time>
      </trkpt>
      <trkpt lat="45.3589" lon="4.58662">
        <ele>1089</ele>
        <time>2021-06-11T01:55:03Z</time>
      </trkpt>
      <trkpt lat="45.35882" lon="4.58644">
        <ele>1089</ele>
        <time>2021-06-11T01:55:06Z</time>
      </trkpt>
      <trkpt lat="45.35878" lon="4.58622">
        <ele>1090</ele>
        <time>2021-06-11T01:55:09Z</time>
      </trkpt>
      <trkpt lat="45.35881" lon="4.586">
        <ele>1091</ele>
        <time>2021-06-11T01:55:11Z</time>
      </trkpt>
      <trkpt lat="45.35893" lon="4.58579">
        <ele>1092</ele>
        <time>2021-06-11T01:55:15Z</time>
      </trkpt>
      <trkpt lat="45.35928" lon="4.58524">
        <ele>1092</ele>
        <time>2021-06-11T01:55:24Z</time>
      </trkpt>
      <trkpt lat="45.3596" lon="4.58483">
        <ele>1094</ele>
        <time>2021-06-11T01:55:32Z</time>
      </trkpt>
      <trkpt lat="45.36095" lon="4.58383">
        <ele>1101</ele>
        <time>2021-06-11T01:55:59Z</time>
      </trkpt>
      <trkpt lat="45.36172" lon="4.58299">
        <ele>1103</ele>
        <time>2021-06-11T01:56:16Z</time>
      </trkpt>
      <trkpt lat="45.36209" lon="4.58278">
        <ele>1104</ele>
        <time>2021-06-11T01:56:23Z</time>
      </trkpt>
      <trkpt lat="45.36216" lon="4.58264">
        <ele>1102</ele>
        <time>2021-06-11T01:56:25Z</time>
      </trkpt>
      <trkpt lat="45.36214" lon="4.58248">
        <ele>1100</ele>
        <time>2021-06-11T01:56:27Z</time>
      </trkpt>
      <trkpt lat="45.36207" lon="4.58231">
        <ele>1104</ele>
        <time>2021-06-11T01:56:30Z</time>
      </trkpt>
      <trkpt lat="45.36112" lon="4.58177">
        <ele>1101</ele>
        <time>2021-06-11T01:56:48Z</time>
      </trkpt>
      <trkpt lat="45.36083" lon="4.58146">
        <ele>1102</ele>
        <time>2021-06-11T01:56:54Z</time>
      </trkpt>
      <trkpt lat="45.36061" lon="4.581">
        <ele>1107</ele>
        <time>2021-06-11T01:57:01Z</time>
      </trkpt>
      <trkpt lat="45.36035" lon="4.58079">
        <ele>1106</ele>
        <time>2021-06-11T01:57:07Z</time>
      </trkpt>
      <trkpt lat="45.36012" lon="4.58043">
        <ele>1105</ele>
        <time>2021-06-11T01:57:13Z</time>
      </trkpt>
      <trkpt lat="45.35994" lon="4.58002">
        <ele>1104</ele>
        <time>2021-06-11T01:57:19Z</time>
      </trkpt>
      <trkpt lat="45.35977" lon="4.57918">
        <ele>1101</ele>
        <time>2021-06-11T01:57:30Z</time>
      </trkpt>
      <trkpt lat="45.35978" lon="4.57831">
        <ele>1103</ele>
        <time>2021-06-11T01:57:41Z</time>
      </trkpt>
      <trkpt lat="45.35976" lon="4.5775">
        <ele>1102</ele>
        <time>2021-06-11T01:57:51Z</time>
      </trkpt>
      <trkpt lat="45.35996" lon="4.57618">
        <ele>1101</ele>
        <time>2021-06-11T01:58:08Z</time>
      </trkpt>
      <trkpt lat="45.36012" lon="4.57576">
        <ele>1102</ele>
        <time>2021-06-11T01:58:14Z</time>
      </trkpt>
      <trkpt lat="45.36085" lon="4.57469">
        <ele>1107</ele>
        <time>2021-06-11T01:58:32Z</time>
      </trkpt>
      <trkpt lat="45.36135" lon="4.57447">
        <ele>1112</ele>
        <time>2021-06-11T01:58:42Z</time>
      </trkpt>
      <trkpt lat="45.36183" lon="4.57414">
        <ele>1115</ele>
        <time>2021-06-11T01:58:51Z</time>
      </trkpt>
      <trkpt lat="45.36238" lon="4.5739">
        <ele>1115</ele>
        <time>2021-06-11T01:59:01Z</time>
      </trkpt>
      <trkpt lat="45.36292" lon="4.57395">
        <ele>1118</ele>
        <time>2021-06-11T01:59:11Z</time>
      </trkpt>
      <trkpt lat="45.3644" lon="4.574">
        <ele>1120</ele>
        <time>2021-06-11T01:59:37Z</time>
      </trkpt>
      <trkpt lat="45.3654" lon="4.57396">
        <ele>1120</ele>
        <time>2021-06-11T01:59:55Z</time>
      </trkpt>
      <trkpt lat="45.36637" lon="4.57397">
        <ele>1123</ele>
        <time>2021-06-11T02:00:12Z</time>
      </trkpt>
      <trkpt lat="45.36751" lon="4.57406">
        <ele>1130</ele>
        <time>2021-06-11T02:00:33Z</time>
      </trkpt>
      <trkpt lat="45.36857" lon="4.57379">
        <ele>1136</ele>
        <time>2021-06-11T02:00:52Z</time>
      </trkpt>
      <trkpt lat="45.36867" lon="4.5737">
        <ele>1137</ele>
        <time>2021-06-11T02:00:54Z</time>
      </trkpt>
      <trkpt lat="45.3687" lon="4.57357">
        <ele>1137</ele>
        <time>2021-06-11T02:00:56Z</time>
      </trkpt>
      <trkpt lat="45.36856" lon="4.57324">
        <ele>1135</ele>
        <time>2021-06-11T02:01:00Z</time>
      </trkpt>
      <trkpt lat="45.36839" lon="4.57294">
        <ele>1138</ele>
        <time>2021-06-11T02:01:05Z</time>
      </trkpt>
      <trkpt lat="45.36798" lon="4.57241">
        <ele>1139</ele>
        <time>2021-06-11T02:01:15Z</time>
      </trkpt>
      <trkpt lat="45.36695" lon="4.57145">
        <ele>1144</ele>
        <time>2021-06-11T02:01:37Z</time>
      </trkpt>
      <trkpt lat="45.36645" lon="4.57102">
        <ele>1147</ele>
        <time>2021-06-11T02:01:47Z</time>
      </trkpt>
      <trkpt lat="45.36594" lon="4.57081">
        <ele>1145</ele>
        <time>2021-06-11T02:01:57Z</time>
      </trkpt>
      <trkpt lat="45.36563" lon="4.57071">
        <ele>1140</ele>
        <time>2021-06-11T02:02:03Z</time>
      </trkpt>
      <trkpt lat="45.3654" lon="4.57039">
        <ele>1138</ele>
        <time>2021-06-11T02:02:08Z</time>
      </trkpt>
      <trkpt lat="45.36536" lon="4.56993">
        <ele>1141</ele>
        <time>2021-06-11T02:02:14Z</time>
      </trkpt>
      <trkpt lat="45.36536" lon="4.56947">
        <ele>1143</ele>
        <time>2021-06-11T02:02:20Z</time>
      </trkpt>
      <trkpt lat="45.36608" lon="4.56685">
        <ele>1154</ele>
        <time>2021-06-11T02:02:55Z</time>
      </trkpt>
      <trkpt lat="45.36622" lon="4.56641">
        <ele>1154</ele>
        <time>2021-06-11T02:03:01Z</time>
      </trkpt>
      <trkpt lat="45.36638" lon="4.56609">
        <ele>1155</ele>
        <time>2021-06-11T02:03:06Z</time>
      </trkpt>
      <trkpt lat="45.36698" lon="4.56513">
        <ele>1158</ele>
        <time>2021-06-11T02:03:22Z</time>
      </trkpt>
      <trkpt lat="45.36743" lon="4.56467">
        <ele>1165</ele>
        <time>2021-06-11T02:03:32Z</time>
      </trkpt>
      <trkpt lat="45.3676" lon="4.56445">
        <ele>1169</ele>
        <time>2021-06-11T02:03:36Z</time>
      </trkpt>
      <trkpt lat="45.36767" lon="4.56427">
        <ele>1171</ele>
        <time>2021-06-11T02:03:38Z</time>
      </trkpt>
      <trkpt lat="45.36758" lon="4.56388">
        <ele>1174</ele>
        <time>2021-06-11T02:03:44Z</time>
      </trkpt>
      <trkpt lat="45.36727" lon="4.56353">
        <ele>1171</ele>
        <time>2021-06-11T02:03:51Z</time>
      </trkpt>
      <trkpt lat="45.36686" lon="4.56301">
        <ele>1166</ele>
        <time>2021-06-11T02:04:00Z</time>
      </trkpt>
      <trkpt lat="45.36675" lon="4.56273">
        <ele>1167</ele>
        <time>2021-06-11T02:04:04Z</time>
      </trkpt>
      <trkpt lat="45.36664" lon="4.56186">
        <ele>1173</ele>
        <time>2021-06-11T02:04:15Z</time>
      </trkpt>
      <trkpt lat="45.36658" lon="4.56163">
        <ele>1175</ele>
        <time>2021-06-11T02:04:19Z</time>
      </trkpt>
      <trkpt lat="45.36643" lon="4.56132">
        <ele>1177</ele>
        <time>2021-06-11T02:04:23Z</time>
      </trkpt>
      <trkpt lat="45.36619" lon="4.56101">
        <ele>1178</ele>
        <time>2021-06-11T02:04:29Z</time>
      </trkpt>
      <trkpt lat="45.36559" lon="4.56028">
        <ele>1181</ele>
        <time>2021-06-11T02:04:43Z</time>
      </trkpt>
      <trkpt lat="45.36476" lon="4.55972">
        <ele>1181</ele>
        <time>2021-06-11T02:04:59Z</time>
      </trkpt>
      <trkpt lat="45.36395" lon="4.5593">
        <ele>1182</ele>
        <time>2021-06-11T02:05:15Z</time>
      </trkpt>
      <trkpt lat="45.3638" lon="4.55917">
        <ele>1183</ele>
        <time>2021-06-11T02:05:18Z</time>
      </trkpt>
      <trkpt lat="45.36357" lon="4.5589">
        <ele>1186</ele>
        <time>2021-06-11T02:05:23Z</time>
      </trkpt>
      <trkpt lat="45.36336" lon="4.55855">
        <ele>1189</ele>
        <time>2021-06-11T02:05:29Z</time>
      </trkpt>
      <trkpt lat="45.36302" lon="4.55817">
        <ele>1191</ele>
        <time>2021-06-11T02:05:37Z</time>
      </trkpt>
      <trkpt lat="45.36285" lon="4.55799">
        <ele>1191</ele>
        <time>2021-06-11T02:05:40Z</time>
      </trkpt>
      <trkpt lat="45.36258" lon="4.55782">
        <ele>1191</ele>
        <time>2021-06-11T02:05:46Z</time>
      </trkpt>
      <trkpt lat="45.36232" lon="4.55759">
        <ele>1191</ele>
        <time>2021-06-11T02:05:51Z</time>
      </trkpt>
      <trkpt lat="45.36212" lon="4.55735">
        <ele>1189</ele>
        <time>2021-06-11T02:05:56Z</time>
      </trkpt>
      <trkpt lat="45.36206" lon="4.55709">
        <ele>1189</ele>
        <time>2021-06-11T02:05:59Z</time>
      </trkpt>
      <trkpt lat="45.36207" lon="4.55579">
        <ele>1192</ele>
        <time>2021-06-11T02:06:15Z</time>
      </trkpt>
      <trkpt lat="45.36287" lon="4.55419">
        <ele>1201</ele>
        <time>2021-06-11T02:06:40Z</time>
      </trkpt>
      <trkpt lat="45.36317" lon="4.55351">
        <ele>1202</ele>
        <time>2021-06-11T02:06:50Z</time>
      </trkpt>
      <trkpt lat="45.36318" lon="4.55223">
        <ele>1198</ele>
        <time>2021-06-11T02:07:06Z</time>
      </trkpt>
      <trkpt lat="45.36312" lon="4.55001">
        <ele>1191</ele>
        <time>2021-06-11T02:07:34Z</time>
      </trkpt>
      <trkpt lat="45.36307" lon="4.54966">
        <ele>1189</ele>
        <time>2021-06-11T02:07:38Z</time>
      </trkpt>
      <trkpt lat="45.36293" lon="4.54901">
        <ele>1183</ele>
        <time>2021-06-11T02:07:47Z</time>
      </trkpt>
      <trkpt lat="45.36286" lon="4.54849">
        <ele>1179</ele>
        <time>2021-06-11T02:07:53Z</time>
      </trkpt>
      <trkpt lat="45.36289" lon="4.54797">
        <ele>1177</ele>
        <time>2021-06-11T02:08:00Z</time>
      </trkpt>
      <trkpt lat="45.36314" lon="4.5468">
        <ele>1173</ele>
        <time>2021-06-11T02:08:15Z</time>
      </trkpt>
      <trkpt lat="45.36379" lon="4.54486">
        <ele>1162</ele>
        <time>2021-06-11T02:08:42Z</time>
      </trkpt>
      <trkpt lat="45.3644" lon="4.54335">
        <ele>1152</ele>
        <time>2021-06-11T02:09:04Z</time>
      </trkpt>
      <trkpt lat="45.36481" lon="4.54264">
        <ele>1148</ele>
        <time>2021-06-11T02:09:15Z</time>
      </trkpt>
      <trkpt lat="45.36546" lon="4.54186">
        <ele>1144</ele>
        <time>2021-06-11T02:09:30Z</time>
      </trkpt>
      <trkpt lat="45.36594" lon="4.54178">
        <ele>1149</ele>
        <time>2021-06-11T02:09:39Z</time>
      </trkpt>
      <trkpt lat="45.36606" lon="4.54171">
        <ele>1149</ele>
        <time>2021-06-11T02:09:41Z</time>
      </trkpt>
      <trkpt lat="45.36621" lon="4.54146">
        <ele>1151</ele>
        <time>2021-06-11T02:09:45Z</time>
      </trkpt>
      <trkpt lat="45.36626" lon="4.54126">
        <ele>1152</ele>
        <time>2021-06-11T02:09:48Z</time>
      </trkpt>
      <trkpt lat="45.36631" lon="4.54067">
        <ele>1154</ele>
        <time>2021-06-11T02:09:56Z</time>
      </trkpt>
      <trkpt lat="45.36627" lon="4.54029">
        <ele>1156</ele>
        <time>2021-06-11T02:10:00Z</time>
      </trkpt>
      <trkpt lat="45.36619" lon="4.53985">
        <ele>1157</ele>
        <time>2021-06-11T02:10:06Z</time>
      </trkpt>
      <trkpt lat="45.36574" lon="4.53832">
        <ele>1160</ele>
        <time>2021-06-11T02:10:27Z</time>
      </trkpt>
      <trkpt lat="45.36571" lon="4.53792">
        <ele>1161</ele>
        <time>2021-06-11T02:10:32Z</time>
      </trkpt>
      <trkpt lat="45.36575" lon="4.53757">
        <ele>1163</ele>
        <time>2021-06-11T02:10:36Z</time>
      </trkpt>
      <trkpt lat="45.36596" lon="4.53628">
        <ele>1168</ele>
        <time>2021-06-11T02:10:53Z</time>
      </trkpt>
      <trkpt lat="45.36613" lon="4.53555">
        <ele>1173</ele>
        <time>2021-06-11T02:11:02Z</time>
      </trkpt>
      <trkpt lat="45.36674" lon="4.53346">
        <ele>1188</ele>
        <time>2021-06-11T02:11:31Z</time>
      </trkpt>
      <trkpt lat="45.36687" lon="4.53314">
        <ele>1192</ele>
        <time>2021-06-11T02:11:35Z</time>
      </trkpt>
      <trkpt lat="45.36701" lon="4.53269">
        <ele>1195</ele>
        <time>2021-06-11T02:11:41Z</time>
      </trkpt>
      <trkpt lat="45.3673" lon="4.53044">
        <ele>1200</ele>
        <time>2021-06-11T02:12:10Z</time>
      </trkpt>
      <trkpt lat="45.36742" lon="4.52995">
        <ele>1201</ele>
        <time>2021-06-11T02:12:17Z</time>
      </trkpt>
      <trkpt lat="45.36822" lon="4.52721">
        <ele>1204</ele>
        <time>2021-06-11T02:12:54Z</time>
      </trkpt>
      <trkpt lat="45.36848" lon="4.52461">
        <ele>1201</ele>
        <time>2021-06-11T02:13:26Z</time>
      </trkpt>
      <trkpt lat="45.36852" lon="4.52174">
        <ele>1191</ele>
        <time>2021-06-11T02:14:02Z</time>
      </trkpt>
      <trkpt lat="45.36821" lon="4.52054">
        <ele>1189</ele>
        <time>2021-06-11T02:14:18Z</time>
      </trkpt>
      <trkpt lat="45.36775" lon="4.51905">
        <ele>1187</ele>
        <time>2021-06-11T02:14:39Z</time>
      </trkpt>
      <trkpt lat="45.36775" lon="4.51853">
        <ele>1185</ele>
        <time>2021-06-11T02:14:45Z</time>
      </trkpt>
      <trkpt lat="45.36809" lon="4.51743">
        <ele>1179</ele>
        <time>2021-06-11T02:15:00Z</time>
      </trkpt>
      <trkpt lat="45.36827" lon="4.517">
        <ele>1177</ele>
        <time>2021-06-11T02:15:06Z</time>
      </trkpt>
      <trkpt lat="45.36829" lon="4.51684">
        <ele>1176</ele>
        <time>2021-06-11T02:15:08Z</time>
      </trkpt>
      <trkpt lat="45.36847" lon="4.51639">
        <ele>1175</ele>
        <time>2021-06-11T02:15:15Z</time>
      </trkpt>
      <trkpt lat="45.3686" lon="4.51627">
        <ele>1174</ele>
        <time>2021-06-11T02:15:18Z</time>
      </trkpt>
      <trkpt lat="45.3688" lon="4.516">
        <ele>1174</ele>
        <time>2021-06-11T02:15:23Z</time>
      </trkpt>
      <trkpt lat="45.3689" lon="4.51581">
        <ele>1174</ele>
        <time>2021-06-11T02:15:26Z</time>
      </trkpt>
      <trkpt lat="45.36906" lon="4.51535">
        <ele>1175</ele>
        <time>2021-06-11T02:15:32Z</time>
      </trkpt>
      <trkpt lat="45.36914" lon="4.5149">
        <ele>1177</ele>
        <time>2021-06-11T02:15:38Z</time>
      </trkpt>
      <trkpt lat="45.36962" lon="4.51382">
        <ele>1172</ele>
        <time>2021-06-11T02:15:54Z</time>
      </trkpt>
      <trkpt lat="45.36978" lon="4.51357">
        <ele>1170</ele>
        <time>2021-06-11T02:15:58Z</time>
      </trkpt>
      <trkpt lat="45.37031" lon="4.51312">
        <ele>1167</ele>
        <time>2021-06-11T02:16:09Z</time>
      </trkpt>
      <trkpt lat="45.37038" lon="4.513">
        <ele>1166</ele>
        <time>2021-06-11T02:16:11Z</time>
      </trkpt>
      <trkpt lat="45.37045" lon="4.51295">
        <ele>1165</ele>
        <time>2021-06-11T02:16:12Z</time>
      </trkpt>
      <trkpt lat="45.37047" lon="4.51284">
        <ele>1165</ele>
        <time>2021-06-11T02:16:14Z</time>
      </trkpt>
      <trkpt lat="45.37045" lon="4.51277">
        <ele>1164</ele>
        <time>2021-06-11T02:16:15Z</time>
      </trkpt>
      <trkpt lat="45.37061" lon="4.51258">
        <ele>1164</ele>
        <time>2021-06-11T02:16:18Z</time>
      </trkpt>
      <trkpt lat="45.37079" lon="4.51223">
        <ele>1163</ele>
        <time>2021-06-11T02:16:24Z</time>
      </trkpt>
      <trkpt lat="45.37091" lon="4.51157">
        <ele>1163</ele>
        <time>2021-06-11T02:16:32Z</time>
      </trkpt>
      <trkpt lat="45.37109" lon="4.50954">
        <ele>1166</ele>
        <time>2021-06-11T02:16:58Z</time>
      </trkpt>
      <trkpt lat="45.3711" lon="4.50909">
        <ele>1167</ele>
        <time>2021-06-11T02:17:04Z</time>
      </trkpt>
      <trkpt lat="45.37098" lon="4.50755">
        <ele>1166</ele>
        <time>2021-06-11T02:17:23Z</time>
      </trkpt>
      <trkpt lat="45.37108" lon="4.50685">
        <ele>1164</ele>
        <time>2021-06-11T02:17:32Z</time>
      </trkpt>
      <trkpt lat="45.37123" lon="4.50638">
        <ele>1163</ele>
        <time>2021-06-11T02:17:38Z</time>
      </trkpt>
      <trkpt lat="45.37142" lon="4.50599">
        <ele>1161</ele>
        <time>2021-06-11T02:17:44Z</time>
      </trkpt>
      <trkpt lat="45.3727" lon="4.504">
        <ele>1155</ele>
        <time>2021-06-11T02:18:18Z</time>
      </trkpt>
      <trkpt lat="45.37293" lon="4.50355">
        <ele>1154</ele>
        <time>2021-06-11T02:18:25Z</time>
      </trkpt>
      <trkpt lat="45.37304" lon="4.50317">
        <ele>1154</ele>
        <time>2021-06-11T02:18:30Z</time>
      </trkpt>
      <trkpt lat="45.3731" lon="4.50279">
        <ele>1154</ele>
        <time>2021-06-11T02:18:35Z</time>
      </trkpt>
      <trkpt lat="45.37311" lon="4.50241">
        <ele>1153</ele>
        <time>2021-06-11T02:18:40Z</time>
      </trkpt>
      <trkpt lat="45.37309" lon="4.50212">
        <ele>1152</ele>
        <time>2021-06-11T02:18:43Z</time>
      </trkpt>
      <trkpt lat="45.37291" lon="4.50108">
        <ele>1148</ele>
        <time>2021-06-11T02:18:57Z</time>
      </trkpt>
      <trkpt lat="45.373" lon="4.49855">
        <ele>1148</ele>
        <time>2021-06-11T02:19:28Z</time>
      </trkpt>
      <trkpt lat="45.37305" lon="4.49801">
        <ele>1148</ele>
        <time>2021-06-11T02:19:35Z</time>
      </trkpt>
      <trkpt lat="45.37332" lon="4.49675">
        <ele>1146</ele>
        <time>2021-06-11T02:19:52Z</time>
      </trkpt>
      <trkpt lat="45.37348" lon="4.49617">
        <ele>1146</ele>
        <time>2021-06-11T02:19:59Z</time>
      </trkpt>
      <trkpt lat="45.37372" lon="4.49593">
        <ele>1146</ele>
        <time>2021-06-11T02:20:05Z</time>
      </trkpt>
      <trkpt lat="45.37508" lon="4.49515">
        <ele>1138</ele>
        <time>2021-06-11T02:20:31Z</time>
      </trkpt>
      <trkpt lat="45.37595" lon="4.49431">
        <ele>1133</ele>
        <time>2021-06-11T02:20:49Z</time>
      </trkpt>
      <trkpt lat="45.37653" lon="4.49315">
        <ele>1127</ele>
        <time>2021-06-11T02:21:07Z</time>
      </trkpt>
      <trkpt lat="45.37841" lon="4.49114">
        <ele>1111</ele>
        <time>2021-06-11T02:21:49Z</time>
      </trkpt>
      <trkpt lat="45.37978" lon="4.49069">
        <ele>1104</ele>
        <time>2021-06-11T02:22:14Z</time>
      </trkpt>
      <trkpt lat="45.38009" lon="4.49039">
        <ele>1100</ele>
        <time>2021-06-11T02:22:21Z</time>
      </trkpt>
      <trkpt lat="45.38048" lon="4.49007">
        <ele>1099</ele>
        <time>2021-06-11T02:22:29Z</time>
      </trkpt>
      <trkpt lat="45.381" lon="4.48923">
        <ele>1095</ele>
        <time>2021-06-11T02:22:43Z</time>
      </trkpt>
      <trkpt lat="45.38192" lon="4.48833">
        <ele>1091</ele>
        <time>2021-06-11T02:23:03Z</time>
      </trkpt>
      <trkpt lat="45.3821" lon="4.48794">
        <ele>1090</ele>
        <time>2021-06-11T02:23:08Z</time>
      </trkpt>
      <trkpt lat="45.38234" lon="4.48678">
        <ele>1086</ele>
        <time>2021-06-11T02:23:24Z</time>
      </trkpt>
      <trkpt lat="45.38248" lon="4.48551">
        <ele>1082</ele>
        <time>2021-06-11T02:23:40Z</time>
      </trkpt>
      <trkpt lat="45.38267" lon="4.48447">
        <ele>1077</ele>
        <time>2021-06-11T02:23:53Z</time>
      </trkpt>
      <trkpt lat="45.38281" lon="4.48395">
        <ele>1075</ele>
        <time>2021-06-11T02:24:00Z</time>
      </trkpt>
      <trkpt lat="45.38316" lon="4.48317">
        <ele>1071</ele>
        <time>2021-06-11T02:24:12Z</time>
      </trkpt>
      <trkpt lat="45.38363" lon="4.48233">
        <ele>1067</ele>
        <time>2021-06-11T02:24:25Z</time>
      </trkpt>
      <trkpt lat="45.38401" lon="4.48179">
        <ele>1066</ele>
        <time>2021-06-11T02:24:35Z</time>
      </trkpt>
      <trkpt lat="45.38442" lon="4.48126">
        <ele>1063</ele>
        <time>2021-06-11T02:24:44Z</time>
      </trkpt>
      <trkpt lat="45.38473" lon="4.48102">
        <ele>1060</ele>
        <time>2021-06-11T02:24:51Z</time>
      </trkpt>
      <trkpt lat="45.38505" lon="4.48092">
        <ele>1059</ele>
        <time>2021-06-11T02:24:56Z</time>
      </trkpt>
      <trkpt lat="45.38529" lon="4.48099">
        <ele>1057</ele>
        <time>2021-06-11T02:25:01Z</time>
      </trkpt>
      <trkpt lat="45.38554" lon="4.48113">
        <ele>1056</ele>
        <time>2021-06-11T02:25:06Z</time>
      </trkpt>
      <trkpt lat="45.38702" lon="4.48241">
        <ele>1048</ele>
        <time>2021-06-11T02:25:36Z</time>
      </trkpt>
      <trkpt lat="45.3874" lon="4.48282">
        <ele>1047</ele>
        <time>2021-06-11T02:25:45Z</time>
      </trkpt>
      <trkpt lat="45.38763" lon="4.48298">
        <ele>1046</ele>
        <time>2021-06-11T02:25:49Z</time>
      </trkpt>
      <trkpt lat="45.38787" lon="4.4831">
        <ele>1045</ele>
        <time>2021-06-11T02:25:54Z</time>
      </trkpt>
      <trkpt lat="45.38805" lon="4.48314">
        <ele>1044</ele>
        <time>2021-06-11T02:25:57Z</time>
      </trkpt>
      <trkpt lat="45.38827" lon="4.48311">
        <ele>1041</ele>
        <time>2021-06-11T02:26:01Z</time>
      </trkpt>
      <trkpt lat="45.38841" lon="4.48304">
        <ele>1040</ele>
        <time>2021-06-11T02:26:04Z</time>
      </trkpt>
      <trkpt lat="45.38854" lon="4.48291">
        <ele>1039</ele>
        <time>2021-06-11T02:26:07Z</time>
      </trkpt>
      <trkpt lat="45.38888" lon="4.48226">
        <ele>1037</ele>
        <time>2021-06-11T02:26:17Z</time>
      </trkpt>
      <trkpt lat="45.389" lon="4.48189">
        <ele>1037</ele>
        <time>2021-06-11T02:26:22Z</time>
      </trkpt>
      <trkpt lat="45.38916" lon="4.4815">
        <ele>1036</ele>
        <time>2021-06-11T02:26:28Z</time>
      </trkpt>
      <trkpt lat="45.38947" lon="4.48024">
        <ele>1034</ele>
        <time>2021-06-11T02:26:44Z</time>
      </trkpt>
      <trkpt lat="45.38958" lon="4.47933">
        <ele>1035</ele>
        <time>2021-06-11T02:26:56Z</time>
      </trkpt>
      <trkpt lat="45.38959" lon="4.47884">
        <ele>1035</ele>
        <time>2021-06-11T02:27:02Z</time>
      </trkpt>
      <trkpt lat="45.38932" lon="4.47672">
        <ele>1029</ele>
        <time>2021-06-11T02:27:29Z</time>
      </trkpt>
      <trkpt lat="45.38947" lon="4.47512">
        <ele>1028</ele>
        <time>2021-06-11T02:27:49Z</time>
      </trkpt>
      <trkpt lat="45.38962" lon="4.47424">
        <ele>1029</ele>
        <time>2021-06-11T02:28:00Z</time>
      </trkpt>
      <trkpt lat="45.38958" lon="4.4735">
        <ele>1034</ele>
        <time>2021-06-11T02:28:10Z</time>
      </trkpt>
      <trkpt lat="45.38948" lon="4.4732">
        <ele>1036</ele>
        <time>2021-06-11T02:28:14Z</time>
      </trkpt>
      <trkpt lat="45.38931" lon="4.47291">
        <ele>1037</ele>
        <time>2021-06-11T02:28:18Z</time>
      </trkpt>
      <trkpt lat="45.38903" lon="4.47234">
        <ele>1038</ele>
        <time>2021-06-11T02:28:27Z</time>
      </trkpt>
      <trkpt lat="45.3888" lon="4.47162">
        <ele>1038</ele>
        <time>2021-06-11T02:28:37Z</time>
      </trkpt>
      <trkpt lat="45.38861" lon="4.4706">
        <ele>1035</ele>
        <time>2021-06-11T02:28:50Z</time>
      </trkpt>
      <trkpt lat="45.38853" lon="4.46946">
        <ele>1029</ele>
        <time>2021-06-11T02:29:04Z</time>
      </trkpt>
      <trkpt lat="45.38843" lon="4.46887">
        <ele>1024</ele>
        <time>2021-06-11T02:29:12Z</time>
      </trkpt>
      <trkpt lat="45.38824" lon="4.4685">
        <ele>1020</ele>
        <time>2021-06-11T02:29:18Z</time>
      </trkpt>
      <trkpt lat="45.38795" lon="4.46822">
        <ele>1017</ele>
        <time>2021-06-11T02:29:24Z</time>
      </trkpt>
      <trkpt lat="45.38741" lon="4.46777">
        <ele>1016</ele>
        <time>2021-06-11T02:29:35Z</time>
      </trkpt>
      <trkpt lat="45.38724" lon="4.46743">
        <ele>1018</ele>
        <time>2021-06-11T02:29:40Z</time>
      </trkpt>
      <trkpt lat="45.38722" lon="4.46706">
        <ele>1021</ele>
        <time>2021-06-11T02:29:45Z</time>
      </trkpt>
      <trkpt lat="45.38726" lon="4.46675">
        <ele>1024</ele>
        <time>2021-06-11T02:29:49Z</time>
      </trkpt>
      <trkpt lat="45.38749" lon="4.46628">
        <ele>1025</ele>
        <time>2021-06-11T02:29:56Z</time>
      </trkpt>
      <trkpt lat="45.38772" lon="4.46607">
        <ele>1024</ele>
        <time>2021-06-11T02:30:01Z</time>
      </trkpt>
      <trkpt lat="45.38801" lon="4.46591">
        <ele>1024</ele>
        <time>2021-06-11T02:30:07Z</time>
      </trkpt>
      <trkpt lat="45.3888" lon="4.46569">
        <ele>1021</ele>
        <time>2021-06-11T02:30:21Z</time>
      </trkpt>
      <trkpt lat="45.38891" lon="4.46554">
        <ele>1021</ele>
        <time>2021-06-11T02:30:24Z</time>
      </trkpt>
      <trkpt lat="45.38892" lon="4.46536">
        <ele>1021</ele>
        <time>2021-06-11T02:30:26Z</time>
      </trkpt>
      <trkpt lat="45.38885" lon="4.46507">
        <ele>1021</ele>
        <time>2021-06-11T02:30:30Z</time>
      </trkpt>
      <trkpt lat="45.3887" lon="4.4647">
        <ele>1020</ele>
        <time>2021-06-11T02:30:35Z</time>
      </trkpt>
      <trkpt lat="45.38844" lon="4.46422">
        <ele>1018</ele>
        <time>2021-06-11T02:30:43Z</time>
      </trkpt>
      <trkpt lat="45.38822" lon="4.4639">
        <ele>1017</ele>
        <time>2021-06-11T02:30:48Z</time>
      </trkpt>
      <trkpt lat="45.3876" lon="4.46337">
        <ele>1014</ele>
        <time>2021-06-11T02:31:01Z</time>
      </trkpt>
      <trkpt lat="45.3871" lon="4.46273">
        <ele>1010</ele>
        <time>2021-06-11T02:31:13Z</time>
      </trkpt>
      <trkpt lat="45.38682" lon="4.46214">
        <ele>1007</ele>
        <time>2021-06-11T02:31:22Z</time>
      </trkpt>
      <trkpt lat="45.38661" lon="4.46137">
        <ele>1006</ele>
        <time>2021-06-11T02:31:32Z</time>
      </trkpt>
      <trkpt lat="45.38637" lon="4.46081">
        <ele>1005</ele>
        <time>2021-06-11T02:31:40Z</time>
      </trkpt>
      <trkpt lat="45.3861" lon="4.46044">
        <ele>1005</ele>
        <time>2021-06-11T02:31:47Z</time>
      </trkpt>
      <trkpt lat="45.38582" lon="4.46016">
        <ele>1003</ele>
        <time>2021-06-11T02:31:53Z</time>
      </trkpt>
      <trkpt lat="45.3855" lon="4.45977">
        <ele>999</ele>
        <time>2021-06-11T02:32:01Z</time>
      </trkpt>
      <trkpt lat="45.38541" lon="4.45957">
        <ele>997</ele>
        <time>2021-06-11T02:32:04Z</time>
      </trkpt>
      <trkpt lat="45.38536" lon="4.45928">
        <ele>997</ele>
        <time>2021-06-11T02:32:07Z</time>
      </trkpt>
      <trkpt lat="45.38535" lon="4.45904">
        <ele>996</ele>
        <time>2021-06-11T02:32:10Z</time>
      </trkpt>
      <trkpt lat="45.38538" lon="4.45869">
        <ele>995</ele>
        <time>2021-06-11T02:32:15Z</time>
      </trkpt>
      <trkpt lat="45.38563" lon="4.458">
        <ele>994</ele>
        <time>2021-06-11T02:32:24Z</time>
      </trkpt>
      <trkpt lat="45.38584" lon="4.45761">
        <ele>995</ele>
        <time>2021-06-11T02:32:31Z</time>
      </trkpt>
      <trkpt lat="45.386" lon="4.45701">
        <ele>989</ele>
        <time>2021-06-11T02:32:39Z</time>
      </trkpt>
      <trkpt lat="45.386" lon="4.45658">
        <ele>983</ele>
        <time>2021-06-11T02:32:44Z</time>
      </trkpt>
      <trkpt lat="45.38581" lon="4.45536">
        <ele>979</ele>
        <time>2021-06-11T02:33:00Z</time>
      </trkpt>
      <trkpt lat="45.38585" lon="4.45514">
        <ele>979</ele>
        <time>2021-06-11T02:33:02Z</time>
      </trkpt>
      <trkpt lat="45.38595" lon="4.45492">
        <ele>978</ele>
        <time>2021-06-11T02:33:06Z</time>
      </trkpt>
      <trkpt lat="45.38614" lon="4.45474">
        <ele>976</ele>
        <time>2021-06-11T02:33:10Z</time>
      </trkpt>
      <trkpt lat="45.38658" lon="4.45462">
        <ele>975</ele>
        <time>2021-06-11T02:33:18Z</time>
      </trkpt>
      <trkpt lat="45.38717" lon="4.45463">
        <ele>974</ele>
        <time>2021-06-11T02:33:28Z</time>
      </trkpt>
      <trkpt lat="45.38776" lon="4.45474">
        <ele>970</ele>
        <time>2021-06-11T02:33:39Z</time>
      </trkpt>
      <trkpt lat="45.38842" lon="4.4551">
        <ele>968</ele>
        <time>2021-06-11T02:33:51Z</time>
      </trkpt>
      <trkpt lat="45.38906" lon="4.45541">
        <ele>966</ele>
        <time>2021-06-11T02:34:03Z</time>
      </trkpt>
      <trkpt lat="45.38918" lon="4.4555">
        <ele>967</ele>
        <time>2021-06-11T02:34:06Z</time>
      </trkpt>
      <trkpt lat="45.38953" lon="4.45545">
        <ele>967</ele>
        <time>2021-06-11T02:34:12Z</time>
      </trkpt>
      <trkpt lat="45.39042" lon="4.45471">
        <ele>958</ele>
        <time>2021-06-11T02:34:30Z</time>
      </trkpt>
      <trkpt lat="45.39097" lon="4.45414">
        <ele>953</ele>
        <time>2021-06-11T02:34:43Z</time>
      </trkpt>
      <trkpt lat="45.39112" lon="4.45404">
        <ele>951</ele>
        <time>2021-06-11T02:34:46Z</time>
      </trkpt>
      <trkpt lat="45.39137" lon="4.45406">
        <ele>951</ele>
        <time>2021-06-11T02:34:50Z</time>
      </trkpt>
      <trkpt lat="45.39157" lon="4.45422">
        <ele>953</ele>
        <time>2021-06-11T02:34:54Z</time>
      </trkpt>
      <trkpt lat="45.39178" lon="4.4545">
        <ele>954</ele>
        <time>2021-06-11T02:34:59Z</time>
      </trkpt>
      <trkpt lat="45.39235" lon="4.45514">
        <ele>954</ele>
        <time>2021-06-11T02:35:12Z</time>
      </trkpt>
      <trkpt lat="45.3931" lon="4.45554">
        <ele>951</ele>
        <time>2021-06-11T02:35:26Z</time>
      </trkpt>
      <trkpt lat="45.39338" lon="4.45566">
        <ele>950</ele>
        <time>2021-06-11T02:35:32Z</time>
      </trkpt>
      <trkpt lat="45.3945" lon="4.45579">
        <ele>946</ele>
        <time>2021-06-11T02:35:52Z</time>
      </trkpt>
      <trkpt lat="45.39476" lon="4.45605">
        <ele>948</ele>
        <time>2021-06-11T02:35:57Z</time>
      </trkpt>
      <trkpt lat="45.39489" lon="4.45637">
        <ele>948</ele>
        <time>2021-06-11T02:36:02Z</time>
      </trkpt>
      <trkpt lat="45.39493" lon="4.45678">
        <ele>950</ele>
        <time>2021-06-11T02:36:07Z</time>
      </trkpt>
      <trkpt lat="45.39496" lon="4.45754">
        <ele>955</ele>
        <time>2021-06-11T02:36:16Z</time>
      </trkpt>
      <trkpt lat="45.39507" lon="4.45795">
        <ele>956</ele>
        <time>2021-06-11T02:36:22Z</time>
      </trkpt>
      <trkpt lat="45.39513" lon="4.45807">
        <ele>956</ele>
        <time>2021-06-11T02:36:24Z</time>
      </trkpt>
      <trkpt lat="45.39524" lon="4.45817">
        <ele>953</ele>
        <time>2021-06-11T02:36:26Z</time>
      </trkpt>
      <trkpt lat="45.39566" lon="4.4583">
        <ele>939</ele>
        <time>2021-06-11T02:36:34Z</time>
      </trkpt>
      <trkpt lat="45.39582" lon="4.45843">
        <ele>935</ele>
        <time>2021-06-11T02:36:37Z</time>
      </trkpt>
      <trkpt lat="45.39594" lon="4.45865">
        <ele>939</ele>
        <time>2021-06-11T02:36:41Z</time>
      </trkpt>
      <trkpt lat="45.39603" lon="4.45905">
        <ele>946</ele>
        <time>2021-06-11T02:36:46Z</time>
      </trkpt>
      <trkpt lat="45.3961" lon="4.45916">
        <ele>948</ele>
        <time>2021-06-11T02:36:48Z</time>
      </trkpt>
      <trkpt lat="45.39618" lon="4.45921">
        <ele>948</ele>
        <time>2021-06-11T02:36:49Z</time>
      </trkpt>
      <trkpt lat="45.39629" lon="4.45921">
        <ele>947</ele>
        <time>2021-06-11T02:36:51Z</time>
      </trkpt>
      <trkpt lat="45.39641" lon="4.45915">
        <ele>945</ele>
        <time>2021-06-11T02:36:53Z</time>
      </trkpt>
      <trkpt lat="45.39649" lon="4.45907">
        <ele>943</ele>
        <time>2021-06-11T02:36:55Z</time>
      </trkpt>
      <trkpt lat="45.39656" lon="4.45896">
        <ele>941</ele>
        <time>2021-06-11T02:36:57Z</time>
      </trkpt>
      <trkpt lat="45.39661" lon="4.45877">
        <ele>938</ele>
        <time>2021-06-11T02:37:00Z</time>
      </trkpt>
      <trkpt lat="45.39664" lon="4.45854">
        <ele>936</ele>
        <time>2021-06-11T02:37:02Z</time>
      </trkpt>
      <trkpt lat="45.39668" lon="4.45731">
        <ele>920</ele>
        <time>2021-06-11T02:37:18Z</time>
      </trkpt>
      <trkpt lat="45.39677" lon="4.45683">
        <ele>915</ele>
        <time>2021-06-11T02:37:24Z</time>
      </trkpt>
      <trkpt lat="45.39691" lon="4.45642">
        <ele>912</ele>
        <time>2021-06-11T02:37:30Z</time>
      </trkpt>
      <trkpt lat="45.39711" lon="4.45614">
        <ele>911</ele>
        <time>2021-06-11T02:37:35Z</time>
      </trkpt>
      <trkpt lat="45.39726" lon="4.456">
        <ele>911</ele>
        <time>2021-06-11T02:37:38Z</time>
      </trkpt>
      <trkpt lat="45.39739" lon="4.45595">
        <ele>913</ele>
        <time>2021-06-11T02:37:40Z</time>
      </trkpt>
      <trkpt lat="45.39774" lon="4.45592">
        <ele>921</ele>
        <time>2021-06-11T02:37:47Z</time>
      </trkpt>
      <trkpt lat="45.39784" lon="4.45583">
        <ele>922</ele>
        <time>2021-06-11T02:37:49Z</time>
      </trkpt>
      <trkpt lat="45.39794" lon="4.45567">
        <ele>923</ele>
        <time>2021-06-11T02:37:51Z</time>
      </trkpt>
      <trkpt lat="45.39799" lon="4.45547">
        <ele>921</ele>
        <time>2021-06-11T02:37:54Z</time>
      </trkpt>
      <trkpt lat="45.398" lon="4.45524">
        <ele>918</ele>
        <time>2021-06-11T02:37:57Z</time>
      </trkpt>
      <trkpt lat="45.39791" lon="4.45445">
        <ele>905</ele>
        <time>2021-06-11T02:38:07Z</time>
      </trkpt>
      <trkpt lat="45.39789" lon="4.454">
        <ele>898</ele>
        <time>2021-06-11T02:38:13Z</time>
      </trkpt>
      <trkpt lat="45.39795" lon="4.45362">
        <ele>895</ele>
        <time>2021-06-11T02:38:17Z</time>
      </trkpt>
      <trkpt lat="45.39815" lon="4.45308">
        <ele>896</ele>
        <time>2021-06-11T02:38:25Z</time>
      </trkpt>
      <trkpt lat="45.39823" lon="4.45268">
        <ele>893</ele>
        <time>2021-06-11T02:38:30Z</time>
      </trkpt>
      <trkpt lat="45.3982" lon="4.4522">
        <ele>884</ele>
        <time>2021-06-11T02:38:36Z</time>
      </trkpt>
      <trkpt lat="45.39823" lon="4.4518">
        <ele>881</ele>
        <time>2021-06-11T02:38:41Z</time>
      </trkpt>
      <trkpt lat="45.39832" lon="4.45147">
        <ele>878</ele>
        <time>2021-06-11T02:38:46Z</time>
      </trkpt>
      <trkpt lat="45.39852" lon="4.45116">
        <ele>873</ele>
        <time>2021-06-11T02:38:51Z</time>
      </trkpt>
      <trkpt lat="45.39877" lon="4.45098">
        <ele>870</ele>
        <time>2021-06-11T02:38:56Z</time>
      </trkpt>
      <trkpt lat="45.399" lon="4.45092">
        <ele>871</ele>
        <time>2021-06-11T02:39:00Z</time>
      </trkpt>
      <trkpt lat="45.39932" lon="4.45098">
        <ele>872</ele>
        <time>2021-06-11T02:39:06Z</time>
      </trkpt>
      <trkpt lat="45.40038" lon="4.45132">
        <ele>869</ele>
        <time>2021-06-11T02:39:25Z</time>
      </trkpt>
      <trkpt lat="45.4014" lon="4.45168">
        <ele>860</ele>
        <time>2021-06-11T02:39:44Z</time>
      </trkpt>
      <trkpt lat="45.40172" lon="4.45177">
        <ele>857</ele>
        <time>2021-06-11T02:39:50Z</time>
      </trkpt>
      <trkpt lat="45.40192" lon="4.45178">
        <ele>859</ele>
        <time>2021-06-11T02:39:53Z</time>
      </trkpt>
      <trkpt lat="45.40219" lon="4.45187">
        <ele>863</ele>
        <time>2021-06-11T02:39:58Z</time>
      </trkpt>
      <trkpt lat="45.40226" lon="4.45186">
        <ele>863</ele>
        <time>2021-06-11T02:39:59Z</time>
      </trkpt>
      <trkpt lat="45.40235" lon="4.45179">
        <ele>862</ele>
        <time>2021-06-11T02:40:01Z</time>
      </trkpt>
      <trkpt lat="45.4024" lon="4.45169">
        <ele>860</ele>
        <time>2021-06-11T02:40:03Z</time>
      </trkpt>
      <trkpt lat="45.40244" lon="4.45152">
        <ele>856</ele>
        <time>2021-06-11T02:40:05Z</time>
      </trkpt>
      <trkpt lat="45.4027" lon="4.44994">
        <ele>829</ele>
        <time>2021-06-11T02:40:25Z</time>
      </trkpt>
      <trkpt lat="45.4028" lon="4.44962">
        <ele>823</ele>
        <time>2021-06-11T02:40:30Z</time>
      </trkpt>
      <trkpt lat="45.40287" lon="4.44951">
        <ele>821</ele>
        <time>2021-06-11T02:40:31Z</time>
      </trkpt>
      <trkpt lat="45.40294" lon="4.44945">
        <ele>821</ele>
        <time>2021-06-11T02:40:33Z</time>
      </trkpt>
      <trkpt lat="45.40305" lon="4.4494">
        <ele>821</ele>
        <time>2021-06-11T02:40:35Z</time>
      </trkpt>
      <trkpt lat="45.40317" lon="4.44938">
        <ele>822</ele>
        <time>2021-06-11T02:40:37Z</time>
      </trkpt>
      <trkpt lat="45.4033" lon="4.44941">
        <ele>825</ele>
        <time>2021-06-11T02:40:39Z</time>
      </trkpt>
      <trkpt lat="45.4036" lon="4.44956">
        <ele>832</ele>
        <time>2021-06-11T02:40:45Z</time>
      </trkpt>
      <trkpt lat="45.40381" lon="4.44959">
        <ele>833</ele>
        <time>2021-06-11T02:40:49Z</time>
      </trkpt>
      <trkpt lat="45.40397" lon="4.44957">
        <ele>832</ele>
        <time>2021-06-11T02:40:52Z</time>
      </trkpt>
      <trkpt lat="45.40421" lon="4.44933">
        <ele>824</ele>
        <time>2021-06-11T02:40:57Z</time>
      </trkpt>
      <trkpt lat="45.4044" lon="4.44899">
        <ele>815</ele>
        <time>2021-06-11T02:41:02Z</time>
      </trkpt>
      <trkpt lat="45.40454" lon="4.44886">
        <ele>814</ele>
        <time>2021-06-11T02:41:05Z</time>
      </trkpt>
      <trkpt lat="45.4049" lon="4.44866">
        <ele>814</ele>
        <time>2021-06-11T02:41:12Z</time>
      </trkpt>
      <trkpt lat="45.40587" lon="4.44794">
        <ele>802</ele>
        <time>2021-06-11T02:41:32Z</time>
      </trkpt>
      <trkpt lat="45.40603" lon="4.44792">
        <ele>801</ele>
        <time>2021-06-11T02:41:35Z</time>
      </trkpt>
      <trkpt lat="45.40674" lon="4.44803">
        <ele>803</ele>
        <time>2021-06-11T02:41:47Z</time>
      </trkpt>
      <trkpt lat="45.40741" lon="4.4481">
        <ele>804</ele>
        <time>2021-06-11T02:41:59Z</time>
      </trkpt>
      <trkpt lat="45.40757" lon="4.44807">
        <ele>803</ele>
        <time>2021-06-11T02:42:02Z</time>
      </trkpt>
      <trkpt lat="45.40772" lon="4.44793">
        <ele>801</ele>
        <time>2021-06-11T02:42:05Z</time>
      </trkpt>
      <trkpt lat="45.4079" lon="4.44765">
        <ele>796</ele>
        <time>2021-06-11T02:42:10Z</time>
      </trkpt>
      <trkpt lat="45.40806" lon="4.44738">
        <ele>792</ele>
        <time>2021-06-11T02:42:14Z</time>
      </trkpt>
      <trkpt lat="45.40827" lon="4.4469">
        <ele>784</ele>
        <time>2021-06-11T02:42:22Z</time>
      </trkpt>
      <trkpt lat="45.40851" lon="4.44671">
        <ele>781</ele>
        <time>2021-06-11T02:42:26Z</time>
      </trkpt>
      <trkpt lat="45.4092" lon="4.44645">
        <ele>776</ele>
        <time>2021-06-11T02:42:39Z</time>
      </trkpt>
      <trkpt lat="45.41022" lon="4.4459">
        <ele>768</ele>
        <time>2021-06-11T02:42:59Z</time>
      </trkpt>
      <trkpt lat="45.41032" lon="4.44578">
        <ele>766</ele>
        <time>2021-06-11T02:43:01Z</time>
      </trkpt>
      <trkpt lat="45.41066" lon="4.44525">
        <ele>760</ele>
        <time>2021-06-11T02:43:10Z</time>
      </trkpt>
      <trkpt lat="45.41116" lon="4.44475">
        <ele>761</ele>
        <time>2021-06-11T02:43:21Z</time>
      </trkpt>
      <trkpt lat="45.41129" lon="4.44458">
        <ele>761</ele>
        <time>2021-06-11T02:43:24Z</time>
      </trkpt>
      <trkpt lat="45.41137" lon="4.44443">
        <ele>762</ele>
        <time>2021-06-11T02:43:26Z</time>
      </trkpt>
      <trkpt lat="45.41151" lon="4.44399">
        <ele>761</ele>
        <time>2021-06-11T02:43:32Z</time>
      </trkpt>
      <trkpt lat="45.41163" lon="4.44337">
        <ele>758</ele>
        <time>2021-06-11T02:43:40Z</time>
      </trkpt>
      <trkpt lat="45.41178" lon="4.44229">
        <ele>754</ele>
        <time>2021-06-11T02:43:54Z</time>
      </trkpt>
      <trkpt lat="45.41176" lon="4.44198">
        <ele>756</ele>
        <time>2021-06-11T02:43:58Z</time>
      </trkpt>
      <trkpt lat="45.41169" lon="4.44157">
        <ele>755</ele>
        <time>2021-06-11T02:44:03Z</time>
      </trkpt>
      <trkpt lat="45.41162" lon="4.44137">
        <ele>754</ele>
        <time>2021-06-11T02:44:06Z</time>
      </trkpt>
      <trkpt lat="45.41147" lon="4.44107">
        <ele>750</ele>
        <time>2021-06-11T02:44:11Z</time>
      </trkpt>
      <trkpt lat="45.41124" lon="4.4407">
        <ele>747</ele>
        <time>2021-06-11T02:44:17Z</time>
      </trkpt>
      <trkpt lat="45.41103" lon="4.44006">
        <ele>754</ele>
        <time>2021-06-11T02:44:26Z</time>
      </trkpt>
      <trkpt lat="45.41091" lon="4.4399">
        <ele>751</ele>
        <time>2021-06-11T02:44:28Z</time>
      </trkpt>
      <trkpt lat="45.41066" lon="4.43973">
        <ele>740</ele>
        <time>2021-06-11T02:44:33Z</time>
      </trkpt>
      <trkpt lat="45.41059" lon="4.43959">
        <ele>737</ele>
        <time>2021-06-11T02:44:36Z</time>
      </trkpt>
      <trkpt lat="45.41055" lon="4.43944">
        <ele>736</ele>
        <time>2021-06-11T02:44:38Z</time>
      </trkpt>
      <trkpt lat="45.41057" lon="4.43921">
        <ele>737</ele>
        <time>2021-06-11T02:44:40Z</time>
      </trkpt>
      <trkpt lat="45.41071" lon="4.43882">
        <ele>736</ele>
        <time>2021-06-11T02:44:46Z</time>
      </trkpt>
      <trkpt lat="45.41102" lon="4.43813">
        <ele>735</ele>
        <time>2021-06-11T02:44:56Z</time>
      </trkpt>
      <trkpt lat="45.41125" lon="4.43747">
        <ele>737</ele>
        <time>2021-06-11T02:45:05Z</time>
      </trkpt>
      <trkpt lat="45.41127" lon="4.43729">
        <ele>739</ele>
        <time>2021-06-11T02:45:08Z</time>
      </trkpt>
      <trkpt lat="45.41126" lon="4.43714">
        <ele>739</ele>
        <time>2021-06-11T02:45:10Z</time>
      </trkpt>
      <trkpt lat="45.41121" lon="4.43695">
        <ele>737</ele>
        <time>2021-06-11T02:45:12Z</time>
      </trkpt>
      <trkpt lat="45.41103" lon="4.43661">
        <ele>730</ele>
        <time>2021-06-11T02:45:17Z</time>
      </trkpt>
      <trkpt lat="45.41082" lon="4.43595">
        <ele>729</ele>
        <time>2021-06-11T02:45:26Z</time>
      </trkpt>
      <trkpt lat="45.41051" lon="4.43536">
        <ele>720</ele>
        <time>2021-06-11T02:45:36Z</time>
      </trkpt>
      <trkpt lat="45.41046" lon="4.43517">
        <ele>720</ele>
        <time>2021-06-11T02:45:38Z</time>
      </trkpt>
      <trkpt lat="45.41049" lon="4.43491">
        <ele>721</ele>
        <time>2021-06-11T02:45:41Z</time>
      </trkpt>
      <trkpt lat="45.41093" lon="4.43391">
        <ele>722</ele>
        <time>2021-06-11T02:45:56Z</time>
      </trkpt>
      <trkpt lat="45.411" lon="4.43367">
        <ele>722</ele>
        <time>2021-06-11T02:45:59Z</time>
      </trkpt>
      <trkpt lat="45.41108" lon="4.43309">
        <ele>721</ele>
        <time>2021-06-11T02:46:07Z</time>
      </trkpt>
      <trkpt lat="45.41104" lon="4.43263">
        <ele>719</ele>
        <time>2021-06-11T02:46:13Z</time>
      </trkpt>
      <trkpt lat="45.41084" lon="4.43154">
        <ele>710</ele>
        <time>2021-06-11T02:46:27Z</time>
      </trkpt>
      <trkpt lat="45.41081" lon="4.43111">
        <ele>710</ele>
        <time>2021-06-11T02:46:32Z</time>
      </trkpt>
      <trkpt lat="45.41083" lon="4.43053">
        <ele>711</ele>
        <time>2021-06-11T02:46:39Z</time>
      </trkpt>
      <trkpt lat="45.41081" lon="4.43021">
        <ele>710</ele>
        <time>2021-06-11T02:46:43Z</time>
      </trkpt>
      <trkpt lat="45.4105" lon="4.42836">
        <ele>704</ele>
        <time>2021-06-11T02:47:07Z</time>
      </trkpt>
      <trkpt lat="45.41029" lon="4.42737">
        <ele>705</ele>
        <time>2021-06-11T02:47:20Z</time>
      </trkpt>
      <trkpt lat="45.41019" lon="4.42702">
        <ele>704</ele>
        <time>2021-06-11T02:47:25Z</time>
      </trkpt>
      <trkpt lat="45.40985" lon="4.42622">
        <ele>698</ele>
        <time>2021-06-11T02:47:36Z</time>
      </trkpt>
      <trkpt lat="45.40969" lon="4.4255">
        <ele>700</ele>
        <time>2021-06-11T02:47:46Z</time>
      </trkpt>
      <trkpt lat="45.40955" lon="4.42524">
        <ele>698</ele>
        <time>2021-06-11T02:47:50Z</time>
      </trkpt>
      <trkpt lat="45.40922" lon="4.42494">
        <ele>689</ele>
        <time>2021-06-11T02:47:57Z</time>
      </trkpt>
      <trkpt lat="45.40913" lon="4.42481">
        <ele>686</ele>
        <time>2021-06-11T02:47:59Z</time>
      </trkpt>
      <trkpt lat="45.40905" lon="4.42461">
        <ele>684</ele>
        <time>2021-06-11T02:48:02Z</time>
      </trkpt>
      <trkpt lat="45.40902" lon="4.42441">
        <ele>684</ele>
        <time>2021-06-11T02:48:05Z</time>
      </trkpt>
      <trkpt lat="45.409" lon="4.4221">
        <ele>686</ele>
        <time>2021-06-11T02:48:33Z</time>
      </trkpt>
      <trkpt lat="45.40894" lon="4.42167">
        <ele>684</ele>
        <time>2021-06-11T02:48:39Z</time>
      </trkpt>
      <trkpt lat="45.40853" lon="4.4204">
        <ele>676</ele>
        <time>2021-06-11T02:48:56Z</time>
      </trkpt>
      <trkpt lat="45.4085" lon="4.42015">
        <ele>676</ele>
        <time>2021-06-11T02:49:00Z</time>
      </trkpt>
      <trkpt lat="45.40855" lon="4.41923">
        <ele>672</ele>
        <time>2021-06-11T02:49:11Z</time>
      </trkpt>
      <trkpt lat="45.40859" lon="4.41902">
        <ele>671</ele>
        <time>2021-06-11T02:49:14Z</time>
      </trkpt>
      <trkpt lat="45.40891" lon="4.41795">
        <ele>674</ele>
        <time>2021-06-11T02:49:28Z</time>
      </trkpt>
      <trkpt lat="45.40893" lon="4.41777">
        <ele>672</ele>
        <time>2021-06-11T02:49:31Z</time>
      </trkpt>
      <trkpt lat="45.40894" lon="4.4176">
        <ele>670</ele>
        <time>2021-06-11T02:49:33Z</time>
      </trkpt>
      <trkpt lat="45.40885" lon="4.41692">
        <ele>662</ele>
        <time>2021-06-11T02:49:41Z</time>
      </trkpt>
      <trkpt lat="45.40885" lon="4.41659">
        <ele>660</ele>
        <time>2021-06-11T02:49:46Z</time>
      </trkpt>
      <trkpt lat="45.40889" lon="4.41637">
        <ele>659</ele>
        <time>2021-06-11T02:49:48Z</time>
      </trkpt>
      <trkpt lat="45.40902" lon="4.4159">
        <ele>660</ele>
        <time>2021-06-11T02:49:55Z</time>
      </trkpt>
      <trkpt lat="45.40928" lon="4.41539">
        <ele>658</ele>
        <time>2021-06-11T02:50:03Z</time>
      </trkpt>
      <trkpt lat="45.40984" lon="4.41451">
        <ele>658</ele>
        <time>2021-06-11T02:50:17Z</time>
      </trkpt>
      <trkpt lat="45.41022" lon="4.41353">
        <ele>655</ele>
        <time>2021-06-11T02:50:31Z</time>
      </trkpt>
      <trkpt lat="45.41032" lon="4.4131">
        <ele>654</ele>
        <time>2021-06-11T02:50:37Z</time>
      </trkpt>
      <trkpt lat="45.41035" lon="4.41227">
        <ele>645</ele>
        <time>2021-06-11T02:50:47Z</time>
      </trkpt>
      <trkpt lat="45.41039" lon="4.41199">
        <ele>643</ele>
        <time>2021-06-11T02:50:51Z</time>
      </trkpt>
      <trkpt lat="45.41045" lon="4.41171">
        <ele>641</ele>
        <time>2021-06-11T02:50:55Z</time>
      </trkpt>
      <trkpt lat="45.41058" lon="4.41145">
        <ele>641</ele>
        <time>2021-06-11T02:50:59Z</time>
      </trkpt>
      <trkpt lat="45.41074" lon="4.41123">
        <ele>642</ele>
        <time>2021-06-11T02:51:03Z</time>
      </trkpt>
      <trkpt lat="45.41138" lon="4.41053">
        <ele>637</ele>
        <time>2021-06-11T02:51:17Z</time>
      </trkpt>
      <trkpt lat="45.41199" lon="4.40999">
        <ele>636</ele>
        <time>2021-06-11T02:51:30Z</time>
      </trkpt>
      <trkpt lat="45.41243" lon="4.40967">
        <ele>637</ele>
        <time>2021-06-11T02:51:39Z</time>
      </trkpt>
      <trkpt lat="45.41294" lon="4.40901">
        <ele>627</ele>
        <time>2021-06-11T02:51:51Z</time>
      </trkpt>
      <trkpt lat="45.41306" lon="4.40891">
        <ele>626</ele>
        <time>2021-06-11T02:51:53Z</time>
      </trkpt>
      <trkpt lat="45.41321" lon="4.40886">
        <ele>628</ele>
        <time>2021-06-11T02:51:56Z</time>
      </trkpt>
      <trkpt lat="45.41333" lon="4.40886">
        <ele>630</ele>
        <time>2021-06-11T02:51:58Z</time>
      </trkpt>
      <trkpt lat="45.41346" lon="4.4089">
        <ele>628</ele>
        <time>2021-06-11T02:52:00Z</time>
      </trkpt>
      <trkpt lat="45.41381" lon="4.40915">
        <ele>626</ele>
        <time>2021-06-11T02:52:07Z</time>
      </trkpt>
      <trkpt lat="45.4143" lon="4.41002">
        <ele>635</ele>
        <time>2021-06-11T02:52:21Z</time>
      </trkpt>
      <trkpt lat="45.41448" lon="4.41017">
        <ele>633</ele>
        <time>2021-06-11T02:52:25Z</time>
      </trkpt>
      <trkpt lat="45.41473" lon="4.41033">
        <ele>629</ele>
        <time>2021-06-11T02:52:30Z</time>
      </trkpt>
      <trkpt lat="45.41521" lon="4.41062">
        <ele>625</ele>
        <time>2021-06-11T02:52:39Z</time>
      </trkpt>
      <trkpt lat="45.41543" lon="4.41072">
        <ele>623</ele>
        <time>2021-06-11T02:52:43Z</time>
      </trkpt>
      <trkpt lat="45.41573" lon="4.41078">
        <ele>620</ele>
        <time>2021-06-11T02:52:49Z</time>
      </trkpt>
      <trkpt lat="45.41591" lon="4.41077">
        <ele>618</ele>
        <time>2021-06-11T02:52:52Z</time>
      </trkpt>
      <trkpt lat="45.4161" lon="4.4108">
        <ele>617</ele>
        <time>2021-06-11T02:52:55Z</time>
      </trkpt>
      <trkpt lat="45.41629" lon="4.41088">
        <ele>616</ele>
        <time>2021-06-11T02:52:59Z</time>
      </trkpt>
      <trkpt lat="45.41718" lon="4.41116">
        <ele>609</ele>
        <time>2021-06-11T02:53:15Z</time>
      </trkpt>
      <trkpt lat="45.41756" lon="4.41123">
        <ele>605</ele>
        <time>2021-06-11T02:53:22Z</time>
      </trkpt>
      <trkpt lat="45.41766" lon="4.41129">
        <ele>604</ele>
        <time>2021-06-11T02:53:24Z</time>
      </trkpt>
      <trkpt lat="45.41776" lon="4.41128">
        <ele>603</ele>
        <time>2021-06-11T02:53:26Z</time>
      </trkpt>
      <trkpt lat="45.4201" lon="4.41157">
        <ele>582</ele>
        <time>2021-06-11T02:54:07Z</time>
      </trkpt>
      <trkpt lat="45.42023" lon="4.41165">
        <ele>581</ele>
        <time>2021-06-11T02:54:10Z</time>
      </trkpt>
      <trkpt lat="45.42033" lon="4.41193">
        <ele>580</ele>
        <time>2021-06-11T02:54:14Z</time>
      </trkpt>
      <trkpt lat="45.4205" lon="4.41212">
        <ele>580</ele>
        <time>2021-06-11T02:54:18Z</time>
      </trkpt>
      <trkpt lat="45.4206" lon="4.41216">
        <ele>579</ele>
        <time>2021-06-11T02:54:20Z</time>
      </trkpt>
      <trkpt lat="45.42076" lon="4.41217">
        <ele>579</ele>
        <time>2021-06-11T02:54:22Z</time>
      </trkpt>
      <trkpt lat="45.42084" lon="4.41215">
        <ele>578</ele>
        <time>2021-06-11T02:54:24Z</time>
      </trkpt>
      <trkpt lat="45.42099" lon="4.41205">
        <ele>578</ele>
        <time>2021-06-11T02:54:27Z</time>
      </trkpt>
      <trkpt lat="45.4211" lon="4.4119">
        <ele>578</ele>
        <time>2021-06-11T02:54:30Z</time>
      </trkpt>
      <trkpt lat="45.42119" lon="4.41165">
        <ele>577</ele>
        <time>2021-06-11T02:54:33Z</time>
      </trkpt>
      <trkpt lat="45.42121" lon="4.41152">
        <ele>578</ele>
        <time>2021-06-11T02:54:35Z</time>
      </trkpt>
      <trkpt lat="45.42116" lon="4.41118">
        <ele>578</ele>
        <time>2021-06-11T02:54:39Z</time>
      </trkpt>
      <trkpt lat="45.42132" lon="4.41075">
        <ele>579</ele>
        <time>2021-06-11T02:54:45Z</time>
      </trkpt>
      <trkpt lat="45.42139" lon="4.41068">
        <ele>579</ele>
        <time>2021-06-11T02:54:47Z</time>
      </trkpt>
      <trkpt lat="45.42153" lon="4.41074">
        <ele>579</ele>
        <time>2021-06-11T02:54:49Z</time>
      </trkpt>
      <trkpt lat="45.42341" lon="4.40861">
        <ele>570</ele>
        <time>2021-06-11T02:55:32Z</time>
      </trkpt>
      <trkpt lat="45.42388" lon="4.40813">
        <ele>570</ele>
        <time>2021-06-11T02:55:42Z</time>
      </trkpt>
      <trkpt lat="45.4258" lon="4.40597">
        <ele>569</ele>
        <time>2021-06-11T02:56:26Z</time>
      </trkpt>
      <trkpt lat="45.42613" lon="4.4055">
        <ele>568</ele>
        <time>2021-06-11T02:56:34Z</time>
      </trkpt>
      <trkpt lat="45.42653" lon="4.40477">
        <ele>564</ele>
        <time>2021-06-11T02:56:46Z</time>
      </trkpt>
      <trkpt lat="45.4267" lon="4.40434">
        <ele>562</ele>
        <time>2021-06-11T02:56:52Z</time>
      </trkpt>
      <trkpt lat="45.42768" lon="4.4009">
        <ele>560</ele>
        <time>2021-06-11T02:57:38Z</time>
      </trkpt>
      <trkpt lat="45.42822" lon="4.3994">
        <ele>556</ele>
        <time>2021-06-11T02:57:59Z</time>
      </trkpt>
      <trkpt lat="45.42864" lon="4.39848">
        <ele>554</ele>
        <time>2021-06-11T02:58:13Z</time>
      </trkpt>
      <trkpt lat="45.42886" lon="4.39807">
        <ele>554</ele>
        <time>2021-06-11T02:58:19Z</time>
      </trkpt>
      <trkpt lat="45.42926" lon="4.39748">
        <ele>553</ele>
        <time>2021-06-11T02:58:30Z</time>
      </trkpt>
      <trkpt lat="45.42947" lon="4.39722">
        <ele>552</ele>
        <time>2021-06-11T02:58:35Z</time>
      </trkpt>
      <trkpt lat="45.43027" lon="4.3965">
        <ele>548</ele>
        <time>2021-06-11T02:58:51Z</time>
      </trkpt>
      <trkpt lat="45.43036" lon="4.39646">
        <ele>547</ele>
        <time>2021-06-11T02:58:53Z</time>
      </trkpt>
      <trkpt lat="45.43039" lon="4.39652">
        <ele>548</ele>
        <time>2021-06-11T02:58:54Z</time>
      </trkpt>
      <trkpt lat="45.43166" lon="4.39542">
        <ele>544</ele>
        <time>2021-06-11T02:59:20Z</time>
      </trkpt>
      <trkpt lat="45.43177" lon="4.39541">
        <ele>544</ele>
        <time>2021-06-11T02:59:22Z</time>
      </trkpt>
      <trkpt lat="45.43162" lon="4.3952">
        <ele>543</ele>
        <time>2021-06-11T02:59:26Z</time>
      </trkpt>
      <trkpt lat="45.43154" lon="4.39526">
        <ele>543</ele>
        <time>2021-06-11T02:59:28Z</time>
      </trkpt>
      <trkpt lat="45.43162" lon="4.3952">
        <ele>543</ele>
        <time>2021-06-11T02:59:29Z</time>
      </trkpt>
      <trkpt lat="45.43177" lon="4.39541">
        <ele>544</ele>
        <time>2021-06-11T02:59:33Z</time>
      </trkpt>
      <trkpt lat="45.43213" lon="4.3957">
        <ele>544</ele>
        <time>2021-06-11T02:59:40Z</time>
      </trkpt>
      <trkpt lat="45.43237" lon="4.39576">
        <ele>544</ele>
        <time>2021-06-11T02:59:45Z</time>
      </trkpt>
      <trkpt lat="45.43441" lon="4.39504">
        <ele>539</ele>
        <time>2021-06-11T03:00:22Z</time>
      </trkpt>
      <trkpt lat="45.43535" lon="4.39466">
        <ele>538</ele>
        <time>2021-06-11T03:00:40Z</time>
      </trkpt>
      <trkpt lat="45.43593" lon="4.39457">
        <ele>534</ele>
        <time>2021-06-11T03:00:50Z</time>
      </trkpt>
      <trkpt lat="45.43621" lon="4.39446">
        <ele>532</ele>
        <time>2021-06-11T03:00:55Z</time>
      </trkpt>
      <trkpt lat="45.43735" lon="4.39303">
        <ele>532</ele>
        <time>2021-06-11T03:01:22Z</time>
      </trkpt>
      <trkpt lat="45.43821" lon="4.39183">
        <ele>530</ele>
        <time>2021-06-11T03:01:44Z</time>
      </trkpt>
      <trkpt lat="45.43895" lon="4.39154">
        <ele>529</ele>
        <time>2021-06-11T03:01:57Z</time>
      </trkpt>
      <trkpt lat="45.43846" lon="4.38807">
        <ele>525</ele>
        <time>2021-06-11T03:02:41Z</time>
      </trkpt>
      <trkpt lat="45.44079" lon="4.38753">
        <ele>521</ele>
        <time>2021-06-11T03:03:23Z</time>
      </trkpt>
      <trkpt lat="45.44721" lon="4.38568">
        <ele>507</ele>
        <time>2021-06-11T03:05:20Z</time>
      </trkpt>
      <trkpt lat="45.44885" lon="4.39109">
        <ele>496</ele>
        <time>2021-06-11T03:06:34Z</time>
      </trkpt>
      <trkpt lat="45.45033" lon="4.38991">
        <ele>499</ele>
        <time>2021-06-11T03:07:04Z</time>
      </trkpt>
      <trkpt lat="45.45545" lon="4.38755">
        <ele>497</ele>
        <time>2021-06-11T03:08:39Z</time>
      </trkpt>
      <trkpt lat="45.45558" lon="4.3878">
        <ele>496</ele>
        <time>2021-06-11T03:08:43Z</time>
      </trkpt>
      <trkpt lat="45.45802" lon="4.38868">
        <ele>493</ele>
        <time>2021-06-11T03:09:28Z</time>
      </trkpt>
      <trkpt lat="45.45814" lon="4.38877">
        <ele>493</ele>
        <time>2021-06-11T03:09:30Z</time>
      </trkpt>
      <trkpt lat="45.45948" lon="4.38874">
        <ele>491</ele>
        <time>2021-06-11T03:09:54Z</time>
      </trkpt>
      <trkpt lat="45.4597" lon="4.3887">
        <ele>491</ele>
        <time>2021-06-11T03:09:58Z</time>
      </trkpt>
      <trkpt lat="45.46071" lon="4.38833">
        <ele>487</ele>
        <time>2021-06-11T03:10:17Z</time>
      </trkpt>
      <trkpt lat="45.46123" lon="4.38841">
        <ele>488</ele>
        <time>2021-06-11T03:10:26Z</time>
      </trkpt>
      <trkpt lat="45.46162" lon="4.38868">
        <ele>488</ele>
        <time>2021-06-11T03:10:34Z</time>
      </trkpt>
    </trkseg>
  </trk>
</gpx>